<?xml version='1.0' encoding='UTF-8'?><gpx version="1.1" creator="JPX - https://github.com/jenetics/jpx" xmlns="http://www.topografix.com/GPX/1/1"><trk><trkseg><trkpt lat="44.9819467" lon="9.730045"><ele>81.0</ele><time>2026-04-26T14:39:29.044Z</time></trkpt><trkpt lat="44.9820167" lon="9.7300483"><ele>81.0</ele><time>2026-04-26T14:39:31.044Z</time></trkpt><trkpt lat="44.9820983" lon="9.7299767"><ele>81.0</ele><time>2026-04-26T14:39:39.044Z</time></trkpt><trkpt lat="44.9821267" lon="9.7298833"><ele>81.0</ele><time>2026-04-26T14:39:40.042Z</time></trkpt><trkpt lat="44.982145" lon="9.7297767"><ele>81.0</ele><time>2026-04-26T14:39:41.042Z</time></trkpt><trkpt lat="44.9821567" lon="9.7296567"><ele>81.0</ele><time>2026-04-26T14:39:42.043Z</time></trkpt><trkpt lat="44.9821717" lon="9.729535"><ele>81.0</ele><time>2026-04-26T14:39:43.043Z</time></trkpt><trkpt lat="44.9821883" lon="9.7294067"><ele>81.0</ele><time>2026-04-26T14:39:44.042Z</time></trkpt><trkpt lat="44.9822033" lon="9.7292683"><ele>81.0</ele><time>2026-04-26T14:39:45.043Z</time></trkpt><trkpt lat="44.98222" lon="9.7291217"><ele>81.0</ele><time>2026-04-26T14:39:46.042Z</time></trkpt><trkpt lat="44.9822383" lon="9.7289667"><ele>81.0</ele><time>2026-04-26T14:39:47.043Z</time></trkpt><trkpt lat="44.98226" lon="9.7288033"><ele>81.75</ele><time>2026-04-26T14:39:48.043Z</time></trkpt><trkpt lat="44.9822817" lon="9.72863"><ele>82.5</ele><time>2026-04-26T14:39:49.042Z</time></trkpt><trkpt lat="44.9823067" lon="9.7284433"><ele>83.25</ele><time>2026-04-26T14:39:50.043Z</time></trkpt><trkpt lat="44.9823317" lon="9.7282433"><ele>84.0</ele><time>2026-04-26T14:39:51.043Z</time></trkpt><trkpt lat="44.9823583" lon="9.7280317"><ele>84.33333333333333</ele><time>2026-04-26T14:39:52.043Z</time></trkpt><trkpt lat="44.9823867" lon="9.72781"><ele>84.66666666666666</ele><time>2026-04-26T14:39:53.042Z</time></trkpt><trkpt lat="44.9824133" lon="9.7275783"><ele>85.0</ele><time>2026-04-26T14:39:54.044Z</time></trkpt><trkpt lat="44.9824417" lon="9.72734"><ele>85.0</ele><time>2026-04-26T14:39:55.042Z</time></trkpt><trkpt lat="44.9824717" lon="9.7270933"><ele>85.0</ele><time>2026-04-26T14:39:56.043Z</time></trkpt><trkpt lat="44.9825017" lon="9.7268417"><ele>85.0</ele><time>2026-04-26T14:39:57.043Z</time></trkpt><trkpt lat="44.9825333" lon="9.726585"><ele>85.0</ele><time>2026-04-26T14:39:58.043Z</time></trkpt><trkpt lat="44.982565" lon="9.7263283"><ele>85.0</ele><time>2026-04-26T14:39:59.043Z</time></trkpt><trkpt lat="44.9825967" lon="9.7260767"><ele>85.0</ele><time>2026-04-26T14:40:00.042Z</time></trkpt><trkpt lat="44.9826283" lon="9.7258233"><ele>85.0</ele><time>2026-04-26T14:40:01.044Z</time></trkpt><trkpt lat="44.98266" lon="9.7255683"><ele>85.0</ele><time>2026-04-26T14:40:02.043Z</time></trkpt><trkpt lat="44.98269" lon="9.7253133"><ele>85.0</ele><time>2026-04-26T14:40:03.043Z</time></trkpt><trkpt lat="44.98272" lon="9.7250567"><ele>85.0</ele><time>2026-04-26T14:40:04.044Z</time></trkpt><trkpt lat="44.9827483" lon="9.7248"><ele>85.0</ele><time>2026-04-26T14:40:05.042Z</time></trkpt><trkpt lat="44.9827783" lon="9.7245467"><ele>85.0</ele><time>2026-04-26T14:40:06.044Z</time></trkpt><trkpt lat="44.9828083" lon="9.7243017"><ele>85.0</ele><time>2026-04-26T14:40:07.042Z</time></trkpt><trkpt lat="44.982835" lon="9.7240583"><ele>85.0</ele><time>2026-04-26T14:40:08.042Z</time></trkpt><trkpt lat="44.9828617" lon="9.723825"><ele>85.0</ele><time>2026-04-26T14:40:09.043Z</time></trkpt><trkpt lat="44.98289" lon="9.7236"><ele>85.0</ele><time>2026-04-26T14:40:10.042Z</time></trkpt><trkpt lat="44.9829183" lon="9.7233817"><ele>85.0</ele><time>2026-04-26T14:40:11.043Z</time></trkpt><trkpt lat="44.9829467" lon="9.723165"><ele>85.0</ele><time>2026-04-26T14:40:12.043Z</time></trkpt><trkpt lat="44.9829733" lon="9.7229533"><ele>85.0</ele><time>2026-04-26T14:40:13.043Z</time></trkpt><trkpt lat="44.9829983" lon="9.7227467"><ele>85.0</ele><time>2026-04-26T14:40:14.044Z</time></trkpt><trkpt lat="44.9830217" lon="9.7225467"><ele>85.0</ele><time>2026-04-26T14:40:15.045Z</time></trkpt><trkpt lat="44.983045" lon="9.7223533"><ele>85.0</ele><time>2026-04-26T14:40:16.042Z</time></trkpt><trkpt lat="44.9830667" lon="9.7221667"><ele>85.25</ele><time>2026-04-26T14:40:17.044Z</time></trkpt><trkpt lat="44.98309" lon="9.72198"><ele>85.5</ele><time>2026-04-26T14:40:18.042Z</time></trkpt><trkpt lat="44.9831167" lon="9.7217817"><ele>85.75</ele><time>2026-04-26T14:40:19.043Z</time></trkpt><trkpt lat="44.9831433" lon="9.7215733"><ele>86.0</ele><time>2026-04-26T14:40:20.042Z</time></trkpt><trkpt lat="44.9831733" lon="9.7213567"><ele>86.33333333333334</ele><time>2026-04-26T14:40:21.042Z</time></trkpt><trkpt lat="44.9832033" lon="9.7211283"><ele>86.66666666666667</ele><time>2026-04-26T14:40:22.042Z</time></trkpt><trkpt lat="44.9832333" lon="9.7208917"><ele>87.0</ele><time>2026-04-26T14:40:23.042Z</time></trkpt><trkpt lat="44.98326" lon="9.7206483"><ele>86.33333333333333</ele><time>2026-04-26T14:40:24.043Z</time></trkpt><trkpt lat="44.98329" lon="9.7203967"><ele>85.66666666666666</ele><time>2026-04-26T14:40:25.044Z</time></trkpt><trkpt lat="44.9833233" lon="9.7201383"><ele>85.0</ele><time>2026-04-26T14:40:26.043Z</time></trkpt><trkpt lat="44.9833567" lon="9.7198733"><ele>84.33333333333333</ele><time>2026-04-26T14:40:27.044Z</time></trkpt><trkpt lat="44.9833917" lon="9.719605"><ele>83.66666666666667</ele><time>2026-04-26T14:40:28.044Z</time></trkpt><trkpt lat="44.983425" lon="9.7193367"><ele>83.0</ele><time>2026-04-26T14:40:29.044Z</time></trkpt><trkpt lat="44.9834583" lon="9.7190633"><ele>82.33333333333334</ele><time>2026-04-26T14:40:30.045Z</time></trkpt><trkpt lat="44.9834917" lon="9.7187867"><ele>81.66666666666667</ele><time>2026-04-26T14:40:31.044Z</time></trkpt><trkpt lat="44.9835267" lon="9.7185133"><ele>81.0</ele><time>2026-04-26T14:40:32.043Z</time></trkpt><trkpt lat="44.98356" lon="9.7182367"><ele>81.0</ele><time>2026-04-26T14:40:33.043Z</time></trkpt><trkpt lat="44.9835933" lon="9.71796"><ele>81.0</ele><time>2026-04-26T14:40:34.042Z</time></trkpt><trkpt lat="44.9836283" lon="9.7176833"><ele>81.0</ele><time>2026-04-26T14:40:35.042Z</time></trkpt><trkpt lat="44.9836617" lon="9.7174083"><ele>81.0</ele><time>2026-04-26T14:40:36.043Z</time></trkpt><trkpt lat="44.9836967" lon="9.7171317"><ele>81.0</ele><time>2026-04-26T14:40:37.042Z</time></trkpt><trkpt lat="44.9837317" lon="9.7168567"><ele>81.0</ele><time>2026-04-26T14:40:38.045Z</time></trkpt><trkpt lat="44.9837683" lon="9.71658"><ele>81.66666666666667</ele><time>2026-04-26T14:40:39.043Z</time></trkpt><trkpt lat="44.9838033" lon="9.7163067"><ele>82.33333333333334</ele><time>2026-04-26T14:40:40.043Z</time></trkpt><trkpt lat="44.9838383" lon="9.716035"><ele>83.0</ele><time>2026-04-26T14:40:41.045Z</time></trkpt><trkpt lat="44.9838717" lon="9.7157633"><ele>83.0</ele><time>2026-04-26T14:40:42.044Z</time></trkpt><trkpt lat="44.9839033" lon="9.71549"><ele>83.0</ele><time>2026-04-26T14:40:43.043Z</time></trkpt><trkpt lat="44.9839333" lon="9.71522"><ele>83.0</ele><time>2026-04-26T14:40:44.044Z</time></trkpt><trkpt lat="44.9839617" lon="9.7149483"><ele>83.0</ele><time>2026-04-26T14:40:45.043Z</time></trkpt><trkpt lat="44.98398" lon="9.7146767"><ele>83.0</ele><time>2026-04-26T14:40:46.043Z</time></trkpt><trkpt lat="44.98398" lon="9.7144"><ele>83.0</ele><time>2026-04-26T14:40:47.042Z</time></trkpt><trkpt lat="44.9839583" lon="9.71413"><ele>83.0</ele><time>2026-04-26T14:40:48.043Z</time></trkpt><trkpt lat="44.9839183" lon="9.713865"><ele>83.0</ele><time>2026-04-26T14:40:49.045Z</time></trkpt><trkpt lat="44.98387" lon="9.713605"><ele>83.0</ele><time>2026-04-26T14:40:50.044Z</time></trkpt><trkpt lat="44.9838217" lon="9.71335"><ele>83.0</ele><time>2026-04-26T14:40:51.044Z</time></trkpt><trkpt lat="44.98377" lon="9.713095"><ele>83.0</ele><time>2026-04-26T14:40:52.044Z</time></trkpt><trkpt lat="44.98372" lon="9.7128417"><ele>83.0</ele><time>2026-04-26T14:40:53.044Z</time></trkpt><trkpt lat="44.9836683" lon="9.7125817"><ele>83.0</ele><time>2026-04-26T14:40:54.044Z</time></trkpt><trkpt lat="44.9836167" lon="9.7123233"><ele>83.0</ele><time>2026-04-26T14:40:55.044Z</time></trkpt><trkpt lat="44.9835633" lon="9.71206"><ele>83.0</ele><time>2026-04-26T14:40:56.044Z</time></trkpt><trkpt lat="44.98351" lon="9.711795"><ele>83.0</ele><time>2026-04-26T14:40:57.044Z</time></trkpt><trkpt lat="44.9834567" lon="9.71153"><ele>83.0</ele><time>2026-04-26T14:40:58.044Z</time></trkpt><trkpt lat="44.9834017" lon="9.7112667"><ele>83.0</ele><time>2026-04-26T14:40:59.043Z</time></trkpt><trkpt lat="44.983345" lon="9.7110017"><ele>83.66666666666667</ele><time>2026-04-26T14:41:00.044Z</time></trkpt><trkpt lat="44.9832917" lon="9.710735"><ele>84.33333333333333</ele><time>2026-04-26T14:41:01.042Z</time></trkpt><trkpt lat="44.98324" lon="9.71047"><ele>85.0</ele><time>2026-04-26T14:41:02.043Z</time></trkpt><trkpt lat="44.9831917" lon="9.710205"><ele>85.0</ele><time>2026-04-26T14:41:03.045Z</time></trkpt><trkpt lat="44.9831433" lon="9.7099583"><ele>85.0</ele><time>2026-04-26T14:41:04.045Z</time></trkpt><trkpt lat="44.9830967" lon="9.7097267"><ele>85.0</ele><time>2026-04-26T14:41:05.044Z</time></trkpt><trkpt lat="44.9830583" lon="9.7095117"><ele>85.0</ele><time>2026-04-26T14:41:06.043Z</time></trkpt><trkpt lat="44.9830217" lon="9.7093167"><ele>85.0</ele><time>2026-04-26T14:41:07.044Z</time></trkpt><trkpt lat="44.982995" lon="9.70915"><ele>85.0</ele><time>2026-04-26T14:41:08.042Z</time></trkpt><trkpt lat="44.9829717" lon="9.7090133"><ele>85.0</ele><time>2026-04-26T14:41:09.044Z</time></trkpt><trkpt lat="44.9829517" lon="9.7089017"><ele>85.0</ele><time>2026-04-26T14:41:10.042Z</time></trkpt><trkpt lat="44.9829383" lon="9.7088133"><ele>85.0</ele><time>2026-04-26T14:41:11.044Z</time></trkpt><trkpt lat="44.9829283" lon="9.7087017"><ele>85.0</ele><time>2026-04-26T14:41:13.045Z</time></trkpt><trkpt lat="44.9829017" lon="9.708575"><ele>85.0</ele><time>2026-04-26T14:43:34.041Z</time></trkpt><trkpt lat="44.982865" lon="9.7084033"><ele>85.0</ele><time>2026-04-26T14:43:36.042Z</time></trkpt><trkpt lat="44.98284" lon="9.7082817"><ele>85.0</ele><time>2026-04-26T14:43:37.042Z</time></trkpt><trkpt lat="44.9828067" lon="9.7081317"><ele>85.25</ele><time>2026-04-26T14:43:38.042Z</time></trkpt><trkpt lat="44.9827683" lon="9.7079567"><ele>85.5</ele><time>2026-04-26T14:43:39.043Z</time></trkpt><trkpt lat="44.9827217" lon="9.7077583"><ele>85.75</ele><time>2026-04-26T14:43:40.041Z</time></trkpt><trkpt lat="44.9826767" lon="9.7075333"><ele>86.0</ele><time>2026-04-26T14:43:41.041Z</time></trkpt><trkpt lat="44.9826267" lon="9.70728"><ele>86.0</ele><time>2026-04-26T14:43:42.042Z</time></trkpt><trkpt lat="44.982575" lon="9.7070033"><ele>86.0</ele><time>2026-04-26T14:43:43.042Z</time></trkpt><trkpt lat="44.982515" lon="9.7067067"><ele>86.0</ele><time>2026-04-26T14:43:44.041Z</time></trkpt><trkpt lat="44.9824517" lon="9.7063933"><ele>86.0</ele><time>2026-04-26T14:43:45.042Z</time></trkpt><trkpt lat="44.9823867" lon="9.7060717"><ele>86.0</ele><time>2026-04-26T14:43:46.043Z</time></trkpt><trkpt lat="44.982325" lon="9.70576"><ele>86.0</ele><time>2026-04-26T14:43:47.042Z</time></trkpt><trkpt lat="44.9822667" lon="9.7054667"><ele>86.0</ele><time>2026-04-26T14:43:48.042Z</time></trkpt><trkpt lat="44.9822117" lon="9.7051833"><ele>86.0</ele><time>2026-04-26T14:43:49.042Z</time></trkpt><trkpt lat="44.9821633" lon="9.7049117"><ele>85.66666666666667</ele><time>2026-04-26T14:43:50.042Z</time></trkpt><trkpt lat="44.982125" lon="9.7046517"><ele>85.33333333333333</ele><time>2026-04-26T14:43:51.042Z</time></trkpt><trkpt lat="44.9820983" lon="9.7043933"><ele>85.0</ele><time>2026-04-26T14:43:52.044Z</time></trkpt><trkpt lat="44.9820867" lon="9.7041217"><ele>85.0</ele><time>2026-04-26T14:43:53.042Z</time></trkpt><trkpt lat="44.98208" lon="9.7038317"><ele>85.0</ele><time>2026-04-26T14:43:54.042Z</time></trkpt><trkpt lat="44.9820783" lon="9.7035183"><ele>85.0</ele><time>2026-04-26T14:43:55.042Z</time></trkpt><trkpt lat="44.98208" lon="9.703185"><ele>85.0</ele><time>2026-04-26T14:43:56.042Z</time></trkpt><trkpt lat="44.9820833" lon="9.7028433"><ele>85.0</ele><time>2026-04-26T14:43:57.042Z</time></trkpt><trkpt lat="44.9820833" lon="9.7024967"><ele>85.0</ele><time>2026-04-26T14:43:58.042Z</time></trkpt><trkpt lat="44.982085" lon="9.7021533"><ele>85.0</ele><time>2026-04-26T14:43:59.042Z</time></trkpt><trkpt lat="44.982085" lon="9.701805"><ele>85.0</ele><time>2026-04-26T14:44:00.042Z</time></trkpt><trkpt lat="44.982085" lon="9.7014633"><ele>85.0</ele><time>2026-04-26T14:44:01.042Z</time></trkpt><trkpt lat="44.982085" lon="9.7011467"><ele>85.33333333333333</ele><time>2026-04-26T14:44:02.041Z</time></trkpt><trkpt lat="44.9820833" lon="9.700835"><ele>85.66666666666667</ele><time>2026-04-26T14:44:03.043Z</time></trkpt><trkpt lat="44.9820817" lon="9.7005233"><ele>86.0</ele><time>2026-04-26T14:44:04.041Z</time></trkpt><trkpt lat="44.9820817" lon="9.7002133"><ele>86.33333333333334</ele><time>2026-04-26T14:44:05.041Z</time></trkpt><trkpt lat="44.9820817" lon="9.699915"><ele>86.66666666666667</ele><time>2026-04-26T14:44:06.042Z</time></trkpt><trkpt lat="44.98208" lon="9.6996367"><ele>87.0</ele><time>2026-04-26T14:44:07.042Z</time></trkpt><trkpt lat="44.9820783" lon="9.6993717"><ele>87.0</ele><time>2026-04-26T14:44:08.041Z</time></trkpt><trkpt lat="44.982075" lon="9.6991183"><ele>87.0</ele><time>2026-04-26T14:44:09.042Z</time></trkpt><trkpt lat="44.9820683" lon="9.69888"><ele>87.0</ele><time>2026-04-26T14:44:10.042Z</time></trkpt><trkpt lat="44.982065" lon="9.698655"><ele>87.66666666666667</ele><time>2026-04-26T14:44:11.044Z</time></trkpt><trkpt lat="44.9820633" lon="9.69843"><ele>88.33333333333334</ele><time>2026-04-26T14:44:12.042Z</time></trkpt><trkpt lat="44.9820633" lon="9.6981967"><ele>89.0</ele><time>2026-04-26T14:44:13.041Z</time></trkpt><trkpt lat="44.9820633" lon="9.697955"><ele>89.66666666666667</ele><time>2026-04-26T14:44:14.042Z</time></trkpt><trkpt lat="44.982065" lon="9.6977067"><ele>90.33333333333333</ele><time>2026-04-26T14:44:15.042Z</time></trkpt><trkpt lat="44.982065" lon="9.6974533"><ele>91.0</ele><time>2026-04-26T14:44:16.043Z</time></trkpt><trkpt lat="44.98207" lon="9.6971983"><ele>91.0</ele><time>2026-04-26T14:44:17.041Z</time></trkpt><trkpt lat="44.9820783" lon="9.6969417"><ele>91.0</ele><time>2026-04-26T14:44:18.042Z</time></trkpt><trkpt lat="44.9820933" lon="9.6966883"><ele>91.0</ele><time>2026-04-26T14:44:19.044Z</time></trkpt><trkpt lat="44.9821133" lon="9.6964267"><ele>89.33333333333333</ele><time>2026-04-26T14:44:20.042Z</time></trkpt><trkpt lat="44.9821317" lon="9.69617"><ele>87.66666666666667</ele><time>2026-04-26T14:44:21.043Z</time></trkpt><trkpt lat="44.9821467" lon="9.6959267"><ele>86.0</ele><time>2026-04-26T14:44:22.042Z</time></trkpt><trkpt lat="44.982155" lon="9.6956933"><ele>86.0</ele><time>2026-04-26T14:44:23.041Z</time></trkpt><trkpt lat="44.9821667" lon="9.6954783"><ele>86.0</ele><time>2026-04-26T14:44:24.042Z</time></trkpt><trkpt lat="44.9821833" lon="9.69528"><ele>86.0</ele><time>2026-04-26T14:44:25.042Z</time></trkpt><trkpt lat="44.982195" lon="9.6951"><ele>86.0</ele><time>2026-04-26T14:44:26.042Z</time></trkpt><trkpt lat="44.9822033" lon="9.6949317"><ele>86.0</ele><time>2026-04-26T14:44:27.042Z</time></trkpt><trkpt lat="44.98221" lon="9.6947633"><ele>86.0</ele><time>2026-04-26T14:44:28.04Z</time></trkpt><trkpt lat="44.98222" lon="9.69458"><ele>86.0</ele><time>2026-04-26T14:44:29.042Z</time></trkpt><trkpt lat="44.982235" lon="9.69438"><ele>86.0</ele><time>2026-04-26T14:44:30.042Z</time></trkpt><trkpt lat="44.98225" lon="9.69416"><ele>86.33333333333334</ele><time>2026-04-26T14:44:31.042Z</time></trkpt><trkpt lat="44.98226" lon="9.6939333"><ele>86.66666666666667</ele><time>2026-04-26T14:44:32.042Z</time></trkpt><trkpt lat="44.98227" lon="9.693715"><ele>87.0</ele><time>2026-04-26T14:44:33.042Z</time></trkpt><trkpt lat="44.9822783" lon="9.6935117"><ele>87.0</ele><time>2026-04-26T14:44:34.041Z</time></trkpt><trkpt lat="44.9822917" lon="9.693315"><ele>87.0</ele><time>2026-04-26T14:44:35.042Z</time></trkpt><trkpt lat="44.9823067" lon="9.6931083"><ele>87.0</ele><time>2026-04-26T14:44:36.042Z</time></trkpt><trkpt lat="44.982325" lon="9.6928833"><ele>87.0</ele><time>2026-04-26T14:44:37.041Z</time></trkpt><trkpt lat="44.9823433" lon="9.692655"><ele>86.66666666666667</ele><time>2026-04-26T14:44:38.043Z</time></trkpt><trkpt lat="44.98236" lon="9.6924217"><ele>86.33333333333334</ele><time>2026-04-26T14:44:39.042Z</time></trkpt><trkpt lat="44.98238" lon="9.6922083"><ele>86.0</ele><time>2026-04-26T14:44:40.045Z</time></trkpt><trkpt lat="44.9823983" lon="9.6919967"><ele>86.0</ele><time>2026-04-26T14:44:41.041Z</time></trkpt><trkpt lat="44.9824183" lon="9.6917717"><ele>86.0</ele><time>2026-04-26T14:44:42.042Z</time></trkpt><trkpt lat="44.9824433" lon="9.691535"><ele>86.0</ele><time>2026-04-26T14:44:43.042Z</time></trkpt><trkpt lat="44.9824717" lon="9.69128"><ele>85.66666666666667</ele><time>2026-04-26T14:44:44.041Z</time></trkpt><trkpt lat="44.9824967" lon="9.69101"><ele>85.33333333333333</ele><time>2026-04-26T14:44:45.043Z</time></trkpt><trkpt lat="44.98252" lon="9.690725"><ele>85.0</ele><time>2026-04-26T14:44:46.041Z</time></trkpt><trkpt lat="44.9825467" lon="9.6904283"><ele>85.0</ele><time>2026-04-26T14:44:47.041Z</time></trkpt><trkpt lat="44.9825717" lon="9.6901317"><ele>85.0</ele><time>2026-04-26T14:44:48.042Z</time></trkpt><trkpt lat="44.982595" lon="9.6898367"><ele>85.0</ele><time>2026-04-26T14:44:49.042Z</time></trkpt><trkpt lat="44.9826183" lon="9.68954"><ele>85.33333333333333</ele><time>2026-04-26T14:44:50.042Z</time></trkpt><trkpt lat="44.9826417" lon="9.6892467"><ele>85.66666666666667</ele><time>2026-04-26T14:44:51.045Z</time></trkpt><trkpt lat="44.982665" lon="9.6889617"><ele>86.0</ele><time>2026-04-26T14:44:52.042Z</time></trkpt><trkpt lat="44.9826883" lon="9.6886933"><ele>86.0</ele><time>2026-04-26T14:44:53.041Z</time></trkpt><trkpt lat="44.9827117" lon="9.68844"><ele>86.0</ele><time>2026-04-26T14:44:54.042Z</time></trkpt><trkpt lat="44.9827283" lon="9.6882017"><ele>86.0</ele><time>2026-04-26T14:44:55.042Z</time></trkpt><trkpt lat="44.9827417" lon="9.6879767"><ele>86.0</ele><time>2026-04-26T14:44:56.041Z</time></trkpt><trkpt lat="44.9827533" lon="9.687765"><ele>86.0</ele><time>2026-04-26T14:44:57.042Z</time></trkpt><trkpt lat="44.9827633" lon="9.6875733"><ele>86.0</ele><time>2026-04-26T14:44:58.043Z</time></trkpt><trkpt lat="44.9827717" lon="9.6874067"><ele>86.0</ele><time>2026-04-26T14:44:59.041Z</time></trkpt><trkpt lat="44.9827833" lon="9.6872733"><ele>86.0</ele><time>2026-04-26T14:45:00.041Z</time></trkpt><trkpt lat="44.9827983" lon="9.6871817"><ele>86.0</ele><time>2026-04-26T14:45:01.042Z</time></trkpt><trkpt lat="44.9828517" lon="9.6870567"><ele>86.0</ele><time>2026-04-26T14:45:03.044Z</time></trkpt><trkpt lat="44.9828917" lon="9.6869817"><ele>86.0</ele><time>2026-04-26T14:45:04.042Z</time></trkpt><trkpt lat="44.9829283" lon="9.68688"><ele>86.0</ele><time>2026-04-26T14:45:05.042Z</time></trkpt><trkpt lat="44.98294" lon="9.6867533"><ele>86.0</ele><time>2026-04-26T14:45:06.043Z</time></trkpt><trkpt lat="44.982925" lon="9.6866167"><ele>86.25</ele><time>2026-04-26T14:45:07.042Z</time></trkpt><trkpt lat="44.9829067" lon="9.686465"><ele>86.5</ele><time>2026-04-26T14:45:08.042Z</time></trkpt><trkpt lat="44.9829083" lon="9.6862933"><ele>86.75</ele><time>2026-04-26T14:45:09.042Z</time></trkpt><trkpt lat="44.9829283" lon="9.6861017"><ele>87.0</ele><time>2026-04-26T14:45:10.042Z</time></trkpt><trkpt lat="44.9829583" lon="9.6858883"><ele>87.0</ele><time>2026-04-26T14:45:11.043Z</time></trkpt><trkpt lat="44.98299" lon="9.6856583"><ele>87.0</ele><time>2026-04-26T14:45:12.042Z</time></trkpt><trkpt lat="44.98302" lon="9.6854083"><ele>87.0</ele><time>2026-04-26T14:45:13.042Z</time></trkpt><trkpt lat="44.9830533" lon="9.6851483"><ele>87.0</ele><time>2026-04-26T14:45:14.041Z</time></trkpt><trkpt lat="44.9830867" lon="9.684875"><ele>87.0</ele><time>2026-04-26T14:45:15.044Z</time></trkpt><trkpt lat="44.9831283" lon="9.6845983"><ele>87.0</ele><time>2026-04-26T14:45:16.042Z</time></trkpt><trkpt lat="44.98317" lon="9.6843133"><ele>87.0</ele><time>2026-04-26T14:45:17.042Z</time></trkpt><trkpt lat="44.9832133" lon="9.68402"><ele>87.0</ele><time>2026-04-26T14:45:18.042Z</time></trkpt><trkpt lat="44.9832583" lon="9.6837233"><ele>87.0</ele><time>2026-04-26T14:45:19.042Z</time></trkpt><trkpt lat="44.9833017" lon="9.6834217"><ele>86.66666666666667</ele><time>2026-04-26T14:45:20.042Z</time></trkpt><trkpt lat="44.9833467" lon="9.6831167"><ele>86.33333333333334</ele><time>2026-04-26T14:45:21.042Z</time></trkpt><trkpt lat="44.983395" lon="9.6828067"><ele>86.0</ele><time>2026-04-26T14:45:22.042Z</time></trkpt><trkpt lat="44.9834417" lon="9.68249"><ele>84.0</ele><time>2026-04-26T14:45:23.045Z</time></trkpt><trkpt lat="44.9834867" lon="9.6821683"><ele>82.0</ele><time>2026-04-26T14:45:24.042Z</time></trkpt><trkpt lat="44.9835333" lon="9.68185"><ele>81.5</ele><time>2026-04-26T14:45:25.041Z</time></trkpt><trkpt lat="44.9835817" lon="9.6815267"><ele>81.0</ele><time>2026-04-26T14:45:26.042Z</time></trkpt><trkpt lat="44.98363" lon="9.6812"><ele>80.5</ele><time>2026-04-26T14:45:27.043Z</time></trkpt><trkpt lat="44.98368" lon="9.6808717"><ele>80.0</ele><time>2026-04-26T14:45:28.043Z</time></trkpt><trkpt lat="44.9837317" lon="9.6805433"><ele>80.0</ele><time>2026-04-26T14:45:29.042Z</time></trkpt><trkpt lat="44.9837783" lon="9.680225"><ele>80.0</ele><time>2026-04-26T14:45:30.041Z</time></trkpt><trkpt lat="44.9838183" lon="9.6799133"><ele>80.0</ele><time>2026-04-26T14:45:31.041Z</time></trkpt><trkpt lat="44.9838583" lon="9.6796083"><ele>80.0</ele><time>2026-04-26T14:45:32.043Z</time></trkpt><trkpt lat="44.9838983" lon="9.67931"><ele>80.0</ele><time>2026-04-26T14:45:33.042Z</time></trkpt><trkpt lat="44.9839383" lon="9.6790183"><ele>80.0</ele><time>2026-04-26T14:45:34.042Z</time></trkpt><trkpt lat="44.9839767" lon="9.67874"><ele>80.0</ele><time>2026-04-26T14:45:35.042Z</time></trkpt><trkpt lat="44.9840117" lon="9.67848"><ele>80.0</ele><time>2026-04-26T14:45:36.043Z</time></trkpt><trkpt lat="44.9840417" lon="9.6782533"><ele>81.0</ele><time>2026-04-26T14:45:37.042Z</time></trkpt><trkpt lat="44.9840683" lon="9.678065"><ele>82.0</ele><time>2026-04-26T14:45:38.041Z</time></trkpt><trkpt lat="44.9840867" lon="9.677915"><ele>83.0</ele><time>2026-04-26T14:45:39.042Z</time></trkpt><trkpt lat="44.98409" lon="9.6777917"><ele>84.0</ele><time>2026-04-26T14:45:40.041Z</time></trkpt><trkpt lat="44.9840683" lon="9.6776917"><ele>85.0</ele><time>2026-04-26T14:45:41.042Z</time></trkpt><trkpt lat="44.98402" lon="9.6776133"><ele>85.5</ele><time>2026-04-26T14:45:42.042Z</time></trkpt><trkpt lat="44.983935" lon="9.6775567"><ele>86.0</ele><time>2026-04-26T14:45:43.043Z</time></trkpt><trkpt lat="44.983805" lon="9.6775267"><ele>86.5</ele><time>2026-04-26T14:45:44.042Z</time></trkpt><trkpt lat="44.9836583" lon="9.67749"><ele>87.0</ele><time>2026-04-26T14:45:45.043Z</time></trkpt><trkpt lat="44.9834967" lon="9.6774483"><ele>87.33333333333333</ele><time>2026-04-26T14:45:46.041Z</time></trkpt><trkpt lat="44.98332" lon="9.6774033"><ele>87.66666666666666</ele><time>2026-04-26T14:45:47.043Z</time></trkpt><trkpt lat="44.9831383" lon="9.6773533"><ele>88.0</ele><time>2026-04-26T14:45:48.041Z</time></trkpt><trkpt lat="44.9829683" lon="9.6773083"><ele>88.0</ele><time>2026-04-26T14:45:49.042Z</time></trkpt><trkpt lat="44.982815" lon="9.677265"><ele>88.0</ele><time>2026-04-26T14:45:50.043Z</time></trkpt><trkpt lat="44.982685" lon="9.6772233"><ele>88.0</ele><time>2026-04-26T14:45:51.042Z</time></trkpt><trkpt lat="44.9825817" lon="9.6771683"><ele>88.0</ele><time>2026-04-26T14:45:52.041Z</time></trkpt><trkpt lat="44.982505" lon="9.6770817"><ele>87.5</ele><time>2026-04-26T14:45:53.042Z</time></trkpt><trkpt lat="44.9824633" lon="9.6769533"><ele>87.0</ele><time>2026-04-26T14:45:54.041Z</time></trkpt><trkpt lat="44.9824517" lon="9.676795"><ele>86.5</ele><time>2026-04-26T14:45:55.041Z</time></trkpt><trkpt lat="44.9824567" lon="9.676595"><ele>86.0</ele><time>2026-04-26T14:45:56.041Z</time></trkpt><trkpt lat="44.9824667" lon="9.67638"><ele>85.4</ele><time>2026-04-26T14:45:57.043Z</time></trkpt><trkpt lat="44.9824717" lon="9.676185"><ele>84.8</ele><time>2026-04-26T14:45:58.041Z</time></trkpt><trkpt lat="44.98247" lon="9.67603"><ele>84.2</ele><time>2026-04-26T14:45:59.042Z</time></trkpt><trkpt lat="44.982445" lon="9.6759117"><ele>83.60000000000001</ele><time>2026-04-26T14:46:00.042Z</time></trkpt><trkpt lat="44.9823983" lon="9.6758117"><ele>83.0</ele><time>2026-04-26T14:46:01.044Z</time></trkpt><trkpt lat="44.982305" lon="9.6757533"><ele>83.0</ele><time>2026-04-26T14:46:02.041Z</time></trkpt><trkpt lat="44.9821983" lon="9.6757333"><ele>83.0</ele><time>2026-04-26T14:46:03.045Z</time></trkpt><trkpt lat="44.9821033" lon="9.6757033"><ele>83.0</ele><time>2026-04-26T14:46:04.041Z</time></trkpt><trkpt lat="44.9820333" lon="9.67564"><ele>83.0</ele><time>2026-04-26T14:46:05.043Z</time></trkpt><trkpt lat="44.981995" lon="9.6755517"><ele>83.0</ele><time>2026-04-26T14:46:06.042Z</time></trkpt><trkpt lat="44.9820017" lon="9.6754167"><ele>83.25</ele><time>2026-04-26T14:46:07.042Z</time></trkpt><trkpt lat="44.98202" lon="9.67525"><ele>83.5</ele><time>2026-04-26T14:46:08.042Z</time></trkpt><trkpt lat="44.982045" lon="9.6750567"><ele>83.75</ele><time>2026-04-26T14:46:09.042Z</time></trkpt><trkpt lat="44.9820717" lon="9.6748367"><ele>84.0</ele><time>2026-04-26T14:46:10.042Z</time></trkpt><trkpt lat="44.9821" lon="9.6745967"><ele>84.66666666666667</ele><time>2026-04-26T14:46:11.043Z</time></trkpt><trkpt lat="44.982125" lon="9.6743383"><ele>85.33333333333334</ele><time>2026-04-26T14:46:12.043Z</time></trkpt><trkpt lat="44.9821533" lon="9.6740633"><ele>86.0</ele><time>2026-04-26T14:46:13.042Z</time></trkpt><trkpt lat="44.9821833" lon="9.6737867"><ele>86.66666666666667</ele><time>2026-04-26T14:46:14.042Z</time></trkpt><trkpt lat="44.9822133" lon="9.6735167"><ele>87.33333333333333</ele><time>2026-04-26T14:46:15.042Z</time></trkpt><trkpt lat="44.982245" lon="9.6732633"><ele>88.0</ele><time>2026-04-26T14:46:16.042Z</time></trkpt><trkpt lat="44.98227" lon="9.6730317"><ele>88.0</ele><time>2026-04-26T14:46:17.042Z</time></trkpt><trkpt lat="44.982295" lon="9.672815"><ele>88.0</ele><time>2026-04-26T14:46:18.041Z</time></trkpt><trkpt lat="44.982315" lon="9.6726167"><ele>88.0</ele><time>2026-04-26T14:46:19.042Z</time></trkpt><trkpt lat="44.9823317" lon="9.672445"><ele>88.0</ele><time>2026-04-26T14:46:20.042Z</time></trkpt><trkpt lat="44.9823433" lon="9.6723"><ele>88.0</ele><time>2026-04-26T14:46:21.042Z</time></trkpt><trkpt lat="44.9823383" lon="9.672185"><ele>88.0</ele><time>2026-04-26T14:46:22.042Z</time></trkpt><trkpt lat="44.9822983" lon="9.6720967"><ele>88.0</ele><time>2026-04-26T14:46:23.042Z</time></trkpt><trkpt lat="44.982215" lon="9.672045"><ele>88.0</ele><time>2026-04-26T14:46:24.042Z</time></trkpt><trkpt lat="44.9820883" lon="9.672005"><ele>88.0</ele><time>2026-04-26T14:46:25.042Z</time></trkpt><trkpt lat="44.9819483" lon="9.6719617"><ele>87.5</ele><time>2026-04-26T14:46:26.045Z</time></trkpt><trkpt lat="44.9817983" lon="9.671925"><ele>87.0</ele><time>2026-04-26T14:46:27.043Z</time></trkpt><trkpt lat="44.981675" lon="9.6718933"><ele>86.5</ele><time>2026-04-26T14:46:28.042Z</time></trkpt><trkpt lat="44.9815783" lon="9.6718583"><ele>86.0</ele><time>2026-04-26T14:46:29.042Z</time></trkpt><trkpt lat="44.9814967" lon="9.671805"><ele>86.0</ele><time>2026-04-26T14:46:30.043Z</time></trkpt><trkpt lat="44.9814383" lon="9.6717317"><ele>86.0</ele><time>2026-04-26T14:46:31.042Z</time></trkpt><trkpt lat="44.9814217" lon="9.6716283"><ele>86.0</ele><time>2026-04-26T14:46:32.042Z</time></trkpt><trkpt lat="44.9814417" lon="9.6714783"><ele>86.0</ele><time>2026-04-26T14:46:33.043Z</time></trkpt><trkpt lat="44.9814717" lon="9.6712933"><ele>86.0</ele><time>2026-04-26T14:46:34.042Z</time></trkpt><trkpt lat="44.9815033" lon="9.6710717"><ele>86.66666666666667</ele><time>2026-04-26T14:46:35.044Z</time></trkpt><trkpt lat="44.981535" lon="9.670825"><ele>87.33333333333333</ele><time>2026-04-26T14:46:36.043Z</time></trkpt><trkpt lat="44.9815717" lon="9.6705617"><ele>88.0</ele><time>2026-04-26T14:46:37.042Z</time></trkpt><trkpt lat="44.98161" lon="9.670285"><ele>87.66666666666666</ele><time>2026-04-26T14:46:38.042Z</time></trkpt><trkpt lat="44.9816467" lon="9.6700017"><ele>87.33333333333333</ele><time>2026-04-26T14:46:39.044Z</time></trkpt><trkpt lat="44.9816833" lon="9.669715"><ele>87.0</ele><time>2026-04-26T14:46:40.042Z</time></trkpt><trkpt lat="44.9817217" lon="9.6694317"><ele>87.0</ele><time>2026-04-26T14:46:41.042Z</time></trkpt><trkpt lat="44.9817567" lon="9.66916"><ele>87.0</ele><time>2026-04-26T14:46:42.043Z</time></trkpt><trkpt lat="44.9817917" lon="9.668905"><ele>87.0</ele><time>2026-04-26T14:46:43.042Z</time></trkpt><trkpt lat="44.9818233" lon="9.6686683"><ele>86.75</ele><time>2026-04-26T14:46:44.041Z</time></trkpt><trkpt lat="44.9818517" lon="9.66845"><ele>86.5</ele><time>2026-04-26T14:46:45.047Z</time></trkpt><trkpt lat="44.9818767" lon="9.6682617"><ele>86.25</ele><time>2026-04-26T14:46:46.043Z</time></trkpt><trkpt lat="44.981895" lon="9.66811"><ele>86.0</ele><time>2026-04-26T14:46:47.042Z</time></trkpt><trkpt lat="44.9819" lon="9.6679883"><ele>86.0</ele><time>2026-04-26T14:46:48.042Z</time></trkpt><trkpt lat="44.9818867" lon="9.6678833"><ele>86.0</ele><time>2026-04-26T14:46:49.044Z</time></trkpt><trkpt lat="44.9818517" lon="9.6678"><ele>86.0</ele><time>2026-04-26T14:46:50.044Z</time></trkpt><trkpt lat="44.9817817" lon="9.66775"><ele>86.0</ele><time>2026-04-26T14:46:51.043Z</time></trkpt><trkpt lat="44.98168" lon="9.6677317"><ele>86.0</ele><time>2026-04-26T14:46:52.042Z</time></trkpt><trkpt lat="44.98156" lon="9.6677067"><ele>86.0</ele><time>2026-04-26T14:46:53.042Z</time></trkpt><trkpt lat="44.981435" lon="9.6676783"><ele>86.0</ele><time>2026-04-26T14:46:54.044Z</time></trkpt><trkpt lat="44.9813183" lon="9.6676467"><ele>86.0</ele><time>2026-04-26T14:46:55.042Z</time></trkpt><trkpt lat="44.9812183" lon="9.6676117"><ele>86.0</ele><time>2026-04-26T14:46:56.041Z</time></trkpt><trkpt lat="44.9811417" lon="9.66757"><ele>86.0</ele><time>2026-04-26T14:46:57.042Z</time></trkpt><trkpt lat="44.981085" lon="9.6675183"><ele>86.0</ele><time>2026-04-26T14:46:58.047Z</time></trkpt><trkpt lat="44.9810617" lon="9.66733"><ele>86.0</ele><time>2026-04-26T14:47:00.043Z</time></trkpt><trkpt lat="44.9810817" lon="9.6671833"><ele>86.0</ele><time>2026-04-26T14:47:01.042Z</time></trkpt><trkpt lat="44.9811067" lon="9.66701"><ele>86.0</ele><time>2026-04-26T14:47:02.042Z</time></trkpt><trkpt lat="44.98113" lon="9.66682"><ele>86.0</ele><time>2026-04-26T14:47:03.043Z</time></trkpt><trkpt lat="44.9811567" lon="9.6666117"><ele>86.33333333333334</ele><time>2026-04-26T14:47:04.042Z</time></trkpt><trkpt lat="44.9811833" lon="9.66639"><ele>86.66666666666667</ele><time>2026-04-26T14:47:05.042Z</time></trkpt><trkpt lat="44.9812117" lon="9.666155"><ele>87.0</ele><time>2026-04-26T14:47:06.044Z</time></trkpt><trkpt lat="44.9812417" lon="9.66591"><ele>86.33333333333333</ele><time>2026-04-26T14:47:07.042Z</time></trkpt><trkpt lat="44.9812733" lon="9.6656567"><ele>85.66666666666666</ele><time>2026-04-26T14:47:08.042Z</time></trkpt><trkpt lat="44.9813033" lon="9.665395"><ele>85.0</ele><time>2026-04-26T14:47:09.042Z</time></trkpt><trkpt lat="44.981335" lon="9.66513"><ele>85.0</ele><time>2026-04-26T14:47:10.042Z</time></trkpt><trkpt lat="44.9813667" lon="9.6648617"><ele>85.0</ele><time>2026-04-26T14:47:11.043Z</time></trkpt><trkpt lat="44.9814" lon="9.6645917"><ele>85.0</ele><time>2026-04-26T14:47:12.042Z</time></trkpt><trkpt lat="44.9814333" lon="9.6643217"><ele>85.66666666666666</ele><time>2026-04-26T14:47:13.043Z</time></trkpt><trkpt lat="44.9814667" lon="9.66405"><ele>86.33333333333333</ele><time>2026-04-26T14:47:14.042Z</time></trkpt><trkpt lat="44.9815" lon="9.6637767"><ele>87.0</ele><time>2026-04-26T14:47:15.044Z</time></trkpt><trkpt lat="44.9815317" lon="9.6635033"><ele>87.66666666666667</ele><time>2026-04-26T14:47:16.043Z</time></trkpt><trkpt lat="44.9815633" lon="9.6632317"><ele>88.33333333333334</ele><time>2026-04-26T14:47:17.041Z</time></trkpt><trkpt lat="44.981595" lon="9.6629617"><ele>89.0</ele><time>2026-04-26T14:47:18.042Z</time></trkpt><trkpt lat="44.9816267" lon="9.6626933"><ele>89.0</ele><time>2026-04-26T14:47:19.042Z</time></trkpt><trkpt lat="44.9816567" lon="9.662425"><ele>89.0</ele><time>2026-04-26T14:47:20.043Z</time></trkpt><trkpt lat="44.981685" lon="9.6621633"><ele>89.0</ele><time>2026-04-26T14:47:21.042Z</time></trkpt><trkpt lat="44.9817117" lon="9.6619083"><ele>88.66666666666667</ele><time>2026-04-26T14:47:22.042Z</time></trkpt><trkpt lat="44.9817367" lon="9.661665"><ele>88.33333333333333</ele><time>2026-04-26T14:47:23.043Z</time></trkpt><trkpt lat="44.9817617" lon="9.6614367"><ele>88.0</ele><time>2026-04-26T14:47:24.042Z</time></trkpt><trkpt lat="44.981785" lon="9.6612217"><ele>88.25</ele><time>2026-04-26T14:47:25.042Z</time></trkpt><trkpt lat="44.9818083" lon="9.6610183"><ele>88.5</ele><time>2026-04-26T14:47:26.042Z</time></trkpt><trkpt lat="44.9818333" lon="9.66083"><ele>88.75</ele><time>2026-04-26T14:47:27.043Z</time></trkpt><trkpt lat="44.9818617" lon="9.6606683"><ele>89.0</ele><time>2026-04-26T14:47:28.042Z</time></trkpt><trkpt lat="44.9818883" lon="9.66054"><ele>89.0</ele><time>2026-04-26T14:47:29.042Z</time></trkpt><trkpt lat="44.9819117" lon="9.66044"><ele>89.0</ele><time>2026-04-26T14:47:30.043Z</time></trkpt><trkpt lat="44.9819367" lon="9.6603267"><ele>89.0</ele><time>2026-04-26T14:47:32.043Z</time></trkpt><trkpt lat="44.9819367" lon="9.66023"><ele>89.0</ele><time>2026-04-26T14:47:55.043Z</time></trkpt><trkpt lat="44.98185" lon="9.6601433"><ele>89.0</ele><time>2026-04-26T14:47:57.042Z</time></trkpt><trkpt lat="44.98174" lon="9.6601"><ele>89.0</ele><time>2026-04-26T14:47:58.042Z</time></trkpt><trkpt lat="44.98156" lon="9.660045"><ele>89.0</ele><time>2026-04-26T14:47:59.042Z</time></trkpt><trkpt lat="44.98135" lon="9.6599933"><ele>89.0</ele><time>2026-04-26T14:48:00.042Z</time></trkpt><trkpt lat="44.9811267" lon="9.6599367"><ele>89.0</ele><time>2026-04-26T14:48:01.043Z</time></trkpt><trkpt lat="44.98089" lon="9.6598733"><ele>89.0</ele><time>2026-04-26T14:48:02.042Z</time></trkpt><trkpt lat="44.9806567" lon="9.659805"><ele>89.0</ele><time>2026-04-26T14:48:03.043Z</time></trkpt><trkpt lat="44.9804367" lon="9.6597383"><ele>89.0</ele><time>2026-04-26T14:48:04.042Z</time></trkpt><trkpt lat="44.9802317" lon="9.6596767"><ele>89.0</ele><time>2026-04-26T14:48:05.041Z</time></trkpt><trkpt lat="44.9800333" lon="9.6596233"><ele>89.0</ele><time>2026-04-26T14:48:06.043Z</time></trkpt><trkpt lat="44.97984" lon="9.6595733"><ele>89.0</ele><time>2026-04-26T14:48:07.041Z</time></trkpt><trkpt lat="44.9796483" lon="9.6595233"><ele>89.0</ele><time>2026-04-26T14:48:08.042Z</time></trkpt><trkpt lat="44.97946" lon="9.6594717"><ele>89.0</ele><time>2026-04-26T14:48:09.042Z</time></trkpt><trkpt lat="44.97927" lon="9.6594183"><ele>90.0</ele><time>2026-04-26T14:48:10.043Z</time></trkpt><trkpt lat="44.9790817" lon="9.6593667"><ele>91.0</ele><time>2026-04-26T14:48:11.043Z</time></trkpt><trkpt lat="44.9788933" lon="9.659315"><ele>92.0</ele><time>2026-04-26T14:48:12.044Z</time></trkpt><trkpt lat="44.9787067" lon="9.659265"><ele>92.0</ele><time>2026-04-26T14:48:13.042Z</time></trkpt><trkpt lat="44.9785217" lon="9.659215"><ele>92.0</ele><time>2026-04-26T14:48:14.041Z</time></trkpt><trkpt lat="44.9783383" lon="9.6591617"><ele>92.0</ele><time>2026-04-26T14:48:15.043Z</time></trkpt><trkpt lat="44.9781517" lon="9.6591117"><ele>91.33333333333334</ele><time>2026-04-26T14:48:16.042Z</time></trkpt><trkpt lat="44.977965" lon="9.6590633"><ele>90.66666666666667</ele><time>2026-04-26T14:48:17.041Z</time></trkpt><trkpt lat="44.9777783" lon="9.6590133"><ele>90.0</ele><time>2026-04-26T14:48:18.042Z</time></trkpt><trkpt lat="44.9775917" lon="9.6589633"><ele>90.33333333333333</ele><time>2026-04-26T14:48:19.042Z</time></trkpt><trkpt lat="44.977405" lon="9.6589117"><ele>90.66666666666666</ele><time>2026-04-26T14:48:20.045Z</time></trkpt><trkpt lat="44.9772217" lon="9.6588617"><ele>91.0</ele><time>2026-04-26T14:48:21.043Z</time></trkpt><trkpt lat="44.9770383" lon="9.65881"><ele>91.0</ele><time>2026-04-26T14:48:22.043Z</time></trkpt><trkpt lat="44.9768567" lon="9.6587583"><ele>91.0</ele><time>2026-04-26T14:48:23.042Z</time></trkpt><trkpt lat="44.9766767" lon="9.6587067"><ele>91.0</ele><time>2026-04-26T14:48:24.042Z</time></trkpt><trkpt lat="44.9764983" lon="9.6586533"><ele>91.33333333333333</ele><time>2026-04-26T14:48:25.044Z</time></trkpt><trkpt lat="44.97632" lon="9.6586017"><ele>91.66666666666667</ele><time>2026-04-26T14:48:26.042Z</time></trkpt><trkpt lat="44.9761417" lon="9.65855"><ele>92.0</ele><time>2026-04-26T14:48:27.043Z</time></trkpt><trkpt lat="44.9759617" lon="9.6584933"><ele>92.33333333333334</ele><time>2026-04-26T14:48:28.042Z</time></trkpt><trkpt lat="44.9757817" lon="9.6584317"><ele>92.66666666666667</ele><time>2026-04-26T14:48:29.042Z</time></trkpt><trkpt lat="44.9756" lon="9.6583633"><ele>93.0</ele><time>2026-04-26T14:48:30.042Z</time></trkpt><trkpt lat="44.9754183" lon="9.658285"><ele>93.0</ele><time>2026-04-26T14:48:31.041Z</time></trkpt><trkpt lat="44.9752417" lon="9.6582033"><ele>93.0</ele><time>2026-04-26T14:48:32.042Z</time></trkpt><trkpt lat="44.9750667" lon="9.6581167"><ele>93.0</ele><time>2026-04-26T14:48:33.043Z</time></trkpt><trkpt lat="44.9748933" lon="9.6580283"><ele>93.33333333333333</ele><time>2026-04-26T14:48:34.042Z</time></trkpt><trkpt lat="44.9747183" lon="9.6579417"><ele>93.66666666666666</ele><time>2026-04-26T14:48:35.042Z</time></trkpt><trkpt lat="44.9745417" lon="9.6578517"><ele>94.0</ele><time>2026-04-26T14:48:36.042Z</time></trkpt><trkpt lat="44.974365" lon="9.6577583"><ele>94.0</ele><time>2026-04-26T14:48:37.041Z</time></trkpt><trkpt lat="44.97419" lon="9.657665"><ele>94.0</ele><time>2026-04-26T14:48:38.042Z</time></trkpt><trkpt lat="44.974015" lon="9.657575"><ele>94.0</ele><time>2026-04-26T14:48:39.042Z</time></trkpt><trkpt lat="44.973845" lon="9.6574867"><ele>93.66666666666666</ele><time>2026-04-26T14:48:40.042Z</time></trkpt><trkpt lat="44.9736767" lon="9.6574"><ele>93.33333333333333</ele><time>2026-04-26T14:48:41.043Z</time></trkpt><trkpt lat="44.9735083" lon="9.6573133"><ele>93.0</ele><time>2026-04-26T14:48:42.042Z</time></trkpt><trkpt lat="44.9733417" lon="9.6572283"><ele>93.66666666666667</ele><time>2026-04-26T14:48:43.041Z</time></trkpt><trkpt lat="44.9731767" lon="9.6571417"><ele>94.33333333333334</ele><time>2026-04-26T14:48:44.041Z</time></trkpt><trkpt lat="44.97301" lon="9.6570533"><ele>95.0</ele><time>2026-04-26T14:48:45.045Z</time></trkpt><trkpt lat="44.9728433" lon="9.6569667"><ele>95.0</ele><time>2026-04-26T14:48:46.041Z</time></trkpt><trkpt lat="44.97268" lon="9.6568783"><ele>95.0</ele><time>2026-04-26T14:48:47.044Z</time></trkpt><trkpt lat="44.9725167" lon="9.6567933"><ele>95.0</ele><time>2026-04-26T14:48:48.043Z</time></trkpt><trkpt lat="44.9723517" lon="9.6567067"><ele>95.33333333333334</ele><time>2026-04-26T14:48:49.043Z</time></trkpt><trkpt lat="44.9721867" lon="9.6566217"><ele>95.66666666666667</ele><time>2026-04-26T14:48:50.044Z</time></trkpt><trkpt lat="44.9720217" lon="9.6565367"><ele>96.0</ele><time>2026-04-26T14:48:51.044Z</time></trkpt><trkpt lat="44.9718567" lon="9.6564517"><ele>96.33333333333334</ele><time>2026-04-26T14:48:52.044Z</time></trkpt><trkpt lat="44.97169" lon="9.6563633"><ele>96.66666666666667</ele><time>2026-04-26T14:48:53.044Z</time></trkpt><trkpt lat="44.97152" lon="9.6562733"><ele>97.0</ele><time>2026-04-26T14:48:54.045Z</time></trkpt><trkpt lat="44.9713483" lon="9.6561833"><ele>96.66666666666667</ele><time>2026-04-26T14:48:55.042Z</time></trkpt><trkpt lat="44.9711817" lon="9.656095"><ele>96.33333333333334</ele><time>2026-04-26T14:48:56.042Z</time></trkpt><trkpt lat="44.9710133" lon="9.6560083"><ele>96.0</ele><time>2026-04-26T14:48:57.042Z</time></trkpt><trkpt lat="44.97085" lon="9.6559233"><ele>96.0</ele><time>2026-04-26T14:48:58.041Z</time></trkpt><trkpt lat="44.9706883" lon="9.6558383"><ele>96.0</ele><time>2026-04-26T14:48:59.042Z</time></trkpt><trkpt lat="44.9705267" lon="9.6557567"><ele>96.0</ele><time>2026-04-26T14:49:00.041Z</time></trkpt><trkpt lat="44.9703633" lon="9.6556717"><ele>96.0</ele><time>2026-04-26T14:49:01.042Z</time></trkpt><trkpt lat="44.970195" lon="9.6555883"><ele>96.0</ele><time>2026-04-26T14:49:02.042Z</time></trkpt><trkpt lat="44.970025" lon="9.6555"><ele>96.0</ele><time>2026-04-26T14:49:03.05Z</time></trkpt><trkpt lat="44.9698533" lon="9.65541"><ele>96.0</ele><time>2026-04-26T14:49:04.043Z</time></trkpt><trkpt lat="44.9696833" lon="9.6553217"><ele>96.0</ele><time>2026-04-26T14:49:05.041Z</time></trkpt><trkpt lat="44.969515" lon="9.655235"><ele>96.0</ele><time>2026-04-26T14:49:06.042Z</time></trkpt><trkpt lat="44.9693467" lon="9.6551483"><ele>96.33333333333334</ele><time>2026-04-26T14:49:07.042Z</time></trkpt><trkpt lat="44.96918" lon="9.6550617"><ele>96.66666666666667</ele><time>2026-04-26T14:49:08.041Z</time></trkpt><trkpt lat="44.9690117" lon="9.6549767"><ele>97.0</ele><time>2026-04-26T14:49:09.044Z</time></trkpt><trkpt lat="44.9688433" lon="9.6548883"><ele>97.0</ele><time>2026-04-26T14:49:10.042Z</time></trkpt><trkpt lat="44.9686767" lon="9.6548017"><ele>97.0</ele><time>2026-04-26T14:49:11.042Z</time></trkpt><trkpt lat="44.96851" lon="9.6547183"><ele>97.0</ele><time>2026-04-26T14:49:12.042Z</time></trkpt><trkpt lat="44.9683467" lon="9.6546333"><ele>97.0</ele><time>2026-04-26T14:49:13.044Z</time></trkpt><trkpt lat="44.9681867" lon="9.6545517"><ele>97.0</ele><time>2026-04-26T14:49:14.042Z</time></trkpt><trkpt lat="44.96803" lon="9.65447"><ele>97.0</ele><time>2026-04-26T14:49:15.043Z</time></trkpt><trkpt lat="44.96787" lon="9.65439"><ele>97.33333333333334</ele><time>2026-04-26T14:49:16.042Z</time></trkpt><trkpt lat="44.9677067" lon="9.654305"><ele>97.66666666666666</ele><time>2026-04-26T14:49:17.042Z</time></trkpt><trkpt lat="44.967535" lon="9.6542167"><ele>98.0</ele><time>2026-04-26T14:49:18.044Z</time></trkpt><trkpt lat="44.96736" lon="9.6541283"><ele>98.33333333333333</ele><time>2026-04-26T14:49:19.042Z</time></trkpt><trkpt lat="44.96719" lon="9.65404"><ele>98.66666666666666</ele><time>2026-04-26T14:49:20.042Z</time></trkpt><trkpt lat="44.9670267" lon="9.6539533"><ele>99.0</ele><time>2026-04-26T14:49:21.042Z</time></trkpt><trkpt lat="44.9668683" lon="9.65387"><ele>99.0</ele><time>2026-04-26T14:49:22.042Z</time></trkpt><trkpt lat="44.96671" lon="9.65379"><ele>99.0</ele><time>2026-04-26T14:49:23.043Z</time></trkpt><trkpt lat="44.9665517" lon="9.65371"><ele>99.0</ele><time>2026-04-26T14:49:24.042Z</time></trkpt><trkpt lat="44.9663933" lon="9.6536267"><ele>99.0</ele><time>2026-04-26T14:49:25.042Z</time></trkpt><trkpt lat="44.9662317" lon="9.6535417"><ele>99.0</ele><time>2026-04-26T14:49:26.046Z</time></trkpt><trkpt lat="44.9660667" lon="9.653455"><ele>99.0</ele><time>2026-04-26T14:49:27.044Z</time></trkpt><trkpt lat="44.9659" lon="9.6533683"><ele>99.33333333333334</ele><time>2026-04-26T14:49:28.043Z</time></trkpt><trkpt lat="44.9657317" lon="9.6532833"><ele>99.66666666666667</ele><time>2026-04-26T14:49:29.042Z</time></trkpt><trkpt lat="44.9655683" lon="9.6531933"><ele>100.0</ele><time>2026-04-26T14:49:30.042Z</time></trkpt><trkpt lat="44.9654083" lon="9.6531083"><ele>100.0</ele><time>2026-04-26T14:49:31.042Z</time></trkpt><trkpt lat="44.9652433" lon="9.6530233"><ele>100.0</ele><time>2026-04-26T14:49:32.046Z</time></trkpt><trkpt lat="44.9650783" lon="9.6529317"><ele>100.0</ele><time>2026-04-26T14:49:33.045Z</time></trkpt><trkpt lat="44.96491" lon="9.6528367"><ele>100.33333333333334</ele><time>2026-04-26T14:49:34.042Z</time></trkpt><trkpt lat="44.9647383" lon="9.6527333"><ele>100.66666666666666</ele><time>2026-04-26T14:49:35.042Z</time></trkpt><trkpt lat="44.9645683" lon="9.6526233"><ele>101.0</ele><time>2026-04-26T14:49:36.042Z</time></trkpt><trkpt lat="44.9644017" lon="9.65251"><ele>101.0</ele><time>2026-04-26T14:49:37.042Z</time></trkpt><trkpt lat="44.96424" lon="9.6523867"><ele>101.0</ele><time>2026-04-26T14:49:38.043Z</time></trkpt><trkpt lat="44.9640783" lon="9.6522683"><ele>101.0</ele><time>2026-04-26T14:49:39.045Z</time></trkpt><trkpt lat="44.963925" lon="9.65215"><ele>101.33333333333333</ele><time>2026-04-26T14:49:40.043Z</time></trkpt><trkpt lat="44.9637733" lon="9.652035"><ele>101.66666666666666</ele><time>2026-04-26T14:49:41.043Z</time></trkpt><trkpt lat="44.9636217" lon="9.6519183"><ele>102.0</ele><time>2026-04-26T14:49:42.041Z</time></trkpt><trkpt lat="44.9634733" lon="9.6518033"><ele>101.66666666666666</ele><time>2026-04-26T14:49:43.042Z</time></trkpt><trkpt lat="44.96333" lon="9.6516933"><ele>101.33333333333333</ele><time>2026-04-26T14:49:44.042Z</time></trkpt><trkpt lat="44.963195" lon="9.6515867"><ele>101.0</ele><time>2026-04-26T14:49:45.044Z</time></trkpt><trkpt lat="44.9630633" lon="9.6514783"><ele>101.0</ele><time>2026-04-26T14:49:46.043Z</time></trkpt><trkpt lat="44.9629283" lon="9.6513683"><ele>101.0</ele><time>2026-04-26T14:49:47.042Z</time></trkpt><trkpt lat="44.9627883" lon="9.651255"><ele>101.0</ele><time>2026-04-26T14:49:48.042Z</time></trkpt><trkpt lat="44.9626483" lon="9.6511467"><ele>101.33333333333333</ele><time>2026-04-26T14:49:49.043Z</time></trkpt><trkpt lat="44.9625067" lon="9.651035"><ele>101.66666666666666</ele><time>2026-04-26T14:49:50.042Z</time></trkpt><trkpt lat="44.9623617" lon="9.6509183"><ele>102.0</ele><time>2026-04-26T14:49:51.042Z</time></trkpt><trkpt lat="44.9622133" lon="9.6508017"><ele>102.0</ele><time>2026-04-26T14:49:52.042Z</time></trkpt><trkpt lat="44.962065" lon="9.650685"><ele>102.0</ele><time>2026-04-26T14:49:53.043Z</time></trkpt><trkpt lat="44.9619217" lon="9.6505717"><ele>102.0</ele><time>2026-04-26T14:49:54.042Z</time></trkpt><trkpt lat="44.9617783" lon="9.65046"><ele>102.33333333333334</ele><time>2026-04-26T14:49:55.042Z</time></trkpt><trkpt lat="44.9616383" lon="9.6503483"><ele>102.66666666666667</ele><time>2026-04-26T14:49:56.042Z</time></trkpt><trkpt lat="44.9615" lon="9.6502383"><ele>103.0</ele><time>2026-04-26T14:49:57.042Z</time></trkpt><trkpt lat="44.96136" lon="9.6501267"><ele>102.33333333333334</ele><time>2026-04-26T14:49:58.042Z</time></trkpt><trkpt lat="44.9612183" lon="9.650015"><ele>101.66666666666666</ele><time>2026-04-26T14:49:59.043Z</time></trkpt><trkpt lat="44.961075" lon="9.6499033"><ele>101.0</ele><time>2026-04-26T14:50:00.042Z</time></trkpt><trkpt lat="44.96093" lon="9.64979"><ele>101.33333333333333</ele><time>2026-04-26T14:50:01.043Z</time></trkpt><trkpt lat="44.960785" lon="9.6496767"><ele>101.66666666666666</ele><time>2026-04-26T14:50:02.042Z</time></trkpt><trkpt lat="44.9606367" lon="9.6495617"><ele>102.0</ele><time>2026-04-26T14:50:03.043Z</time></trkpt><trkpt lat="44.96049" lon="9.649445"><ele>102.0</ele><time>2026-04-26T14:50:04.042Z</time></trkpt><trkpt lat="44.960345" lon="9.64933"><ele>102.0</ele><time>2026-04-26T14:50:05.042Z</time></trkpt><trkpt lat="44.9602" lon="9.649215"><ele>102.0</ele><time>2026-04-26T14:50:06.043Z</time></trkpt><trkpt lat="44.9600617" lon="9.6491067"><ele>102.66666666666666</ele><time>2026-04-26T14:50:07.044Z</time></trkpt><trkpt lat="44.95993" lon="9.6490017"><ele>103.33333333333333</ele><time>2026-04-26T14:50:08.043Z</time></trkpt><trkpt lat="44.9598017" lon="9.6488967"><ele>104.0</ele><time>2026-04-26T14:50:09.043Z</time></trkpt><trkpt lat="44.9596683" lon="9.64879"><ele>104.0</ele><time>2026-04-26T14:50:10.043Z</time></trkpt><trkpt lat="44.9595267" lon="9.6486783"><ele>104.0</ele><time>2026-04-26T14:50:11.042Z</time></trkpt><trkpt lat="44.9593817" lon="9.6485617"><ele>104.0</ele><time>2026-04-26T14:50:12.042Z</time></trkpt><trkpt lat="44.9592317" lon="9.6484417"><ele>104.33333333333333</ele><time>2026-04-26T14:50:13.043Z</time></trkpt><trkpt lat="44.95908" lon="9.64832"><ele>104.66666666666666</ele><time>2026-04-26T14:50:14.043Z</time></trkpt><trkpt lat="44.9589233" lon="9.6481983"><ele>105.0</ele><time>2026-04-26T14:50:15.042Z</time></trkpt><trkpt lat="44.9587683" lon="9.6480783"><ele>105.0</ele><time>2026-04-26T14:50:16.041Z</time></trkpt><trkpt lat="44.9586167" lon="9.6479633"><ele>105.0</ele><time>2026-04-26T14:50:17.042Z</time></trkpt><trkpt lat="44.9584667" lon="9.6478483"><ele>105.0</ele><time>2026-04-26T14:50:18.043Z</time></trkpt><trkpt lat="44.9583217" lon="9.64773"><ele>105.0</ele><time>2026-04-26T14:50:19.042Z</time></trkpt><trkpt lat="44.9581783" lon="9.64761"><ele>105.0</ele><time>2026-04-26T14:50:20.042Z</time></trkpt><trkpt lat="44.9580317" lon="9.6474917"><ele>105.0</ele><time>2026-04-26T14:50:21.042Z</time></trkpt><trkpt lat="44.9578817" lon="9.6473717"><ele>105.0</ele><time>2026-04-26T14:50:22.042Z</time></trkpt><trkpt lat="44.9577317" lon="9.6472533"><ele>105.0</ele><time>2026-04-26T14:50:23.043Z</time></trkpt><trkpt lat="44.95758" lon="9.6471333"><ele>105.0</ele><time>2026-04-26T14:50:24.042Z</time></trkpt><trkpt lat="44.9574267" lon="9.64701"><ele>105.66666666666666</ele><time>2026-04-26T14:50:25.044Z</time></trkpt><trkpt lat="44.95727" lon="9.64689"><ele>106.33333333333333</ele><time>2026-04-26T14:50:26.043Z</time></trkpt><trkpt lat="44.9571133" lon="9.64676"><ele>107.0</ele><time>2026-04-26T14:50:27.042Z</time></trkpt><trkpt lat="44.956955" lon="9.64663"><ele>107.0</ele><time>2026-04-26T14:50:28.042Z</time></trkpt><trkpt lat="44.9568017" lon="9.6465017"><ele>107.0</ele><time>2026-04-26T14:50:29.043Z</time></trkpt><trkpt lat="44.9566567" lon="9.646375"><ele>107.0</ele><time>2026-04-26T14:50:30.043Z</time></trkpt><trkpt lat="44.9565183" lon="9.6462467"><ele>107.0</ele><time>2026-04-26T14:50:31.042Z</time></trkpt><trkpt lat="44.95638" lon="9.646115"><ele>107.0</ele><time>2026-04-26T14:50:32.042Z</time></trkpt><trkpt lat="44.956245" lon="9.645985"><ele>107.0</ele><time>2026-04-26T14:50:33.042Z</time></trkpt><trkpt lat="44.956115" lon="9.6458533"><ele>107.0</ele><time>2026-04-26T14:50:34.042Z</time></trkpt><trkpt lat="44.9559917" lon="9.64572"><ele>107.0</ele><time>2026-04-26T14:50:35.042Z</time></trkpt><trkpt lat="44.9558717" lon="9.6455867"><ele>107.0</ele><time>2026-04-26T14:50:36.042Z</time></trkpt><trkpt lat="44.9557517" lon="9.64545"><ele>107.66666666666666</ele><time>2026-04-26T14:50:37.043Z</time></trkpt><trkpt lat="44.955635" lon="9.6453117"><ele>108.33333333333334</ele><time>2026-04-26T14:50:38.043Z</time></trkpt><trkpt lat="44.95552" lon="9.64517"><ele>109.0</ele><time>2026-04-26T14:50:39.043Z</time></trkpt><trkpt lat="44.9554033" lon="9.6450267"><ele>109.33333333333334</ele><time>2026-04-26T14:50:40.042Z</time></trkpt><trkpt lat="44.9552883" lon="9.6448817"><ele>109.66666666666666</ele><time>2026-04-26T14:50:41.042Z</time></trkpt><trkpt lat="44.9551767" lon="9.644735"><ele>110.0</ele><time>2026-04-26T14:50:42.043Z</time></trkpt><trkpt lat="44.9550667" lon="9.644595"><ele>110.0</ele><time>2026-04-26T14:50:43.042Z</time></trkpt><trkpt lat="44.9549667" lon="9.644465"><ele>110.0</ele><time>2026-04-26T14:50:44.041Z</time></trkpt><trkpt lat="44.9548683" lon="9.644335"><ele>110.0</ele><time>2026-04-26T14:50:45.042Z</time></trkpt><trkpt lat="44.9547667" lon="9.6441983"><ele>110.0</ele><time>2026-04-26T14:50:46.046Z</time></trkpt><trkpt lat="44.95466" lon="9.64406"><ele>110.0</ele><time>2026-04-26T14:50:47.042Z</time></trkpt><trkpt lat="44.9545517" lon="9.6439167"><ele>110.0</ele><time>2026-04-26T14:50:48.043Z</time></trkpt><trkpt lat="44.9544417" lon="9.64377"><ele>110.0</ele><time>2026-04-26T14:50:49.042Z</time></trkpt><trkpt lat="44.9543267" lon="9.6436183"><ele>110.0</ele><time>2026-04-26T14:50:50.042Z</time></trkpt><trkpt lat="44.9542094" lon="9.643462"><ele>110.0</ele><time>2026-04-26T14:50:51.044Z</time></trkpt><trkpt lat="44.95409" lon="9.6433027"><ele>110.0</ele><time>2026-04-26T14:50:52.042Z</time></trkpt><trkpt lat="44.9539669" lon="9.643137"><ele>111.0</ele><time>2026-04-26T14:50:53.043Z</time></trkpt><trkpt lat="44.9538404" lon="9.642967"><ele>112.0</ele><time>2026-04-26T14:50:54.042Z</time></trkpt><trkpt lat="44.9537132" lon="9.6427962"><ele>113.0</ele><time>2026-04-26T14:50:55.044Z</time></trkpt><trkpt lat="44.9535823" lon="9.6426242"><ele>113.0</ele><time>2026-04-26T14:50:56.042Z</time></trkpt><trkpt lat="44.9534486" lon="9.642455"><ele>113.0</ele><time>2026-04-26T14:50:57.043Z</time></trkpt><trkpt lat="44.9533204" lon="9.6422931"><ele>113.0</ele><time>2026-04-26T14:50:58.042Z</time></trkpt><trkpt lat="44.9531978" lon="9.642139"><ele>113.0</ele><time>2026-04-26T14:50:59.042Z</time></trkpt><trkpt lat="44.9530764" lon="9.6419932"><ele>113.0</ele><time>2026-04-26T14:51:00.042Z</time></trkpt><trkpt lat="44.9529551" lon="9.6418531"><ele>113.0</ele><time>2026-04-26T14:51:01.042Z</time></trkpt><trkpt lat="44.9528351" lon="9.6417116"><ele>113.0</ele><time>2026-04-26T14:51:02.043Z</time></trkpt><trkpt lat="44.9527189" lon="9.6415776"><ele>113.0</ele><time>2026-04-26T14:51:03.045Z</time></trkpt><trkpt lat="44.9526046" lon="9.6414489"><ele>113.0</ele><time>2026-04-26T14:51:04.043Z</time></trkpt><trkpt lat="44.9524926" lon="9.6413234"><ele>113.0</ele><time>2026-04-26T14:51:05.047Z</time></trkpt><trkpt lat="44.9523787" lon="9.6411973"><ele>113.33333333333333</ele><time>2026-04-26T14:51:06.042Z</time></trkpt><trkpt lat="44.9522591" lon="9.641067"><ele>113.66666666666666</ele><time>2026-04-26T14:51:07.042Z</time></trkpt><trkpt lat="44.9521339" lon="9.6409339"><ele>114.0</ele><time>2026-04-26T14:51:08.042Z</time></trkpt><trkpt lat="44.9520022" lon="9.6407975"><ele>114.0</ele><time>2026-04-26T14:51:09.044Z</time></trkpt><trkpt lat="44.9518672" lon="9.6406599"><ele>114.0</ele><time>2026-04-26T14:51:10.042Z</time></trkpt><trkpt lat="44.9517289" lon="9.6405211"><ele>114.0</ele><time>2026-04-26T14:51:11.043Z</time></trkpt><trkpt lat="44.9515898" lon="9.6403843"><ele>114.0</ele><time>2026-04-26T14:51:12.043Z</time></trkpt><trkpt lat="44.9514535" lon="9.6402538"><ele>114.0</ele><time>2026-04-26T14:51:13.042Z</time></trkpt><trkpt lat="44.9513217" lon="9.6401333"><ele>114.0</ele><time>2026-04-26T14:51:14.042Z</time></trkpt><trkpt lat="44.951195" lon="9.6400133"><ele>114.0</ele><time>2026-04-26T14:51:15.042Z</time></trkpt><trkpt lat="44.9510683" lon="9.6399"><ele>114.0</ele><time>2026-04-26T14:51:16.042Z</time></trkpt><trkpt lat="44.9509383" lon="9.6397867"><ele>114.0</ele><time>2026-04-26T14:51:17.042Z</time></trkpt><trkpt lat="44.9508033" lon="9.6396767"><ele>114.66666666666666</ele><time>2026-04-26T14:51:18.046Z</time></trkpt><trkpt lat="44.9506667" lon="9.63956"><ele>115.33333333333333</ele><time>2026-04-26T14:51:19.042Z</time></trkpt><trkpt lat="44.9505267" lon="9.63945"><ele>116.0</ele><time>2026-04-26T14:51:20.046Z</time></trkpt><trkpt lat="44.9503867" lon="9.6393417"><ele>116.33333333333333</ele><time>2026-04-26T14:51:21.044Z</time></trkpt><trkpt lat="44.9502467" lon="9.6392317"><ele>116.66666666666666</ele><time>2026-04-26T14:51:22.045Z</time></trkpt><trkpt lat="44.9501067" lon="9.6391233"><ele>117.0</ele><time>2026-04-26T14:51:23.045Z</time></trkpt><trkpt lat="44.9499683" lon="9.63902"><ele>117.33333333333334</ele><time>2026-04-26T14:51:24.044Z</time></trkpt><trkpt lat="44.9498283" lon="9.6389167"><ele>117.66666666666667</ele><time>2026-04-26T14:51:25.045Z</time></trkpt><trkpt lat="44.9496883" lon="9.6388133"><ele>118.0</ele><time>2026-04-26T14:51:26.044Z</time></trkpt><trkpt lat="44.9495433" lon="9.6387133"><ele>117.66666666666667</ele><time>2026-04-26T14:51:27.045Z</time></trkpt><trkpt lat="44.9494033" lon="9.63861"><ele>117.33333333333334</ele><time>2026-04-26T14:51:28.044Z</time></trkpt><trkpt lat="44.94926" lon="9.6385067"><ele>117.0</ele><time>2026-04-26T14:51:29.044Z</time></trkpt><trkpt lat="44.949115" lon="9.6384033"><ele>117.66666666666666</ele><time>2026-04-26T14:51:30.042Z</time></trkpt><trkpt lat="44.9489683" lon="9.6383033"><ele>118.33333333333333</ele><time>2026-04-26T14:51:31.042Z</time></trkpt><trkpt lat="44.9488267" lon="9.6382033"><ele>119.0</ele><time>2026-04-26T14:51:32.042Z</time></trkpt><trkpt lat="44.94869" lon="9.6381067"><ele>119.0</ele><time>2026-04-26T14:51:33.043Z</time></trkpt><trkpt lat="44.9485567" lon="9.6380167"><ele>119.0</ele><time>2026-04-26T14:51:34.042Z</time></trkpt><trkpt lat="44.948425" lon="9.6379317"><ele>119.0</ele><time>2026-04-26T14:51:35.044Z</time></trkpt><trkpt lat="44.9482883" lon="9.6378433"><ele>119.0</ele><time>2026-04-26T14:51:36.044Z</time></trkpt><trkpt lat="44.9481483" lon="9.63775"><ele>119.0</ele><time>2026-04-26T14:51:37.042Z</time></trkpt><trkpt lat="44.94801" lon="9.637655"><ele>119.0</ele><time>2026-04-26T14:51:38.042Z</time></trkpt><trkpt lat="44.9478717" lon="9.63756"><ele>119.0</ele><time>2026-04-26T14:51:39.042Z</time></trkpt><trkpt lat="44.9477364" lon="9.6374666"><ele>119.0</ele><time>2026-04-26T14:51:40.042Z</time></trkpt><trkpt lat="44.9476002" lon="9.6373744"><ele>119.0</ele><time>2026-04-26T14:51:41.042Z</time></trkpt><trkpt lat="44.9474613" lon="9.6372791"><ele>119.0</ele><time>2026-04-26T14:51:42.042Z</time></trkpt><trkpt lat="44.9473219" lon="9.6371831"><ele>119.0</ele><time>2026-04-26T14:51:43.044Z</time></trkpt><trkpt lat="44.9471911" lon="9.637093"><ele>119.0</ele><time>2026-04-26T14:51:44.042Z</time></trkpt><trkpt lat="44.9470588" lon="9.637001"><ele>119.0</ele><time>2026-04-26T14:51:45.042Z</time></trkpt><trkpt lat="44.9469188" lon="9.6369017"><ele>119.0</ele><time>2026-04-26T14:51:46.042Z</time></trkpt><trkpt lat="44.9467724" lon="9.6367995"><ele>119.0</ele><time>2026-04-26T14:51:47.042Z</time></trkpt><trkpt lat="44.9466244" lon="9.6366966"><ele>119.0</ele><time>2026-04-26T14:51:48.042Z</time></trkpt><trkpt lat="44.9464821" lon="9.6365956"><ele>120.0</ele><time>2026-04-26T14:51:49.042Z</time></trkpt><trkpt lat="44.9463422" lon="9.6364958"><ele>121.0</ele><time>2026-04-26T14:51:50.045Z</time></trkpt><trkpt lat="44.9462045" lon="9.6363977"><ele>122.0</ele><time>2026-04-26T14:51:51.045Z</time></trkpt><trkpt lat="44.9460696" lon="9.6363013"><ele>122.0</ele><time>2026-04-26T14:51:52.045Z</time></trkpt><trkpt lat="44.9459373" lon="9.6362083"><ele>122.0</ele><time>2026-04-26T14:51:53.044Z</time></trkpt><trkpt lat="44.9458074" lon="9.6361158"><ele>122.0</ele><time>2026-04-26T14:51:54.045Z</time></trkpt><trkpt lat="44.9456774" lon="9.6360227"><ele>122.0</ele><time>2026-04-26T14:51:55.044Z</time></trkpt><trkpt lat="44.9455471" lon="9.6359292"><ele>121.66666666666666</ele><time>2026-04-26T14:51:56.045Z</time></trkpt><trkpt lat="44.9454144" lon="9.6358344"><ele>121.33333333333334</ele><time>2026-04-26T14:51:57.045Z</time></trkpt><trkpt lat="44.9452797" lon="9.6357392"><ele>121.0</ele><time>2026-04-26T14:51:58.045Z</time></trkpt><trkpt lat="44.945139" lon="9.6356422"><ele>121.0</ele><time>2026-04-26T14:51:59.044Z</time></trkpt><trkpt lat="44.9449939" lon="9.6355399"><ele>121.0</ele><time>2026-04-26T14:52:00.044Z</time></trkpt><trkpt lat="44.9448423" lon="9.6354331"><ele>121.0</ele><time>2026-04-26T14:52:01.042Z</time></trkpt><trkpt lat="44.9446894" lon="9.6353242"><ele>121.0</ele><time>2026-04-26T14:52:02.043Z</time></trkpt><trkpt lat="44.9445423" lon="9.635218"><ele>121.0</ele><time>2026-04-26T14:52:03.044Z</time></trkpt><trkpt lat="44.9444003" lon="9.6351181"><ele>121.0</ele><time>2026-04-26T14:52:04.042Z</time></trkpt><trkpt lat="44.9442627" lon="9.6350196"><ele>120.75</ele><time>2026-04-26T14:52:05.042Z</time></trkpt><trkpt lat="44.9441284" lon="9.634927"><ele>120.5</ele><time>2026-04-26T14:52:06.042Z</time></trkpt><trkpt lat="44.9440001" lon="9.6348365"><ele>120.25</ele><time>2026-04-26T14:52:07.043Z</time></trkpt><trkpt lat="44.943874" lon="9.6347437"><ele>120.0</ele><time>2026-04-26T14:52:08.042Z</time></trkpt><trkpt lat="44.9437481" lon="9.6346522"><ele>120.0</ele><time>2026-04-26T14:52:09.046Z</time></trkpt><trkpt lat="44.9436242" lon="9.6345628"><ele>120.0</ele><time>2026-04-26T14:52:10.042Z</time></trkpt><trkpt lat="44.9435036" lon="9.6344711"><ele>120.0</ele><time>2026-04-26T14:52:11.045Z</time></trkpt><trkpt lat="44.9433887" lon="9.6343821"><ele>120.0</ele><time>2026-04-26T14:52:12.042Z</time></trkpt><trkpt lat="44.943277" lon="9.6342896"><ele>120.25</ele><time>2026-04-26T14:52:13.042Z</time></trkpt><trkpt lat="44.9431659" lon="9.6341914"><ele>120.5</ele><time>2026-04-26T14:52:14.043Z</time></trkpt><trkpt lat="44.94305" lon="9.634084"><ele>120.75</ele><time>2026-04-26T14:52:15.043Z</time></trkpt><trkpt lat="44.9429299" lon="9.6339689"><ele>121.0</ele><time>2026-04-26T14:52:16.042Z</time></trkpt><trkpt lat="44.9428048" lon="9.633844"><ele>121.0</ele><time>2026-04-26T14:52:17.042Z</time></trkpt><trkpt lat="44.9426835" lon="9.6337216"><ele>121.0</ele><time>2026-04-26T14:52:18.043Z</time></trkpt><trkpt lat="44.9425684" lon="9.6336068"><ele>121.0</ele><time>2026-04-26T14:52:19.043Z</time></trkpt><trkpt lat="44.9424617" lon="9.633495"><ele>121.0</ele><time>2026-04-26T14:52:20.043Z</time></trkpt><trkpt lat="44.94236" lon="9.633385"><ele>121.4</ele><time>2026-04-26T14:52:21.043Z</time></trkpt><trkpt lat="44.942265" lon="9.63328"><ele>121.8</ele><time>2026-04-26T14:52:22.042Z</time></trkpt><trkpt lat="44.9421783" lon="9.6331817"><ele>122.20000000000002</ele><time>2026-04-26T14:52:23.043Z</time></trkpt><trkpt lat="44.9421" lon="9.6330883"><ele>122.60000000000001</ele><time>2026-04-26T14:52:24.043Z</time></trkpt><trkpt lat="44.94203" lon="9.6330083"><ele>123.0</ele><time>2026-04-26T14:52:25.042Z</time></trkpt><trkpt lat="44.9419633" lon="9.6329367"><ele>123.0</ele><time>2026-04-26T14:52:26.043Z</time></trkpt><trkpt lat="44.941905" lon="9.632875"><ele>123.0</ele><time>2026-04-26T14:52:27.045Z</time></trkpt><trkpt lat="44.9418533" lon="9.6328183"><ele>123.0</ele><time>2026-04-26T14:52:28.043Z</time></trkpt><trkpt lat="44.9417617" lon="9.6327183"><ele>123.0</ele><time>2026-04-26T14:52:30.043Z</time></trkpt><trkpt lat="44.94169" lon="9.6326433"><ele>123.0</ele><time>2026-04-26T14:52:32.042Z</time></trkpt><trkpt lat="44.9416317" lon="9.632585"><ele>123.0</ele><time>2026-04-26T14:52:35.042Z</time></trkpt><trkpt lat="44.9415467" lon="9.6324833"><ele>123.75</ele><time>2026-04-26T14:53:02.041Z</time></trkpt><trkpt lat="44.9414617" lon="9.6324017"><ele>124.5</ele><time>2026-04-26T14:53:03.042Z</time></trkpt><trkpt lat="44.9413633" lon="9.6323033"><ele>125.25</ele><time>2026-04-26T14:53:04.043Z</time></trkpt><trkpt lat="44.9412383" lon="9.6321833"><ele>126.0</ele><time>2026-04-26T14:53:05.041Z</time></trkpt><trkpt lat="44.9410817" lon="9.632035"><ele>126.0</ele><time>2026-04-26T14:53:06.041Z</time></trkpt><trkpt lat="44.9409033" lon="9.6318583"><ele>126.0</ele><time>2026-04-26T14:53:07.041Z</time></trkpt><trkpt lat="44.94071" lon="9.6316483"><ele>126.0</ele><time>2026-04-26T14:53:08.042Z</time></trkpt><trkpt lat="44.9405" lon="9.631405"><ele>126.0</ele><time>2026-04-26T14:53:09.042Z</time></trkpt><trkpt lat="44.9402967" lon="9.63115"><ele>126.5</ele><time>2026-04-26T14:53:10.041Z</time></trkpt><trkpt lat="44.940095" lon="9.6308917"><ele>127.0</ele><time>2026-04-26T14:53:11.043Z</time></trkpt><trkpt lat="44.9399117" lon="9.6306383"><ele>128.5</ele><time>2026-04-26T14:53:12.042Z</time></trkpt><trkpt lat="44.9397433" lon="9.6303883"><ele>130.0</ele><time>2026-04-26T14:53:13.041Z</time></trkpt><trkpt lat="44.93958" lon="9.63014"><ele>130.0</ele><time>2026-04-26T14:53:14.041Z</time></trkpt><trkpt lat="44.93942" lon="9.6298917"><ele>130.0</ele><time>2026-04-26T14:53:15.041Z</time></trkpt><trkpt lat="44.9392667" lon="9.629645"><ele>130.33333333333334</ele><time>2026-04-26T14:53:16.042Z</time></trkpt><trkpt lat="44.93912" lon="9.6294067"><ele>130.66666666666666</ele><time>2026-04-26T14:53:17.042Z</time></trkpt><trkpt lat="44.938975" lon="9.629175"><ele>131.0</ele><time>2026-04-26T14:53:18.043Z</time></trkpt><trkpt lat="44.9388283" lon="9.62895"><ele>131.0</ele><time>2026-04-26T14:53:19.042Z</time></trkpt><trkpt lat="44.93868" lon="9.6287367"><ele>131.0</ele><time>2026-04-26T14:53:20.042Z</time></trkpt><trkpt lat="44.9385317" lon="9.6285367"><ele>131.0</ele><time>2026-04-26T14:53:21.042Z</time></trkpt><trkpt lat="44.9383783" lon="9.62834"><ele>131.33333333333331</ele><time>2026-04-26T14:53:22.041Z</time></trkpt><trkpt lat="44.9382183" lon="9.628145"><ele>131.66666666666666</ele><time>2026-04-26T14:53:23.041Z</time></trkpt><trkpt lat="44.9380567" lon="9.6279617"><ele>132.0</ele><time>2026-04-26T14:53:24.041Z</time></trkpt><trkpt lat="44.9378967" lon="9.6277883"><ele>132.0</ele><time>2026-04-26T14:53:25.041Z</time></trkpt><trkpt lat="44.9377383" lon="9.6276183"><ele>132.0</ele><time>2026-04-26T14:53:26.041Z</time></trkpt><trkpt lat="44.9375867" lon="9.627455"><ele>132.0</ele><time>2026-04-26T14:53:27.041Z</time></trkpt><trkpt lat="44.9374317" lon="9.6272967"><ele>132.0</ele><time>2026-04-26T14:53:28.042Z</time></trkpt><trkpt lat="44.9372783" lon="9.627135"><ele>132.0</ele><time>2026-04-26T14:53:29.042Z</time></trkpt><trkpt lat="44.9371233" lon="9.62697"><ele>132.0</ele><time>2026-04-26T14:53:30.041Z</time></trkpt><trkpt lat="44.9369667" lon="9.6268017"><ele>132.0</ele><time>2026-04-26T14:53:31.041Z</time></trkpt><trkpt lat="44.936815" lon="9.62664"><ele>132.0</ele><time>2026-04-26T14:53:32.042Z</time></trkpt><trkpt lat="44.93667" lon="9.6264867"><ele>132.0</ele><time>2026-04-26T14:53:33.043Z</time></trkpt><trkpt lat="44.9365267" lon="9.626335"><ele>133.0</ele><time>2026-04-26T14:53:34.041Z</time></trkpt><trkpt lat="44.936385" lon="9.6261867"><ele>134.0</ele><time>2026-04-26T14:53:35.041Z</time></trkpt><trkpt lat="44.9362433" lon="9.62604"><ele>135.0</ele><time>2026-04-26T14:53:36.042Z</time></trkpt><trkpt lat="44.9361067" lon="9.625895"><ele>135.0</ele><time>2026-04-26T14:53:37.042Z</time></trkpt><trkpt lat="44.93597" lon="9.62575"><ele>135.0</ele><time>2026-04-26T14:53:38.041Z</time></trkpt><trkpt lat="44.9358283" lon="9.6256033"><ele>135.0</ele><time>2026-04-26T14:53:39.042Z</time></trkpt><trkpt lat="44.9356817" lon="9.6254483"><ele>134.66666666666666</ele><time>2026-04-26T14:53:40.041Z</time></trkpt><trkpt lat="44.93553" lon="9.6252917"><ele>134.33333333333331</ele><time>2026-04-26T14:53:41.041Z</time></trkpt><trkpt lat="44.9353817" lon="9.6251383"><ele>134.0</ele><time>2026-04-26T14:53:42.043Z</time></trkpt><trkpt lat="44.9352383" lon="9.6249867"><ele>134.0</ele><time>2026-04-26T14:53:43.041Z</time></trkpt><trkpt lat="44.9350883" lon="9.624825"><ele>134.0</ele><time>2026-04-26T14:53:44.041Z</time></trkpt><trkpt lat="44.934925" lon="9.624655"><ele>134.0</ele><time>2026-04-26T14:53:45.041Z</time></trkpt><trkpt lat="44.9347567" lon="9.6244783"><ele>132.66666666666666</ele><time>2026-04-26T14:53:46.041Z</time></trkpt><trkpt lat="44.9345883" lon="9.6242917"><ele>131.33333333333334</ele><time>2026-04-26T14:53:47.042Z</time></trkpt><trkpt lat="44.9344267" lon="9.624105"><ele>130.0</ele><time>2026-04-26T14:53:48.042Z</time></trkpt><trkpt lat="44.9342733" lon="9.6239283"><ele>130.66666666666669</ele><time>2026-04-26T14:53:49.042Z</time></trkpt><trkpt lat="44.934125" lon="9.6237633"><ele>131.33333333333334</ele><time>2026-04-26T14:53:50.043Z</time></trkpt><trkpt lat="44.9339833" lon="9.6236033"><ele>132.0</ele><time>2026-04-26T14:53:51.044Z</time></trkpt><trkpt lat="44.9338467" lon="9.6234467"><ele>132.0</ele><time>2026-04-26T14:53:52.042Z</time></trkpt><trkpt lat="44.93371" lon="9.6232917"><ele>132.0</ele><time>2026-04-26T14:53:53.043Z</time></trkpt><trkpt lat="44.9335733" lon="9.62314"><ele>132.0</ele><time>2026-04-26T14:53:54.042Z</time></trkpt><trkpt lat="44.9334367" lon="9.622985"><ele>133.0</ele><time>2026-04-26T14:53:55.042Z</time></trkpt><trkpt lat="44.9333" lon="9.62283"><ele>134.0</ele><time>2026-04-26T14:53:56.041Z</time></trkpt><trkpt lat="44.9331617" lon="9.622675"><ele>135.0</ele><time>2026-04-26T14:53:57.043Z</time></trkpt><trkpt lat="44.9330217" lon="9.6225167"><ele>135.0</ele><time>2026-04-26T14:53:58.041Z</time></trkpt><trkpt lat="44.93288" lon="9.62236"><ele>135.0</ele><time>2026-04-26T14:53:59.042Z</time></trkpt><trkpt lat="44.93274" lon="9.6221983"><ele>135.0</ele><time>2026-04-26T14:54:00.041Z</time></trkpt><trkpt lat="44.9325967" lon="9.6220367"><ele>135.0</ele><time>2026-04-26T14:54:01.042Z</time></trkpt><trkpt lat="44.9324483" lon="9.6218717"><ele>135.0</ele><time>2026-04-26T14:54:02.041Z</time></trkpt><trkpt lat="44.9323" lon="9.6217033"><ele>135.0</ele><time>2026-04-26T14:54:03.042Z</time></trkpt><trkpt lat="44.9321533" lon="9.621535"><ele>135.0</ele><time>2026-04-26T14:54:04.042Z</time></trkpt><trkpt lat="44.9320067" lon="9.6213683"><ele>135.0</ele><time>2026-04-26T14:54:05.041Z</time></trkpt><trkpt lat="44.93186" lon="9.6212"><ele>135.0</ele><time>2026-04-26T14:54:06.042Z</time></trkpt><trkpt lat="44.931715" lon="9.621035"><ele>134.66666666666666</ele><time>2026-04-26T14:54:07.042Z</time></trkpt><trkpt lat="44.9315783" lon="9.6208767"><ele>134.33333333333331</ele><time>2026-04-26T14:54:08.041Z</time></trkpt><trkpt lat="44.9314433" lon="9.6207267"><ele>134.0</ele><time>2026-04-26T14:54:09.042Z</time></trkpt><trkpt lat="44.93131" lon="9.620575"><ele>134.0</ele><time>2026-04-26T14:54:10.041Z</time></trkpt><trkpt lat="44.9311733" lon="9.6204217"><ele>134.0</ele><time>2026-04-26T14:54:11.042Z</time></trkpt><trkpt lat="44.931035" lon="9.62027"><ele>134.0</ele><time>2026-04-26T14:54:12.042Z</time></trkpt><trkpt lat="44.930895" lon="9.6201183"><ele>134.66666666666666</ele><time>2026-04-26T14:54:13.043Z</time></trkpt><trkpt lat="44.9307567" lon="9.6199683"><ele>135.33333333333334</ele><time>2026-04-26T14:54:14.043Z</time></trkpt><trkpt lat="44.9306183" lon="9.6198183"><ele>136.0</ele><time>2026-04-26T14:54:15.042Z</time></trkpt><trkpt lat="44.93048" lon="9.61967"><ele>136.0</ele><time>2026-04-26T14:54:16.041Z</time></trkpt><trkpt lat="44.9303433" lon="9.6195267"><ele>136.0</ele><time>2026-04-26T14:54:17.042Z</time></trkpt><trkpt lat="44.9302033" lon="9.6193867"><ele>136.0</ele><time>2026-04-26T14:54:18.042Z</time></trkpt><trkpt lat="44.9300617" lon="9.619245"><ele>135.33333333333334</ele><time>2026-04-26T14:54:19.041Z</time></trkpt><trkpt lat="44.9299183" lon="9.6191033"><ele>134.66666666666666</ele><time>2026-04-26T14:54:20.041Z</time></trkpt><trkpt lat="44.9297717" lon="9.6189567"><ele>134.0</ele><time>2026-04-26T14:54:21.042Z</time></trkpt><trkpt lat="44.9296267" lon="9.61881"><ele>134.0</ele><time>2026-04-26T14:54:22.043Z</time></trkpt><trkpt lat="44.9294783" lon="9.6186617"><ele>134.0</ele><time>2026-04-26T14:54:23.042Z</time></trkpt><trkpt lat="44.9293317" lon="9.6185133"><ele>134.0</ele><time>2026-04-26T14:54:24.042Z</time></trkpt><trkpt lat="44.9291833" lon="9.6183633"><ele>134.66666666666666</ele><time>2026-04-26T14:54:25.042Z</time></trkpt><trkpt lat="44.9290367" lon="9.6182133"><ele>135.33333333333334</ele><time>2026-04-26T14:54:26.041Z</time></trkpt><trkpt lat="44.9288917" lon="9.6180633"><ele>136.0</ele><time>2026-04-26T14:54:27.043Z</time></trkpt><trkpt lat="44.9287483" lon="9.6179167"><ele>136.0</ele><time>2026-04-26T14:54:28.041Z</time></trkpt><trkpt lat="44.9286083" lon="9.6177717"><ele>136.0</ele><time>2026-04-26T14:54:29.042Z</time></trkpt><trkpt lat="44.9284733" lon="9.6176183"><ele>136.0</ele><time>2026-04-26T14:54:30.041Z</time></trkpt><trkpt lat="44.9283433" lon="9.617455"><ele>136.0</ele><time>2026-04-26T14:54:31.041Z</time></trkpt><trkpt lat="44.9282183" lon="9.61728"><ele>136.0</ele><time>2026-04-26T14:54:32.041Z</time></trkpt><trkpt lat="44.9280967" lon="9.6170933"><ele>136.0</ele><time>2026-04-26T14:54:33.043Z</time></trkpt><trkpt lat="44.9279767" lon="9.6169"><ele>135.33333333333334</ele><time>2026-04-26T14:54:34.042Z</time></trkpt><trkpt lat="44.927855" lon="9.6167033"><ele>134.66666666666666</ele><time>2026-04-26T14:54:35.043Z</time></trkpt><trkpt lat="44.9277317" lon="9.6165083"><ele>134.0</ele><time>2026-04-26T14:54:36.043Z</time></trkpt><trkpt lat="44.9276083" lon="9.61631"><ele>134.0</ele><time>2026-04-26T14:54:37.043Z</time></trkpt><trkpt lat="44.92748" lon="9.6161117"><ele>134.0</ele><time>2026-04-26T14:54:38.043Z</time></trkpt><trkpt lat="44.9273533" lon="9.6159133"><ele>134.0</ele><time>2026-04-26T14:54:39.042Z</time></trkpt><trkpt lat="44.9272283" lon="9.6157167"><ele>134.0</ele><time>2026-04-26T14:54:40.041Z</time></trkpt><trkpt lat="44.9271033" lon="9.6155267"><ele>134.0</ele><time>2026-04-26T14:54:41.041Z</time></trkpt><trkpt lat="44.926975" lon="9.6153417"><ele>134.0</ele><time>2026-04-26T14:54:42.041Z</time></trkpt><trkpt lat="44.9268417" lon="9.6151683"><ele>134.0</ele><time>2026-04-26T14:54:43.042Z</time></trkpt><trkpt lat="44.9267083" lon="9.615005"><ele>134.0</ele><time>2026-04-26T14:54:44.042Z</time></trkpt><trkpt lat="44.92657" lon="9.61485"><ele>134.0</ele><time>2026-04-26T14:54:45.043Z</time></trkpt><trkpt lat="44.92643" lon="9.6147017"><ele>134.0</ele><time>2026-04-26T14:54:46.043Z</time></trkpt><trkpt lat="44.9262933" lon="9.6145617"><ele>134.0</ele><time>2026-04-26T14:54:47.041Z</time></trkpt><trkpt lat="44.926155" lon="9.6144267"><ele>134.0</ele><time>2026-04-26T14:54:48.041Z</time></trkpt><trkpt lat="44.9260167" lon="9.6142983"><ele>134.0</ele><time>2026-04-26T14:54:49.041Z</time></trkpt><trkpt lat="44.925875" lon="9.6141733"><ele>134.0</ele><time>2026-04-26T14:54:50.042Z</time></trkpt><trkpt lat="44.9257317" lon="9.6140483"><ele>134.0</ele><time>2026-04-26T14:54:51.042Z</time></trkpt><trkpt lat="44.9255867" lon="9.61392"><ele>134.0</ele><time>2026-04-26T14:54:52.042Z</time></trkpt><trkpt lat="44.9254383" lon="9.61379"><ele>134.0</ele><time>2026-04-26T14:54:53.041Z</time></trkpt><trkpt lat="44.9252917" lon="9.6136583"><ele>134.0</ele><time>2026-04-26T14:54:54.042Z</time></trkpt><trkpt lat="44.9251417" lon="9.6135267"><ele>133.66666666666666</ele><time>2026-04-26T14:54:55.043Z</time></trkpt><trkpt lat="44.92499" lon="9.6133967"><ele>133.33333333333334</ele><time>2026-04-26T14:54:56.042Z</time></trkpt><trkpt lat="44.9248367" lon="9.6132667"><ele>133.0</ele><time>2026-04-26T14:54:57.042Z</time></trkpt><trkpt lat="44.9246817" lon="9.6131333"><ele>133.0</ele><time>2026-04-26T14:54:58.041Z</time></trkpt><trkpt lat="44.924525" lon="9.6129983"><ele>133.0</ele><time>2026-04-26T14:54:59.041Z</time></trkpt><trkpt lat="44.92437" lon="9.6128617"><ele>133.0</ele><time>2026-04-26T14:55:00.041Z</time></trkpt><trkpt lat="44.9242133" lon="9.6127233"><ele>132.33333333333334</ele><time>2026-04-26T14:55:01.043Z</time></trkpt><trkpt lat="44.92406" lon="9.6125883"><ele>131.66666666666666</ele><time>2026-04-26T14:55:02.043Z</time></trkpt><trkpt lat="44.92391" lon="9.6124533"><ele>131.0</ele><time>2026-04-26T14:55:03.043Z</time></trkpt><trkpt lat="44.9237567" lon="9.6123167"><ele>131.0</ele><time>2026-04-26T14:55:04.042Z</time></trkpt><trkpt lat="44.923605" lon="9.61218"><ele>131.0</ele><time>2026-04-26T14:55:05.042Z</time></trkpt><trkpt lat="44.9234533" lon="9.6120417"><ele>131.0</ele><time>2026-04-26T14:55:06.043Z</time></trkpt><trkpt lat="44.9233" lon="9.6118983"><ele>131.66666666666666</ele><time>2026-04-26T14:55:07.042Z</time></trkpt><trkpt lat="44.92315" lon="9.6117517"><ele>132.33333333333334</ele><time>2026-04-26T14:55:08.041Z</time></trkpt><trkpt lat="44.923005" lon="9.6116033"><ele>133.0</ele><time>2026-04-26T14:55:09.042Z</time></trkpt><trkpt lat="44.922865" lon="9.6114533"><ele>133.0</ele><time>2026-04-26T14:55:10.042Z</time></trkpt><trkpt lat="44.9227233" lon="9.6113017"><ele>133.0</ele><time>2026-04-26T14:55:11.042Z</time></trkpt><trkpt lat="44.922585" lon="9.61115"><ele>133.0</ele><time>2026-04-26T14:55:12.042Z</time></trkpt><trkpt lat="44.9224483" lon="9.6109967"><ele>132.33333333333334</ele><time>2026-04-26T14:55:13.043Z</time></trkpt><trkpt lat="44.9223133" lon="9.6108467"><ele>131.66666666666666</ele><time>2026-04-26T14:55:14.042Z</time></trkpt><trkpt lat="44.92218" lon="9.6106983"><ele>131.0</ele><time>2026-04-26T14:55:15.043Z</time></trkpt><trkpt lat="44.9220517" lon="9.610555"><ele>131.0</ele><time>2026-04-26T14:55:16.041Z</time></trkpt><trkpt lat="44.92193" lon="9.6104167"><ele>131.0</ele><time>2026-04-26T14:55:17.042Z</time></trkpt><trkpt lat="44.9218117" lon="9.6102867"><ele>131.0</ele><time>2026-04-26T14:55:18.042Z</time></trkpt><trkpt lat="44.9217017" lon="9.6101667"><ele>131.0</ele><time>2026-04-26T14:55:19.043Z</time></trkpt><trkpt lat="44.9215933" lon="9.6100483"><ele>131.25</ele><time>2026-04-26T14:55:20.042Z</time></trkpt><trkpt lat="44.921485" lon="9.6099267"><ele>131.5</ele><time>2026-04-26T14:55:21.043Z</time></trkpt><trkpt lat="44.9213783" lon="9.6098083"><ele>131.75</ele><time>2026-04-26T14:55:22.042Z</time></trkpt><trkpt lat="44.921265" lon="9.6096833"><ele>132.0</ele><time>2026-04-26T14:55:23.043Z</time></trkpt><trkpt lat="44.92115" lon="9.609555"><ele>131.66666666666666</ele><time>2026-04-26T14:55:24.043Z</time></trkpt><trkpt lat="44.9210317" lon="9.6094267"><ele>131.33333333333331</ele><time>2026-04-26T14:55:25.041Z</time></trkpt><trkpt lat="44.92091" lon="9.6092967"><ele>131.0</ele><time>2026-04-26T14:55:26.042Z</time></trkpt><trkpt lat="44.9207883" lon="9.6091617"><ele>132.0</ele><time>2026-04-26T14:55:27.042Z</time></trkpt><trkpt lat="44.9206617" lon="9.6090233"><ele>133.0</ele><time>2026-04-26T14:55:28.042Z</time></trkpt><trkpt lat="44.9205317" lon="9.608885"><ele>134.0</ele><time>2026-04-26T14:55:29.043Z</time></trkpt><trkpt lat="44.9204" lon="9.6087483"><ele>133.66666666666666</ele><time>2026-04-26T14:55:30.042Z</time></trkpt><trkpt lat="44.9202617" lon="9.6086183"><ele>133.33333333333334</ele><time>2026-04-26T14:55:31.042Z</time></trkpt><trkpt lat="44.920125" lon="9.6084933"><ele>133.0</ele><time>2026-04-26T14:55:32.043Z</time></trkpt><trkpt lat="44.9199867" lon="9.6083767"><ele>133.66666666666669</ele><time>2026-04-26T14:55:33.042Z</time></trkpt><trkpt lat="44.919845" lon="9.608265"><ele>134.33333333333334</ele><time>2026-04-26T14:55:34.042Z</time></trkpt><trkpt lat="44.9197017" lon="9.6081583"><ele>135.0</ele><time>2026-04-26T14:55:35.043Z</time></trkpt><trkpt lat="44.9195583" lon="9.6080533"><ele>135.0</ele><time>2026-04-26T14:55:36.043Z</time></trkpt><trkpt lat="44.919415" lon="9.607955"><ele>135.0</ele><time>2026-04-26T14:55:37.042Z</time></trkpt><trkpt lat="44.9192767" lon="9.60786"><ele>135.0</ele><time>2026-04-26T14:55:38.042Z</time></trkpt><trkpt lat="44.9191383" lon="9.607765"><ele>135.33333333333334</ele><time>2026-04-26T14:55:39.042Z</time></trkpt><trkpt lat="44.9190033" lon="9.607675"><ele>135.66666666666669</ele><time>2026-04-26T14:55:40.045Z</time></trkpt><trkpt lat="44.9188683" lon="9.6075867"><ele>136.0</ele><time>2026-04-26T14:55:41.042Z</time></trkpt><trkpt lat="44.9187283" lon="9.6074983"><ele>136.0</ele><time>2026-04-26T14:55:42.043Z</time></trkpt><trkpt lat="44.91859" lon="9.6074067"><ele>136.0</ele><time>2026-04-26T14:55:43.041Z</time></trkpt><trkpt lat="44.9184483" lon="9.6073133"><ele>136.0</ele><time>2026-04-26T14:55:44.041Z</time></trkpt><trkpt lat="44.9183067" lon="9.60722"><ele>136.66666666666669</ele><time>2026-04-26T14:55:45.042Z</time></trkpt><trkpt lat="44.9181633" lon="9.6071233"><ele>137.33333333333334</ele><time>2026-04-26T14:55:46.042Z</time></trkpt><trkpt lat="44.9180217" lon="9.6070233"><ele>138.0</ele><time>2026-04-26T14:55:47.043Z</time></trkpt><trkpt lat="44.91788" lon="9.606925"><ele>138.0</ele><time>2026-04-26T14:55:48.043Z</time></trkpt><trkpt lat="44.9177433" lon="9.60682"><ele>138.0</ele><time>2026-04-26T14:55:49.042Z</time></trkpt><trkpt lat="44.9176083" lon="9.606705"><ele>138.0</ele><time>2026-04-26T14:55:50.042Z</time></trkpt><trkpt lat="44.917475" lon="9.6065817"><ele>138.0</ele><time>2026-04-26T14:55:51.043Z</time></trkpt><trkpt lat="44.91734" lon="9.60645"><ele>138.0</ele><time>2026-04-26T14:55:52.041Z</time></trkpt><trkpt lat="44.9172" lon="9.6063083"><ele>138.0</ele><time>2026-04-26T14:55:53.042Z</time></trkpt><trkpt lat="44.9170567" lon="9.6061583"><ele>138.0</ele><time>2026-04-26T14:55:54.041Z</time></trkpt><trkpt lat="44.9169167" lon="9.606005"><ele>138.0</ele><time>2026-04-26T14:55:55.041Z</time></trkpt><trkpt lat="44.91678" lon="9.6058583"><ele>138.0</ele><time>2026-04-26T14:55:56.042Z</time></trkpt><trkpt lat="44.91665" lon="9.6057133"><ele>139.0</ele><time>2026-04-26T14:55:57.042Z</time></trkpt><trkpt lat="44.916525" lon="9.6055667"><ele>140.0</ele><time>2026-04-26T14:55:58.041Z</time></trkpt><trkpt lat="44.916405" lon="9.6054117"><ele>141.0</ele><time>2026-04-26T14:55:59.046Z</time></trkpt><trkpt lat="44.9162917" lon="9.6052467"><ele>141.0</ele><time>2026-04-26T14:56:00.043Z</time></trkpt><trkpt lat="44.91618" lon="9.60507"><ele>141.0</ele><time>2026-04-26T14:56:01.043Z</time></trkpt><trkpt lat="44.9160767" lon="9.6049033"><ele>141.0</ele><time>2026-04-26T14:56:02.043Z</time></trkpt><trkpt lat="44.9159867" lon="9.6047417"><ele>141.0</ele><time>2026-04-26T14:56:03.043Z</time></trkpt><trkpt lat="44.9159067" lon="9.6045783"><ele>141.0</ele><time>2026-04-26T14:56:04.042Z</time></trkpt><trkpt lat="44.9158317" lon="9.6044033"><ele>141.0</ele><time>2026-04-26T14:56:05.044Z</time></trkpt><trkpt lat="44.9157583" lon="9.60422"><ele>141.0</ele><time>2026-04-26T14:56:06.043Z</time></trkpt><trkpt lat="44.9156883" lon="9.6040367"><ele>141.0</ele><time>2026-04-26T14:56:07.043Z</time></trkpt><trkpt lat="44.9156167" lon="9.6038617"><ele>141.0</ele><time>2026-04-26T14:56:08.042Z</time></trkpt><trkpt lat="44.9155467" lon="9.6036883"><ele>141.0</ele><time>2026-04-26T14:56:09.042Z</time></trkpt><trkpt lat="44.9154817" lon="9.6035183"><ele>141.0</ele><time>2026-04-26T14:56:10.042Z</time></trkpt><trkpt lat="44.9154183" lon="9.6033467"><ele>141.0</ele><time>2026-04-26T14:56:11.043Z</time></trkpt><trkpt lat="44.91535" lon="9.60317"><ele>141.0</ele><time>2026-04-26T14:56:12.043Z</time></trkpt><trkpt lat="44.9152767" lon="9.6029917"><ele>141.0</ele><time>2026-04-26T14:56:13.042Z</time></trkpt><trkpt lat="44.9152033" lon="9.6028067"><ele>141.0</ele><time>2026-04-26T14:56:14.042Z</time></trkpt><trkpt lat="44.9151283" lon="9.6026167"><ele>139.66666666666666</ele><time>2026-04-26T14:56:15.042Z</time></trkpt><trkpt lat="44.9150533" lon="9.6024267"><ele>138.33333333333331</ele><time>2026-04-26T14:56:16.043Z</time></trkpt><trkpt lat="44.9149767" lon="9.6022367"><ele>137.0</ele><time>2026-04-26T14:56:17.041Z</time></trkpt><trkpt lat="44.9149" lon="9.602045"><ele>136.33333333333331</ele><time>2026-04-26T14:56:18.042Z</time></trkpt><trkpt lat="44.9148217" lon="9.6018517"><ele>135.66666666666666</ele><time>2026-04-26T14:56:19.042Z</time></trkpt><trkpt lat="44.914745" lon="9.6016617"><ele>135.0</ele><time>2026-04-26T14:56:20.042Z</time></trkpt><trkpt lat="44.91467" lon="9.6014717"><ele>135.0</ele><time>2026-04-26T14:56:21.042Z</time></trkpt><trkpt lat="44.914595" lon="9.6012817"><ele>135.0</ele><time>2026-04-26T14:56:22.042Z</time></trkpt><trkpt lat="44.91452" lon="9.60109"><ele>135.0</ele><time>2026-04-26T14:56:23.041Z</time></trkpt><trkpt lat="44.9144417" lon="9.6008967"><ele>134.66666666666666</ele><time>2026-04-26T14:56:24.041Z</time></trkpt><trkpt lat="44.9143633" lon="9.6007033"><ele>134.33333333333331</ele><time>2026-04-26T14:56:25.042Z</time></trkpt><trkpt lat="44.9142833" lon="9.60051"><ele>134.0</ele><time>2026-04-26T14:56:26.042Z</time></trkpt><trkpt lat="44.914205" lon="9.6003133"><ele>134.66666666666666</ele><time>2026-04-26T14:56:27.044Z</time></trkpt><trkpt lat="44.9141283" lon="9.60012"><ele>135.33333333333334</ele><time>2026-04-26T14:56:28.043Z</time></trkpt><trkpt lat="44.91405" lon="9.5999283"><ele>136.0</ele><time>2026-04-26T14:56:29.043Z</time></trkpt><trkpt lat="44.9139717" lon="9.599735"><ele>136.0</ele><time>2026-04-26T14:56:30.044Z</time></trkpt><trkpt lat="44.9138933" lon="9.5995383"><ele>136.0</ele><time>2026-04-26T14:56:31.049Z</time></trkpt><trkpt lat="44.913815" lon="9.5993383"><ele>136.0</ele><time>2026-04-26T14:56:32.045Z</time></trkpt><trkpt lat="44.9137367" lon="9.599135"><ele>136.33333333333334</ele><time>2026-04-26T14:56:33.043Z</time></trkpt><trkpt lat="44.9136567" lon="9.5989317"><ele>136.66666666666666</ele><time>2026-04-26T14:56:34.041Z</time></trkpt><trkpt lat="44.9135717" lon="9.59872"><ele>137.0</ele><time>2026-04-26T14:56:35.043Z</time></trkpt><trkpt lat="44.91349" lon="9.5985117"><ele>137.33333333333331</ele><time>2026-04-26T14:56:36.042Z</time></trkpt><trkpt lat="44.9134083" lon="9.598305"><ele>137.66666666666666</ele><time>2026-04-26T14:56:37.042Z</time></trkpt><trkpt lat="44.91333" lon="9.5981083"><ele>138.0</ele><time>2026-04-26T14:56:38.042Z</time></trkpt><trkpt lat="44.913255" lon="9.5979233"><ele>137.75</ele><time>2026-04-26T14:56:39.044Z</time></trkpt><trkpt lat="44.9131817" lon="9.5977467"><ele>137.5</ele><time>2026-04-26T14:56:40.043Z</time></trkpt><trkpt lat="44.9131117" lon="9.5975817"><ele>137.25</ele><time>2026-04-26T14:56:41.043Z</time></trkpt><trkpt lat="44.9130433" lon="9.5974267"><ele>137.0</ele><time>2026-04-26T14:56:42.043Z</time></trkpt><trkpt lat="44.9129767" lon="9.597285"><ele>137.0</ele><time>2026-04-26T14:56:43.044Z</time></trkpt><trkpt lat="44.9129067" lon="9.597155"><ele>137.0</ele><time>2026-04-26T14:56:44.043Z</time></trkpt><trkpt lat="44.9128367" lon="9.5970417"><ele>137.0</ele><time>2026-04-26T14:56:45.043Z</time></trkpt><trkpt lat="44.9127717" lon="9.5969483"><ele>137.0</ele><time>2026-04-26T14:56:46.043Z</time></trkpt><trkpt lat="44.91271" lon="9.5968667"><ele>137.0</ele><time>2026-04-26T14:56:47.041Z</time></trkpt><trkpt lat="44.91265" lon="9.5967933"><ele>137.16666666666666</ele><time>2026-04-26T14:56:48.041Z</time></trkpt><trkpt lat="44.9125883" lon="9.5967267"><ele>137.33333333333331</ele><time>2026-04-26T14:56:49.041Z</time></trkpt><trkpt lat="44.91252" lon="9.5966583"><ele>137.5</ele><time>2026-04-26T14:56:50.042Z</time></trkpt><trkpt lat="44.91245" lon="9.59659"><ele>137.66666666666666</ele><time>2026-04-26T14:56:51.042Z</time></trkpt><trkpt lat="44.9123817" lon="9.5965317"><ele>137.83333333333334</ele><time>2026-04-26T14:56:52.042Z</time></trkpt><trkpt lat="44.9123133" lon="9.59648"><ele>138.0</ele><time>2026-04-26T14:56:53.042Z</time></trkpt><trkpt lat="44.9122383" lon="9.5964283"><ele>138.20000000000002</ele><time>2026-04-26T14:56:54.044Z</time></trkpt><trkpt lat="44.91216" lon="9.5963783"><ele>138.4</ele><time>2026-04-26T14:56:55.045Z</time></trkpt><trkpt lat="44.9120767" lon="9.5963317"><ele>138.60000000000002</ele><time>2026-04-26T14:56:56.044Z</time></trkpt><trkpt lat="44.9119883" lon="9.5962833"><ele>138.8</ele><time>2026-04-26T14:56:57.043Z</time></trkpt><trkpt lat="44.9118967" lon="9.5962333"><ele>139.0</ele><time>2026-04-26T14:56:58.042Z</time></trkpt><trkpt lat="44.9118033" lon="9.5961817"><ele>137.6</ele><time>2026-04-26T14:56:59.042Z</time></trkpt><trkpt lat="44.9117083" lon="9.5961317"><ele>136.2</ele><time>2026-04-26T14:57:00.042Z</time></trkpt><trkpt lat="44.911615" lon="9.59608"><ele>134.79999999999998</ele><time>2026-04-26T14:57:01.043Z</time></trkpt><trkpt lat="44.9115133" lon="9.5960267"><ele>133.4</ele><time>2026-04-26T14:57:02.043Z</time></trkpt><trkpt lat="44.9114033" lon="9.59597"><ele>132.0</ele><time>2026-04-26T14:57:03.044Z</time></trkpt><trkpt lat="44.911285" lon="9.5959083"><ele>132.0</ele><time>2026-04-26T14:57:04.043Z</time></trkpt><trkpt lat="44.9111617" lon="9.5958433"><ele>132.0</ele><time>2026-04-26T14:57:05.042Z</time></trkpt><trkpt lat="44.9110317" lon="9.5957767"><ele>132.0</ele><time>2026-04-26T14:57:06.042Z</time></trkpt><trkpt lat="44.9108967" lon="9.5957067"><ele>132.0</ele><time>2026-04-26T14:57:07.042Z</time></trkpt><trkpt lat="44.9107567" lon="9.5956333"><ele>131.75</ele><time>2026-04-26T14:57:08.043Z</time></trkpt><trkpt lat="44.9106183" lon="9.5955567"><ele>131.5</ele><time>2026-04-26T14:57:09.044Z</time></trkpt><trkpt lat="44.910485" lon="9.595475"><ele>131.25</ele><time>2026-04-26T14:57:10.045Z</time></trkpt><trkpt lat="44.9103583" lon="9.5953833"><ele>131.0</ele><time>2026-04-26T14:57:11.043Z</time></trkpt><trkpt lat="44.9102333" lon="9.59528"><ele>131.0</ele><time>2026-04-26T14:57:12.044Z</time></trkpt><trkpt lat="44.9101183" lon="9.5951633"><ele>131.0</ele><time>2026-04-26T14:57:13.045Z</time></trkpt><trkpt lat="44.910005" lon="9.595035"><ele>131.0</ele><time>2026-04-26T14:57:14.042Z</time></trkpt><trkpt lat="44.909895" lon="9.594895"><ele>131.0</ele><time>2026-04-26T14:57:15.042Z</time></trkpt><trkpt lat="44.9097883" lon="9.5947433"><ele>131.0</ele><time>2026-04-26T14:57:16.042Z</time></trkpt><trkpt lat="44.9096817" lon="9.5945817"><ele>131.0</ele><time>2026-04-26T14:57:17.042Z</time></trkpt><trkpt lat="44.9095733" lon="9.5944117"><ele>131.0</ele><time>2026-04-26T14:57:18.043Z</time></trkpt><trkpt lat="44.9094617" lon="9.5942367"><ele>131.0</ele><time>2026-04-26T14:57:19.042Z</time></trkpt><trkpt lat="44.909345" lon="9.5940567"><ele>131.0</ele><time>2026-04-26T14:57:20.043Z</time></trkpt><trkpt lat="44.9092233" lon="9.5938633"><ele>131.0</ele><time>2026-04-26T14:57:21.042Z</time></trkpt><trkpt lat="44.9091" lon="9.5936667"><ele>132.0</ele><time>2026-04-26T14:57:22.042Z</time></trkpt><trkpt lat="44.908985" lon="9.5934883"><ele>133.0</ele><time>2026-04-26T14:57:23.043Z</time></trkpt><trkpt lat="44.908875" lon="9.5933167"><ele>134.0</ele><time>2026-04-26T14:57:24.042Z</time></trkpt><trkpt lat="44.9087683" lon="9.5931533"><ele>134.0</ele><time>2026-04-26T14:57:25.043Z</time></trkpt><trkpt lat="44.90867" lon="9.5929967"><ele>134.0</ele><time>2026-04-26T14:57:26.043Z</time></trkpt><trkpt lat="44.9085717" lon="9.5928467"><ele>134.0</ele><time>2026-04-26T14:57:27.043Z</time></trkpt><trkpt lat="44.9084717" lon="9.5927083"><ele>134.0</ele><time>2026-04-26T14:57:28.041Z</time></trkpt><trkpt lat="44.9083733" lon="9.592585"><ele>134.0</ele><time>2026-04-26T14:57:29.042Z</time></trkpt><trkpt lat="44.908275" lon="9.5924817"><ele>134.0</ele><time>2026-04-26T14:57:30.042Z</time></trkpt><trkpt lat="44.9081817" lon="9.5923917"><ele>134.0</ele><time>2026-04-26T14:57:31.044Z</time></trkpt><trkpt lat="44.9080933" lon="9.5923067"><ele>134.0</ele><time>2026-04-26T14:57:32.042Z</time></trkpt><trkpt lat="44.9080083" lon="9.592235"><ele>134.0</ele><time>2026-04-26T14:57:33.042Z</time></trkpt><trkpt lat="44.9079267" lon="9.59217"><ele>134.0</ele><time>2026-04-26T14:57:34.043Z</time></trkpt><trkpt lat="44.907845" lon="9.5921017"><ele>134.0</ele><time>2026-04-26T14:57:35.042Z</time></trkpt><trkpt lat="44.9077467" lon="9.592025"><ele>134.0</ele><time>2026-04-26T14:57:36.042Z</time></trkpt><trkpt lat="44.9076367" lon="9.5919383"><ele>134.0</ele><time>2026-04-26T14:57:37.044Z</time></trkpt><trkpt lat="44.9075217" lon="9.5918467"><ele>134.25</ele><time>2026-04-26T14:57:38.043Z</time></trkpt><trkpt lat="44.90741" lon="9.5917517"><ele>134.5</ele><time>2026-04-26T14:57:39.043Z</time></trkpt><trkpt lat="44.9073017" lon="9.5916617"><ele>134.75</ele><time>2026-04-26T14:57:40.042Z</time></trkpt><trkpt lat="44.9072017" lon="9.5915783"><ele>135.0</ele><time>2026-04-26T14:57:41.042Z</time></trkpt><trkpt lat="44.9071117" lon="9.5915"><ele>135.0</ele><time>2026-04-26T14:57:42.043Z</time></trkpt><trkpt lat="44.9070283" lon="9.5914283"><ele>135.0</ele><time>2026-04-26T14:57:43.042Z</time></trkpt><trkpt lat="44.9069583" lon="9.5913667"><ele>135.0</ele><time>2026-04-26T14:57:44.042Z</time></trkpt><trkpt lat="44.906895" lon="9.59131"><ele>135.0</ele><time>2026-04-26T14:57:45.043Z</time></trkpt><trkpt lat="44.9068333" lon="9.5912567"><ele>135.0</ele><time>2026-04-26T14:57:46.042Z</time></trkpt><trkpt lat="44.90676" lon="9.5911967"><ele>135.0</ele><time>2026-04-26T14:57:47.043Z</time></trkpt><trkpt lat="44.906675" lon="9.5911233"><ele>136.25</ele><time>2026-04-26T14:57:48.042Z</time></trkpt><trkpt lat="44.9065733" lon="9.5910417"><ele>137.5</ele><time>2026-04-26T14:57:49.044Z</time></trkpt><trkpt lat="44.9064633" lon="9.5909533"><ele>138.75</ele><time>2026-04-26T14:57:50.044Z</time></trkpt><trkpt lat="44.906345" lon="9.5908617"><ele>140.0</ele><time>2026-04-26T14:57:51.043Z</time></trkpt><trkpt lat="44.90622" lon="9.5907583"><ele>140.0</ele><time>2026-04-26T14:57:52.043Z</time></trkpt><trkpt lat="44.9060833" lon="9.590645"><ele>140.0</ele><time>2026-04-26T14:57:53.042Z</time></trkpt><trkpt lat="44.9059383" lon="9.5905267"><ele>140.0</ele><time>2026-04-26T14:57:54.043Z</time></trkpt><trkpt lat="44.90579" lon="9.5904017"><ele>140.0</ele><time>2026-04-26T14:57:55.043Z</time></trkpt><trkpt lat="44.9056417" lon="9.59028"><ele>140.0</ele><time>2026-04-26T14:57:56.044Z</time></trkpt><trkpt lat="44.9054917" lon="9.5901533"><ele>140.0</ele><time>2026-04-26T14:57:57.042Z</time></trkpt><trkpt lat="44.9053333" lon="9.5900233"><ele>140.0</ele><time>2026-04-26T14:57:58.042Z</time></trkpt><trkpt lat="44.9051733" lon="9.5898917"><ele>140.0</ele><time>2026-04-26T14:57:59.043Z</time></trkpt><trkpt lat="44.905015" lon="9.5897617"><ele>140.0</ele><time>2026-04-26T14:58:00.042Z</time></trkpt><trkpt lat="44.9048633" lon="9.589635"><ele>140.33333333333331</ele><time>2026-04-26T14:58:01.043Z</time></trkpt><trkpt lat="44.904715" lon="9.5895133"><ele>140.66666666666666</ele><time>2026-04-26T14:58:02.045Z</time></trkpt><trkpt lat="44.9045767" lon="9.5894"><ele>141.0</ele><time>2026-04-26T14:58:03.042Z</time></trkpt><trkpt lat="44.9044417" lon="9.5892883"><ele>141.0</ele><time>2026-04-26T14:58:04.043Z</time></trkpt><trkpt lat="44.904305" lon="9.5891767"><ele>141.0</ele><time>2026-04-26T14:58:05.043Z</time></trkpt><trkpt lat="44.90417" lon="9.589065"><ele>141.0</ele><time>2026-04-26T14:58:06.048Z</time></trkpt><trkpt lat="44.9040333" lon="9.5889533"><ele>143.33333333333334</ele><time>2026-04-26T14:58:07.044Z</time></trkpt><trkpt lat="44.9038917" lon="9.5888417"><ele>145.66666666666669</ele><time>2026-04-26T14:58:08.044Z</time></trkpt><trkpt lat="44.9037483" lon="9.588725"><ele>148.0</ele><time>2026-04-26T14:58:09.043Z</time></trkpt><trkpt lat="44.9036033" lon="9.5886117"><ele>148.0</ele><time>2026-04-26T14:58:10.042Z</time></trkpt><trkpt lat="44.903465" lon="9.5884983"><ele>148.0</ele><time>2026-04-26T14:58:11.043Z</time></trkpt><trkpt lat="44.9033283" lon="9.58839"><ele>148.0</ele><time>2026-04-26T14:58:12.042Z</time></trkpt><trkpt lat="44.9031967" lon="9.588285"><ele>149.0</ele><time>2026-04-26T14:58:13.044Z</time></trkpt><trkpt lat="44.9030683" lon="9.58818"><ele>150.0</ele><time>2026-04-26T14:58:14.042Z</time></trkpt><trkpt lat="44.9029483" lon="9.58808"><ele>151.0</ele><time>2026-04-26T14:58:15.044Z</time></trkpt><trkpt lat="44.9028367" lon="9.58799"><ele>152.0</ele><time>2026-04-26T14:58:16.042Z</time></trkpt><trkpt lat="44.9027383" lon="9.58791"><ele>153.16666666666666</ele><time>2026-04-26T14:58:17.042Z</time></trkpt><trkpt lat="44.9026617" lon="9.5878433"><ele>154.33333333333331</ele><time>2026-04-26T14:58:18.042Z</time></trkpt><trkpt lat="44.9026033" lon="9.5877917"><ele>155.5</ele><time>2026-04-26T14:58:19.042Z</time></trkpt><trkpt lat="44.90253" lon="9.5877167"><ele>156.66666666666666</ele><time>2026-04-26T14:58:21.044Z</time></trkpt><trkpt lat="44.9024883" lon="9.5876333"><ele>157.83333333333334</ele><time>2026-04-26T14:58:23.043Z</time></trkpt><trkpt lat="44.90248" lon="9.5875183"><ele>159.0</ele><time>2026-04-26T14:58:25.042Z</time></trkpt><trkpt lat="44.902455" lon="9.5874"><ele>159.0</ele><time>2026-04-26T14:58:27.042Z</time></trkpt><trkpt lat="44.9023933" lon="9.5872867"><ele>159.0</ele><time>2026-04-26T14:58:29.045Z</time></trkpt><trkpt lat="44.9022892" lon="9.5871755"><ele>159.0</ele><time>2026-04-26T14:58:31.042Z</time></trkpt><trkpt lat="44.9022175" lon="9.5871115"><ele>159.0</ele><time>2026-04-26T14:58:32.042Z</time></trkpt><trkpt lat="44.9021398" lon="9.5870403"><ele>159.0</ele><time>2026-04-26T14:58:33.043Z</time></trkpt><trkpt lat="44.9020664" lon="9.5869622"><ele>159.0</ele><time>2026-04-26T14:58:34.043Z</time></trkpt><trkpt lat="44.9019945" lon="9.5868828"><ele>159.0</ele><time>2026-04-26T14:58:35.042Z</time></trkpt><trkpt lat="44.9019203" lon="9.5867995"><ele>159.0</ele><time>2026-04-26T14:58:36.042Z</time></trkpt><trkpt lat="44.9018409" lon="9.5867122"><ele>159.0</ele><time>2026-04-26T14:58:37.042Z</time></trkpt><trkpt lat="44.9017524" lon="9.5866236"><ele>159.0</ele><time>2026-04-26T14:58:38.043Z</time></trkpt><trkpt lat="44.901656" lon="9.5865312"><ele>159.0</ele><time>2026-04-26T14:58:39.043Z</time></trkpt><trkpt lat="44.9015534" lon="9.5864328"><ele>159.0</ele><time>2026-04-26T14:58:40.042Z</time></trkpt><trkpt lat="44.9014504" lon="9.586327"><ele>159.0</ele><time>2026-04-26T14:58:41.042Z</time></trkpt><trkpt lat="44.9013547" lon="9.5862126"><ele>159.0</ele><time>2026-04-26T14:58:42.042Z</time></trkpt><trkpt lat="44.9012704" lon="9.5860875"><ele>155.5</ele><time>2026-04-26T14:58:43.042Z</time></trkpt><trkpt lat="44.9011945" lon="9.5859524"><ele>152.0</ele><time>2026-04-26T14:58:44.042Z</time></trkpt><trkpt lat="44.901126" lon="9.5858104"><ele>148.5</ele><time>2026-04-26T14:58:45.042Z</time></trkpt><trkpt lat="44.9010636" lon="9.5856688"><ele>145.0</ele><time>2026-04-26T14:58:46.042Z</time></trkpt><trkpt lat="44.9009985" lon="9.5855298"><ele>145.0</ele><time>2026-04-26T14:58:47.042Z</time></trkpt><trkpt lat="44.9009315" lon="9.5854006"><ele>145.0</ele><time>2026-04-26T14:58:48.043Z</time></trkpt><trkpt lat="44.9008659" lon="9.5852793"><ele>145.0</ele><time>2026-04-26T14:58:49.043Z</time></trkpt><trkpt lat="44.9008054" lon="9.5851625"><ele>145.0</ele><time>2026-04-26T14:58:50.043Z</time></trkpt><trkpt lat="44.9007466" lon="9.5850458"><ele>145.0</ele><time>2026-04-26T14:58:51.043Z</time></trkpt><trkpt lat="44.9006881" lon="9.5849244"><ele>145.2</ele><time>2026-04-26T14:58:52.043Z</time></trkpt><trkpt lat="44.9006309" lon="9.584798"><ele>145.4</ele><time>2026-04-26T14:58:53.042Z</time></trkpt><trkpt lat="44.9005761" lon="9.5846681"><ele>145.6</ele><time>2026-04-26T14:58:54.043Z</time></trkpt><trkpt lat="44.9005244" lon="9.5845325"><ele>145.8</ele><time>2026-04-26T14:58:55.042Z</time></trkpt><trkpt lat="44.9004751" lon="9.5843869"><ele>146.0</ele><time>2026-04-26T14:58:56.042Z</time></trkpt><trkpt lat="44.9004302" lon="9.5842303"><ele>146.0</ele><time>2026-04-26T14:58:57.043Z</time></trkpt><trkpt lat="44.9003887" lon="9.5840663"><ele>146.0</ele><time>2026-04-26T14:58:58.043Z</time></trkpt><trkpt lat="44.9003503" lon="9.5839065"><ele>146.0</ele><time>2026-04-26T14:58:59.043Z</time></trkpt><trkpt lat="44.9003142" lon="9.5837517"><ele>146.0</ele><time>2026-04-26T14:59:00.042Z</time></trkpt><trkpt lat="44.9002803" lon="9.5835985"><ele>145.0</ele><time>2026-04-26T14:59:01.043Z</time></trkpt><trkpt lat="44.900258" lon="9.5834455"><ele>144.0</ele><time>2026-04-26T14:59:02.042Z</time></trkpt><trkpt lat="44.9002516" lon="9.5832874"><ele>143.0</ele><time>2026-04-26T14:59:03.043Z</time></trkpt><trkpt lat="44.9002572" lon="9.5831251"><ele>142.0</ele><time>2026-04-26T14:59:04.042Z</time></trkpt><trkpt lat="44.900269" lon="9.5829576"><ele>140.25</ele><time>2026-04-26T14:59:05.042Z</time></trkpt><trkpt lat="44.9002851" lon="9.5827876"><ele>138.5</ele><time>2026-04-26T14:59:06.042Z</time></trkpt><trkpt lat="44.900301" lon="9.5826235"><ele>136.75</ele><time>2026-04-26T14:59:07.043Z</time></trkpt><trkpt lat="44.9003162" lon="9.5824641"><ele>135.0</ele><time>2026-04-26T14:59:08.043Z</time></trkpt><trkpt lat="44.9003301" lon="9.5823052"><ele>135.0</ele><time>2026-04-26T14:59:09.042Z</time></trkpt><trkpt lat="44.9003447" lon="9.5821469"><ele>135.0</ele><time>2026-04-26T14:59:10.043Z</time></trkpt><trkpt lat="44.900358" lon="9.5819935"><ele>135.0</ele><time>2026-04-26T14:59:11.042Z</time></trkpt><trkpt lat="44.9003702" lon="9.5818504"><ele>135.0</ele><time>2026-04-26T14:59:12.044Z</time></trkpt><trkpt lat="44.9003832" lon="9.5817099"><ele>135.0</ele><time>2026-04-26T14:59:13.044Z</time></trkpt><trkpt lat="44.9003962" lon="9.5815654"><ele>135.0</ele><time>2026-04-26T14:59:14.042Z</time></trkpt><trkpt lat="44.9004113" lon="9.5814154"><ele>135.0</ele><time>2026-04-26T14:59:15.043Z</time></trkpt><trkpt lat="44.9004266" lon="9.5812651"><ele>135.0</ele><time>2026-04-26T14:59:16.042Z</time></trkpt><trkpt lat="44.9004417" lon="9.5811119"><ele>135.0</ele><time>2026-04-26T14:59:17.042Z</time></trkpt><trkpt lat="44.9004533" lon="9.580961"><ele>135.0</ele><time>2026-04-26T14:59:18.043Z</time></trkpt><trkpt lat="44.9004649" lon="9.5808204"><ele>136.33333333333334</ele><time>2026-04-26T14:59:19.043Z</time></trkpt><trkpt lat="44.9004736" lon="9.5806887"><ele>137.66666666666666</ele><time>2026-04-26T14:59:20.045Z</time></trkpt><trkpt lat="44.9004713" lon="9.5805762"><ele>139.0</ele><time>2026-04-26T14:59:21.044Z</time></trkpt><trkpt lat="44.90045" lon="9.5804799"><ele>140.33333333333331</ele><time>2026-04-26T14:59:22.044Z</time></trkpt><trkpt lat="44.900407" lon="9.5804013"><ele>141.66666666666666</ele><time>2026-04-26T14:59:23.044Z</time></trkpt><trkpt lat="44.9003482" lon="9.5803426"><ele>143.0</ele><time>2026-04-26T14:59:24.045Z</time></trkpt><trkpt lat="44.9002738" lon="9.5803071"><ele>145.4</ele><time>2026-04-26T14:59:25.042Z</time></trkpt><trkpt lat="44.9001897" lon="9.5802748"><ele>147.8</ele><time>2026-04-26T14:59:26.042Z</time></trkpt><trkpt lat="44.9000945" lon="9.5802384"><ele>150.2</ele><time>2026-04-26T14:59:27.043Z</time></trkpt><trkpt lat="44.8999969" lon="9.5801985"><ele>152.6</ele><time>2026-04-26T14:59:28.042Z</time></trkpt><trkpt lat="44.8998987" lon="9.5801539"><ele>155.0</ele><time>2026-04-26T14:59:29.042Z</time></trkpt><trkpt lat="44.8997983" lon="9.5800994"><ele>155.0</ele><time>2026-04-26T14:59:30.043Z</time></trkpt><trkpt lat="44.8996972" lon="9.5800433"><ele>155.0</ele><time>2026-04-26T14:59:31.042Z</time></trkpt><trkpt lat="44.8995949" lon="9.579985"><ele>155.0</ele><time>2026-04-26T14:59:32.042Z</time></trkpt><trkpt lat="44.8994995" lon="9.5799205"><ele>155.0</ele><time>2026-04-26T14:59:33.043Z</time></trkpt><trkpt lat="44.8994122" lon="9.5798505"><ele>155.0</ele><time>2026-04-26T14:59:34.043Z</time></trkpt><trkpt lat="44.8993323" lon="9.5797848"><ele>155.0</ele><time>2026-04-26T14:59:35.043Z</time></trkpt><trkpt lat="44.8992592" lon="9.5797249"><ele>155.0</ele><time>2026-04-26T14:59:36.042Z</time></trkpt><trkpt lat="44.8991836" lon="9.5796699"><ele>155.0</ele><time>2026-04-26T14:59:37.042Z</time></trkpt><trkpt lat="44.8991007" lon="9.5796105"><ele>155.0</ele><time>2026-04-26T14:59:38.044Z</time></trkpt><trkpt lat="44.8990106" lon="9.5795501"><ele>155.0</ele><time>2026-04-26T14:59:39.044Z</time></trkpt><trkpt lat="44.8989155" lon="9.5794871"><ele>156.2</ele><time>2026-04-26T14:59:40.042Z</time></trkpt><trkpt lat="44.8988231" lon="9.5794177"><ele>157.4</ele><time>2026-04-26T14:59:41.042Z</time></trkpt><trkpt lat="44.8987318" lon="9.579349"><ele>158.60000000000002</ele><time>2026-04-26T14:59:42.043Z</time></trkpt><trkpt lat="44.8986369" lon="9.5792732"><ele>159.8</ele><time>2026-04-26T14:59:43.044Z</time></trkpt><trkpt lat="44.8985462" lon="9.5791879"><ele>161.0</ele><time>2026-04-26T14:59:44.044Z</time></trkpt><trkpt lat="44.8984617" lon="9.5790961"><ele>161.5</ele><time>2026-04-26T14:59:45.042Z</time></trkpt><trkpt lat="44.8983795" lon="9.5789962"><ele>162.0</ele><time>2026-04-26T14:59:46.042Z</time></trkpt><trkpt lat="44.8982982" lon="9.5788895"><ele>162.5</ele><time>2026-04-26T14:59:47.044Z</time></trkpt><trkpt lat="44.8982165" lon="9.578775"><ele>163.0</ele><time>2026-04-26T14:59:48.044Z</time></trkpt><trkpt lat="44.8981347" lon="9.5786546"><ele>163.0</ele><time>2026-04-26T14:59:49.043Z</time></trkpt><trkpt lat="44.8980528" lon="9.5785336"><ele>163.0</ele><time>2026-04-26T14:59:50.043Z</time></trkpt><trkpt lat="44.8979728" lon="9.5784153"><ele>163.0</ele><time>2026-04-26T14:59:51.045Z</time></trkpt><trkpt lat="44.8978996" lon="9.5783079"><ele>163.0</ele><time>2026-04-26T14:59:52.042Z</time></trkpt><trkpt lat="44.8978296" lon="9.5782088"><ele>163.0</ele><time>2026-04-26T14:59:53.042Z</time></trkpt><trkpt lat="44.8977661" lon="9.5781192"><ele>163.0</ele><time>2026-04-26T14:59:54.043Z</time></trkpt><trkpt lat="44.8977064" lon="9.5780333"><ele>163.0</ele><time>2026-04-26T14:59:55.043Z</time></trkpt><trkpt lat="44.8976467" lon="9.5779484"><ele>163.0</ele><time>2026-04-26T14:59:56.042Z</time></trkpt><trkpt lat="44.8975852" lon="9.5778586"><ele>163.0</ele><time>2026-04-26T14:59:57.043Z</time></trkpt><trkpt lat="44.8975275" lon="9.5777733"><ele>163.0</ele><time>2026-04-26T14:59:58.042Z</time></trkpt><trkpt lat="44.8974756" lon="9.5776969"><ele>163.0</ele><time>2026-04-26T14:59:59.042Z</time></trkpt><trkpt lat="44.8974133" lon="9.5776113"><ele>163.5</ele><time>2026-04-26T15:00:01.042Z</time></trkpt><trkpt lat="44.8973596" lon="9.577533"><ele>164.0</ele><time>2026-04-26T15:00:04.041Z</time></trkpt><trkpt lat="44.8973153" lon="9.5774486"><ele>164.5</ele><time>2026-04-26T15:00:06.042Z</time></trkpt><trkpt lat="44.8972654" lon="9.5773339"><ele>165.0</ele><time>2026-04-26T15:00:08.042Z</time></trkpt><trkpt lat="44.897166" lon="9.5772441"><ele>165.5</ele><time>2026-04-26T15:00:10.042Z</time></trkpt><trkpt lat="44.8970942" lon="9.5772179"><ele>166.0</ele><time>2026-04-26T15:00:11.043Z</time></trkpt><trkpt lat="44.8970135" lon="9.5771971"><ele>166.0</ele><time>2026-04-26T15:00:12.041Z</time></trkpt><trkpt lat="44.8969287" lon="9.5771704"><ele>166.0</ele><time>2026-04-26T15:00:13.041Z</time></trkpt><trkpt lat="44.8968387" lon="9.5771309"><ele>166.0</ele><time>2026-04-26T15:00:14.041Z</time></trkpt><trkpt lat="44.8967519" lon="9.5770783"><ele>166.0</ele><time>2026-04-26T15:00:15.044Z</time></trkpt><trkpt lat="44.8966696" lon="9.5770128"><ele>166.0</ele><time>2026-04-26T15:00:16.042Z</time></trkpt><trkpt lat="44.8965857" lon="9.5769402"><ele>166.4</ele><time>2026-04-26T15:00:17.042Z</time></trkpt><trkpt lat="44.8964991" lon="9.5768577"><ele>166.8</ele><time>2026-04-26T15:00:18.042Z</time></trkpt><trkpt lat="44.896405" lon="9.5767717"><ele>167.20000000000002</ele><time>2026-04-26T15:00:19.042Z</time></trkpt><trkpt lat="44.8963083" lon="9.5766833"><ele>167.60000000000002</ele><time>2026-04-26T15:00:20.042Z</time></trkpt><trkpt lat="44.8962117" lon="9.5765933"><ele>168.0</ele><time>2026-04-26T15:00:21.043Z</time></trkpt><trkpt lat="44.8961117" lon="9.5765017"><ele>168.0</ele><time>2026-04-26T15:00:22.041Z</time></trkpt><trkpt lat="44.8960083" lon="9.57641"><ele>168.0</ele><time>2026-04-26T15:00:23.042Z</time></trkpt><trkpt lat="44.8959117" lon="9.5763217"><ele>168.0</ele><time>2026-04-26T15:00:24.043Z</time></trkpt><trkpt lat="44.895825" lon="9.5762417"><ele>168.0</ele><time>2026-04-26T15:00:25.041Z</time></trkpt><trkpt lat="44.89574" lon="9.576165"><ele>168.0</ele><time>2026-04-26T15:00:26.044Z</time></trkpt><trkpt lat="44.8956533" lon="9.576085"><ele>167.5</ele><time>2026-04-26T15:00:27.043Z</time></trkpt><trkpt lat="44.8955633" lon="9.5760033"><ele>167.0</ele><time>2026-04-26T15:00:28.041Z</time></trkpt><trkpt lat="44.8954667" lon="9.5759167"><ele>166.5</ele><time>2026-04-26T15:00:29.043Z</time></trkpt><trkpt lat="44.89537" lon="9.5758283"><ele>166.0</ele><time>2026-04-26T15:00:30.042Z</time></trkpt><trkpt lat="44.89527" lon="9.5757367"><ele>166.0</ele><time>2026-04-26T15:00:31.041Z</time></trkpt><trkpt lat="44.895165" lon="9.5756467"><ele>166.0</ele><time>2026-04-26T15:00:32.041Z</time></trkpt><trkpt lat="44.8950583" lon="9.5755517"><ele>166.0</ele><time>2026-04-26T15:00:33.042Z</time></trkpt><trkpt lat="44.89495" lon="9.5754517"><ele>166.0</ele><time>2026-04-26T15:00:34.041Z</time></trkpt><trkpt lat="44.8948417" lon="9.57535"><ele>167.5</ele><time>2026-04-26T15:00:35.041Z</time></trkpt><trkpt lat="44.8947333" lon="9.5752483"><ele>169.0</ele><time>2026-04-26T15:00:36.042Z</time></trkpt><trkpt lat="44.89462" lon="9.575145"><ele>170.5</ele><time>2026-04-26T15:00:37.042Z</time></trkpt><trkpt lat="44.89451" lon="9.5750433"><ele>172.0</ele><time>2026-04-26T15:00:38.042Z</time></trkpt><trkpt lat="44.8943983" lon="9.57495"><ele>172.0</ele><time>2026-04-26T15:00:39.042Z</time></trkpt><trkpt lat="44.8942833" lon="9.57486"><ele>172.0</ele><time>2026-04-26T15:00:40.041Z</time></trkpt><trkpt lat="44.894165" lon="9.5747717"><ele>172.0</ele><time>2026-04-26T15:00:41.041Z</time></trkpt><trkpt lat="44.894045" lon="9.5746933"><ele>172.0</ele><time>2026-04-26T15:00:42.043Z</time></trkpt><trkpt lat="44.893925" lon="9.5746233"><ele>171.75</ele><time>2026-04-26T15:00:43.042Z</time></trkpt><trkpt lat="44.8938017" lon="9.5745583"><ele>171.5</ele><time>2026-04-26T15:00:44.041Z</time></trkpt><trkpt lat="44.8936783" lon="9.5744933"><ele>171.25</ele><time>2026-04-26T15:00:45.042Z</time></trkpt><trkpt lat="44.8935533" lon="9.5744267"><ele>171.0</ele><time>2026-04-26T15:00:46.043Z</time></trkpt><trkpt lat="44.8934267" lon="9.5743583"><ele>171.5</ele><time>2026-04-26T15:00:47.041Z</time></trkpt><trkpt lat="44.893305" lon="9.5742917"><ele>172.0</ele><time>2026-04-26T15:00:48.044Z</time></trkpt><trkpt lat="44.893185" lon="9.5742233"><ele>172.5</ele><time>2026-04-26T15:00:49.042Z</time></trkpt><trkpt lat="44.89307" lon="9.5741433"><ele>173.0</ele><time>2026-04-26T15:00:50.043Z</time></trkpt><trkpt lat="44.8929633" lon="9.5740467"><ele>173.0</ele><time>2026-04-26T15:00:51.042Z</time></trkpt><trkpt lat="44.8928617" lon="9.5739317"><ele>173.0</ele><time>2026-04-26T15:00:52.043Z</time></trkpt><trkpt lat="44.892765" lon="9.573805"><ele>173.0</ele><time>2026-04-26T15:00:53.041Z</time></trkpt><trkpt lat="44.8926683" lon="9.5736733"><ele>173.0</ele><time>2026-04-26T15:00:54.042Z</time></trkpt><trkpt lat="44.8925617" lon="9.5735367"><ele>174.66666666666666</ele><time>2026-04-26T15:00:55.043Z</time></trkpt><trkpt lat="44.8924433" lon="9.5733967"><ele>176.33333333333334</ele><time>2026-04-26T15:00:56.042Z</time></trkpt><trkpt lat="44.8923133" lon="9.57325"><ele>178.0</ele><time>2026-04-26T15:00:57.042Z</time></trkpt><trkpt lat="44.892175" lon="9.5730867"><ele>178.0</ele><time>2026-04-26T15:00:58.042Z</time></trkpt><trkpt lat="44.8920417" lon="9.57291"><ele>178.0</ele><time>2026-04-26T15:00:59.041Z</time></trkpt><trkpt lat="44.8919217" lon="9.572725"><ele>178.0</ele><time>2026-04-26T15:01:00.042Z</time></trkpt><trkpt lat="44.8918117" lon="9.5725533"><ele>179.66666666666669</ele><time>2026-04-26T15:01:01.042Z</time></trkpt><trkpt lat="44.8916983" lon="9.5724033"><ele>181.33333333333334</ele><time>2026-04-26T15:01:02.041Z</time></trkpt><trkpt lat="44.891575" lon="9.5722767"><ele>183.0</ele><time>2026-04-26T15:01:03.043Z</time></trkpt><trkpt lat="44.8914483" lon="9.5721583"><ele>183.0</ele><time>2026-04-26T15:01:04.041Z</time></trkpt><trkpt lat="44.8913233" lon="9.57204"><ele>183.0</ele><time>2026-04-26T15:01:05.041Z</time></trkpt><trkpt lat="44.8912033" lon="9.5719117"><ele>183.0</ele><time>2026-04-26T15:01:06.042Z</time></trkpt><trkpt lat="44.8910933" lon="9.5717733"><ele>183.0</ele><time>2026-04-26T15:01:07.042Z</time></trkpt><trkpt lat="44.8909917" lon="9.57163"><ele>182.0</ele><time>2026-04-26T15:01:08.041Z</time></trkpt><trkpt lat="44.890895" lon="9.5714883"><ele>181.0</ele><time>2026-04-26T15:01:09.042Z</time></trkpt><trkpt lat="44.8907967" lon="9.5713483"><ele>180.0</ele><time>2026-04-26T15:01:10.043Z</time></trkpt><trkpt lat="44.8907" lon="9.5712267"><ele>179.0</ele><time>2026-04-26T15:01:11.043Z</time></trkpt><trkpt lat="44.8906083" lon="9.5711117"><ele>183.75</ele><time>2026-04-26T15:01:12.043Z</time></trkpt><trkpt lat="44.8905133" lon="9.57101"><ele>188.5</ele><time>2026-04-26T15:01:13.043Z</time></trkpt><trkpt lat="44.8904133" lon="9.5709317"><ele>193.25</ele><time>2026-04-26T15:01:14.045Z</time></trkpt><trkpt lat="44.8903083" lon="9.5708733"><ele>198.0</ele><time>2026-04-26T15:01:15.044Z</time></trkpt><trkpt lat="44.8902033" lon="9.5708283"><ele>198.0</ele><time>2026-04-26T15:01:16.041Z</time></trkpt><trkpt lat="44.890105" lon="9.57077"><ele>198.0</ele><time>2026-04-26T15:01:17.041Z</time></trkpt><trkpt lat="44.890015" lon="9.570695"><ele>198.0</ele><time>2026-04-26T15:01:18.041Z</time></trkpt><trkpt lat="44.88993" lon="9.570605"><ele>198.0</ele><time>2026-04-26T15:01:19.041Z</time></trkpt><trkpt lat="44.8898483" lon="9.5705083"><ele>198.0</ele><time>2026-04-26T15:01:20.042Z</time></trkpt><trkpt lat="44.8897683" lon="9.5704183"><ele>196.60000000000002</ele><time>2026-04-26T15:01:21.042Z</time></trkpt><trkpt lat="44.889695" lon="9.5703217"><ele>195.20000000000002</ele><time>2026-04-26T15:01:22.041Z</time></trkpt><trkpt lat="44.8896367" lon="9.5702117"><ele>193.8</ele><time>2026-04-26T15:01:23.041Z</time></trkpt><trkpt lat="44.889605" lon="9.5700817"><ele>192.4</ele><time>2026-04-26T15:01:24.043Z</time></trkpt><trkpt lat="44.8895967" lon="9.569935"><ele>191.0</ele><time>2026-04-26T15:01:25.042Z</time></trkpt><trkpt lat="44.8896183" lon="9.5697883"><ele>191.0</ele><time>2026-04-26T15:01:26.041Z</time></trkpt><trkpt lat="44.8896683" lon="9.5696533"><ele>191.0</ele><time>2026-04-26T15:01:27.043Z</time></trkpt><trkpt lat="44.8897333" lon="9.5695317"><ele>191.0</ele><time>2026-04-26T15:01:28.041Z</time></trkpt><trkpt lat="44.8898067" lon="9.569425"><ele>191.0</ele><time>2026-04-26T15:01:29.042Z</time></trkpt><trkpt lat="44.8898817" lon="9.5693133"><ele>191.0</ele><time>2026-04-26T15:01:30.042Z</time></trkpt><trkpt lat="44.8899467" lon="9.569195"><ele>191.0</ele><time>2026-04-26T15:01:31.042Z</time></trkpt><trkpt lat="44.889995" lon="9.5690617"><ele>191.0</ele><time>2026-04-26T15:01:32.041Z</time></trkpt><trkpt lat="44.8900217" lon="9.56891"><ele>191.0</ele><time>2026-04-26T15:01:33.043Z</time></trkpt><trkpt lat="44.89003" lon="9.5687433"><ele>191.0</ele><time>2026-04-26T15:01:34.041Z</time></trkpt><trkpt lat="44.8900333" lon="9.5685833"><ele>191.0</ele><time>2026-04-26T15:01:35.042Z</time></trkpt><trkpt lat="44.89004" lon="9.5684317"><ele>191.0</ele><time>2026-04-26T15:01:36.042Z</time></trkpt><trkpt lat="44.8900567" lon="9.5682867"><ele>191.0</ele><time>2026-04-26T15:01:37.041Z</time></trkpt><trkpt lat="44.8900767" lon="9.5681467"><ele>191.0</ele><time>2026-04-26T15:01:38.044Z</time></trkpt><trkpt lat="44.89009" lon="9.5680033"><ele>191.0</ele><time>2026-04-26T15:01:39.045Z</time></trkpt><trkpt lat="44.8900867" lon="9.5678533"><ele>191.0</ele><time>2026-04-26T15:01:40.041Z</time></trkpt><trkpt lat="44.8900717" lon="9.5677083"><ele>192.4</ele><time>2026-04-26T15:01:41.041Z</time></trkpt><trkpt lat="44.8900467" lon="9.56756"><ele>193.8</ele><time>2026-04-26T15:01:42.042Z</time></trkpt><trkpt lat="44.8900233" lon="9.5674117"><ele>195.20000000000002</ele><time>2026-04-26T15:01:43.042Z</time></trkpt><trkpt lat="44.8900117" lon="9.567265"><ele>196.60000000000002</ele><time>2026-04-26T15:01:44.042Z</time></trkpt><trkpt lat="44.8900083" lon="9.567115"><ele>198.0</ele><time>2026-04-26T15:01:45.043Z</time></trkpt><trkpt lat="44.8900117" lon="9.5669667"><ele>198.60000000000002</ele><time>2026-04-26T15:01:46.042Z</time></trkpt><trkpt lat="44.890015" lon="9.5668183"><ele>199.20000000000002</ele><time>2026-04-26T15:01:47.041Z</time></trkpt><trkpt lat="44.8900183" lon="9.5666817"><ele>199.8</ele><time>2026-04-26T15:01:48.041Z</time></trkpt><trkpt lat="44.890015" lon="9.5665517"><ele>200.4</ele><time>2026-04-26T15:01:49.043Z</time></trkpt><trkpt lat="44.8900017" lon="9.56642"><ele>201.0</ele><time>2026-04-26T15:01:50.042Z</time></trkpt><trkpt lat="44.8899717" lon="9.5663"><ele>201.20000000000002</ele><time>2026-04-26T15:01:51.041Z</time></trkpt><trkpt lat="44.8899217" lon="9.5661867"><ele>201.4</ele><time>2026-04-26T15:01:52.041Z</time></trkpt><trkpt lat="44.8898433" lon="9.5660983"><ele>201.6</ele><time>2026-04-26T15:01:53.041Z</time></trkpt><trkpt lat="44.8897483" lon="9.5660333"><ele>201.8</ele><time>2026-04-26T15:01:54.042Z</time></trkpt><trkpt lat="44.889645" lon="9.5659783"><ele>202.0</ele><time>2026-04-26T15:01:55.041Z</time></trkpt><trkpt lat="44.889535" lon="9.5659367"><ele>202.0</ele><time>2026-04-26T15:01:56.041Z</time></trkpt><trkpt lat="44.8894217" lon="9.5658967"><ele>202.0</ele><time>2026-04-26T15:01:57.041Z</time></trkpt><trkpt lat="44.889305" lon="9.5658567"><ele>202.0</ele><time>2026-04-26T15:01:58.042Z</time></trkpt><trkpt lat="44.88918" lon="9.5658133"><ele>202.0</ele><time>2026-04-26T15:01:59.042Z</time></trkpt><trkpt lat="44.8890483" lon="9.565765"><ele>200.6</ele><time>2026-04-26T15:02:00.044Z</time></trkpt><trkpt lat="44.8889167" lon="9.5657117"><ele>199.2</ele><time>2026-04-26T15:02:01.042Z</time></trkpt><trkpt lat="44.8887983" lon="9.565655"><ele>197.8</ele><time>2026-04-26T15:02:02.041Z</time></trkpt><trkpt lat="44.8887" lon="9.565605"><ele>196.4</ele><time>2026-04-26T15:02:03.042Z</time></trkpt><trkpt lat="44.888625" lon="9.5655633"><ele>195.0</ele><time>2026-04-26T15:02:04.042Z</time></trkpt><trkpt lat="44.8885467" lon="9.5654883"><ele>196.0</ele><time>2026-04-26T15:02:06.042Z</time></trkpt><trkpt lat="44.8885767" lon="9.5653483"><ele>197.0</ele><time>2026-04-26T15:02:10.042Z</time></trkpt><trkpt lat="44.8886517" lon="9.565195"><ele>198.0</ele><time>2026-04-26T15:02:12.041Z</time></trkpt><trkpt lat="44.888695" lon="9.5650967"><ele>199.0</ele><time>2026-04-26T15:02:13.041Z</time></trkpt><trkpt lat="44.8887417" lon="9.5649817"><ele>200.0</ele><time>2026-04-26T15:02:14.044Z</time></trkpt><trkpt lat="44.8887967" lon="9.564855"><ele>200.0</ele><time>2026-04-26T15:02:15.043Z</time></trkpt><trkpt lat="44.8888533" lon="9.5647283"><ele>200.0</ele><time>2026-04-26T15:02:16.041Z</time></trkpt><trkpt lat="44.8889167" lon="9.56461"><ele>200.0</ele><time>2026-04-26T15:02:17.042Z</time></trkpt><trkpt lat="44.8889917" lon="9.5645033"><ele>200.0</ele><time>2026-04-26T15:02:18.041Z</time></trkpt><trkpt lat="44.8890833" lon="9.5644133"><ele>200.0</ele><time>2026-04-26T15:02:19.041Z</time></trkpt><trkpt lat="44.889185" lon="9.56433"><ele>203.0</ele><time>2026-04-26T15:02:20.042Z</time></trkpt><trkpt lat="44.8892917" lon="9.5642467"><ele>206.0</ele><time>2026-04-26T15:02:21.042Z</time></trkpt><trkpt lat="44.8894017" lon="9.5641633"><ele>209.0</ele><time>2026-04-26T15:02:22.041Z</time></trkpt><trkpt lat="44.8895083" lon="9.5640767"><ele>212.0</ele><time>2026-04-26T15:02:23.042Z</time></trkpt><trkpt lat="44.8896083" lon="9.5639833"><ele>212.0</ele><time>2026-04-26T15:02:24.042Z</time></trkpt><trkpt lat="44.889705" lon="9.5638767"><ele>212.0</ele><time>2026-04-26T15:02:25.042Z</time></trkpt><trkpt lat="44.8898083" lon="9.5637717"><ele>212.0</ele><time>2026-04-26T15:02:26.042Z</time></trkpt><trkpt lat="44.8899017" lon="9.5636783"><ele>212.0</ele><time>2026-04-26T15:02:27.042Z</time></trkpt><trkpt lat="44.8899767" lon="9.5636033"><ele>213.6</ele><time>2026-04-26T15:02:28.041Z</time></trkpt><trkpt lat="44.8900333" lon="9.5635317"><ele>215.2</ele><time>2026-04-26T15:02:29.042Z</time></trkpt><trkpt lat="44.89007" lon="9.5634567"><ele>216.8</ele><time>2026-04-26T15:02:30.042Z</time></trkpt><trkpt lat="44.8900683" lon="9.5633183"><ele>218.4</ele><time>2026-04-26T15:02:32.042Z</time></trkpt><trkpt lat="44.88996" lon="9.5632167"><ele>220.0</ele><time>2026-04-26T15:02:34.041Z</time></trkpt><trkpt lat="44.8898617" lon="9.5631683"><ele>220.0</ele><time>2026-04-26T15:02:35.042Z</time></trkpt><trkpt lat="44.8897283" lon="9.56311"><ele>220.0</ele><time>2026-04-26T15:02:36.042Z</time></trkpt><trkpt lat="44.8896" lon="9.5630567"><ele>220.0</ele><time>2026-04-26T15:02:37.043Z</time></trkpt><trkpt lat="44.8894833" lon="9.5630217"><ele>220.0</ele><time>2026-04-26T15:02:38.042Z</time></trkpt><trkpt lat="44.8893833" lon="9.5629883"><ele>220.0</ele><time>2026-04-26T15:02:39.042Z</time></trkpt><trkpt lat="44.8892983" lon="9.5629483"><ele>220.0</ele><time>2026-04-26T15:02:40.042Z</time></trkpt><trkpt lat="44.8892217" lon="9.5628883"><ele>220.0</ele><time>2026-04-26T15:02:41.043Z</time></trkpt><trkpt lat="44.8891517" lon="9.56281"><ele>220.0</ele><time>2026-04-26T15:02:42.041Z</time></trkpt><trkpt lat="44.8890833" lon="9.5627183"><ele>220.0</ele><time>2026-04-26T15:02:43.043Z</time></trkpt><trkpt lat="44.8890183" lon="9.5626233"><ele>221.83333333333331</ele><time>2026-04-26T15:02:44.041Z</time></trkpt><trkpt lat="44.888965" lon="9.5625217"><ele>223.66666666666666</ele><time>2026-04-26T15:02:45.042Z</time></trkpt><trkpt lat="44.888935" lon="9.5624217"><ele>225.5</ele><time>2026-04-26T15:02:46.041Z</time></trkpt><trkpt lat="44.8889167" lon="9.56233"><ele>227.33333333333331</ele><time>2026-04-26T15:02:47.043Z</time></trkpt><trkpt lat="44.8888833" lon="9.5621967"><ele>229.16666666666666</ele><time>2026-04-26T15:02:49.042Z</time></trkpt><trkpt lat="44.8888717" lon="9.5621067"><ele>231.0</ele><time>2026-04-26T15:02:50.041Z</time></trkpt><trkpt lat="44.8888633" lon="9.5620183"><ele>231.0</ele><time>2026-04-26T15:02:51.042Z</time></trkpt><trkpt lat="44.8889033" lon="9.5618983"><ele>231.00000000000003</ele><time>2026-04-26T15:02:53.045Z</time></trkpt><trkpt lat="44.88899" lon="9.5618917"><ele>231.00000000000003</ele><time>2026-04-26T15:02:55.042Z</time></trkpt><trkpt lat="44.8890467" lon="9.5620233"><ele>231.0</ele><time>2026-04-26T15:02:57.044Z</time></trkpt><trkpt lat="44.889055" lon="9.5621233"><ele>231.0</ele><time>2026-04-26T15:02:58.042Z</time></trkpt><trkpt lat="44.8891" lon="9.56228"><ele>231.0</ele><time>2026-04-26T15:03:00.042Z</time></trkpt><trkpt lat="44.8892267" lon="9.5624017"><ele>231.0</ele><time>2026-04-26T15:03:02.043Z</time></trkpt><trkpt lat="44.8893233" lon="9.56246"><ele>231.0</ele><time>2026-04-26T15:03:03.042Z</time></trkpt><trkpt lat="44.8894233" lon="9.56251"><ele>231.0</ele><time>2026-04-26T15:03:04.042Z</time></trkpt><trkpt lat="44.8895133" lon="9.56254"><ele>231.66666666666666</ele><time>2026-04-26T15:03:05.041Z</time></trkpt><trkpt lat="44.889595" lon="9.56253"><ele>232.33333333333331</ele><time>2026-04-26T15:03:06.042Z</time></trkpt><trkpt lat="44.8896733" lon="9.56249"><ele>233.0</ele><time>2026-04-26T15:03:07.042Z</time></trkpt><trkpt lat="44.88974" lon="9.56242"><ele>233.66666666666666</ele><time>2026-04-26T15:03:08.042Z</time></trkpt><trkpt lat="44.8897967" lon="9.562335"><ele>234.33333333333331</ele><time>2026-04-26T15:03:09.042Z</time></trkpt><trkpt lat="44.8898333" lon="9.5622417"><ele>235.0</ele><time>2026-04-26T15:03:10.042Z</time></trkpt><trkpt lat="44.8898533" lon="9.5621433"><ele>234.99999999999997</ele><time>2026-04-26T15:03:11.042Z</time></trkpt><trkpt lat="44.8898517" lon="9.5620433"><ele>235.0</ele><time>2026-04-26T15:03:12.043Z</time></trkpt><trkpt lat="44.8898167" lon="9.56194"><ele>235.0</ele><time>2026-04-26T15:03:13.042Z</time></trkpt><trkpt lat="44.8897717" lon="9.561835"><ele>235.0</ele><time>2026-04-26T15:03:14.042Z</time></trkpt><trkpt lat="44.8897083" lon="9.56172"><ele>234.99999999999997</ele><time>2026-04-26T15:03:15.042Z</time></trkpt><trkpt lat="44.8896483" lon="9.5616"><ele>235.0</ele><time>2026-04-26T15:03:16.042Z</time></trkpt><trkpt lat="44.88961" lon="9.5614817"><ele>237.83333333333331</ele><time>2026-04-26T15:03:17.042Z</time></trkpt><trkpt lat="44.8895833" lon="9.56136"><ele>240.66666666666666</ele><time>2026-04-26T15:03:18.042Z</time></trkpt><trkpt lat="44.8895467" lon="9.5612633"><ele>243.5</ele><time>2026-04-26T15:03:19.043Z</time></trkpt><trkpt lat="44.8894967" lon="9.5611933"><ele>246.33333333333331</ele><time>2026-04-26T15:03:20.042Z</time></trkpt><trkpt lat="44.8894117" lon="9.5612083"><ele>249.16666666666666</ele><time>2026-04-26T15:03:21.042Z</time></trkpt><trkpt lat="44.8893367" lon="9.5612267"><ele>252.0</ele><time>2026-04-26T15:03:22.042Z</time></trkpt><trkpt lat="44.8892617" lon="9.5612483"><ele>250.0</ele><time>2026-04-26T15:03:23.041Z</time></trkpt><trkpt lat="44.8891933" lon="9.5612517"><ele>248.0</ele><time>2026-04-26T15:03:24.043Z</time></trkpt><trkpt lat="44.88909" lon="9.5611917"><ele>246.0</ele><time>2026-04-26T15:03:26.042Z</time></trkpt><trkpt lat="44.8956533" lon="9.576085"><ele>226.0</ele><time>2026-04-26T15:00:27.043Z</time></trkpt><trkpt lat="44.8955633" lon="9.5760033"><ele>206.0</ele><time>2026-04-26T15:00:28.041Z</time></trkpt><trkpt lat="44.8954667" lon="9.5759167"><ele>186.0</ele><time>2026-04-26T15:00:29.043Z</time></trkpt><trkpt lat="44.89537" lon="9.5758283"><ele>166.0</ele><time>2026-04-26T15:00:30.042Z</time></trkpt><trkpt lat="44.89527" lon="9.5757367"><ele>166.0</ele><time>2026-04-26T15:00:31.041Z</time></trkpt><trkpt lat="44.895165" lon="9.5756467"><ele>166.0</ele><time>2026-04-26T15:00:32.041Z</time></trkpt><trkpt lat="44.8950583" lon="9.5755517"><ele>166.0</ele><time>2026-04-26T15:00:33.042Z</time></trkpt><trkpt lat="44.89495" lon="9.5754517"><ele>166.0</ele><time>2026-04-26T15:00:34.041Z</time></trkpt><trkpt lat="44.8948417" lon="9.57535"><ele>167.5</ele><time>2026-04-26T15:00:35.041Z</time></trkpt><trkpt lat="44.8947333" lon="9.5752483"><ele>169.0</ele><time>2026-04-26T15:00:36.042Z</time></trkpt><trkpt lat="44.89462" lon="9.575145"><ele>170.5</ele><time>2026-04-26T15:00:37.042Z</time></trkpt><trkpt lat="44.89451" lon="9.5750433"><ele>172.0</ele><time>2026-04-26T15:00:38.042Z</time></trkpt><trkpt lat="44.8943983" lon="9.57495"><ele>172.0</ele><time>2026-04-26T15:00:39.042Z</time></trkpt><trkpt lat="44.8942833" lon="9.57486"><ele>172.0</ele><time>2026-04-26T15:00:40.041Z</time></trkpt><trkpt lat="44.894165" lon="9.5747717"><ele>172.0</ele><time>2026-04-26T15:00:41.041Z</time></trkpt><trkpt lat="44.894045" lon="9.5746933"><ele>172.0</ele><time>2026-04-26T15:00:42.043Z</time></trkpt><trkpt lat="44.893925" lon="9.5746233"><ele>171.75</ele><time>2026-04-26T15:00:43.042Z</time></trkpt><trkpt lat="44.8938017" lon="9.5745583"><ele>171.5</ele><time>2026-04-26T15:00:44.041Z</time></trkpt><trkpt lat="44.8936783" lon="9.5744933"><ele>171.25</ele><time>2026-04-26T15:00:45.042Z</time></trkpt><trkpt lat="44.8935533" lon="9.5744267"><ele>171.0</ele><time>2026-04-26T15:00:46.043Z</time></trkpt><trkpt lat="44.893305" lon="9.5742917"><ele>171.5</ele><time>2026-04-26T15:00:48.044Z</time></trkpt><trkpt lat="44.893185" lon="9.5742233"><ele>172.0</ele><time>2026-04-26T15:00:49.042Z</time></trkpt><trkpt lat="44.89307" lon="9.5741433"><ele>172.5</ele><time>2026-04-26T15:00:50.043Z</time></trkpt><trkpt lat="44.8929633" lon="9.5740467"><ele>173.0</ele><time>2026-04-26T15:00:51.042Z</time></trkpt><trkpt lat="44.8928617" lon="9.5739317"><ele>173.0</ele><time>2026-04-26T15:00:52.043Z</time></trkpt><trkpt lat="44.892765" lon="9.573805"><ele>173.0</ele><time>2026-04-26T15:00:53.041Z</time></trkpt><trkpt lat="44.8926683" lon="9.5736733"><ele>173.0</ele><time>2026-04-26T15:00:54.042Z</time></trkpt><trkpt lat="44.8925617" lon="9.5735367"><ele>173.0</ele><time>2026-04-26T15:00:55.043Z</time></trkpt><trkpt lat="44.8924433" lon="9.5733967"><ele>174.66666666666666</ele><time>2026-04-26T15:00:56.042Z</time></trkpt><trkpt lat="44.8923133" lon="9.57325"><ele>176.33333333333334</ele><time>2026-04-26T15:00:57.042Z</time></trkpt><trkpt lat="44.892175" lon="9.5730867"><ele>178.0</ele><time>2026-04-26T15:00:58.042Z</time></trkpt><trkpt lat="44.8920417" lon="9.57291"><ele>179.66666666666669</ele><time>2026-04-26T15:00:59.041Z</time></trkpt><trkpt lat="44.8919217" lon="9.572725"><ele>181.33333333333334</ele><time>2026-04-26T15:01:00.042Z</time></trkpt><trkpt lat="44.8918117" lon="9.5725533"><ele>183.0</ele><time>2026-04-26T15:01:01.042Z</time></trkpt><trkpt lat="44.8916983" lon="9.5724033"><ele>183.0</ele><time>2026-04-26T15:01:02.041Z</time></trkpt><trkpt lat="44.891575" lon="9.5722767"><ele>183.0</ele><time>2026-04-26T15:01:03.043Z</time></trkpt><trkpt lat="44.8914483" lon="9.5721583"><ele>183.0</ele><time>2026-04-26T15:01:04.041Z</time></trkpt><trkpt lat="44.8913233" lon="9.57204"><ele>181.66666666666666</ele><time>2026-04-26T15:01:05.041Z</time></trkpt><trkpt lat="44.8912033" lon="9.5719117"><ele>180.33333333333331</ele><time>2026-04-26T15:01:06.042Z</time></trkpt><trkpt lat="44.8910933" lon="9.5717733"><ele>179.0</ele><time>2026-04-26T15:01:07.042Z</time></trkpt><trkpt lat="44.890895" lon="9.5714883"><ele>179.0</ele><time>2026-04-26T15:01:09.042Z</time></trkpt><trkpt lat="44.8907967" lon="9.5713483"><ele>179.0</ele><time>2026-04-26T15:01:10.043Z</time></trkpt><trkpt lat="44.8907" lon="9.5712267"><ele>179.0</ele><time>2026-04-26T15:01:11.043Z</time></trkpt><trkpt lat="44.8906083" lon="9.5711117"><ele>179.0</ele><time>2026-04-26T15:01:12.043Z</time></trkpt><trkpt lat="44.8905133" lon="9.57101"><ele>178.79999999999998</ele><time>2026-04-26T15:01:13.043Z</time></trkpt><trkpt lat="44.8904133" lon="9.5709317"><ele>178.6</ele><time>2026-04-26T15:01:14.045Z</time></trkpt><trkpt lat="44.8903083" lon="9.5708733"><ele>178.4</ele><time>2026-04-26T15:01:15.044Z</time></trkpt><trkpt lat="44.8902033" lon="9.5708283"><ele>178.2</ele><time>2026-04-26T15:01:16.041Z</time></trkpt><trkpt lat="44.890105" lon="9.57077"><ele>178.0</ele><time>2026-04-26T15:01:17.041Z</time></trkpt><trkpt lat="44.890015" lon="9.570695"><ele>178.0</ele><time>2026-04-26T15:01:18.041Z</time></trkpt><trkpt lat="44.88993" lon="9.570605"><ele>178.0</ele><time>2026-04-26T15:01:19.041Z</time></trkpt><trkpt lat="44.8898483" lon="9.5705083"><ele>178.0</ele><time>2026-04-26T15:01:20.042Z</time></trkpt><trkpt lat="44.8897683" lon="9.5704183"><ele>178.0</ele><time>2026-04-26T15:01:21.042Z</time></trkpt><trkpt lat="44.889695" lon="9.5703217"><ele>178.0</ele><time>2026-04-26T15:01:22.041Z</time></trkpt><trkpt lat="44.8896367" lon="9.5702117"><ele>180.60000000000002</ele><time>2026-04-26T15:01:23.041Z</time></trkpt><trkpt lat="44.889605" lon="9.5700817"><ele>183.20000000000002</ele><time>2026-04-26T15:01:24.043Z</time></trkpt><trkpt lat="44.8895967" lon="9.569935"><ele>185.8</ele><time>2026-04-26T15:01:25.042Z</time></trkpt><trkpt lat="44.8896183" lon="9.5697883"><ele>188.4</ele><time>2026-04-26T15:01:26.041Z</time></trkpt><trkpt lat="44.8896683" lon="9.5696533"><ele>191.0</ele><time>2026-04-26T15:01:27.043Z</time></trkpt><trkpt lat="44.8897333" lon="9.5695317"><ele>191.0</ele><time>2026-04-26T15:01:28.041Z</time></trkpt><trkpt lat="44.8898817" lon="9.5693133"><ele>191.0</ele><time>2026-04-26T15:01:30.042Z</time></trkpt><trkpt lat="44.8899467" lon="9.569195"><ele>191.0</ele><time>2026-04-26T15:01:31.042Z</time></trkpt><trkpt lat="44.889995" lon="9.5690617"><ele>191.0</ele><time>2026-04-26T15:01:32.041Z</time></trkpt><trkpt lat="44.8900217" lon="9.56891"><ele>191.0</ele><time>2026-04-26T15:01:33.043Z</time></trkpt><trkpt lat="44.89003" lon="9.5687433"><ele>191.0</ele><time>2026-04-26T15:01:34.041Z</time></trkpt><trkpt lat="44.8900333" lon="9.5685833"><ele>191.0</ele><time>2026-04-26T15:01:35.042Z</time></trkpt><trkpt lat="44.89004" lon="9.5684317"><ele>191.0</ele><time>2026-04-26T15:01:36.042Z</time></trkpt><trkpt lat="44.8900567" lon="9.5682867"><ele>191.0</ele><time>2026-04-26T15:01:37.041Z</time></trkpt><trkpt lat="44.8900767" lon="9.5681467"><ele>191.0</ele><time>2026-04-26T15:01:38.044Z</time></trkpt><trkpt lat="44.89009" lon="9.5680033"><ele>191.0</ele><time>2026-04-26T15:01:39.045Z</time></trkpt><trkpt lat="44.8900867" lon="9.5678533"><ele>191.0</ele><time>2026-04-26T15:01:40.041Z</time></trkpt><trkpt lat="44.8900717" lon="9.5677083"><ele>191.0</ele><time>2026-04-26T15:01:41.041Z</time></trkpt><trkpt lat="44.8900467" lon="9.56756"><ele>191.0</ele><time>2026-04-26T15:01:42.042Z</time></trkpt><trkpt lat="44.8900233" lon="9.5674117"><ele>192.4</ele><time>2026-04-26T15:01:43.042Z</time></trkpt><trkpt lat="44.8900117" lon="9.567265"><ele>193.8</ele><time>2026-04-26T15:01:44.042Z</time></trkpt><trkpt lat="44.8900083" lon="9.567115"><ele>195.20000000000002</ele><time>2026-04-26T15:01:45.043Z</time></trkpt><trkpt lat="44.8900117" lon="9.5669667"><ele>196.60000000000002</ele><time>2026-04-26T15:01:46.042Z</time></trkpt><trkpt lat="44.890015" lon="9.5668183"><ele>198.0</ele><time>2026-04-26T15:01:47.041Z</time></trkpt><trkpt lat="44.8900183" lon="9.5666817"><ele>198.75</ele><time>2026-04-26T15:01:48.041Z</time></trkpt><trkpt lat="44.890015" lon="9.5665517"><ele>199.5</ele><time>2026-04-26T15:01:49.043Z</time></trkpt><trkpt lat="44.8899717" lon="9.5663"><ele>200.25</ele><time>2026-04-26T15:01:51.041Z</time></trkpt><trkpt lat="44.8899217" lon="9.5661867"><ele>201.0</ele><time>2026-04-26T15:01:52.041Z</time></trkpt><trkpt lat="44.8898433" lon="9.5660983"><ele>201.20000000000002</ele><time>2026-04-26T15:01:53.041Z</time></trkpt><trkpt lat="44.8897483" lon="9.5660333"><ele>201.4</ele><time>2026-04-26T15:01:54.042Z</time></trkpt><trkpt lat="44.889645" lon="9.5659783"><ele>201.6</ele><time>2026-04-26T15:01:55.041Z</time></trkpt><trkpt lat="44.889535" lon="9.5659367"><ele>201.8</ele><time>2026-04-26T15:01:56.041Z</time></trkpt><trkpt lat="44.8894217" lon="9.5658967"><ele>202.0</ele><time>2026-04-26T15:01:57.041Z</time></trkpt><trkpt lat="44.889305" lon="9.5658567"><ele>200.25</ele><time>2026-04-26T15:01:58.042Z</time></trkpt><trkpt lat="44.88918" lon="9.5658133"><ele>198.5</ele><time>2026-04-26T15:01:59.042Z</time></trkpt><trkpt lat="44.8890483" lon="9.565765"><ele>196.75</ele><time>2026-04-26T15:02:00.044Z</time></trkpt><trkpt lat="44.8889167" lon="9.5657117"><ele>195.0</ele><time>2026-04-26T15:02:01.042Z</time></trkpt><trkpt lat="44.8887983" lon="9.565655"><ele>195.0</ele><time>2026-04-26T15:02:02.041Z</time></trkpt><trkpt lat="44.8887" lon="9.565605"><ele>195.0</ele><time>2026-04-26T15:02:03.042Z</time></trkpt><trkpt lat="44.888625" lon="9.5655633"><ele>195.0</ele><time>2026-04-26T15:02:04.042Z</time></trkpt><trkpt lat="44.8885467" lon="9.5654883"><ele>195.0</ele><time>2026-04-26T15:02:06.042Z</time></trkpt><trkpt lat="44.8885767" lon="9.5653483"><ele>195.0</ele><time>2026-04-26T15:02:10.042Z</time></trkpt><trkpt lat="44.888695" lon="9.5650967"><ele>196.0</ele><time>2026-04-26T15:02:13.041Z</time></trkpt><trkpt lat="44.8887417" lon="9.5649817"><ele>197.0</ele><time>2026-04-26T15:02:14.044Z</time></trkpt><trkpt lat="44.8887967" lon="9.564855"><ele>198.0</ele><time>2026-04-26T15:02:15.043Z</time></trkpt><trkpt lat="44.8888533" lon="9.5647283"><ele>199.0</ele><time>2026-04-26T15:02:16.041Z</time></trkpt><trkpt lat="44.8889167" lon="9.56461"><ele>200.0</ele><time>2026-04-26T15:02:17.042Z</time></trkpt><trkpt lat="44.8889917" lon="9.5645033"><ele>201.0</ele><time>2026-04-26T15:02:18.041Z</time></trkpt><trkpt lat="44.8890833" lon="9.5644133"><ele>202.0</ele><time>2026-04-26T15:02:19.041Z</time></trkpt><trkpt lat="44.889185" lon="9.56433"><ele>203.0</ele><time>2026-04-26T15:02:20.042Z</time></trkpt><trkpt lat="44.8892917" lon="9.5642467"><ele>204.0</ele><time>2026-04-26T15:02:21.042Z</time></trkpt><trkpt lat="44.8894017" lon="9.5641633"><ele>206.0</ele><time>2026-04-26T15:02:22.041Z</time></trkpt><trkpt lat="44.8895083" lon="9.5640767"><ele>208.0</ele><time>2026-04-26T15:02:23.042Z</time></trkpt><trkpt lat="44.8896083" lon="9.5639833"><ele>210.0</ele><time>2026-04-26T15:02:24.042Z</time></trkpt><trkpt lat="44.889705" lon="9.5638767"><ele>212.0</ele><time>2026-04-26T15:02:25.042Z</time></trkpt><trkpt lat="44.8898083" lon="9.5637717"><ele>213.33333333333334</ele><time>2026-04-26T15:02:26.042Z</time></trkpt><trkpt lat="44.8899017" lon="9.5636783"><ele>214.66666666666669</ele><time>2026-04-26T15:02:27.042Z</time></trkpt><trkpt lat="44.8899767" lon="9.5636033"><ele>216.0</ele><time>2026-04-26T15:02:28.041Z</time></trkpt><trkpt lat="44.8900333" lon="9.5635317"><ele>217.33333333333331</ele><time>2026-04-26T15:02:29.042Z</time></trkpt><trkpt lat="44.89007" lon="9.5634567"><ele>218.66666666666666</ele><time>2026-04-26T15:02:30.042Z</time></trkpt><trkpt lat="44.8900683" lon="9.5633183"><ele>220.0</ele><time>2026-04-26T15:02:32.042Z</time></trkpt><trkpt lat="44.8898617" lon="9.5631683"><ele>220.0</ele><time>2026-04-26T15:02:35.042Z</time></trkpt><trkpt lat="44.8897283" lon="9.56311"><ele>220.0</ele><time>2026-04-26T15:02:36.042Z</time></trkpt><trkpt lat="44.8896" lon="9.5630567"><ele>220.0</ele><time>2026-04-26T15:02:37.043Z</time></trkpt><trkpt lat="44.8894833" lon="9.5630217"><ele>220.0</ele><time>2026-04-26T15:02:38.042Z</time></trkpt><trkpt lat="44.8893833" lon="9.5629883"><ele>220.0</ele><time>2026-04-26T15:02:39.042Z</time></trkpt><trkpt lat="44.8892983" lon="9.5629483"><ele>220.0</ele><time>2026-04-26T15:02:40.042Z</time></trkpt><trkpt lat="44.8892217" lon="9.5628883"><ele>220.0</ele><time>2026-04-26T15:02:41.043Z</time></trkpt><trkpt lat="44.8891517" lon="9.56281"><ele>220.0</ele><time>2026-04-26T15:02:42.041Z</time></trkpt><trkpt lat="44.8890833" lon="9.5627183"><ele>220.0</ele><time>2026-04-26T15:02:43.043Z</time></trkpt><trkpt lat="44.8890183" lon="9.5626233"><ele>221.83333333333331</ele><time>2026-04-26T15:02:44.041Z</time></trkpt><trkpt lat="44.888965" lon="9.5625217"><ele>223.66666666666666</ele><time>2026-04-26T15:02:45.042Z</time></trkpt><trkpt lat="44.888935" lon="9.5624217"><ele>225.5</ele><time>2026-04-26T15:02:46.041Z</time></trkpt><trkpt lat="44.8889167" lon="9.56233"><ele>227.33333333333331</ele><time>2026-04-26T15:02:47.043Z</time></trkpt><trkpt lat="44.8888833" lon="9.5621967"><ele>229.16666666666666</ele><time>2026-04-26T15:02:49.042Z</time></trkpt><trkpt lat="44.8888717" lon="9.5621067"><ele>231.0</ele><time>2026-04-26T15:02:50.041Z</time></trkpt><trkpt lat="44.8888633" lon="9.5620183"><ele>231.0</ele><time>2026-04-26T15:02:51.042Z</time></trkpt><trkpt lat="44.8889033" lon="9.5618983"><ele>231.0</ele><time>2026-04-26T15:02:53.045Z</time></trkpt><trkpt lat="44.8890467" lon="9.5620233"><ele>231.0</ele><time>2026-04-26T15:02:57.044Z</time></trkpt><trkpt lat="44.889055" lon="9.5621233"><ele>231.0</ele><time>2026-04-26T15:02:58.042Z</time></trkpt><trkpt lat="44.8891" lon="9.56228"><ele>231.0</ele><time>2026-04-26T15:03:00.042Z</time></trkpt><trkpt lat="44.8892267" lon="9.5624017"><ele>231.0</ele><time>2026-04-26T15:03:02.043Z</time></trkpt><trkpt lat="44.8893233" lon="9.56246"><ele>231.0</ele><time>2026-04-26T15:03:03.042Z</time></trkpt><trkpt lat="44.8894233" lon="9.56251"><ele>231.0</ele><time>2026-04-26T15:03:04.042Z</time></trkpt><trkpt lat="44.8895133" lon="9.56254"><ele>231.66666666666666</ele><time>2026-04-26T15:03:05.041Z</time></trkpt><trkpt lat="44.889595" lon="9.56253"><ele>232.33333333333331</ele><time>2026-04-26T15:03:06.042Z</time></trkpt><trkpt lat="44.8896733" lon="9.56249"><ele>233.0</ele><time>2026-04-26T15:03:07.042Z</time></trkpt><trkpt lat="44.88974" lon="9.56242"><ele>233.66666666666666</ele><time>2026-04-26T15:03:08.042Z</time></trkpt><trkpt lat="44.8897967" lon="9.562335"><ele>234.33333333333331</ele><time>2026-04-26T15:03:09.042Z</time></trkpt><trkpt lat="44.8898333" lon="9.5622417"><ele>235.0</ele><time>2026-04-26T15:03:10.042Z</time></trkpt><trkpt lat="44.8898533" lon="9.5621433"><ele>235.0</ele><time>2026-04-26T15:03:11.042Z</time></trkpt><trkpt lat="44.8898517" lon="9.5620433"><ele>235.0</ele><time>2026-04-26T15:03:12.043Z</time></trkpt><trkpt lat="44.8898167" lon="9.56194"><ele>235.0</ele><time>2026-04-26T15:03:13.042Z</time></trkpt><trkpt lat="44.8897717" lon="9.561835"><ele>235.0</ele><time>2026-04-26T15:03:14.042Z</time></trkpt><trkpt lat="44.8896483" lon="9.5616"><ele>235.0</ele><time>2026-04-26T15:03:16.042Z</time></trkpt><trkpt lat="44.88961" lon="9.5614817"><ele>237.83333333333331</ele><time>2026-04-26T15:03:17.042Z</time></trkpt><trkpt lat="44.8895833" lon="9.56136"><ele>240.66666666666666</ele><time>2026-04-26T15:03:18.042Z</time></trkpt><trkpt lat="44.8895467" lon="9.5612633"><ele>243.5</ele><time>2026-04-26T15:03:19.043Z</time></trkpt><trkpt lat="44.8894967" lon="9.5611933"><ele>246.33333333333331</ele><time>2026-04-26T15:03:20.042Z</time></trkpt><trkpt lat="44.8894117" lon="9.5612083"><ele>249.16666666666666</ele><time>2026-04-26T15:03:21.042Z</time></trkpt><trkpt lat="44.8893367" lon="9.5612267"><ele>252.0</ele><time>2026-04-26T15:03:22.042Z</time></trkpt><trkpt lat="44.8892617" lon="9.5612483"><ele>250.8</ele><time>2026-04-26T15:03:23.041Z</time></trkpt><trkpt lat="44.8891933" lon="9.5612517"><ele>249.6</ele><time>2026-04-26T15:03:24.043Z</time></trkpt><trkpt lat="44.88909" lon="9.5611917"><ele>248.40000000000003</ele><time>2026-04-26T15:03:26.042Z</time></trkpt><trkpt lat="44.8890733" lon="9.5610867"><ele>247.20000000000002</ele><time>2026-04-26T15:03:28.041Z</time></trkpt><trkpt lat="44.8891567" lon="9.5610733"><ele>246.0</ele><time>2026-04-26T15:03:31.045Z</time></trkpt><trkpt lat="44.8892633" lon="9.561135"><ele>253.5</ele><time>2026-04-26T15:03:33.043Z</time></trkpt><trkpt lat="44.889365" lon="9.5611217"><ele>261.0</ele><time>2026-04-26T15:03:35.042Z</time></trkpt><trkpt lat="44.8895317" lon="9.56104"><ele>268.5</ele><time>2026-04-26T15:03:37.042Z</time></trkpt><trkpt lat="44.8896267" lon="9.561"><ele>276.0</ele><time>2026-04-26T15:03:38.041Z</time></trkpt><trkpt lat="44.88971" lon="9.56097"><ele>276.0</ele><time>2026-04-26T15:03:39.042Z</time></trkpt><trkpt lat="44.8898133" lon="9.56095"><ele>276.0</ele><time>2026-04-26T15:03:40.042Z</time></trkpt><trkpt lat="44.8899183" lon="9.56094"><ele>276.0</ele><time>2026-04-26T15:03:41.044Z</time></trkpt><trkpt lat="44.8900133" lon="9.5609633"><ele>276.0</ele><time>2026-04-26T15:03:42.042Z</time></trkpt><trkpt lat="44.8901067" lon="9.5609917"><ele>276.0</ele><time>2026-04-26T15:03:43.043Z</time></trkpt><trkpt lat="44.8901883" lon="9.5610167"><ele>276.57142857142856</ele><time>2026-04-26T15:03:44.041Z</time></trkpt><trkpt lat="44.8902617" lon="9.5610467"><ele>277.14285714285717</ele><time>2026-04-26T15:03:45.042Z</time></trkpt><trkpt lat="44.89033" lon="9.56108"><ele>277.7142857142857</ele><time>2026-04-26T15:03:46.042Z</time></trkpt><trkpt lat="44.890405" lon="9.5610967"><ele>278.2857142857143</ele><time>2026-04-26T15:03:47.043Z</time></trkpt><trkpt lat="44.8904733" lon="9.5611017"><ele>278.8571428571429</ele><time>2026-04-26T15:03:48.042Z</time></trkpt><trkpt lat="44.89054" lon="9.5610933"><ele>279.42857142857144</ele><time>2026-04-26T15:03:49.041Z</time></trkpt><trkpt lat="44.8906033" lon="9.5610633"><ele>280.0</ele><time>2026-04-26T15:03:50.042Z</time></trkpt><trkpt lat="44.8906683" lon="9.561005"><ele>280.0</ele><time>2026-04-26T15:03:51.042Z</time></trkpt><trkpt lat="44.8907367" lon="9.560925"><ele>280.0</ele><time>2026-04-26T15:03:52.042Z</time></trkpt><trkpt lat="44.8908083" lon="9.56084"><ele>280.0</ele><time>2026-04-26T15:03:53.043Z</time></trkpt><trkpt lat="44.890885" lon="9.56076"><ele>280.0</ele><time>2026-04-26T15:03:54.042Z</time></trkpt><trkpt lat="44.89097" lon="9.5606967"><ele>280.0</ele><time>2026-04-26T15:03:55.042Z</time></trkpt><trkpt lat="44.8910717" lon="9.5606383"><ele>282.25</ele><time>2026-04-26T15:03:56.043Z</time></trkpt><trkpt lat="44.89127" lon="9.56057"><ele>284.5</ele><time>2026-04-26T15:03:58.042Z</time></trkpt><trkpt lat="44.8913633" lon="9.560575"><ele>286.75</ele><time>2026-04-26T15:03:59.042Z</time></trkpt><trkpt lat="44.8914483" lon="9.5606083"><ele>289.0</ele><time>2026-04-26T15:04:00.043Z</time></trkpt><trkpt lat="44.8915283" lon="9.5606583"><ele>289.0</ele><time>2026-04-26T15:04:01.042Z</time></trkpt><trkpt lat="44.8915933" lon="9.560735"><ele>289.0</ele><time>2026-04-26T15:04:02.042Z</time></trkpt><trkpt lat="44.89165" lon="9.5608267"><ele>289.0</ele><time>2026-04-26T15:04:03.043Z</time></trkpt><trkpt lat="44.8917" lon="9.5609133"><ele>289.0</ele><time>2026-04-26T15:04:04.042Z</time></trkpt><trkpt lat="44.8917883" lon="9.5609867"><ele>289.0</ele><time>2026-04-26T15:04:06.041Z</time></trkpt><trkpt lat="44.8918467" lon="9.5609183"><ele>289.0</ele><time>2026-04-26T15:04:08.042Z</time></trkpt><trkpt lat="44.891845" lon="9.5607083"><ele>292.16666666666663</ele><time>2026-04-26T15:04:10.042Z</time></trkpt><trkpt lat="44.8918333" lon="9.5605967"><ele>295.3333333333333</ele><time>2026-04-26T15:04:11.043Z</time></trkpt><trkpt lat="44.89181" lon="9.5604983"><ele>298.5</ele><time>2026-04-26T15:04:12.041Z</time></trkpt><trkpt lat="44.8917717" lon="9.5604067"><ele>301.6666666666667</ele><time>2026-04-26T15:04:13.044Z</time></trkpt><trkpt lat="44.8917183" lon="9.56032"><ele>304.83333333333337</ele><time>2026-04-26T15:04:14.042Z</time></trkpt><trkpt lat="44.8916617" lon="9.56023"><ele>308.0</ele><time>2026-04-26T15:04:15.043Z</time></trkpt><trkpt lat="44.8916067" lon="9.5601317"><ele>308.5</ele><time>2026-04-26T15:04:16.043Z</time></trkpt><trkpt lat="44.891545" lon="9.560025"><ele>309.0</ele><time>2026-04-26T15:04:17.042Z</time></trkpt><trkpt lat="44.8913983" lon="9.5598583"><ele>309.5</ele><time>2026-04-26T15:04:19.042Z</time></trkpt><trkpt lat="44.8913167" lon="9.5597917"><ele>310.0</ele><time>2026-04-26T15:04:20.043Z</time></trkpt><trkpt lat="44.8912433" lon="9.55976"><ele>310.0</ele><time>2026-04-26T15:04:21.043Z</time></trkpt><trkpt lat="44.8911767" lon="9.55976"><ele>310.0</ele><time>2026-04-26T15:04:22.041Z</time></trkpt><trkpt lat="44.891115" lon="9.5597783"><ele>310.0</ele><time>2026-04-26T15:04:23.042Z</time></trkpt><trkpt lat="44.8910533" lon="9.5598367"><ele>310.0</ele><time>2026-04-26T15:04:24.043Z</time></trkpt><trkpt lat="44.8909883" lon="9.559905"><ele>310.0</ele><time>2026-04-26T15:04:25.042Z</time></trkpt><trkpt lat="44.89092" lon="9.5599617"><ele>310.0</ele><time>2026-04-26T15:04:26.042Z</time></trkpt><trkpt lat="44.8908417" lon="9.56"><ele>310.0</ele><time>2026-04-26T15:04:27.042Z</time></trkpt><trkpt lat="44.8907483" lon="9.5600233"><ele>309.0</ele><time>2026-04-26T15:04:28.043Z</time></trkpt><trkpt lat="44.8906617" lon="9.56003"><ele>308.0</ele><time>2026-04-26T15:04:29.041Z</time></trkpt><trkpt lat="44.890585" lon="9.5600167"><ele>307.0</ele><time>2026-04-26T15:04:30.043Z</time></trkpt><trkpt lat="44.8905133" lon="9.5599883"><ele>306.0</ele><time>2026-04-26T15:04:31.042Z</time></trkpt><trkpt lat="44.8904517" lon="9.559945"><ele>305.0</ele><time>2026-04-26T15:04:32.041Z</time></trkpt><trkpt lat="44.890395" lon="9.5598833"><ele>304.0</ele><time>2026-04-26T15:04:33.043Z</time></trkpt><trkpt lat="44.8903417" lon="9.55981"><ele>304.0</ele><time>2026-04-26T15:04:34.042Z</time></trkpt><trkpt lat="44.8902883" lon="9.5597367"><ele>304.0</ele><time>2026-04-26T15:04:35.043Z</time></trkpt><trkpt lat="44.8902317" lon="9.55966"><ele>304.0</ele><time>2026-04-26T15:04:36.043Z</time></trkpt><trkpt lat="44.8901683" lon="9.5596017"><ele>304.0</ele><time>2026-04-26T15:04:37.042Z</time></trkpt><trkpt lat="44.8900933" lon="9.5595633"><ele>304.0</ele><time>2026-04-26T15:04:38.042Z</time></trkpt><trkpt lat="44.8899267" lon="9.5595317"><ele>308.16666666666663</ele><time>2026-04-26T15:04:40.042Z</time></trkpt><trkpt lat="44.8898533" lon="9.55951"><ele>312.3333333333333</ele><time>2026-04-26T15:04:41.042Z</time></trkpt><trkpt lat="44.8897867" lon="9.559495"><ele>316.5</ele><time>2026-04-26T15:04:42.044Z</time></trkpt><trkpt lat="44.8896683" lon="9.559415"><ele>320.6666666666667</ele><time>2026-04-26T15:04:44.042Z</time></trkpt><trkpt lat="44.8896017" lon="9.5593817"><ele>324.83333333333337</ele><time>2026-04-26T15:04:45.042Z</time></trkpt><trkpt lat="44.88952" lon="9.55936"><ele>329.0</ele><time>2026-04-26T15:04:46.042Z</time></trkpt><trkpt lat="44.889415" lon="9.5593567"><ele>329.0</ele><time>2026-04-26T15:04:47.041Z</time></trkpt><trkpt lat="44.8893167" lon="9.5593617"><ele>329.0</ele><time>2026-04-26T15:04:48.042Z</time></trkpt><trkpt lat="44.8892333" lon="9.5593583"><ele>329.0</ele><time>2026-04-26T15:04:49.042Z</time></trkpt><trkpt lat="44.8891633" lon="9.559345"><ele>329.0</ele><time>2026-04-26T15:04:50.043Z</time></trkpt><trkpt lat="44.8891" lon="9.5593183"><ele>329.0</ele><time>2026-04-26T15:04:51.043Z</time></trkpt><trkpt lat="44.88904" lon="9.55928"><ele>329.0</ele><time>2026-04-26T15:04:52.042Z</time></trkpt><trkpt lat="44.8889683" lon="9.5592467"><ele>329.2857142857143</ele><time>2026-04-26T15:04:53.042Z</time></trkpt><trkpt lat="44.8888967" lon="9.559235"><ele>329.57142857142856</ele><time>2026-04-26T15:04:54.042Z</time></trkpt><trkpt lat="44.8888283" lon="9.5592467"><ele>329.8571428571429</ele><time>2026-04-26T15:04:55.042Z</time></trkpt><trkpt lat="44.88876" lon="9.5592517"><ele>330.1428571428571</ele><time>2026-04-26T15:04:56.042Z</time></trkpt><trkpt lat="44.8886883" lon="9.55924"><ele>330.42857142857144</ele><time>2026-04-26T15:04:57.044Z</time></trkpt><trkpt lat="44.888625" lon="9.5592183"><ele>330.7142857142857</ele><time>2026-04-26T15:04:58.043Z</time></trkpt><trkpt lat="44.8885617" lon="9.559175"><ele>331.0</ele><time>2026-04-26T15:04:59.043Z</time></trkpt><trkpt lat="44.8882567" lon="9.5587833"><ele>331.0</ele><time>2026-04-26T15:07:27.042Z</time></trkpt><trkpt lat="44.888345" lon="9.5587217"><ele>331.0</ele><time>2026-04-26T15:07:30.043Z</time></trkpt><trkpt lat="44.8884433" lon="9.5587383"><ele>331.0</ele><time>2026-04-26T15:07:32.043Z</time></trkpt><trkpt lat="44.8885033" lon="9.55878"><ele>331.0</ele><time>2026-04-26T15:07:33.042Z</time></trkpt><trkpt lat="44.8886133" lon="9.5588217"><ele>331.0</ele><time>2026-04-26T15:07:35.042Z</time></trkpt><trkpt lat="44.8887483" lon="9.558805"><ele>331.0</ele><time>2026-04-26T15:07:37.043Z</time></trkpt><trkpt lat="44.8888283" lon="9.5587617"><ele>331.0</ele><time>2026-04-26T15:07:38.043Z</time></trkpt><trkpt lat="44.8889083" lon="9.558715"><ele>331.0</ele><time>2026-04-26T15:07:39.044Z</time></trkpt><trkpt lat="44.8889833" lon="9.5586767"><ele>331.0</ele><time>2026-04-26T15:07:40.043Z</time></trkpt><trkpt lat="44.88906" lon="9.5586567"><ele>331.0</ele><time>2026-04-26T15:07:41.043Z</time></trkpt><trkpt lat="44.8891333" lon="9.5586533"><ele>331.0</ele><time>2026-04-26T15:07:42.043Z</time></trkpt><trkpt lat="44.8892083" lon="9.55866"><ele>330.6</ele><time>2026-04-26T15:07:43.044Z</time></trkpt><trkpt lat="44.8892717" lon="9.5586883"><ele>330.20000000000005</ele><time>2026-04-26T15:07:44.045Z</time></trkpt><trkpt lat="44.88938" lon="9.5587467"><ele>329.79999999999995</ele><time>2026-04-26T15:07:46.043Z</time></trkpt><trkpt lat="44.8895133" lon="9.5587183"><ele>329.4</ele><time>2026-04-26T15:07:48.044Z</time></trkpt><trkpt lat="44.8895983" lon="9.5586883"><ele>329.0</ele><time>2026-04-26T15:07:49.043Z</time></trkpt><trkpt lat="44.8896767" lon="9.5586617"><ele>332.1666666666667</ele><time>2026-04-26T15:07:50.043Z</time></trkpt><trkpt lat="44.8897467" lon="9.5586317"><ele>335.33333333333337</ele><time>2026-04-26T15:07:51.045Z</time></trkpt><trkpt lat="44.889815" lon="9.5586017"><ele>338.5</ele><time>2026-04-26T15:07:52.043Z</time></trkpt><trkpt lat="44.8898883" lon="9.5585583"><ele>341.6666666666667</ele><time>2026-04-26T15:07:53.045Z</time></trkpt><trkpt lat="44.88997" lon="9.5585033"><ele>344.8333333333333</ele><time>2026-04-26T15:07:54.044Z</time></trkpt><trkpt lat="44.8900567" lon="9.55845"><ele>348.0</ele><time>2026-04-26T15:07:55.044Z</time></trkpt><trkpt lat="44.8901483" lon="9.5584183"><ele>348.0</ele><time>2026-04-26T15:07:56.044Z</time></trkpt><trkpt lat="44.8902483" lon="9.5584033"><ele>348.0</ele><time>2026-04-26T15:07:57.045Z</time></trkpt><trkpt lat="44.8903517" lon="9.5584"><ele>348.0</ele><time>2026-04-26T15:07:58.043Z</time></trkpt><trkpt lat="44.8904483" lon="9.5583867"><ele>348.0</ele><time>2026-04-26T15:07:59.044Z</time></trkpt><trkpt lat="44.8905442" lon="9.5583727"><ele>348.0</ele><time>2026-04-26T15:08:00.044Z</time></trkpt><trkpt lat="44.8906332" lon="9.5583527"><ele>348.0</ele><time>2026-04-26T15:08:01.043Z</time></trkpt><trkpt lat="44.8907136" lon="9.5583368"><ele>348.0</ele><time>2026-04-26T15:08:02.045Z</time></trkpt><trkpt lat="44.8907915" lon="9.5583353"><ele>348.0</ele><time>2026-04-26T15:08:03.045Z</time></trkpt><trkpt lat="44.8908655" lon="9.5583439"><ele>348.0</ele><time>2026-04-26T15:08:04.047Z</time></trkpt><trkpt lat="44.8909383" lon="9.5583539"><ele>348.0</ele><time>2026-04-26T15:08:05.045Z</time></trkpt><trkpt lat="44.891011" lon="9.5583559"><ele>348.0</ele><time>2026-04-26T15:08:06.044Z</time></trkpt><trkpt lat="44.8910835" lon="9.5583447"><ele>349.4</ele><time>2026-04-26T15:08:07.042Z</time></trkpt><trkpt lat="44.8911522" lon="9.5583239"><ele>350.79999999999995</ele><time>2026-04-26T15:08:08.043Z</time></trkpt><trkpt lat="44.8912173" lon="9.5583025"><ele>352.2</ele><time>2026-04-26T15:08:09.042Z</time></trkpt><trkpt lat="44.8913397" lon="9.5583059"><ele>353.6</ele><time>2026-04-26T15:08:11.042Z</time></trkpt><trkpt lat="44.8914421" lon="9.5583498"><ele>355.0</ele><time>2026-04-26T15:08:13.042Z</time></trkpt><trkpt lat="44.8915447" lon="9.5584104"><ele>355.0</ele><time>2026-04-26T15:08:15.044Z</time></trkpt><trkpt lat="44.891658" lon="9.5584561"><ele>355.0</ele><time>2026-04-26T15:08:17.043Z</time></trkpt><trkpt lat="44.8917677" lon="9.5585042"><ele>355.0</ele><time>2026-04-26T15:08:19.042Z</time></trkpt><trkpt lat="44.8918317" lon="9.5585879"><ele>355.0</ele><time>2026-04-26T15:08:21.043Z</time></trkpt><trkpt lat="44.8918917" lon="9.5586472"><ele>355.0</ele><time>2026-04-26T15:08:23.043Z</time></trkpt><trkpt lat="44.8919622" lon="9.5586391"><ele>356.5</ele><time>2026-04-26T15:08:25.042Z</time></trkpt><trkpt lat="44.8920635" lon="9.5585802"><ele>358.0</ele><time>2026-04-26T15:08:27.042Z</time></trkpt><trkpt lat="44.8921289" lon="9.5585381"><ele>359.5</ele><time>2026-04-26T15:08:28.042Z</time></trkpt><trkpt lat="44.8921971" lon="9.5584955"><ele>361.0</ele><time>2026-04-26T15:08:29.042Z</time></trkpt><trkpt lat="44.8922625" lon="9.5584588"><ele>362.5</ele><time>2026-04-26T15:08:30.043Z</time></trkpt><trkpt lat="44.8923567" lon="9.5584183"><ele>364.0</ele><time>2026-04-26T15:08:32.042Z</time></trkpt><trkpt lat="44.89244" lon="9.5584433"><ele>364.0</ele><time>2026-04-26T15:08:34.042Z</time></trkpt><trkpt lat="44.8925383" lon="9.55852"><ele>364.0</ele><time>2026-04-26T15:08:36.043Z</time></trkpt><trkpt lat="44.8925983" lon="9.5585817"><ele>364.0</ele><time>2026-04-26T15:08:37.042Z</time></trkpt><trkpt lat="44.8926683" lon="9.558645"><ele>364.0</ele><time>2026-04-26T15:08:38.042Z</time></trkpt><trkpt lat="44.8927383" lon="9.5587067"><ele>364.0</ele><time>2026-04-26T15:08:39.043Z</time></trkpt><trkpt lat="44.8928017" lon="9.5587533"><ele>364.0</ele><time>2026-04-26T15:08:40.042Z</time></trkpt><trkpt lat="44.8928683" lon="9.558785"><ele>365.3333333333333</ele><time>2026-04-26T15:08:41.043Z</time></trkpt><trkpt lat="44.89294" lon="9.5588083"><ele>366.66666666666663</ele><time>2026-04-26T15:08:42.042Z</time></trkpt><trkpt lat="44.8930083" lon="9.5588117"><ele>368.0</ele><time>2026-04-26T15:08:43.042Z</time></trkpt><trkpt lat="44.89307" lon="9.5587883"><ele>369.3333333333333</ele><time>2026-04-26T15:08:44.043Z</time></trkpt><trkpt lat="44.89315" lon="9.5587483"><ele>370.6666666666667</ele><time>2026-04-26T15:08:46.042Z</time></trkpt><trkpt lat="44.8932133" lon="9.5586383"><ele>372.0</ele><time>2026-04-26T15:08:49.043Z</time></trkpt><trkpt lat="44.8932517" lon="9.5585383"><ele>372.0</ele><time>2026-04-26T15:08:51.045Z</time></trkpt><trkpt lat="44.8933217" lon="9.55848"><ele>372.0</ele><time>2026-04-26T15:08:54.042Z</time></trkpt><trkpt lat="44.8933967" lon="9.5584617"><ele>372.0</ele><time>2026-04-26T15:08:56.042Z</time></trkpt><trkpt lat="44.8934933" lon="9.5584767"><ele>372.0</ele><time>2026-04-26T15:08:58.042Z</time></trkpt><trkpt lat="44.89358" lon="9.558465"><ele>372.0</ele><time>2026-04-26T15:09:00.042Z</time></trkpt><trkpt lat="44.8936633" lon="9.5584267"><ele>372.0</ele><time>2026-04-26T15:09:03.047Z</time></trkpt><trkpt lat="44.89375" lon="9.5584217"><ele>371.0</ele><time>2026-04-26T15:09:20.042Z</time></trkpt><trkpt lat="44.8938383" lon="9.5583983"><ele>370.0</ele><time>2026-04-26T15:09:22.042Z</time></trkpt><trkpt lat="44.8939333" lon="9.558415"><ele>369.0</ele><time>2026-04-26T15:09:24.042Z</time></trkpt><trkpt lat="44.89403" lon="9.5583983"><ele>368.0</ele><time>2026-04-26T15:09:27.043Z</time></trkpt><trkpt lat="44.8940933" lon="9.558315"><ele>367.0</ele><time>2026-04-26T15:09:29.042Z</time></trkpt><trkpt lat="44.8941383" lon="9.5582483"><ele>366.0</ele><time>2026-04-26T15:09:31.042Z</time></trkpt><trkpt lat="44.8941833" lon="9.5581667"><ele>366.0</ele><time>2026-04-26T15:09:33.042Z</time></trkpt><trkpt lat="44.8942333" lon="9.5581117"><ele>366.0</ele><time>2026-04-26T15:09:35.043Z</time></trkpt><trkpt lat="44.894315" lon="9.5580883"><ele>366.0</ele><time>2026-04-26T15:09:37.042Z</time></trkpt><trkpt lat="44.8944017" lon="9.55811"><ele>366.0</ele><time>2026-04-26T15:09:39.043Z</time></trkpt><trkpt lat="44.8944933" lon="9.558105"><ele>366.0</ele><time>2026-04-26T15:09:41.042Z</time></trkpt><trkpt lat="44.8945883" lon="9.5580933"><ele>366.0</ele><time>2026-04-26T15:09:43.042Z</time></trkpt><trkpt lat="44.8946883" lon="9.55808"><ele>366.20000000000005</ele><time>2026-04-26T15:09:45.043Z</time></trkpt><trkpt lat="44.89478" lon="9.5580717"><ele>366.40000000000003</ele><time>2026-04-26T15:09:47.043Z</time></trkpt><trkpt lat="44.8948667" lon="9.558085"><ele>366.6</ele><time>2026-04-26T15:09:49.042Z</time></trkpt><trkpt lat="44.8949733" lon="9.5581167"><ele>366.8</ele><time>2026-04-26T15:09:51.043Z</time></trkpt><trkpt lat="44.8950767" lon="9.55814"><ele>367.0</ele><time>2026-04-26T15:09:53.042Z</time></trkpt><trkpt lat="44.8951767" lon="9.5581283"><ele>367.0</ele><time>2026-04-26T15:09:55.043Z</time></trkpt><trkpt lat="44.8952733" lon="9.5580833"><ele>367.0</ele><time>2026-04-26T15:09:57.043Z</time></trkpt><trkpt lat="44.8953333" lon="9.5579933"><ele>367.0</ele><time>2026-04-26T15:09:59.042Z</time></trkpt><trkpt lat="44.8953317" lon="9.557885"><ele>367.0</ele><time>2026-04-26T15:10:01.042Z</time></trkpt><trkpt lat="44.8953267" lon="9.55777"><ele>367.0</ele><time>2026-04-26T15:10:03.043Z</time></trkpt><trkpt lat="44.895335" lon="9.5575983"><ele>368.0</ele><time>2026-04-26T15:10:05.042Z</time></trkpt><trkpt lat="44.8953417" lon="9.5574883"><ele>369.0</ele><time>2026-04-26T15:10:06.045Z</time></trkpt><trkpt lat="44.895355" lon="9.557375"><ele>370.0</ele><time>2026-04-26T15:10:07.043Z</time></trkpt><trkpt lat="44.8953733" lon="9.55727"><ele>371.0</ele><time>2026-04-26T15:10:08.043Z</time></trkpt><trkpt lat="44.8954" lon="9.5571333"><ele>372.0</ele><time>2026-04-26T15:10:10.042Z</time></trkpt><trkpt lat="44.89545" lon="9.557"><ele>373.0</ele><time>2026-04-26T15:10:12.043Z</time></trkpt><trkpt lat="44.8955333" lon="9.5568617"><ele>375.2</ele><time>2026-04-26T15:10:14.042Z</time></trkpt><trkpt lat="44.895575" lon="9.5567917"><ele>377.4</ele><time>2026-04-26T15:10:15.042Z</time></trkpt><trkpt lat="44.8956517" lon="9.5566483"><ele>379.59999999999997</ele><time>2026-04-26T15:10:17.042Z</time></trkpt><trkpt lat="44.8957067" lon="9.55652"><ele>381.79999999999995</ele><time>2026-04-26T15:10:19.043Z</time></trkpt><trkpt lat="44.8957317" lon="9.556385"><ele>384.0</ele><time>2026-04-26T15:10:21.042Z</time></trkpt><trkpt lat="44.895745" lon="9.556235"><ele>385.3333333333333</ele><time>2026-04-26T15:10:23.042Z</time></trkpt><trkpt lat="44.8957617" lon="9.556095"><ele>386.66666666666663</ele><time>2026-04-26T15:10:25.042Z</time></trkpt><trkpt lat="44.89576" lon="9.5560017"><ele>388.0</ele><time>2026-04-26T15:10:27.043Z</time></trkpt><trkpt lat="44.8957533" lon="9.55589"><ele>389.3333333333333</ele><time>2026-04-26T15:10:29.043Z</time></trkpt><trkpt lat="44.895755" lon="9.5557617"><ele>390.66666666666663</ele><time>2026-04-26T15:10:31.042Z</time></trkpt><trkpt lat="44.8957667" lon="9.5556483"><ele>392.0</ele><time>2026-04-26T15:10:34.042Z</time></trkpt><trkpt lat="44.89578" lon="9.5555483"><ele>392.0</ele><time>2026-04-26T15:10:37.043Z</time></trkpt><trkpt lat="44.895785" lon="9.55538"><ele>392.0</ele><time>2026-04-26T15:11:40.042Z</time></trkpt><trkpt lat="44.8958017" lon="9.555275"><ele>392.0</ele><time>2026-04-26T15:11:44.042Z</time></trkpt><trkpt lat="44.8958567" lon="9.5551683"><ele>392.0</ele><time>2026-04-26T15:11:48.042Z</time></trkpt><trkpt lat="44.8959267" lon="9.55506"><ele>392.0</ele><time>2026-04-26T15:11:50.041Z</time></trkpt><trkpt lat="44.8959983" lon="9.5549483"><ele>394.8333333333333</ele><time>2026-04-26T15:11:52.041Z</time></trkpt><trkpt lat="44.896075" lon="9.5548217"><ele>397.66666666666663</ele><time>2026-04-26T15:11:54.043Z</time></trkpt><trkpt lat="44.89612" lon="9.55475"><ele>400.5</ele><time>2026-04-26T15:11:55.041Z</time></trkpt><trkpt lat="44.8961683" lon="9.554685"><ele>403.33333333333337</ele><time>2026-04-26T15:11:56.042Z</time></trkpt><trkpt lat="44.8962133" lon="9.5546183"><ele>406.1666666666667</ele><time>2026-04-26T15:11:57.042Z</time></trkpt><trkpt lat="44.8962583" lon="9.55454"><ele>409.0</ele><time>2026-04-26T15:11:58.043Z</time></trkpt><trkpt lat="44.8963067" lon="9.5544533"><ele>410.83333333333337</ele><time>2026-04-26T15:11:59.042Z</time></trkpt><trkpt lat="44.89635" lon="9.5543617"><ele>412.6666666666667</ele><time>2026-04-26T15:12:00.042Z</time></trkpt><trkpt lat="44.8963833" lon="9.5542617"><ele>414.5</ele><time>2026-04-26T15:12:01.041Z</time></trkpt><trkpt lat="44.896405" lon="9.554155"><ele>416.33333333333337</ele><time>2026-04-26T15:12:02.043Z</time></trkpt><trkpt lat="44.8964183" lon="9.5540517"><ele>418.1666666666667</ele><time>2026-04-26T15:12:03.042Z</time></trkpt><trkpt lat="44.89643" lon="9.553945"><ele>420.0</ele><time>2026-04-26T15:12:04.041Z</time></trkpt><trkpt lat="44.89645" lon="9.5538383"><ele>420.0</ele><time>2026-04-26T15:12:05.041Z</time></trkpt><trkpt lat="44.8964733" lon="9.55374"><ele>420.0</ele><time>2026-04-26T15:12:06.041Z</time></trkpt><trkpt lat="44.8965033" lon="9.5535867"><ele>420.0</ele><time>2026-04-26T15:12:08.043Z</time></trkpt><trkpt lat="44.896525" lon="9.5534683"><ele>420.0</ele><time>2026-04-26T15:12:10.041Z</time></trkpt><trkpt lat="44.896515" lon="9.5533483"><ele>420.0</ele><time>2026-04-26T15:12:12.042Z</time></trkpt><trkpt lat="44.896515" lon="9.5532367"><ele>420.0</ele><time>2026-04-26T15:12:14.042Z</time></trkpt><trkpt lat="44.8965817" lon="9.5531717"><ele>421.8</ele><time>2026-04-26T15:12:17.043Z</time></trkpt><trkpt lat="44.896665" lon="9.5532483"><ele>423.6</ele><time>2026-04-26T15:12:19.042Z</time></trkpt><trkpt lat="44.8967333" lon="9.553375"><ele>425.4</ele><time>2026-04-26T15:12:21.042Z</time></trkpt><trkpt lat="44.8968117" lon="9.5535167"><ele>427.2</ele><time>2026-04-26T15:12:23.041Z</time></trkpt><trkpt lat="44.896865" lon="9.5536083"><ele>429.0</ele><time>2026-04-26T15:12:24.042Z</time></trkpt><trkpt lat="44.8969283" lon="9.5537067"><ele>430.2</ele><time>2026-04-26T15:12:25.041Z</time></trkpt><trkpt lat="44.897" lon="9.5538083"><ele>431.4</ele><time>2026-04-26T15:12:26.042Z</time></trkpt><trkpt lat="44.8970717" lon="9.5539017"><ele>432.6</ele><time>2026-04-26T15:12:27.043Z</time></trkpt><trkpt lat="44.8971433" lon="9.55398"><ele>433.8</ele><time>2026-04-26T15:12:28.042Z</time></trkpt><trkpt lat="44.89723" lon="9.5540433"><ele>435.0</ele><time>2026-04-26T15:12:29.042Z</time></trkpt><trkpt lat="44.897325" lon="9.5540983"><ele>435.0</ele><time>2026-04-26T15:12:30.041Z</time></trkpt><trkpt lat="44.8974067" lon="9.554145"><ele>435.0</ele><time>2026-04-26T15:12:31.042Z</time></trkpt><trkpt lat="44.8974767" lon="9.5542017"><ele>435.0</ele><time>2026-04-26T15:12:32.041Z</time></trkpt><trkpt lat="44.89754" lon="9.5542817"><ele>435.0</ele><time>2026-04-26T15:12:33.043Z</time></trkpt><trkpt lat="44.8976017" lon="9.5543917"><ele>435.0</ele><time>2026-04-26T15:12:34.042Z</time></trkpt><trkpt lat="44.8976733" lon="9.5545167"><ele>439.25</ele><time>2026-04-26T15:12:35.041Z</time></trkpt><trkpt lat="44.8977533" lon="9.5546433"><ele>443.5</ele><time>2026-04-26T15:12:36.041Z</time></trkpt><trkpt lat="44.897835" lon="9.5547717"><ele>447.75</ele><time>2026-04-26T15:12:37.042Z</time></trkpt><trkpt lat="44.8979017" lon="9.5548933"><ele>452.0</ele><time>2026-04-26T15:12:38.041Z</time></trkpt><trkpt lat="44.8979583" lon="9.5550233"><ele>452.0</ele><time>2026-04-26T15:12:39.042Z</time></trkpt><trkpt lat="44.898" lon="9.5551583"><ele>452.00000000000006</ele><time>2026-04-26T15:12:40.042Z</time></trkpt><trkpt lat="44.8980367" lon="9.5552733"><ele>452.00000000000006</ele><time>2026-04-26T15:12:41.041Z</time></trkpt><trkpt lat="44.8980733" lon="9.5553583"><ele>452.0</ele><time>2026-04-26T15:12:42.043Z</time></trkpt><trkpt lat="44.8981683" lon="9.5554617"><ele>452.0</ele><time>2026-04-26T15:12:44.041Z</time></trkpt><trkpt lat="44.89824" lon="9.5554883"><ele>450.8</ele><time>2026-04-26T15:12:45.042Z</time></trkpt><trkpt lat="44.8983233" lon="9.5555233"><ele>449.6</ele><time>2026-04-26T15:12:46.042Z</time></trkpt><trkpt lat="44.8984117" lon="9.5555733"><ele>448.40000000000003</ele><time>2026-04-26T15:12:47.041Z</time></trkpt><trkpt lat="44.8985033" lon="9.5556283"><ele>447.20000000000005</ele><time>2026-04-26T15:12:48.042Z</time></trkpt><trkpt lat="44.8986" lon="9.5556967"><ele>446.0</ele><time>2026-04-26T15:12:49.042Z</time></trkpt><trkpt lat="44.8987033" lon="9.555765"><ele>449.20000000000005</ele><time>2026-04-26T15:12:50.042Z</time></trkpt><trkpt lat="44.8988017" lon="9.555825"><ele>452.40000000000003</ele><time>2026-04-26T15:12:51.042Z</time></trkpt><trkpt lat="44.898885" lon="9.5558883"><ele>455.6</ele><time>2026-04-26T15:12:52.042Z</time></trkpt><trkpt lat="44.89896" lon="9.5559717"><ele>458.8</ele><time>2026-04-26T15:12:53.042Z</time></trkpt><trkpt lat="44.8990183" lon="9.5560717"><ele>462.0</ele><time>2026-04-26T15:12:54.043Z</time></trkpt><trkpt lat="44.8990567" lon="9.55618"><ele>461.5</ele><time>2026-04-26T15:12:55.042Z</time></trkpt><trkpt lat="44.8990767" lon="9.5563033"><ele>461.0</ele><time>2026-04-26T15:12:56.042Z</time></trkpt><trkpt lat="44.89909" lon="9.556435"><ele>460.5</ele><time>2026-04-26T15:12:57.042Z</time></trkpt><trkpt lat="44.8991017" lon="9.5565617"><ele>460.0</ele><time>2026-04-26T15:12:58.042Z</time></trkpt><trkpt lat="44.8991233" lon="9.5566833"><ele>459.5</ele><time>2026-04-26T15:12:59.041Z</time></trkpt><trkpt lat="44.8991583" lon="9.55679"><ele>459.0</ele><time>2026-04-26T15:13:00.042Z</time></trkpt><trkpt lat="44.8991967" lon="9.556875"><ele>459.0</ele><time>2026-04-26T15:13:01.041Z</time></trkpt><trkpt lat="44.899245" lon="9.5569383"><ele>459.0</ele><time>2026-04-26T15:13:02.041Z</time></trkpt><trkpt lat="44.899335" lon="9.55698"><ele>459.0</ele><time>2026-04-26T15:13:04.042Z</time></trkpt><trkpt lat="44.8993967" lon="9.556915"><ele>459.0</ele><time>2026-04-26T15:13:06.042Z</time></trkpt><trkpt lat="44.89944" lon="9.556845"><ele>459.0</ele><time>2026-04-26T15:13:08.042Z</time></trkpt><trkpt lat="44.8994917" lon="9.5567233"><ele>459.0</ele><time>2026-04-26T15:13:26.042Z</time></trkpt><trkpt lat="44.8995617" lon="9.556655"><ele>460.1666666666667</ele><time>2026-04-26T15:13:28.043Z</time></trkpt><trkpt lat="44.8995067" lon="9.5567033"><ele>461.33333333333337</ele><time>2026-04-26T15:13:44.042Z</time></trkpt><trkpt lat="44.8994433" lon="9.5568083"><ele>462.5</ele><time>2026-04-26T15:13:47.042Z</time></trkpt><trkpt lat="44.8993983" lon="9.5568783"><ele>463.6666666666667</ele><time>2026-04-26T15:13:49.042Z</time></trkpt><trkpt lat="44.8993817" lon="9.5569667"><ele>464.83333333333337</ele><time>2026-04-26T15:13:52.042Z</time></trkpt><trkpt lat="44.8994167" lon="9.5568517"><ele>466.0</ele><time>2026-04-26T15:14:03.043Z</time></trkpt><trkpt lat="44.8994767" lon="9.5567567"><ele>466.0</ele><time>2026-04-26T15:14:18.042Z</time></trkpt><trkpt lat="44.8995383" lon="9.55669"><ele>466.0</ele><time>2026-04-26T15:14:20.042Z</time></trkpt><trkpt lat="44.8996417" lon="9.55674"><ele>466.0</ele><time>2026-04-26T15:14:32.042Z</time></trkpt><trkpt lat="44.899705" lon="9.5566933"><ele>466.0</ele><time>2026-04-26T15:14:34.042Z</time></trkpt><trkpt lat="44.8997917" lon="9.5565917"><ele>466.0</ele><time>2026-04-26T15:14:36.043Z</time></trkpt><trkpt lat="44.8998583" lon="9.556455"><ele>466.00000000000006</ele><time>2026-04-26T15:14:38.042Z</time></trkpt><trkpt lat="44.89989" lon="9.5563633"><ele>466.0</ele><time>2026-04-26T15:14:39.043Z</time></trkpt><trkpt lat="44.8999233" lon="9.5562583"><ele>466.0</ele><time>2026-04-26T15:14:40.041Z</time></trkpt><trkpt lat="44.89996" lon="9.5561417"><ele>466.0</ele><time>2026-04-26T15:14:41.041Z</time></trkpt><trkpt lat="44.8999833" lon="9.55601"><ele>466.00000000000006</ele><time>2026-04-26T15:14:42.042Z</time></trkpt><trkpt lat="44.8999933" lon="9.555865"><ele>466.0</ele><time>2026-04-26T15:14:43.041Z</time></trkpt><trkpt lat="44.8999967" lon="9.555715"><ele>468.4</ele><time>2026-04-26T15:14:44.043Z</time></trkpt><trkpt lat="44.8999983" lon="9.5555717"><ele>470.8</ele><time>2026-04-26T15:14:45.044Z</time></trkpt><trkpt lat="44.900005" lon="9.5554317"><ele>473.19999999999993</ele><time>2026-04-26T15:14:46.043Z</time></trkpt><trkpt lat="44.9000133" lon="9.5552917"><ele>475.59999999999997</ele><time>2026-04-26T15:14:47.042Z</time></trkpt><trkpt lat="44.9000167" lon="9.555175"><ele>478.0</ele><time>2026-04-26T15:14:48.042Z</time></trkpt><trkpt lat="44.8999983" lon="9.55506"><ele>479.33333333333337</ele><time>2026-04-26T15:14:49.042Z</time></trkpt><trkpt lat="44.8999633" lon="9.5549567"><ele>480.6666666666667</ele><time>2026-04-26T15:14:50.042Z</time></trkpt><trkpt lat="44.899915" lon="9.5548617"><ele>482.0</ele><time>2026-04-26T15:14:51.043Z</time></trkpt><trkpt lat="44.8998433" lon="9.5547633"><ele>483.33333333333337</ele><time>2026-04-26T15:14:52.042Z</time></trkpt><trkpt lat="44.8997833" lon="9.554675"><ele>484.6666666666667</ele><time>2026-04-26T15:14:53.042Z</time></trkpt><trkpt lat="44.89973" lon="9.5545933"><ele>486.0</ele><time>2026-04-26T15:14:54.043Z</time></trkpt><trkpt lat="44.8996967" lon="9.554515"><ele>486.5</ele><time>2026-04-26T15:14:55.042Z</time></trkpt><trkpt lat="44.89967" lon="9.554425"><ele>487.0</ele><time>2026-04-26T15:14:56.042Z</time></trkpt><trkpt lat="44.89966" lon="9.5543333"><ele>487.5</ele><time>2026-04-26T15:14:57.042Z</time></trkpt><trkpt lat="44.8996617" lon="9.5542317"><ele>488.0</ele><time>2026-04-26T15:14:58.042Z</time></trkpt><trkpt lat="44.8996783" lon="9.55412"><ele>488.5</ele><time>2026-04-26T15:14:59.043Z</time></trkpt><trkpt lat="44.8997133" lon="9.5540117"><ele>489.0</ele><time>2026-04-26T15:15:00.043Z</time></trkpt><trkpt lat="44.8997333" lon="9.5538917"><ele>489.0</ele><time>2026-04-26T15:15:01.042Z</time></trkpt><trkpt lat="44.8997383" lon="9.553755"><ele>489.0</ele><time>2026-04-26T15:15:02.042Z</time></trkpt><trkpt lat="44.8997233" lon="9.5535883"><ele>489.0</ele><time>2026-04-26T15:15:03.043Z</time></trkpt><trkpt lat="44.8997083" lon="9.55342"><ele>489.0</ele><time>2026-04-26T15:15:04.042Z</time></trkpt><trkpt lat="44.8996983" lon="9.5532567"><ele>489.0</ele><time>2026-04-26T15:15:05.043Z</time></trkpt><trkpt lat="44.8996983" lon="9.5531017"><ele>489.0</ele><time>2026-04-26T15:15:06.042Z</time></trkpt><trkpt lat="44.8997183" lon="9.5529633"><ele>489.0</ele><time>2026-04-26T15:15:07.044Z</time></trkpt><trkpt lat="44.899745" lon="9.5528217"><ele>489.0</ele><time>2026-04-26T15:15:08.043Z</time></trkpt><trkpt lat="44.89979" lon="9.55268"><ele>489.0</ele><time>2026-04-26T15:15:09.043Z</time></trkpt><trkpt lat="44.8998283" lon="9.5525333"><ele>489.0</ele><time>2026-04-26T15:15:10.044Z</time></trkpt><trkpt lat="44.899865" lon="9.5523817"><ele>489.0</ele><time>2026-04-26T15:15:11.042Z</time></trkpt><trkpt lat="44.8998983" lon="9.5522317"><ele>489.0</ele><time>2026-04-26T15:15:12.042Z</time></trkpt><trkpt lat="44.8999183" lon="9.55208"><ele>489.0</ele><time>2026-04-26T15:15:13.042Z</time></trkpt><trkpt lat="44.8999317" lon="9.55195"><ele>489.0</ele><time>2026-04-26T15:15:14.042Z</time></trkpt><trkpt lat="44.8999317" lon="9.5518317"><ele>489.6</ele><time>2026-04-26T15:15:15.042Z</time></trkpt><trkpt lat="44.8999067" lon="9.5517067"><ele>490.2</ele><time>2026-04-26T15:15:16.041Z</time></trkpt><trkpt lat="44.899875" lon="9.551585"><ele>490.80000000000007</ele><time>2026-04-26T15:15:17.042Z</time></trkpt><trkpt lat="44.8998467" lon="9.5514633"><ele>491.40000000000003</ele><time>2026-04-26T15:15:18.042Z</time></trkpt><trkpt lat="44.8998183" lon="9.5513233"><ele>492.0</ele><time>2026-04-26T15:15:19.043Z</time></trkpt><trkpt lat="44.8998083" lon="9.5511833"><ele>492.0</ele><time>2026-04-26T15:15:20.042Z</time></trkpt><trkpt lat="44.8998067" lon="9.5510467"><ele>492.00000000000006</ele><time>2026-04-26T15:15:21.047Z</time></trkpt><trkpt lat="44.899815" lon="9.55092"><ele>492.00000000000006</ele><time>2026-04-26T15:15:22.042Z</time></trkpt><trkpt lat="44.8998267" lon="9.5507933"><ele>492.0</ele><time>2026-04-26T15:15:23.044Z</time></trkpt><trkpt lat="44.8998417" lon="9.5506733"><ele>492.0</ele><time>2026-04-26T15:15:24.042Z</time></trkpt><trkpt lat="44.899855" lon="9.5505533"><ele>492.0</ele><time>2026-04-26T15:15:25.042Z</time></trkpt><trkpt lat="44.8998717" lon="9.550435"><ele>492.0</ele><time>2026-04-26T15:15:26.043Z</time></trkpt><trkpt lat="44.899885" lon="9.5503183"><ele>492.0</ele><time>2026-04-26T15:15:27.043Z</time></trkpt><trkpt lat="44.899885" lon="9.5502133"><ele>492.0</ele><time>2026-04-26T15:15:28.042Z</time></trkpt><trkpt lat="44.899875" lon="9.550115"><ele>492.0</ele><time>2026-04-26T15:15:29.043Z</time></trkpt><trkpt lat="44.899855" lon="9.5500283"><ele>492.0</ele><time>2026-04-26T15:15:30.042Z</time></trkpt><trkpt lat="44.8998233" lon="9.5498883"><ele>492.0</ele><time>2026-04-26T15:15:32.043Z</time></trkpt><trkpt lat="44.8998267" lon="9.5497933"><ele>492.0</ele><time>2026-04-26T15:15:34.043Z</time></trkpt><trkpt lat="44.8999117" lon="9.549735"><ele>492.0</ele><time>2026-04-26T15:15:37.043Z</time></trkpt><trkpt lat="44.9000167" lon="9.5497333"><ele>492.0</ele><time>2026-04-26T15:15:39.044Z</time></trkpt><trkpt lat="44.90008" lon="9.5497267"><ele>492.0</ele><time>2026-04-26T15:15:40.044Z</time></trkpt><trkpt lat="44.9001567" lon="9.5497167"><ele>492.0</ele><time>2026-04-26T15:15:41.041Z</time></trkpt><trkpt lat="44.9002417" lon="9.5497"><ele>491.6</ele><time>2026-04-26T15:15:42.043Z</time></trkpt><trkpt lat="44.90034" lon="9.54968"><ele>491.20000000000005</ele><time>2026-04-26T15:15:43.043Z</time></trkpt><trkpt lat="44.9004433" lon="9.5496517"><ele>490.8</ele><time>2026-04-26T15:15:44.042Z</time></trkpt><trkpt lat="44.9005467" lon="9.5496067"><ele>490.4</ele><time>2026-04-26T15:15:45.042Z</time></trkpt><trkpt lat="44.9006417" lon="9.5495533"><ele>490.0</ele><time>2026-04-26T15:15:46.042Z</time></trkpt><trkpt lat="44.9007283" lon="9.5495083"><ele>490.00000000000006</ele><time>2026-04-26T15:15:47.042Z</time></trkpt><trkpt lat="44.9008083" lon="9.549475"><ele>490.0</ele><time>2026-04-26T15:15:48.043Z</time></trkpt><trkpt lat="44.9008733" lon="9.5494583"><ele>490.0</ele><time>2026-04-26T15:15:49.043Z</time></trkpt><trkpt lat="44.9009567" lon="9.5494217"><ele>490.0</ele><time>2026-04-26T15:15:51.044Z</time></trkpt><trkpt lat="44.901015" lon="9.54931"><ele>490.00000000000006</ele><time>2026-04-26T15:15:53.044Z</time></trkpt><trkpt lat="44.901033" lon="9.5492109"><ele>490.0</ele><time>2026-04-26T15:15:54.044Z</time></trkpt><trkpt lat="44.9010394" lon="9.5490812"><ele>491.75</ele><time>2026-04-26T15:15:55.044Z</time></trkpt><trkpt lat="44.9010428" lon="9.5489339"><ele>493.5</ele><time>2026-04-26T15:15:56.044Z</time></trkpt><trkpt lat="44.9010514" lon="9.5487751"><ele>495.25</ele><time>2026-04-26T15:15:57.044Z</time></trkpt><trkpt lat="44.9010661" lon="9.5486021"><ele>497.0</ele><time>2026-04-26T15:15:58.044Z</time></trkpt><trkpt lat="44.9010832" lon="9.5484221"><ele>497.0</ele><time>2026-04-26T15:15:59.044Z</time></trkpt><trkpt lat="44.9010984" lon="9.5482424"><ele>497.0</ele><time>2026-04-26T15:16:00.045Z</time></trkpt><trkpt lat="44.9011139" lon="9.5480736"><ele>497.0</ele><time>2026-04-26T15:16:01.048Z</time></trkpt><trkpt lat="44.9011355" lon="9.5479171"><ele>497.0</ele><time>2026-04-26T15:16:02.045Z</time></trkpt><trkpt lat="44.9011699" lon="9.5477661"><ele>495.40000000000003</ele><time>2026-04-26T15:16:03.045Z</time></trkpt><trkpt lat="44.9012144" lon="9.5476129"><ele>493.80000000000007</ele><time>2026-04-26T15:16:04.044Z</time></trkpt><trkpt lat="44.9012568" lon="9.5474687"><ele>492.2</ele><time>2026-04-26T15:16:05.042Z</time></trkpt><trkpt lat="44.9012799" lon="9.547339"><ele>490.6</ele><time>2026-04-26T15:16:06.042Z</time></trkpt><trkpt lat="44.9012891" lon="9.5471971"><ele>489.0</ele><time>2026-04-26T15:16:07.043Z</time></trkpt><trkpt lat="44.9012933" lon="9.5470382"><ele>487.0</ele><time>2026-04-26T15:16:08.043Z</time></trkpt><trkpt lat="44.9013048" lon="9.5468723"><ele>485.0</ele><time>2026-04-26T15:16:09.043Z</time></trkpt><trkpt lat="44.9013267" lon="9.5467112"><ele>483.0</ele><time>2026-04-26T15:16:10.042Z</time></trkpt><trkpt lat="44.9013607" lon="9.5465555"><ele>481.0</ele><time>2026-04-26T15:16:11.043Z</time></trkpt><trkpt lat="44.901404" lon="9.5463994"><ele>481.0</ele><time>2026-04-26T15:16:12.042Z</time></trkpt><trkpt lat="44.9014516" lon="9.5462437"><ele>481.0</ele><time>2026-04-26T15:16:13.043Z</time></trkpt><trkpt lat="44.9014981" lon="9.5460986"><ele>481.0</ele><time>2026-04-26T15:16:14.042Z</time></trkpt><trkpt lat="44.9015317" lon="9.5459605"><ele>481.0</ele><time>2026-04-26T15:16:15.042Z</time></trkpt><trkpt lat="44.9015607" lon="9.5458252"><ele>481.0</ele><time>2026-04-26T15:16:16.043Z</time></trkpt><trkpt lat="44.9015805" lon="9.5456934"><ele>480.83333333333337</ele><time>2026-04-26T15:16:17.043Z</time></trkpt><trkpt lat="44.9015844" lon="9.5455617"><ele>480.6666666666667</ele><time>2026-04-26T15:16:18.043Z</time></trkpt><trkpt lat="44.9015753" lon="9.545436"><ele>480.5</ele><time>2026-04-26T15:16:19.042Z</time></trkpt><trkpt lat="44.9015546" lon="9.5453177"><ele>480.33333333333337</ele><time>2026-04-26T15:16:20.042Z</time></trkpt><trkpt lat="44.9015201" lon="9.5452206"><ele>480.1666666666667</ele><time>2026-04-26T15:16:21.043Z</time></trkpt><trkpt lat="44.9014735" lon="9.5451512"><ele>480.0</ele><time>2026-04-26T15:16:22.042Z</time></trkpt><trkpt lat="44.9014102" lon="9.5450992"><ele>480.4</ele><time>2026-04-26T15:16:23.042Z</time></trkpt><trkpt lat="44.9013326" lon="9.5450585"><ele>480.8</ele><time>2026-04-26T15:16:24.042Z</time></trkpt><trkpt lat="44.9012348" lon="9.5450376"><ele>481.20000000000005</ele><time>2026-04-26T15:16:25.042Z</time></trkpt><trkpt lat="44.9011248" lon="9.5450293"><ele>481.6</ele><time>2026-04-26T15:16:26.043Z</time></trkpt><trkpt lat="44.9010037" lon="9.5450336"><ele>482.0</ele><time>2026-04-26T15:16:27.043Z</time></trkpt><trkpt lat="44.9008744" lon="9.5450302"><ele>483.0</ele><time>2026-04-26T15:16:28.042Z</time></trkpt><trkpt lat="44.9007458" lon="9.5450295"><ele>484.0</ele><time>2026-04-26T15:16:29.042Z</time></trkpt><trkpt lat="44.9006267" lon="9.5450324"><ele>485.0</ele><time>2026-04-26T15:16:30.042Z</time></trkpt><trkpt lat="44.9005149" lon="9.5450363"><ele>486.0</ele><time>2026-04-26T15:16:31.042Z</time></trkpt><trkpt lat="44.9004054" lon="9.5450363"><ele>486.0</ele><time>2026-04-26T15:16:32.043Z</time></trkpt><trkpt lat="44.9002998" lon="9.5450307"><ele>486.0</ele><time>2026-04-26T15:16:33.042Z</time></trkpt><trkpt lat="44.9001951" lon="9.5450251"><ele>486.0</ele><time>2026-04-26T15:16:34.043Z</time></trkpt><trkpt lat="44.900089" lon="9.5450141"><ele>486.0</ele><time>2026-04-26T15:16:35.042Z</time></trkpt><trkpt lat="44.8999769" lon="9.5449857"><ele>486.0</ele><time>2026-04-26T15:16:36.041Z</time></trkpt><trkpt lat="44.8998587" lon="9.5449417"><ele>485.20000000000005</ele><time>2026-04-26T15:16:37.045Z</time></trkpt><trkpt lat="44.8997431" lon="9.5448856"><ele>484.40000000000003</ele><time>2026-04-26T15:16:38.042Z</time></trkpt><trkpt lat="44.8996397" lon="9.544822"><ele>483.6</ele><time>2026-04-26T15:16:39.043Z</time></trkpt><trkpt lat="44.8995489" lon="9.544762"><ele>482.8</ele><time>2026-04-26T15:16:40.042Z</time></trkpt><trkpt lat="44.8994724" lon="9.544707"><ele>482.0</ele><time>2026-04-26T15:16:41.042Z</time></trkpt><trkpt lat="44.8994133" lon="9.5446517"><ele>481.20000000000005</ele><time>2026-04-26T15:16:42.042Z</time></trkpt><trkpt lat="44.8993333" lon="9.54453"><ele>480.40000000000003</ele><time>2026-04-26T15:16:44.043Z</time></trkpt><trkpt lat="44.8992917" lon="9.5444167"><ele>479.59999999999997</ele><time>2026-04-26T15:16:46.042Z</time></trkpt><trkpt lat="44.8992383" lon="9.5445"><ele>478.79999999999995</ele><time>2026-04-26T15:17:13.043Z</time></trkpt><trkpt lat="44.89915" lon="9.5444383"><ele>478.0</ele><time>2026-04-26T15:17:16.044Z</time></trkpt><trkpt lat="44.8990883" lon="9.54432"><ele>478.00000000000006</ele><time>2026-04-26T15:17:18.043Z</time></trkpt><trkpt lat="44.8990583" lon="9.5442283"><ele>478.0</ele><time>2026-04-26T15:17:19.043Z</time></trkpt><trkpt lat="44.899035" lon="9.5441133"><ele>478.0</ele><time>2026-04-26T15:17:20.043Z</time></trkpt><trkpt lat="44.899015" lon="9.5439867"><ele>478.0</ele><time>2026-04-26T15:17:21.044Z</time></trkpt><trkpt lat="44.8989983" lon="9.5438633"><ele>478.00000000000006</ele><time>2026-04-26T15:17:22.042Z</time></trkpt><trkpt lat="44.8989983" lon="9.5437333"><ele>478.0</ele><time>2026-04-26T15:17:23.043Z</time></trkpt><trkpt lat="44.899" lon="9.5436017"><ele>477.1666666666667</ele><time>2026-04-26T15:17:24.043Z</time></trkpt><trkpt lat="44.898995" lon="9.54347"><ele>476.33333333333337</ele><time>2026-04-26T15:17:25.043Z</time></trkpt><trkpt lat="44.8989783" lon="9.5433417"><ele>475.5</ele><time>2026-04-26T15:17:26.042Z</time></trkpt><trkpt lat="44.8989533" lon="9.5432183"><ele>474.66666666666663</ele><time>2026-04-26T15:17:27.044Z</time></trkpt><trkpt lat="44.89893" lon="9.5431017"><ele>473.8333333333333</ele><time>2026-04-26T15:17:28.042Z</time></trkpt><trkpt lat="44.8989117" lon="9.542985"><ele>473.0</ele><time>2026-04-26T15:17:29.043Z</time></trkpt><trkpt lat="44.898895" lon="9.5428733"><ele>472.66666666666663</ele><time>2026-04-26T15:17:30.042Z</time></trkpt><trkpt lat="44.89887" lon="9.5427683"><ele>472.3333333333333</ele><time>2026-04-26T15:17:31.042Z</time></trkpt><trkpt lat="44.89884" lon="9.542665"><ele>472.0</ele><time>2026-04-26T15:17:32.042Z</time></trkpt><trkpt lat="44.8988133" lon="9.5425683"><ele>471.66666666666663</ele><time>2026-04-26T15:17:33.042Z</time></trkpt><trkpt lat="44.8987817" lon="9.5424783"><ele>471.3333333333333</ele><time>2026-04-26T15:17:34.043Z</time></trkpt><trkpt lat="44.89875" lon="9.5423983"><ele>471.0</ele><time>2026-04-26T15:17:35.042Z</time></trkpt><trkpt lat="44.8986867" lon="9.5423033"><ele>471.0</ele><time>2026-04-26T15:17:37.044Z</time></trkpt><trkpt lat="44.8986167" lon="9.542315"><ele>471.0</ele><time>2026-04-26T15:17:39.044Z</time></trkpt><trkpt lat="44.8985583" lon="9.5424167"><ele>471.0</ele><time>2026-04-26T15:17:41.042Z</time></trkpt><trkpt lat="44.89851" lon="9.5425567"><ele>471.0</ele><time>2026-04-26T15:17:43.043Z</time></trkpt><trkpt lat="44.8984533" lon="9.54264"><ele>471.0</ele><time>2026-04-26T15:17:45.043Z</time></trkpt><trkpt lat="44.89837" lon="9.5427217"><ele>468.6</ele><time>2026-04-26T15:17:47.044Z</time></trkpt><trkpt lat="44.8983033" lon="9.5427733"><ele>466.20000000000005</ele><time>2026-04-26T15:17:48.044Z</time></trkpt><trkpt lat="44.8982183" lon="9.5428233"><ele>463.79999999999995</ele><time>2026-04-26T15:17:49.047Z</time></trkpt><trkpt lat="44.898125" lon="9.5428617"><ele>461.4</ele><time>2026-04-26T15:17:50.045Z</time></trkpt><trkpt lat="44.8980333" lon="9.5428917"><ele>459.0</ele><time>2026-04-26T15:17:51.045Z</time></trkpt><trkpt lat="44.8979383" lon="9.542915"><ele>459.0</ele><time>2026-04-26T15:17:52.045Z</time></trkpt><trkpt lat="44.8978467" lon="9.5429317"><ele>459.0</ele><time>2026-04-26T15:17:53.044Z</time></trkpt><trkpt lat="44.89776" lon="9.5429433"><ele>459.0</ele><time>2026-04-26T15:17:54.044Z</time></trkpt><trkpt lat="44.8976683" lon="9.5429383"><ele>459.0</ele><time>2026-04-26T15:17:55.045Z</time></trkpt><trkpt lat="44.897565" lon="9.5429117"><ele>459.0</ele><time>2026-04-26T15:17:56.045Z</time></trkpt><trkpt lat="44.8974567" lon="9.5428833"><ele>455.4</ele><time>2026-04-26T15:17:57.045Z</time></trkpt><trkpt lat="44.8973467" lon="9.5428583"><ele>451.79999999999995</ele><time>2026-04-26T15:17:58.042Z</time></trkpt><trkpt lat="44.8972333" lon="9.542835"><ele>448.20000000000005</ele><time>2026-04-26T15:17:59.042Z</time></trkpt><trkpt lat="44.8971217" lon="9.5428083"><ele>444.6</ele><time>2026-04-26T15:18:00.043Z</time></trkpt><trkpt lat="44.897015" lon="9.5427783"><ele>441.0</ele><time>2026-04-26T15:18:01.044Z</time></trkpt><trkpt lat="44.8969167" lon="9.542745"><ele>441.0</ele><time>2026-04-26T15:18:02.043Z</time></trkpt><trkpt lat="44.8968217" lon="9.5427117"><ele>441.0</ele><time>2026-04-26T15:18:03.044Z</time></trkpt><trkpt lat="44.896735" lon="9.5426883"><ele>441.0</ele><time>2026-04-26T15:18:04.042Z</time></trkpt><trkpt lat="44.896645" lon="9.542665"><ele>441.0</ele><time>2026-04-26T15:18:05.044Z</time></trkpt><trkpt lat="44.8965567" lon="9.5426683"><ele>441.0</ele><time>2026-04-26T15:18:06.042Z</time></trkpt><trkpt lat="44.8964617" lon="9.5426883"><ele>439.20000000000005</ele><time>2026-04-26T15:18:07.042Z</time></trkpt><trkpt lat="44.896365" lon="9.5427183"><ele>437.40000000000003</ele><time>2026-04-26T15:18:08.043Z</time></trkpt><trkpt lat="44.8962667" lon="9.54274"><ele>435.6</ele><time>2026-04-26T15:18:09.042Z</time></trkpt><trkpt lat="44.89617" lon="9.542755"><ele>433.8</ele><time>2026-04-26T15:18:10.043Z</time></trkpt><trkpt lat="44.8960783" lon="9.5427517"><ele>432.0</ele><time>2026-04-26T15:18:11.043Z</time></trkpt><trkpt lat="44.8959933" lon="9.5427317"><ele>429.8</ele><time>2026-04-26T15:18:12.042Z</time></trkpt><trkpt lat="44.89591" lon="9.5426967"><ele>427.6</ele><time>2026-04-26T15:18:13.042Z</time></trkpt><trkpt lat="44.8958283" lon="9.542645"><ele>425.40000000000003</ele><time>2026-04-26T15:18:14.043Z</time></trkpt><trkpt lat="44.8957483" lon="9.5425683"><ele>423.20000000000005</ele><time>2026-04-26T15:18:15.044Z</time></trkpt><trkpt lat="44.8956683" lon="9.5424833"><ele>421.0</ele><time>2026-04-26T15:18:16.042Z</time></trkpt><trkpt lat="44.8955917" lon="9.5424033"><ele>421.00000000000006</ele><time>2026-04-26T15:18:17.043Z</time></trkpt><trkpt lat="44.8955217" lon="9.5423367"><ele>421.0</ele><time>2026-04-26T15:18:18.042Z</time></trkpt><trkpt lat="44.8954583" lon="9.54228"><ele>421.0</ele><time>2026-04-26T15:18:19.042Z</time></trkpt><trkpt lat="44.895405" lon="9.5422317"><ele>421.0</ele><time>2026-04-26T15:18:20.042Z</time></trkpt><trkpt lat="44.895355" lon="9.5421117"><ele>421.00000000000006</ele><time>2026-04-26T15:18:22.042Z</time></trkpt><trkpt lat="44.8953767" lon="9.5419533"><ele>421.0</ele><time>2026-04-26T15:18:24.042Z</time></trkpt><trkpt lat="44.89542" lon="9.541845"><ele>419.20000000000005</ele><time>2026-04-26T15:18:25.044Z</time></trkpt><trkpt lat="44.8954683" lon="9.5417367"><ele>417.40000000000003</ele><time>2026-04-26T15:18:26.041Z</time></trkpt><trkpt lat="44.8955083" lon="9.5416267"><ele>415.6</ele><time>2026-04-26T15:18:27.041Z</time></trkpt><trkpt lat="44.89554" lon="9.5415067"><ele>413.8</ele><time>2026-04-26T15:18:28.041Z</time></trkpt><trkpt lat="44.89556" lon="9.5413733"><ele>412.0</ele><time>2026-04-26T15:18:29.043Z</time></trkpt><trkpt lat="44.89557" lon="9.5412167"><ele>411.25</ele><time>2026-04-26T15:18:30.041Z</time></trkpt><trkpt lat="44.895585" lon="9.5410517"><ele>410.5</ele><time>2026-04-26T15:18:31.043Z</time></trkpt><trkpt lat="44.8956067" lon="9.5408933"><ele>409.75</ele><time>2026-04-26T15:18:32.041Z</time></trkpt><trkpt lat="44.8956317" lon="9.5407333"><ele>409.0</ele><time>2026-04-26T15:18:33.041Z</time></trkpt><trkpt lat="44.89566" lon="9.5405733"><ele>409.0</ele><time>2026-04-26T15:18:34.042Z</time></trkpt><trkpt lat="44.895695" lon="9.540425"><ele>409.0</ele><time>2026-04-26T15:18:35.041Z</time></trkpt><trkpt lat="44.895725" lon="9.5402867"><ele>409.0</ele><time>2026-04-26T15:18:36.042Z</time></trkpt><trkpt lat="44.89575" lon="9.5401583"><ele>409.0</ele><time>2026-04-26T15:18:37.042Z</time></trkpt><trkpt lat="44.89576" lon="9.5400367"><ele>409.0</ele><time>2026-04-26T15:18:38.042Z</time></trkpt><trkpt lat="44.8957617" lon="9.53992"><ele>409.2</ele><time>2026-04-26T15:18:39.043Z</time></trkpt><trkpt lat="44.895745" lon="9.5398167"><ele>409.4</ele><time>2026-04-26T15:18:40.043Z</time></trkpt><trkpt lat="44.8957067" lon="9.5397083"><ele>409.6</ele><time>2026-04-26T15:18:41.042Z</time></trkpt><trkpt lat="44.8956533" lon="9.5395933"><ele>409.8</ele><time>2026-04-26T15:18:42.041Z</time></trkpt><trkpt lat="44.895595" lon="9.539485"><ele>410.0</ele><time>2026-04-26T15:18:43.042Z</time></trkpt><trkpt lat="44.8955367" lon="9.539375"><ele>410.3333333333333</ele><time>2026-04-26T15:18:44.041Z</time></trkpt><trkpt lat="44.895485" lon="9.5392633"><ele>410.66666666666663</ele><time>2026-04-26T15:18:45.043Z</time></trkpt><trkpt lat="44.8954433" lon="9.5391533"><ele>411.0</ele><time>2026-04-26T15:18:46.042Z</time></trkpt><trkpt lat="44.895415" lon="9.5390483"><ele>411.33333333333337</ele><time>2026-04-26T15:18:47.041Z</time></trkpt><trkpt lat="44.8954017" lon="9.538945"><ele>411.6666666666667</ele><time>2026-04-26T15:18:48.041Z</time></trkpt><trkpt lat="44.895405" lon="9.53885"><ele>412.0</ele><time>2026-04-26T15:18:49.041Z</time></trkpt><trkpt lat="44.8954283" lon="9.538755"><ele>410.33333333333337</ele><time>2026-04-26T15:18:50.042Z</time></trkpt><trkpt lat="44.8954933" lon="9.5386833"><ele>408.6666666666667</ele><time>2026-04-26T15:18:51.042Z</time></trkpt><trkpt lat="44.8955567" lon="9.5385867"><ele>407.0</ele><time>2026-04-26T15:18:52.042Z</time></trkpt><trkpt lat="44.8956267" lon="9.5385167"><ele>405.33333333333337</ele><time>2026-04-26T15:18:53.041Z</time></trkpt><trkpt lat="44.89569" lon="9.5384433"><ele>403.6666666666667</ele><time>2026-04-26T15:18:54.041Z</time></trkpt><trkpt lat="44.8957517" lon="9.5383617"><ele>402.0</ele><time>2026-04-26T15:18:55.042Z</time></trkpt><trkpt lat="44.8958117" lon="9.538275"><ele>402.0</ele><time>2026-04-26T15:18:56.041Z</time></trkpt><trkpt lat="44.8958683" lon="9.5381767"><ele>402.0</ele><time>2026-04-26T15:18:57.041Z</time></trkpt><trkpt lat="44.8959133" lon="9.5380733"><ele>402.0</ele><time>2026-04-26T15:18:58.041Z</time></trkpt><trkpt lat="44.8959433" lon="9.5379583"><ele>402.0</ele><time>2026-04-26T15:18:59.041Z</time></trkpt><trkpt lat="44.89596" lon="9.537835"><ele>402.0</ele><time>2026-04-26T15:19:00.042Z</time></trkpt><trkpt lat="44.8959683" lon="9.5377117"><ele>402.0</ele><time>2026-04-26T15:19:01.042Z</time></trkpt><trkpt lat="44.8959717" lon="9.5376"><ele>400.8333333333333</ele><time>2026-04-26T15:19:02.042Z</time></trkpt><trkpt lat="44.8959667" lon="9.537495"><ele>399.66666666666663</ele><time>2026-04-26T15:19:03.042Z</time></trkpt><trkpt lat="44.89594" lon="9.5374017"><ele>398.5</ele><time>2026-04-26T15:19:04.042Z</time></trkpt><trkpt lat="44.8958933" lon="9.537335"><ele>397.3333333333333</ele><time>2026-04-26T15:19:05.042Z</time></trkpt><trkpt lat="44.8958183" lon="9.5372867"><ele>396.16666666666663</ele><time>2026-04-26T15:19:06.042Z</time></trkpt><trkpt lat="44.8957167" lon="9.5372367"><ele>395.0</ele><time>2026-04-26T15:19:07.044Z</time></trkpt><trkpt lat="44.8956233" lon="9.53718"><ele>394.99999999999994</ele><time>2026-04-26T15:19:08.041Z</time></trkpt><trkpt lat="44.8955383" lon="9.537125"><ele>395.0</ele><time>2026-04-26T15:19:09.042Z</time></trkpt><trkpt lat="44.895465" lon="9.53707"><ele>395.0</ele><time>2026-04-26T15:19:10.041Z</time></trkpt><trkpt lat="44.8953983" lon="9.5370283"><ele>395.0</ele><time>2026-04-26T15:19:11.041Z</time></trkpt><trkpt lat="44.8953467" lon="9.5369733"><ele>394.99999999999994</ele><time>2026-04-26T15:19:12.042Z</time></trkpt><trkpt lat="44.8953083" lon="9.5368933"><ele>395.0</ele><time>2026-04-26T15:19:13.042Z</time></trkpt><trkpt lat="44.8952867" lon="9.5367517"><ele>397.5</ele><time>2026-04-26T15:19:14.041Z</time></trkpt><trkpt lat="44.895265" lon="9.5365867"><ele>400.0</ele><time>2026-04-26T15:19:15.043Z</time></trkpt><trkpt lat="44.89524" lon="9.53641"><ele>402.5</ele><time>2026-04-26T15:19:16.042Z</time></trkpt><trkpt lat="44.8952117" lon="9.5362367"><ele>405.0</ele><time>2026-04-26T15:19:17.043Z</time></trkpt><trkpt lat="44.8951833" lon="9.536075"><ele>406.2</ele><time>2026-04-26T15:19:18.043Z</time></trkpt><trkpt lat="44.8951567" lon="9.535915"><ele>407.4</ele><time>2026-04-26T15:19:19.041Z</time></trkpt><trkpt lat="44.895135" lon="9.53576"><ele>408.6</ele><time>2026-04-26T15:19:20.042Z</time></trkpt><trkpt lat="44.8951217" lon="9.5356083"><ele>409.8</ele><time>2026-04-26T15:19:21.042Z</time></trkpt><trkpt lat="44.895105" lon="9.5354633"><ele>411.0</ele><time>2026-04-26T15:19:22.042Z</time></trkpt><trkpt lat="44.89509" lon="9.535325"><ele>407.1666666666667</ele><time>2026-04-26T15:19:23.042Z</time></trkpt><trkpt lat="44.8950767" lon="9.5351883"><ele>403.33333333333337</ele><time>2026-04-26T15:19:24.041Z</time></trkpt><trkpt lat="44.8950717" lon="9.53506"><ele>399.5</ele><time>2026-04-26T15:19:25.041Z</time></trkpt><trkpt lat="44.8950617" lon="9.53494"><ele>395.6666666666667</ele><time>2026-04-26T15:19:26.042Z</time></trkpt><trkpt lat="44.8950467" lon="9.5348233"><ele>391.83333333333337</ele><time>2026-04-26T15:19:27.044Z</time></trkpt><trkpt lat="44.8950267" lon="9.5347183"><ele>388.0</ele><time>2026-04-26T15:19:28.042Z</time></trkpt><trkpt lat="44.8949967" lon="9.5346217"><ele>389.0</ele><time>2026-04-26T15:19:29.041Z</time></trkpt><trkpt lat="44.8949617" lon="9.5345317"><ele>390.0</ele><time>2026-04-26T15:19:30.042Z</time></trkpt><trkpt lat="44.89492" lon="9.5344517"><ele>391.0</ele><time>2026-04-26T15:19:31.042Z</time></trkpt><trkpt lat="44.8948667" lon="9.53439"><ele>392.0</ele><time>2026-04-26T15:19:32.043Z</time></trkpt><trkpt lat="44.8947967" lon="9.534345"><ele>393.0</ele><time>2026-04-26T15:19:33.041Z</time></trkpt><trkpt lat="44.8947267" lon="9.534325"><ele>394.0</ele><time>2026-04-26T15:19:34.043Z</time></trkpt><trkpt lat="44.8946533" lon="9.5343267"><ele>395.0</ele><time>2026-04-26T15:19:35.042Z</time></trkpt><trkpt lat="44.8945767" lon="9.5343533"><ele>394.99999999999994</ele><time>2026-04-26T15:19:36.042Z</time></trkpt><trkpt lat="44.8944983" lon="9.534395"><ele>395.0</ele><time>2026-04-26T15:19:37.041Z</time></trkpt><trkpt lat="44.8944217" lon="9.53445"><ele>395.0</ele><time>2026-04-26T15:19:38.041Z</time></trkpt><trkpt lat="44.8943483" lon="9.5345117"><ele>395.0</ele><time>2026-04-26T15:19:39.042Z</time></trkpt><trkpt lat="44.8942783" lon="9.5345767"><ele>394.99999999999994</ele><time>2026-04-26T15:19:40.042Z</time></trkpt><trkpt lat="44.89421" lon="9.5346417"><ele>395.0</ele><time>2026-04-26T15:19:41.042Z</time></trkpt><trkpt lat="44.8941483" lon="9.5347017"><ele>391.16666666666663</ele><time>2026-04-26T15:19:42.042Z</time></trkpt><trkpt lat="44.894085" lon="9.5347467"><ele>387.3333333333333</ele><time>2026-04-26T15:19:43.041Z</time></trkpt><trkpt lat="44.89402" lon="9.53477"><ele>383.5</ele><time>2026-04-26T15:19:44.042Z</time></trkpt><trkpt lat="44.8939517" lon="9.5347833"><ele>379.66666666666663</ele><time>2026-04-26T15:19:45.041Z</time></trkpt><trkpt lat="44.8938283" lon="9.53477"><ele>375.8333333333333</ele><time>2026-04-26T15:19:47.041Z</time></trkpt><trkpt lat="44.893745" lon="9.53466"><ele>372.0</ele><time>2026-04-26T15:19:49.043Z</time></trkpt><trkpt lat="44.8937333" lon="9.53456"><ele>372.8333333333333</ele><time>2026-04-26T15:19:50.041Z</time></trkpt><trkpt lat="44.8937367" lon="9.5344483"><ele>373.6666666666667</ele><time>2026-04-26T15:19:51.041Z</time></trkpt><trkpt lat="44.8937417" lon="9.5343317"><ele>374.5</ele><time>2026-04-26T15:19:52.043Z</time></trkpt><trkpt lat="44.8937433" lon="9.5342117"><ele>375.33333333333337</ele><time>2026-04-26T15:19:53.043Z</time></trkpt><trkpt lat="44.8937367" lon="9.5340933"><ele>376.1666666666667</ele><time>2026-04-26T15:19:54.041Z</time></trkpt><trkpt lat="44.8937217" lon="9.5339733"><ele>377.0</ele><time>2026-04-26T15:19:55.041Z</time></trkpt><trkpt lat="44.8936967" lon="9.5338483"><ele>377.0</ele><time>2026-04-26T15:19:56.042Z</time></trkpt><trkpt lat="44.893665" lon="9.53373"><ele>377.0</ele><time>2026-04-26T15:19:57.042Z</time></trkpt><trkpt lat="44.8936233" lon="9.5336183"><ele>377.0</ele><time>2026-04-26T15:19:58.041Z</time></trkpt><trkpt lat="44.8935783" lon="9.533515"><ele>377.0</ele><time>2026-04-26T15:19:59.041Z</time></trkpt><trkpt lat="44.89353" lon="9.5334133"><ele>377.0</ele><time>2026-04-26T15:20:00.042Z</time></trkpt><trkpt lat="44.893495" lon="9.5333083"><ele>377.0</ele><time>2026-04-26T15:20:01.042Z</time></trkpt><trkpt lat="44.893465" lon="9.5332133"><ele>372.5</ele><time>2026-04-26T15:20:02.041Z</time></trkpt><trkpt lat="44.89341" lon="9.533085"><ele>368.0</ele><time>2026-04-26T15:20:04.041Z</time></trkpt><trkpt lat="44.8933383" lon="9.533025"><ele>363.5</ele><time>2026-04-26T15:20:06.042Z</time></trkpt><trkpt lat="44.89327" lon="9.5331033"><ele>359.0</ele><time>2026-04-26T15:20:08.043Z</time></trkpt><trkpt lat="44.8932433" lon="9.5331933"><ele>354.5</ele><time>2026-04-26T15:20:09.042Z</time></trkpt><trkpt lat="44.89322" lon="9.53331"><ele>350.0</ele><time>2026-04-26T15:20:10.042Z</time></trkpt><trkpt lat="44.89319" lon="9.5334533"><ele>350.0</ele><time>2026-04-26T15:20:11.043Z</time></trkpt><trkpt lat="44.8931517" lon="9.5336017"><ele>350.0</ele><time>2026-04-26T15:20:12.041Z</time></trkpt><trkpt lat="44.8931083" lon="9.5337467"><ele>350.0</ele><time>2026-04-26T15:20:13.042Z</time></trkpt><trkpt lat="44.89306" lon="9.5338917"><ele>350.0</ele><time>2026-04-26T15:20:14.042Z</time></trkpt><trkpt lat="44.8930117" lon="9.534025"><ele>350.0</ele><time>2026-04-26T15:20:15.042Z</time></trkpt><trkpt lat="44.89296" lon="9.5341483"><ele>350.6</ele><time>2026-04-26T15:20:16.043Z</time></trkpt><trkpt lat="44.8929083" lon="9.5342583"><ele>351.2</ele><time>2026-04-26T15:20:17.041Z</time></trkpt><trkpt lat="44.89285" lon="9.5343683"><ele>351.79999999999995</ele><time>2026-04-26T15:20:18.043Z</time></trkpt><trkpt lat="44.8927883" lon="9.53448"><ele>352.4</ele><time>2026-04-26T15:20:19.042Z</time></trkpt><trkpt lat="44.8927283" lon="9.5345833"><ele>353.0</ele><time>2026-04-26T15:20:20.042Z</time></trkpt><trkpt lat="44.8926783" lon="9.5346883"><ele>353.2</ele><time>2026-04-26T15:20:21.042Z</time></trkpt><trkpt lat="44.892635" lon="9.5347983"><ele>353.4</ele><time>2026-04-26T15:20:22.041Z</time></trkpt><trkpt lat="44.8926" lon="9.5349267"><ele>353.59999999999997</ele><time>2026-04-26T15:20:23.044Z</time></trkpt><trkpt lat="44.8925783" lon="9.535065"><ele>353.79999999999995</ele><time>2026-04-26T15:20:24.042Z</time></trkpt><trkpt lat="44.8925583" lon="9.5352067"><ele>354.0</ele><time>2026-04-26T15:20:25.043Z</time></trkpt><trkpt lat="44.892545" lon="9.5353433"><ele>348.5</ele><time>2026-04-26T15:20:26.043Z</time></trkpt><trkpt lat="44.8925317" lon="9.53547"><ele>343.0</ele><time>2026-04-26T15:20:27.042Z</time></trkpt><trkpt lat="44.89252" lon="9.5355867"><ele>337.5</ele><time>2026-04-26T15:20:28.041Z</time></trkpt><trkpt lat="44.8925133" lon="9.535695"><ele>332.0</ele><time>2026-04-26T15:20:29.041Z</time></trkpt><trkpt lat="44.8925167" lon="9.5357983"><ele>326.5</ele><time>2026-04-26T15:20:30.042Z</time></trkpt><trkpt lat="44.8925267" lon="9.535905"><ele>321.0</ele><time>2026-04-26T15:20:31.042Z</time></trkpt><trkpt lat="44.892555" lon="9.5360183"><ele>323.3333333333333</ele><time>2026-04-26T15:20:32.042Z</time></trkpt><trkpt lat="44.8925933" lon="9.536135"><ele>325.6666666666667</ele><time>2026-04-26T15:20:33.042Z</time></trkpt><trkpt lat="44.8926367" lon="9.536245"><ele>328.0</ele><time>2026-04-26T15:20:34.041Z</time></trkpt><trkpt lat="44.89268" lon="9.53635"><ele>330.33333333333337</ele><time>2026-04-26T15:20:35.042Z</time></trkpt><trkpt lat="44.8927133" lon="9.536455"><ele>332.6666666666667</ele><time>2026-04-26T15:20:36.042Z</time></trkpt><trkpt lat="44.8927333" lon="9.53656"><ele>335.0</ele><time>2026-04-26T15:20:37.043Z</time></trkpt><trkpt lat="44.8927417" lon="9.5366683"><ele>334.99999999999994</ele><time>2026-04-26T15:20:38.043Z</time></trkpt><trkpt lat="44.892735" lon="9.5367717"><ele>335.0</ele><time>2026-04-26T15:20:39.042Z</time></trkpt><trkpt lat="44.8927133" lon="9.5368683"><ele>335.0</ele><time>2026-04-26T15:20:40.042Z</time></trkpt><trkpt lat="44.892675" lon="9.53695"><ele>335.0</ele><time>2026-04-26T15:20:41.041Z</time></trkpt><trkpt lat="44.8926267" lon="9.537015"><ele>335.0</ele><time>2026-04-26T15:20:42.044Z</time></trkpt><trkpt lat="44.8925567" lon="9.53706"><ele>334.99999999999994</ele><time>2026-04-26T15:20:43.042Z</time></trkpt><trkpt lat="44.8924817" lon="9.537095"><ele>335.0</ele><time>2026-04-26T15:20:44.045Z</time></trkpt><trkpt lat="44.8924067" lon="9.53712"><ele>334.33333333333337</ele><time>2026-04-26T15:20:45.043Z</time></trkpt><trkpt lat="44.8923267" lon="9.537125"><ele>333.6666666666667</ele><time>2026-04-26T15:20:46.042Z</time></trkpt><trkpt lat="44.8922533" lon="9.5370983"><ele>333.0</ele><time>2026-04-26T15:20:47.043Z</time></trkpt><trkpt lat="44.8921817" lon="9.5370467"><ele>332.3333333333333</ele><time>2026-04-26T15:20:48.042Z</time></trkpt><trkpt lat="44.8921167" lon="9.5369517"><ele>331.66666666666663</ele><time>2026-04-26T15:20:49.042Z</time></trkpt><trkpt lat="44.8920567" lon="9.5368383"><ele>331.0</ele><time>2026-04-26T15:20:50.041Z</time></trkpt><trkpt lat="44.8919983" lon="9.5367367"><ele>328.6</ele><time>2026-04-26T15:20:51.042Z</time></trkpt><trkpt lat="44.8919" lon="9.5366"><ele>326.20000000000005</ele><time>2026-04-26T15:20:53.042Z</time></trkpt><trkpt lat="44.89178" lon="9.5365633"><ele>323.79999999999995</ele><time>2026-04-26T15:20:55.041Z</time></trkpt><trkpt lat="44.8917183" lon="9.5365917"><ele>321.4</ele><time>2026-04-26T15:20:56.043Z</time></trkpt><trkpt lat="44.8916617" lon="9.5366617"><ele>319.0</ele><time>2026-04-26T15:20:57.041Z</time></trkpt><trkpt lat="44.891615" lon="9.5367733"><ele>319.4</ele><time>2026-04-26T15:20:58.041Z</time></trkpt><trkpt lat="44.8915683" lon="9.5369033"><ele>319.79999999999995</ele><time>2026-04-26T15:20:59.041Z</time></trkpt><trkpt lat="44.8915133" lon="9.5370183"><ele>320.20000000000005</ele><time>2026-04-26T15:21:00.042Z</time></trkpt><trkpt lat="44.8914383" lon="9.5370817"><ele>320.6</ele><time>2026-04-26T15:21:01.042Z</time></trkpt><trkpt lat="44.8913617" lon="9.5371133"><ele>321.0</ele><time>2026-04-26T15:21:02.042Z</time></trkpt><trkpt lat="44.89128" lon="9.5371133"><ele>321.0</ele><time>2026-04-26T15:21:03.041Z</time></trkpt><trkpt lat="44.8912083" lon="9.53707"><ele>321.0</ele><time>2026-04-26T15:21:04.041Z</time></trkpt><trkpt lat="44.8911467" lon="9.53702"><ele>321.0</ele><time>2026-04-26T15:21:05.042Z</time></trkpt><trkpt lat="44.8910833" lon="9.5369633"><ele>321.0</ele><time>2026-04-26T15:21:06.041Z</time></trkpt><trkpt lat="44.8910217" lon="9.5369367"><ele>321.0</ele><time>2026-04-26T15:21:07.041Z</time></trkpt><trkpt lat="44.8908917" lon="9.5369917"><ele>321.0</ele><time>2026-04-26T15:21:09.043Z</time></trkpt><trkpt lat="44.8908167" lon="9.537085"><ele>318.6666666666667</ele><time>2026-04-26T15:21:10.041Z</time></trkpt><trkpt lat="44.89074" lon="9.5371883"><ele>316.3333333333333</ele><time>2026-04-26T15:21:11.041Z</time></trkpt><trkpt lat="44.8906717" lon="9.5372867"><ele>314.0</ele><time>2026-04-26T15:21:12.042Z</time></trkpt><trkpt lat="44.8906067" lon="9.5373667"><ele>311.66666666666663</ele><time>2026-04-26T15:21:13.041Z</time></trkpt><trkpt lat="44.8905417" lon="9.537425"><ele>309.3333333333333</ele><time>2026-04-26T15:21:14.041Z</time></trkpt><trkpt lat="44.8904633" lon="9.5374317"><ele>307.0</ele><time>2026-04-26T15:21:15.042Z</time></trkpt><trkpt lat="44.8903967" lon="9.53739"><ele>307.0</ele><time>2026-04-26T15:21:16.042Z</time></trkpt><trkpt lat="44.8903583" lon="9.5373083"><ele>307.0</ele><time>2026-04-26T15:21:17.042Z</time></trkpt><trkpt lat="44.8903267" lon="9.53721"><ele>307.0</ele><time>2026-04-26T15:21:18.042Z</time></trkpt><trkpt lat="44.8903117" lon="9.5370883"><ele>307.0</ele><time>2026-04-26T15:21:19.041Z</time></trkpt><trkpt lat="44.8902933" lon="9.5369633"><ele>307.0</ele><time>2026-04-26T15:21:20.042Z</time></trkpt><trkpt lat="44.8902633" lon="9.5368467"><ele>307.0</ele><time>2026-04-26T15:21:21.041Z</time></trkpt><trkpt lat="44.8902117" lon="9.5367667"><ele>305.3333333333333</ele><time>2026-04-26T15:21:22.043Z</time></trkpt><trkpt lat="44.8901417" lon="9.53673"><ele>303.66666666666663</ele><time>2026-04-26T15:21:23.042Z</time></trkpt><trkpt lat="44.8900567" lon="9.5367567"><ele>302.0</ele><time>2026-04-26T15:21:24.042Z</time></trkpt><trkpt lat="44.8899683" lon="9.5368133"><ele>300.3333333333333</ele><time>2026-04-26T15:21:25.042Z</time></trkpt><trkpt lat="44.8898867" lon="9.5368817"><ele>298.6666666666667</ele><time>2026-04-26T15:21:26.041Z</time></trkpt><trkpt lat="44.889805" lon="9.5369517"><ele>297.0</ele><time>2026-04-26T15:21:27.042Z</time></trkpt><trkpt lat="44.88972" lon="9.537"><ele>296.0</ele><time>2026-04-26T15:21:28.042Z</time></trkpt><trkpt lat="44.8896283" lon="9.5370333"><ele>295.0</ele><time>2026-04-26T15:21:29.041Z</time></trkpt><trkpt lat="44.8895333" lon="9.5370517"><ele>294.0</ele><time>2026-04-26T15:21:30.042Z</time></trkpt><trkpt lat="44.88943" lon="9.5370667"><ele>293.0</ele><time>2026-04-26T15:21:31.044Z</time></trkpt><trkpt lat="44.8893267" lon="9.5370767"><ele>292.0</ele><time>2026-04-26T15:21:32.043Z</time></trkpt><trkpt lat="44.8892283" lon="9.537085"><ele>290.16666666666663</ele><time>2026-04-26T15:21:33.044Z</time></trkpt><trkpt lat="44.8891417" lon="9.5370967"><ele>288.3333333333333</ele><time>2026-04-26T15:21:34.044Z</time></trkpt><trkpt lat="44.8890583" lon="9.5371167"><ele>286.5</ele><time>2026-04-26T15:21:35.044Z</time></trkpt><trkpt lat="44.88899" lon="9.537155"><ele>284.6666666666667</ele><time>2026-04-26T15:21:36.043Z</time></trkpt><trkpt lat="44.8889367" lon="9.53722"><ele>282.83333333333337</ele><time>2026-04-26T15:21:37.041Z</time></trkpt><trkpt lat="44.8888833" lon="9.537315"><ele>281.0</ele><time>2026-04-26T15:21:38.043Z</time></trkpt><trkpt lat="44.8888367" lon="9.537435"><ele>281.0</ele><time>2026-04-26T15:21:39.045Z</time></trkpt><trkpt lat="44.8888017" lon="9.5375667"><ele>281.0</ele><time>2026-04-26T15:21:40.042Z</time></trkpt><trkpt lat="44.88877" lon="9.5377"><ele>281.0</ele><time>2026-04-26T15:21:41.042Z</time></trkpt><trkpt lat="44.8887433" lon="9.5378317"><ele>281.0</ele><time>2026-04-26T15:21:42.043Z</time></trkpt><trkpt lat="44.8887167" lon="9.5379483"><ele>281.0</ele><time>2026-04-26T15:21:43.042Z</time></trkpt><trkpt lat="44.88868" lon="9.538065"><ele>282.0</ele><time>2026-04-26T15:21:44.042Z</time></trkpt><trkpt lat="44.8886233" lon="9.5381717"><ele>283.0</ele><time>2026-04-26T15:21:45.042Z</time></trkpt><trkpt lat="44.88855" lon="9.5382617"><ele>284.0</ele><time>2026-04-26T15:21:46.041Z</time></trkpt><trkpt lat="44.8884683" lon="9.53834"><ele>285.0</ele><time>2026-04-26T15:21:47.043Z</time></trkpt><trkpt lat="44.8883867" lon="9.5384117"><ele>286.0</ele><time>2026-04-26T15:21:48.043Z</time></trkpt><trkpt lat="44.8883067" lon="9.53848"><ele>283.2857142857143</ele><time>2026-04-26T15:21:49.041Z</time></trkpt><trkpt lat="44.8882333" lon="9.5385267"><ele>280.57142857142856</ele><time>2026-04-26T15:21:50.043Z</time></trkpt><trkpt lat="44.88816" lon="9.5385533"><ele>277.8571428571429</ele><time>2026-04-26T15:21:51.042Z</time></trkpt><trkpt lat="44.88809" lon="9.5385517"><ele>275.1428571428571</ele><time>2026-04-26T15:21:52.042Z</time></trkpt><trkpt lat="44.8880267" lon="9.5385267"><ele>272.42857142857144</ele><time>2026-04-26T15:21:53.043Z</time></trkpt><trkpt lat="44.8879733" lon="9.5384667"><ele>269.7142857142857</ele><time>2026-04-26T15:21:54.043Z</time></trkpt><trkpt lat="44.887925" lon="9.5383617"><ele>267.0</ele><time>2026-04-26T15:21:55.042Z</time></trkpt><trkpt lat="44.88787" lon="9.53822"><ele>267.0</ele><time>2026-04-26T15:21:56.043Z</time></trkpt><trkpt lat="44.8877983" lon="9.5380867"><ele>267.0</ele><time>2026-04-26T15:21:57.041Z</time></trkpt><trkpt lat="44.88772" lon="9.5379433"><ele>267.0</ele><time>2026-04-26T15:21:58.042Z</time></trkpt><trkpt lat="44.8876383" lon="9.5378017"><ele>267.0</ele><time>2026-04-26T15:21:59.042Z</time></trkpt><trkpt lat="44.8875483" lon="9.5376567"><ele>263.2</ele><time>2026-04-26T15:22:00.041Z</time></trkpt><trkpt lat="44.88746" lon="9.537515"><ele>259.4</ele><time>2026-04-26T15:22:01.041Z</time></trkpt><trkpt lat="44.887385" lon="9.5373867"><ele>255.60000000000002</ele><time>2026-04-26T15:22:02.043Z</time></trkpt><trkpt lat="44.887315" lon="9.5372767"><ele>251.8</ele><time>2026-04-26T15:22:03.042Z</time></trkpt><trkpt lat="44.8872467" lon="9.537195"><ele>248.0</ele><time>2026-04-26T15:22:04.043Z</time></trkpt><trkpt lat="44.88717" lon="9.53713"><ele>248.0</ele><time>2026-04-26T15:22:05.041Z</time></trkpt><trkpt lat="44.8870867" lon="9.5370917"><ele>248.0</ele><time>2026-04-26T15:22:06.042Z</time></trkpt><trkpt lat="44.8869967" lon="9.5370867"><ele>248.0</ele><time>2026-04-26T15:22:07.042Z</time></trkpt><trkpt lat="44.8869033" lon="9.537115"><ele>248.0</ele><time>2026-04-26T15:22:08.041Z</time></trkpt><trkpt lat="44.8868" lon="9.5371817"><ele>248.0</ele><time>2026-04-26T15:22:09.042Z</time></trkpt><trkpt lat="44.8866967" lon="9.53726"><ele>247.4</ele><time>2026-04-26T15:22:10.042Z</time></trkpt><trkpt lat="44.8866" lon="9.5373417"><ele>246.8</ele><time>2026-04-26T15:22:11.042Z</time></trkpt><trkpt lat="44.886515" lon="9.5374417"><ele>246.2</ele><time>2026-04-26T15:22:12.041Z</time></trkpt><trkpt lat="44.8864433" lon="9.5375617"><ele>245.6</ele><time>2026-04-26T15:22:13.041Z</time></trkpt><trkpt lat="44.886375" lon="9.53769"><ele>245.0</ele><time>2026-04-26T15:22:14.041Z</time></trkpt><trkpt lat="44.8863083" lon="9.53779"><ele>245.0</ele><time>2026-04-26T15:22:15.043Z</time></trkpt><trkpt lat="44.8862283" lon="9.5378567"><ele>245.0</ele><time>2026-04-26T15:22:16.041Z</time></trkpt><trkpt lat="44.886125" lon="9.537895"><ele>245.0</ele><time>2026-04-26T15:22:17.041Z</time></trkpt><trkpt lat="44.8860067" lon="9.5379183"><ele>245.0</ele><time>2026-04-26T15:22:18.042Z</time></trkpt><trkpt lat="44.885865" lon="9.5379383"><ele>247.0</ele><time>2026-04-26T15:22:19.041Z</time></trkpt><trkpt lat="44.8857283" lon="9.5379567"><ele>249.0</ele><time>2026-04-26T15:22:20.041Z</time></trkpt><trkpt lat="44.8856067" lon="9.537965"><ele>251.0</ele><time>2026-04-26T15:22:21.042Z</time></trkpt><trkpt lat="44.8854967" lon="9.5379667"><ele>253.0</ele><time>2026-04-26T15:22:22.041Z</time></trkpt><trkpt lat="44.885395" lon="9.537955"><ele>253.0</ele><time>2026-04-26T15:22:23.042Z</time></trkpt><trkpt lat="44.8853017" lon="9.5379533"><ele>253.0</ele><time>2026-04-26T15:22:24.042Z</time></trkpt><trkpt lat="44.8852033" lon="9.5379717"><ele>253.0</ele><time>2026-04-26T15:22:25.041Z</time></trkpt><trkpt lat="44.8850967" lon="9.5380217"><ele>253.0</ele><time>2026-04-26T15:22:26.042Z</time></trkpt><trkpt lat="44.8849767" lon="9.538085"><ele>253.0</ele><time>2026-04-26T15:22:27.042Z</time></trkpt><trkpt lat="44.8848417" lon="9.5381617"><ele>249.33333333333331</ele><time>2026-04-26T15:22:28.042Z</time></trkpt><trkpt lat="44.8846883" lon="9.5382467"><ele>245.66666666666669</ele><time>2026-04-26T15:22:29.042Z</time></trkpt><trkpt lat="44.8845233" lon="9.5383483"><ele>242.0</ele><time>2026-04-26T15:22:30.043Z</time></trkpt><trkpt lat="44.8843517" lon="9.5384533"><ele>240.0</ele><time>2026-04-26T15:22:31.042Z</time></trkpt><trkpt lat="44.88418" lon="9.5385567"><ele>238.0</ele><time>2026-04-26T15:22:32.043Z</time></trkpt><trkpt lat="44.8840183" lon="9.53865"><ele>236.0</ele><time>2026-04-26T15:22:33.042Z</time></trkpt><trkpt lat="44.88387" lon="9.53874"><ele>235.25</ele><time>2026-04-26T15:22:34.042Z</time></trkpt><trkpt lat="44.8837383" lon="9.5388167"><ele>234.5</ele><time>2026-04-26T15:22:35.043Z</time></trkpt><trkpt lat="44.8836167" lon="9.5388767"><ele>233.75</ele><time>2026-04-26T15:22:36.041Z</time></trkpt><trkpt lat="44.8835" lon="9.538915"><ele>233.0</ele><time>2026-04-26T15:22:37.043Z</time></trkpt><trkpt lat="44.8833917" lon="9.53893"><ele>233.0</ele><time>2026-04-26T15:22:38.042Z</time></trkpt><trkpt lat="44.883275" lon="9.5389433"><ele>233.0</ele><time>2026-04-26T15:22:39.044Z</time></trkpt><trkpt lat="44.8831433" lon="9.5389833"><ele>233.0</ele><time>2026-04-26T15:22:40.043Z</time></trkpt><trkpt lat="44.8830067" lon="9.539055"><ele>233.0</ele><time>2026-04-26T15:22:41.042Z</time></trkpt><trkpt lat="44.882865" lon="9.53913"><ele>233.0</ele><time>2026-04-26T15:22:42.041Z</time></trkpt><trkpt lat="44.8827283" lon="9.5392083"><ele>233.0</ele><time>2026-04-26T15:22:43.041Z</time></trkpt><trkpt lat="44.882595" lon="9.539275"><ele>233.0</ele><time>2026-04-26T15:22:44.043Z</time></trkpt><trkpt lat="44.8824683" lon="9.539325"><ele>233.0</ele><time>2026-04-26T15:22:45.042Z</time></trkpt><trkpt lat="44.88235" lon="9.5393733"><ele>232.5</ele><time>2026-04-26T15:22:46.042Z</time></trkpt><trkpt lat="44.8822383" lon="9.5394233"><ele>232.0</ele><time>2026-04-26T15:22:47.044Z</time></trkpt><trkpt lat="44.882135" lon="9.5394833"><ele>231.5</ele><time>2026-04-26T15:22:48.042Z</time></trkpt><trkpt lat="44.88204" lon="9.53955"><ele>231.0</ele><time>2026-04-26T15:22:49.042Z</time></trkpt><trkpt lat="44.8819517" lon="9.5396533"><ele>228.5</ele><time>2026-04-26T15:22:50.042Z</time></trkpt><trkpt lat="44.88187" lon="9.53978"><ele>226.0</ele><time>2026-04-26T15:22:51.044Z</time></trkpt><trkpt lat="44.8817967" lon="9.5399217"><ele>223.5</ele><time>2026-04-26T15:22:52.042Z</time></trkpt><trkpt lat="44.8817217" lon="9.5400817"><ele>221.0</ele><time>2026-04-26T15:22:53.042Z</time></trkpt><trkpt lat="44.88165" lon="9.54024"><ele>224.0</ele><time>2026-04-26T15:22:54.043Z</time></trkpt><trkpt lat="44.88157" lon="9.5404"><ele>227.0</ele><time>2026-04-26T15:22:55.043Z</time></trkpt><trkpt lat="44.8814883" lon="9.5405533"><ele>230.0</ele><time>2026-04-26T15:22:56.041Z</time></trkpt><trkpt lat="44.88139" lon="9.5407017"><ele>233.0</ele><time>2026-04-26T15:22:57.045Z</time></trkpt><trkpt lat="44.8812833" lon="9.5408517"><ele>233.0</ele><time>2026-04-26T15:22:58.042Z</time></trkpt><trkpt lat="44.8811817" lon="9.5409867"><ele>233.0</ele><time>2026-04-26T15:22:59.042Z</time></trkpt><trkpt lat="44.8810833" lon="9.5411133"><ele>233.0</ele><time>2026-04-26T15:23:00.041Z</time></trkpt><trkpt lat="44.8809783" lon="9.5412217"><ele>233.0</ele><time>2026-04-26T15:23:01.041Z</time></trkpt><trkpt lat="44.8808667" lon="9.5413217"><ele>230.25</ele><time>2026-04-26T15:23:02.043Z</time></trkpt><trkpt lat="44.8807567" lon="9.5414067"><ele>227.5</ele><time>2026-04-26T15:23:03.042Z</time></trkpt><trkpt lat="44.8806517" lon="9.5414833"><ele>224.75</ele><time>2026-04-26T15:23:04.042Z</time></trkpt><trkpt lat="44.88055" lon="9.5415433"><ele>222.0</ele><time>2026-04-26T15:23:05.041Z</time></trkpt><trkpt lat="44.8804467" lon="9.5416033"><ele>222.0</ele><time>2026-04-26T15:23:06.041Z</time></trkpt><trkpt lat="44.880345" lon="9.54167"><ele>222.0</ele><time>2026-04-26T15:23:07.041Z</time></trkpt><trkpt lat="44.8802533" lon="9.54176"><ele>222.0</ele><time>2026-04-26T15:23:08.043Z</time></trkpt><trkpt lat="44.8801633" lon="9.5418667"><ele>222.0</ele><time>2026-04-26T15:23:09.043Z</time></trkpt><trkpt lat="44.8800767" lon="9.5419883"><ele>221.2</ele><time>2026-04-26T15:23:10.042Z</time></trkpt><trkpt lat="44.8799917" lon="9.5420967"><ele>220.39999999999998</ele><time>2026-04-26T15:23:11.041Z</time></trkpt><trkpt lat="44.8799133" lon="9.5421867"><ele>219.60000000000002</ele><time>2026-04-26T15:23:12.043Z</time></trkpt><trkpt lat="44.879835" lon="9.5422433"><ele>218.8</ele><time>2026-04-26T15:23:13.042Z</time></trkpt><trkpt lat="44.87976" lon="9.5422717"><ele>218.0</ele><time>2026-04-26T15:23:14.042Z</time></trkpt><trkpt lat="44.8796917" lon="9.542245"><ele>218.00000000000003</ele><time>2026-04-26T15:23:15.042Z</time></trkpt><trkpt lat="44.879625" lon="9.542195"><ele>218.0</ele><time>2026-04-26T15:23:16.041Z</time></trkpt><trkpt lat="44.8795667" lon="9.5421433"><ele>218.0</ele><time>2026-04-26T15:23:17.042Z</time></trkpt><trkpt lat="44.8795033" lon="9.5420933"><ele>218.0</ele><time>2026-04-26T15:23:18.041Z</time></trkpt><trkpt lat="44.8793733" lon="9.54212"><ele>218.00000000000003</ele><time>2026-04-26T15:23:20.042Z</time></trkpt><trkpt lat="44.8792967" lon="9.5421733"><ele>218.0</ele><time>2026-04-26T15:23:21.043Z</time></trkpt><trkpt lat="44.8791917" lon="9.5422583"><ele>216.0</ele><time>2026-04-26T15:23:22.042Z</time></trkpt><trkpt lat="44.8790733" lon="9.5423667"><ele>214.0</ele><time>2026-04-26T15:23:23.041Z</time></trkpt><trkpt lat="44.8789583" lon="9.5424733"><ele>212.0</ele><time>2026-04-26T15:23:24.041Z</time></trkpt><trkpt lat="44.8788517" lon="9.54258"><ele>210.0</ele><time>2026-04-26T15:23:25.043Z</time></trkpt><trkpt lat="44.8787517" lon="9.5426817"><ele>210.0</ele><time>2026-04-26T15:23:26.042Z</time></trkpt><trkpt lat="44.87866" lon="9.54279"><ele>210.0</ele><time>2026-04-26T15:23:27.042Z</time></trkpt><trkpt lat="44.8785833" lon="9.5428817"><ele>210.0</ele><time>2026-04-26T15:23:28.041Z</time></trkpt><trkpt lat="44.878515" lon="9.54298"><ele>210.0</ele><time>2026-04-26T15:23:29.044Z</time></trkpt><trkpt lat="44.87845" lon="9.5431033"><ele>210.0</ele><time>2026-04-26T15:23:30.041Z</time></trkpt><trkpt lat="44.8783883" lon="9.54323"><ele>208.8</ele><time>2026-04-26T15:23:31.043Z</time></trkpt><trkpt lat="44.8783283" lon="9.543345"><ele>207.6</ele><time>2026-04-26T15:23:32.042Z</time></trkpt><trkpt lat="44.8782567" lon="9.54346"><ele>206.39999999999998</ele><time>2026-04-26T15:23:33.042Z</time></trkpt><trkpt lat="44.87818" lon="9.5435683"><ele>205.2</ele><time>2026-04-26T15:23:34.043Z</time></trkpt><trkpt lat="44.8781067" lon="9.5436933"><ele>204.0</ele><time>2026-04-26T15:23:35.042Z</time></trkpt><trkpt lat="44.878035" lon="9.5438317"><ele>207.0</ele><time>2026-04-26T15:23:36.042Z</time></trkpt><trkpt lat="44.8779617" lon="9.54397"><ele>210.0</ele><time>2026-04-26T15:23:37.042Z</time></trkpt><trkpt lat="44.8778817" lon="9.5440933"><ele>213.0</ele><time>2026-04-26T15:23:38.043Z</time></trkpt><trkpt lat="44.8778067" lon="9.5442117"><ele>216.0</ele><time>2026-04-26T15:23:39.042Z</time></trkpt><trkpt lat="44.8777333" lon="9.5443183"><ele>216.0</ele><time>2026-04-26T15:23:40.041Z</time></trkpt><trkpt lat="44.8776717" lon="9.5444117"><ele>216.0</ele><time>2026-04-26T15:23:41.041Z</time></trkpt><trkpt lat="44.8776183" lon="9.5445"><ele>216.0</ele><time>2026-04-26T15:23:42.042Z</time></trkpt><trkpt lat="44.8775767" lon="9.54458"><ele>216.0</ele><time>2026-04-26T15:23:43.042Z</time></trkpt><trkpt lat="44.8775367" lon="9.544655"><ele>216.0</ele><time>2026-04-26T15:23:44.042Z</time></trkpt><trkpt lat="44.8774583" lon="9.5447717"><ele>216.0</ele><time>2026-04-26T15:23:46.043Z</time></trkpt><trkpt lat="44.8773367" lon="9.5447917"><ele>214.71428571428572</ele><time>2026-04-26T15:23:48.042Z</time></trkpt><trkpt lat="44.8772667" lon="9.5447917"><ele>213.42857142857142</ele><time>2026-04-26T15:23:49.043Z</time></trkpt><trkpt lat="44.877195" lon="9.5448117"><ele>212.14285714285717</ele><time>2026-04-26T15:23:50.042Z</time></trkpt><trkpt lat="44.8771317" lon="9.5448517"><ele>210.85714285714286</ele><time>2026-04-26T15:23:51.044Z</time></trkpt><trkpt lat="44.87707" lon="9.5449033"><ele>209.57142857142858</ele><time>2026-04-26T15:23:52.042Z</time></trkpt><trkpt lat="44.87701" lon="9.544975"><ele>208.2857142857143</ele><time>2026-04-26T15:23:53.042Z</time></trkpt><trkpt lat="44.8769483" lon="9.5450433"><ele>207.0</ele><time>2026-04-26T15:23:54.042Z</time></trkpt><trkpt lat="44.87689" lon="9.54513"><ele>207.0</ele><time>2026-04-26T15:23:55.042Z</time></trkpt><trkpt lat="44.87684" lon="9.54522"><ele>207.0</ele><time>2026-04-26T15:23:56.042Z</time></trkpt><trkpt lat="44.8768033" lon="9.545315"><ele>207.0</ele><time>2026-04-26T15:23:57.042Z</time></trkpt><trkpt lat="44.8767867" lon="9.5454217"><ele>207.0</ele><time>2026-04-26T15:23:58.042Z</time></trkpt><trkpt lat="44.8767817" lon="9.5455248"><ele>207.0</ele><time>2026-04-26T15:23:59.042Z</time></trkpt><trkpt lat="44.8767986" lon="9.5456319"><ele>207.0</ele><time>2026-04-26T15:24:00.042Z</time></trkpt><trkpt lat="44.8768142" lon="9.5457646"><ele>207.8</ele><time>2026-04-26T15:24:01.041Z</time></trkpt><trkpt lat="44.8768226" lon="9.5459183"><ele>208.6</ele><time>2026-04-26T15:24:02.042Z</time></trkpt><trkpt lat="44.876824" lon="9.5460775"><ele>209.4</ele><time>2026-04-26T15:24:03.042Z</time></trkpt><trkpt lat="44.8768199" lon="9.5462305"><ele>210.20000000000002</ele><time>2026-04-26T15:24:04.043Z</time></trkpt><trkpt lat="44.8768077" lon="9.5463627"><ele>211.0</ele><time>2026-04-26T15:24:05.043Z</time></trkpt><trkpt lat="44.8767925" lon="9.5464781"><ele>213.4</ele><time>2026-04-26T15:24:06.042Z</time></trkpt><trkpt lat="44.8767769" lon="9.5465709"><ele>215.8</ele><time>2026-04-26T15:24:07.043Z</time></trkpt><trkpt lat="44.8767541" lon="9.5467099"><ele>218.20000000000002</ele><time>2026-04-26T15:24:09.042Z</time></trkpt><trkpt lat="44.8767342" lon="9.5468466"><ele>220.60000000000002</ele><time>2026-04-26T15:24:11.042Z</time></trkpt><trkpt lat="44.8766987" lon="9.5470162"><ele>223.0</ele><time>2026-04-26T15:24:13.042Z</time></trkpt><trkpt lat="44.8766676" lon="9.5471113"><ele>218.16666666666666</ele><time>2026-04-26T15:24:14.042Z</time></trkpt><trkpt lat="44.8766254" lon="9.547196"><ele>213.33333333333331</ele><time>2026-04-26T15:24:15.042Z</time></trkpt><trkpt lat="44.8765736" lon="9.5472727"><ele>208.5</ele><time>2026-04-26T15:24:16.042Z</time></trkpt><trkpt lat="44.8765165" lon="9.5473487"><ele>203.66666666666669</ele><time>2026-04-26T15:24:17.043Z</time></trkpt><trkpt lat="44.8764624" lon="9.5474287"><ele>198.83333333333334</ele><time>2026-04-26T15:24:18.043Z</time></trkpt><trkpt lat="44.8764113" lon="9.5475212"><ele>194.0</ele><time>2026-04-26T15:24:19.043Z</time></trkpt><trkpt lat="44.8763655" lon="9.547622"><ele>194.00000000000003</ele><time>2026-04-26T15:24:20.043Z</time></trkpt><trkpt lat="44.8763277" lon="9.5477289"><ele>194.0</ele><time>2026-04-26T15:24:21.043Z</time></trkpt><trkpt lat="44.8762933" lon="9.5478447"><ele>194.0</ele><time>2026-04-26T15:24:22.042Z</time></trkpt><trkpt lat="44.8762645" lon="9.5479608"><ele>194.0</ele><time>2026-04-26T15:24:23.042Z</time></trkpt><trkpt lat="44.8762387" lon="9.5480822"><ele>194.00000000000003</ele><time>2026-04-26T15:24:24.043Z</time></trkpt><trkpt lat="44.8762162" lon="9.5482031"><ele>194.0</ele><time>2026-04-26T15:24:25.041Z</time></trkpt><trkpt lat="44.8761994" lon="9.5483204"><ele>193.83333333333334</ele><time>2026-04-26T15:24:26.043Z</time></trkpt><trkpt lat="44.8761877" lon="9.5484343"><ele>193.66666666666669</ele><time>2026-04-26T15:24:27.042Z</time></trkpt><trkpt lat="44.8761824" lon="9.5485454"><ele>193.5</ele><time>2026-04-26T15:24:28.043Z</time></trkpt><trkpt lat="44.8761783" lon="9.5486588"><ele>193.33333333333331</ele><time>2026-04-26T15:24:29.043Z</time></trkpt><trkpt lat="44.876167" lon="9.5487807"><ele>193.16666666666666</ele><time>2026-04-26T15:24:30.043Z</time></trkpt><trkpt lat="44.87614" lon="9.5489016"><ele>193.0</ele><time>2026-04-26T15:24:31.042Z</time></trkpt><trkpt lat="44.8761043" lon="9.5490124"><ele>192.99999999999997</ele><time>2026-04-26T15:24:32.043Z</time></trkpt><trkpt lat="44.8760705" lon="9.5491064"><ele>193.0</ele><time>2026-04-26T15:24:33.044Z</time></trkpt><trkpt lat="44.8760409" lon="9.5491867"><ele>193.0</ele><time>2026-04-26T15:24:34.042Z</time></trkpt><trkpt lat="44.8760022" lon="9.5493182"><ele>193.0</ele><time>2026-04-26T15:24:36.042Z</time></trkpt><trkpt lat="44.8759828" lon="9.5494032"><ele>192.99999999999997</ele><time>2026-04-26T15:24:39.043Z</time></trkpt><trkpt lat="44.8759067" lon="9.549455"><ele>193.0</ele><time>2026-04-26T15:28:31.043Z</time></trkpt><trkpt lat="44.87578" lon="9.54939"><ele>189.49999999999997</ele><time>2026-04-26T15:28:33.042Z</time></trkpt><trkpt lat="44.8757" lon="9.5493533"><ele>186.0</ele><time>2026-04-26T15:28:34.041Z</time></trkpt><trkpt lat="44.8756217" lon="9.5493183"><ele>182.5</ele><time>2026-04-26T15:28:35.042Z</time></trkpt><trkpt lat="44.8755433" lon="9.5492917"><ele>179.0</ele><time>2026-04-26T15:28:36.042Z</time></trkpt><trkpt lat="44.875475" lon="9.549275"><ele>175.5</ele><time>2026-04-26T15:28:37.043Z</time></trkpt><trkpt lat="44.8754067" lon="9.549275"><ele>172.0</ele><time>2026-04-26T15:28:38.043Z</time></trkpt><trkpt lat="44.8753417" lon="9.5492983"><ele>172.0</ele><time>2026-04-26T15:28:39.042Z</time></trkpt><trkpt lat="44.8752883" lon="9.5493683"><ele>172.0</ele><time>2026-04-26T15:28:40.041Z</time></trkpt><trkpt lat="44.875255" lon="9.5494717"><ele>172.0</ele><time>2026-04-26T15:28:41.041Z</time></trkpt><trkpt lat="44.8752283" lon="9.5495833"><ele>172.0</ele><time>2026-04-26T15:28:42.043Z</time></trkpt><trkpt lat="44.8752" lon="9.549695"><ele>172.0</ele><time>2026-04-26T15:28:43.044Z</time></trkpt><trkpt lat="44.87516" lon="9.5497967"><ele>172.0</ele><time>2026-04-26T15:28:44.042Z</time></trkpt><trkpt lat="44.8751083" lon="9.549885"><ele>171.2</ele><time>2026-04-26T15:28:45.042Z</time></trkpt><trkpt lat="44.87504" lon="9.5499583"><ele>170.39999999999998</ele><time>2026-04-26T15:28:46.042Z</time></trkpt><trkpt lat="44.8749583" lon="9.54999"><ele>169.60000000000002</ele><time>2026-04-26T15:28:47.041Z</time></trkpt><trkpt lat="44.8748283" lon="9.549925"><ele>168.8</ele><time>2026-04-26T15:28:48.042Z</time></trkpt><trkpt lat="44.874695" lon="9.5498633"><ele>168.0</ele><time>2026-04-26T15:28:49.041Z</time></trkpt><trkpt lat="44.87456" lon="9.5498067"><ele>168.0</ele><time>2026-04-26T15:28:50.042Z</time></trkpt><trkpt lat="44.8744233" lon="9.5497583"><ele>168.0</ele><time>2026-04-26T15:28:51.042Z</time></trkpt><trkpt lat="44.874295" lon="9.5496983"><ele>168.0</ele><time>2026-04-26T15:28:52.043Z</time></trkpt><trkpt lat="44.8741733" lon="9.5496383"><ele>168.0</ele><time>2026-04-26T15:28:53.041Z</time></trkpt><trkpt lat="44.8740633" lon="9.5495533"><ele>170.0</ele><time>2026-04-26T15:28:54.043Z</time></trkpt><trkpt lat="44.87396" lon="9.5494583"><ele>172.0</ele><time>2026-04-26T15:28:55.044Z</time></trkpt><trkpt lat="44.8738717" lon="9.549355"><ele>174.0</ele><time>2026-04-26T15:28:56.042Z</time></trkpt><trkpt lat="44.8737933" lon="9.5492383"><ele>176.0</ele><time>2026-04-26T15:28:57.043Z</time></trkpt><trkpt lat="44.8737367" lon="9.549105"><ele>176.0</ele><time>2026-04-26T15:28:58.043Z</time></trkpt><trkpt lat="44.8736933" lon="9.5489517"><ele>176.0</ele><time>2026-04-26T15:28:59.042Z</time></trkpt><trkpt lat="44.8736633" lon="9.5487917"><ele>176.0</ele><time>2026-04-26T15:29:00.041Z</time></trkpt><trkpt lat="44.8736483" lon="9.5486183"><ele>176.0</ele><time>2026-04-26T15:29:01.041Z</time></trkpt><trkpt lat="44.8736483" lon="9.54845"><ele>174.60000000000002</ele><time>2026-04-26T15:29:02.042Z</time></trkpt><trkpt lat="44.8736517" lon="9.5482883"><ele>173.2</ele><time>2026-04-26T15:29:03.041Z</time></trkpt><trkpt lat="44.873645" lon="9.548135"><ele>171.8</ele><time>2026-04-26T15:29:04.041Z</time></trkpt><trkpt lat="44.87361" lon="9.5480117"><ele>170.39999999999998</ele><time>2026-04-26T15:29:05.041Z</time></trkpt><trkpt lat="44.8735367" lon="9.5479217"><ele>169.0</ele><time>2026-04-26T15:29:06.042Z</time></trkpt><trkpt lat="44.8734233" lon="9.5478867"><ele>169.0</ele><time>2026-04-26T15:29:07.041Z</time></trkpt><trkpt lat="44.8732983" lon="9.547885"><ele>169.0</ele><time>2026-04-26T15:29:08.042Z</time></trkpt><trkpt lat="44.8731833" lon="9.5479183"><ele>169.0</ele><time>2026-04-26T15:29:09.043Z</time></trkpt><trkpt lat="44.8730833" lon="9.5480033"><ele>169.0</ele><time>2026-04-26T15:29:10.042Z</time></trkpt><trkpt lat="44.8729817" lon="9.548135"><ele>169.0</ele><time>2026-04-26T15:29:11.041Z</time></trkpt><trkpt lat="44.8728733" lon="9.5482783"><ele>169.0</ele><time>2026-04-26T15:29:12.042Z</time></trkpt><trkpt lat="44.87276" lon="9.548405"><ele>169.0</ele><time>2026-04-26T15:29:13.044Z</time></trkpt><trkpt lat="44.8726333" lon="9.5485217"><ele>169.0</ele><time>2026-04-26T15:29:14.042Z</time></trkpt><trkpt lat="44.8724817" lon="9.5486083"><ele>169.33333333333334</ele><time>2026-04-26T15:29:15.041Z</time></trkpt><trkpt lat="44.8723033" lon="9.5486667"><ele>169.66666666666666</ele><time>2026-04-26T15:29:16.041Z</time></trkpt><trkpt lat="44.8721117" lon="9.5487067"><ele>170.0</ele><time>2026-04-26T15:29:17.042Z</time></trkpt><trkpt lat="44.8719233" lon="9.5487333"><ele>170.0</ele><time>2026-04-26T15:29:18.042Z</time></trkpt><trkpt lat="44.871745" lon="9.5487533"><ele>170.0</ele><time>2026-04-26T15:29:19.044Z</time></trkpt><trkpt lat="44.8715683" lon="9.5487617"><ele>170.0</ele><time>2026-04-26T15:29:20.042Z</time></trkpt><trkpt lat="44.8713933" lon="9.5487467"><ele>170.0</ele><time>2026-04-26T15:29:21.043Z</time></trkpt><trkpt lat="44.8712183" lon="9.5487117"><ele>170.0</ele><time>2026-04-26T15:29:22.043Z</time></trkpt><trkpt lat="44.8710333" lon="9.5486667"><ele>170.0</ele><time>2026-04-26T15:29:23.042Z</time></trkpt><trkpt lat="44.870845" lon="9.5486233"><ele>170.0</ele><time>2026-04-26T15:29:24.044Z</time></trkpt><trkpt lat="44.8706567" lon="9.548575"><ele>170.0</ele><time>2026-04-26T15:29:25.043Z</time></trkpt><trkpt lat="44.870475" lon="9.5485167"><ele>170.0</ele><time>2026-04-26T15:29:26.043Z</time></trkpt><trkpt lat="44.8702967" lon="9.5484533"><ele>170.0</ele><time>2026-04-26T15:29:27.043Z</time></trkpt><trkpt lat="44.87012" lon="9.548385"><ele>170.0</ele><time>2026-04-26T15:29:28.044Z</time></trkpt><trkpt lat="44.8699433" lon="9.54831"><ele>170.0</ele><time>2026-04-26T15:29:29.043Z</time></trkpt><trkpt lat="44.869765" lon="9.5482317"><ele>170.33333333333331</ele><time>2026-04-26T15:29:30.043Z</time></trkpt><trkpt lat="44.8695883" lon="9.54815"><ele>170.66666666666666</ele><time>2026-04-26T15:29:31.043Z</time></trkpt><trkpt lat="44.8694167" lon="9.5480683"><ele>171.0</ele><time>2026-04-26T15:29:32.043Z</time></trkpt><trkpt lat="44.8692517" lon="9.547985"><ele>171.0</ele><time>2026-04-26T15:29:33.043Z</time></trkpt><trkpt lat="44.86909" lon="9.5479083"><ele>171.0</ele><time>2026-04-26T15:29:34.043Z</time></trkpt><trkpt lat="44.8689267" lon="9.5478383"><ele>171.0</ele><time>2026-04-26T15:29:35.044Z</time></trkpt><trkpt lat="44.8687683" lon="9.547775"><ele>170.66666666666666</ele><time>2026-04-26T15:29:36.043Z</time></trkpt><trkpt lat="44.868615" lon="9.547715"><ele>170.33333333333331</ele><time>2026-04-26T15:29:37.044Z</time></trkpt><trkpt lat="44.86847" lon="9.5476583"><ele>170.0</ele><time>2026-04-26T15:29:38.045Z</time></trkpt><trkpt lat="44.8683333" lon="9.5476067"><ele>170.0</ele><time>2026-04-26T15:29:39.043Z</time></trkpt><trkpt lat="44.8682" lon="9.5475533"><ele>170.0</ele><time>2026-04-26T15:29:40.043Z</time></trkpt><trkpt lat="44.8680667" lon="9.5474883"><ele>170.0</ele><time>2026-04-26T15:29:41.044Z</time></trkpt><trkpt lat="44.8679267" lon="9.5474117"><ele>170.0</ele><time>2026-04-26T15:29:42.043Z</time></trkpt><trkpt lat="44.867785" lon="9.5473283"><ele>170.0</ele><time>2026-04-26T15:29:43.044Z</time></trkpt><trkpt lat="44.867645" lon="9.5472383"><ele>170.0</ele><time>2026-04-26T15:29:44.044Z</time></trkpt><trkpt lat="44.86751" lon="9.5471417"><ele>170.0</ele><time>2026-04-26T15:29:45.043Z</time></trkpt><trkpt lat="44.867375" lon="9.5470433"><ele>171.0</ele><time>2026-04-26T15:29:46.042Z</time></trkpt><trkpt lat="44.8672383" lon="9.54695"><ele>172.0</ele><time>2026-04-26T15:29:47.041Z</time></trkpt><trkpt lat="44.8670967" lon="9.5468717"><ele>173.0</ele><time>2026-04-26T15:29:48.043Z</time></trkpt><trkpt lat="44.866955" lon="9.5468033"><ele>173.0</ele><time>2026-04-26T15:29:49.042Z</time></trkpt><trkpt lat="44.866815" lon="9.54674"><ele>173.0</ele><time>2026-04-26T15:29:50.042Z</time></trkpt><trkpt lat="44.866675" lon="9.5466817"><ele>173.0</ele><time>2026-04-26T15:29:51.042Z</time></trkpt><trkpt lat="44.86654" lon="9.546625"><ele>173.0</ele><time>2026-04-26T15:29:52.042Z</time></trkpt><trkpt lat="44.866405" lon="9.5465667"><ele>173.0</ele><time>2026-04-26T15:29:53.042Z</time></trkpt><trkpt lat="44.8662783" lon="9.5465133"><ele>173.0</ele><time>2026-04-26T15:29:54.042Z</time></trkpt><trkpt lat="44.8661533" lon="9.546465"><ele>173.0</ele><time>2026-04-26T15:29:55.041Z</time></trkpt><trkpt lat="44.86603" lon="9.5464117"><ele>173.0</ele><time>2026-04-26T15:29:56.042Z</time></trkpt><trkpt lat="44.8659" lon="9.54637"><ele>173.0</ele><time>2026-04-26T15:29:57.044Z</time></trkpt><trkpt lat="44.8657633" lon="9.54634"><ele>173.0</ele><time>2026-04-26T15:29:58.045Z</time></trkpt><trkpt lat="44.8656167" lon="9.5463133"><ele>173.0</ele><time>2026-04-26T15:29:59.044Z</time></trkpt><trkpt lat="44.86547" lon="9.546285"><ele>173.0</ele><time>2026-04-26T15:30:00.042Z</time></trkpt><trkpt lat="44.8653167" lon="9.5462533"><ele>173.0</ele><time>2026-04-26T15:30:01.044Z</time></trkpt><trkpt lat="44.8651633" lon="9.546225"><ele>173.0</ele><time>2026-04-26T15:30:02.043Z</time></trkpt><trkpt lat="44.8650117" lon="9.5461933"><ele>173.0</ele><time>2026-04-26T15:30:03.044Z</time></trkpt><trkpt lat="44.864865" lon="9.5461583"><ele>173.5</ele><time>2026-04-26T15:30:04.043Z</time></trkpt><trkpt lat="44.8647217" lon="9.546125"><ele>174.0</ele><time>2026-04-26T15:30:05.045Z</time></trkpt><trkpt lat="44.8645817" lon="9.5460967"><ele>174.5</ele><time>2026-04-26T15:30:06.044Z</time></trkpt><trkpt lat="44.8644383" lon="9.54607"><ele>175.0</ele><time>2026-04-26T15:30:07.044Z</time></trkpt><trkpt lat="44.8642967" lon="9.5460467"><ele>175.0</ele><time>2026-04-26T15:30:08.044Z</time></trkpt><trkpt lat="44.8641583" lon="9.5460183"><ele>175.0</ele><time>2026-04-26T15:30:09.045Z</time></trkpt><trkpt lat="44.8640233" lon="9.5459867"><ele>175.0</ele><time>2026-04-26T15:30:10.045Z</time></trkpt><trkpt lat="44.8638933" lon="9.5459417"><ele>175.0</ele><time>2026-04-26T15:30:11.043Z</time></trkpt><trkpt lat="44.8637667" lon="9.545885"><ele>175.0</ele><time>2026-04-26T15:30:12.042Z</time></trkpt><trkpt lat="44.8636417" lon="9.5458233"><ele>175.0</ele><time>2026-04-26T15:30:13.041Z</time></trkpt><trkpt lat="44.8635217" lon="9.5457517"><ele>175.0</ele><time>2026-04-26T15:30:14.042Z</time></trkpt><trkpt lat="44.8634017" lon="9.5456767"><ele>175.0</ele><time>2026-04-26T15:30:15.043Z</time></trkpt><trkpt lat="44.86328" lon="9.5455983"><ele>174.75</ele><time>2026-04-26T15:30:16.041Z</time></trkpt><trkpt lat="44.863165" lon="9.5455233"><ele>174.5</ele><time>2026-04-26T15:30:17.041Z</time></trkpt><trkpt lat="44.8630533" lon="9.5454517"><ele>174.25</ele><time>2026-04-26T15:30:18.043Z</time></trkpt><trkpt lat="44.8629433" lon="9.5453833"><ele>174.0</ele><time>2026-04-26T15:30:19.043Z</time></trkpt><trkpt lat="44.86283" lon="9.5453083"><ele>174.5</ele><time>2026-04-26T15:30:20.042Z</time></trkpt><trkpt lat="44.8627183" lon="9.5452183"><ele>175.0</ele><time>2026-04-26T15:30:21.042Z</time></trkpt><trkpt lat="44.8626083" lon="9.545115"><ele>175.5</ele><time>2026-04-26T15:30:22.041Z</time></trkpt><trkpt lat="44.8625033" lon="9.5450083"><ele>176.0</ele><time>2026-04-26T15:30:23.042Z</time></trkpt><trkpt lat="44.862405" lon="9.5448983"><ele>176.0</ele><time>2026-04-26T15:30:24.041Z</time></trkpt><trkpt lat="44.8623067" lon="9.5447883"><ele>176.0</ele><time>2026-04-26T15:30:25.042Z</time></trkpt><trkpt lat="44.86221" lon="9.5446783"><ele>176.0</ele><time>2026-04-26T15:30:26.042Z</time></trkpt><trkpt lat="44.86212" lon="9.54457"><ele>176.0</ele><time>2026-04-26T15:30:27.042Z</time></trkpt><trkpt lat="44.862035" lon="9.5444733"><ele>176.0</ele><time>2026-04-26T15:30:28.042Z</time></trkpt><trkpt lat="44.861955" lon="9.5443883"><ele>176.0</ele><time>2026-04-26T15:30:29.042Z</time></trkpt><trkpt lat="44.86188" lon="9.5443083"><ele>176.0</ele><time>2026-04-26T15:30:30.042Z</time></trkpt><trkpt lat="44.8618067" lon="9.5442333"><ele>176.0</ele><time>2026-04-26T15:30:31.041Z</time></trkpt><trkpt lat="44.8617367" lon="9.5441617"><ele>176.0</ele><time>2026-04-26T15:30:32.042Z</time></trkpt><trkpt lat="44.8616733" lon="9.544095"><ele>175.8</ele><time>2026-04-26T15:30:33.042Z</time></trkpt><trkpt lat="44.8616217" lon="9.5440383"><ele>175.60000000000002</ele><time>2026-04-26T15:30:34.042Z</time></trkpt><trkpt lat="44.8615633" lon="9.5439767"><ele>175.4</ele><time>2026-04-26T15:30:36.045Z</time></trkpt><trkpt lat="44.8615" lon="9.5439133"><ele>175.2</ele><time>2026-04-26T15:30:48.041Z</time></trkpt><trkpt lat="44.8614733" lon="9.5438317"><ele>175.0</ele><time>2026-04-26T15:30:53.042Z</time></trkpt><trkpt lat="44.8616025" lon="9.5440557"><ele>175.0</ele><time>2026-04-26T15:30:55.019Z</time></trkpt><trkpt lat="44.8615971" lon="9.5439649"><ele>175.0</ele><time>2026-04-26T15:30:59.944Z</time></trkpt><trkpt lat="44.8615653" lon="9.5438798"><ele>175.0</ele><time>2026-04-26T15:31:05.061Z</time></trkpt><trkpt lat="44.8615603" lon="9.5437895"><ele>175.0</ele><time>2026-04-26T15:31:15.045Z</time></trkpt><trkpt lat="44.8615336" lon="9.5437028"><ele>175.0</ele><time>2026-04-26T15:31:26.07Z</time></trkpt><trkpt lat="44.8614525" lon="9.5437785"><ele>175.0</ele><time>2026-04-26T15:38:22.041Z</time></trkpt><trkpt lat="44.8613818" lon="9.543892"><ele>175.0</ele><time>2026-04-26T15:38:23.042Z</time></trkpt><trkpt lat="44.8613147" lon="9.5440067"><ele>175.0</ele><time>2026-04-26T15:38:24.041Z</time></trkpt><trkpt lat="44.8612158" lon="9.5441437"><ele>175.0</ele><time>2026-04-26T15:38:25.042Z</time></trkpt><trkpt lat="44.8611108" lon="9.5442849"><ele>175.0</ele><time>2026-04-26T15:38:26.042Z</time></trkpt><trkpt lat="44.8610077" lon="9.5444168"><ele>174.75</ele><time>2026-04-26T15:38:27.042Z</time></trkpt><trkpt lat="44.8609103" lon="9.5445352"><ele>174.5</ele><time>2026-04-26T15:38:28.041Z</time></trkpt><trkpt lat="44.8608178" lon="9.5446388"><ele>174.25</ele><time>2026-04-26T15:38:29.041Z</time></trkpt><trkpt lat="44.8607271" lon="9.5447294"><ele>174.0</ele><time>2026-04-26T15:38:30.041Z</time></trkpt><trkpt lat="44.8606312" lon="9.5448123"><ele>173.2</ele><time>2026-04-26T15:38:31.042Z</time></trkpt><trkpt lat="44.8605344" lon="9.5448959"><ele>172.39999999999998</ele><time>2026-04-26T15:38:32.041Z</time></trkpt><trkpt lat="44.8604407" lon="9.5449779"><ele>171.6</ele><time>2026-04-26T15:38:33.042Z</time></trkpt><trkpt lat="44.8603504" lon="9.5450523"><ele>170.8</ele><time>2026-04-26T15:38:34.042Z</time></trkpt><trkpt lat="44.8602579" lon="9.5451238"><ele>170.0</ele><time>2026-04-26T15:38:35.041Z</time></trkpt><trkpt lat="44.8601634" lon="9.5451991"><ele>168.6</ele><time>2026-04-26T15:38:36.042Z</time></trkpt><trkpt lat="44.8600673" lon="9.5452782"><ele>167.2</ele><time>2026-04-26T15:38:37.041Z</time></trkpt><trkpt lat="44.8599692" lon="9.5453597"><ele>165.8</ele><time>2026-04-26T15:38:38.041Z</time></trkpt><trkpt lat="44.8598716" lon="9.5454442"><ele>164.4</ele><time>2026-04-26T15:38:39.043Z</time></trkpt><trkpt lat="44.8597786" lon="9.5455253"><ele>163.0</ele><time>2026-04-26T15:38:40.043Z</time></trkpt><trkpt lat="44.8596945" lon="9.5455977"><ele>162.60000000000002</ele><time>2026-04-26T15:38:41.041Z</time></trkpt><trkpt lat="44.8596136" lon="9.545667"><ele>162.20000000000002</ele><time>2026-04-26T15:38:42.042Z</time></trkpt><trkpt lat="44.8595291" lon="9.5457382"><ele>161.8</ele><time>2026-04-26T15:38:43.041Z</time></trkpt><trkpt lat="44.8594426" lon="9.5458149"><ele>161.4</ele><time>2026-04-26T15:38:44.041Z</time></trkpt><trkpt lat="44.8593557" lon="9.5458908"><ele>161.0</ele><time>2026-04-26T15:38:45.042Z</time></trkpt><trkpt lat="44.8592718" lon="9.5459632"><ele>160.8</ele><time>2026-04-26T15:38:46.041Z</time></trkpt><trkpt lat="44.8591901" lon="9.5460339"><ele>160.60000000000002</ele><time>2026-04-26T15:38:47.042Z</time></trkpt><trkpt lat="44.8591029" lon="9.5461112"><ele>160.4</ele><time>2026-04-26T15:38:48.041Z</time></trkpt><trkpt lat="44.8590109" lon="9.5461916"><ele>160.2</ele><time>2026-04-26T15:38:49.041Z</time></trkpt><trkpt lat="44.8589157" lon="9.5462766"><ele>160.0</ele><time>2026-04-26T15:38:50.042Z</time></trkpt><trkpt lat="44.8588189" lon="9.5463581"><ele>160.4</ele><time>2026-04-26T15:38:51.043Z</time></trkpt><trkpt lat="44.8587279" lon="9.546435"><ele>160.8</ele><time>2026-04-26T15:38:52.041Z</time></trkpt><trkpt lat="44.8586383" lon="9.546511"><ele>161.2</ele><time>2026-04-26T15:38:53.041Z</time></trkpt><trkpt lat="44.8585484" lon="9.5465889"><ele>161.6</ele><time>2026-04-26T15:38:54.044Z</time></trkpt><trkpt lat="44.8584586" lon="9.5466674"><ele>162.0</ele><time>2026-04-26T15:38:55.042Z</time></trkpt><trkpt lat="44.8583684" lon="9.5467443"><ele>162.39999999999998</ele><time>2026-04-26T15:38:56.042Z</time></trkpt><trkpt lat="44.8582785" lon="9.5468195"><ele>162.79999999999998</ele><time>2026-04-26T15:38:57.041Z</time></trkpt><trkpt lat="44.8581898" lon="9.5468941"><ele>163.2</ele><time>2026-04-26T15:38:58.041Z</time></trkpt><trkpt lat="44.8581015" lon="9.5469732"><ele>163.6</ele><time>2026-04-26T15:38:59.042Z</time></trkpt><trkpt lat="44.8580135" lon="9.5470551"><ele>164.0</ele><time>2026-04-26T15:39:00.041Z</time></trkpt><trkpt lat="44.8579267" lon="9.5471328"><ele>164.79999999999998</ele><time>2026-04-26T15:39:01.042Z</time></trkpt><trkpt lat="44.857843" lon="9.547205"><ele>165.6</ele><time>2026-04-26T15:39:02.042Z</time></trkpt><trkpt lat="44.857767" lon="9.5472733"><ele>166.4</ele><time>2026-04-26T15:39:03.041Z</time></trkpt><trkpt lat="44.8576901" lon="9.5473386"><ele>167.2</ele><time>2026-04-26T15:39:04.041Z</time></trkpt><trkpt lat="44.8576133" lon="9.5474018"><ele>168.0</ele><time>2026-04-26T15:39:05.042Z</time></trkpt><trkpt lat="44.8575325" lon="9.5474653"><ele>169.75</ele><time>2026-04-26T15:39:06.042Z</time></trkpt><trkpt lat="44.8574436" lon="9.5475347"><ele>171.5</ele><time>2026-04-26T15:39:07.041Z</time></trkpt><trkpt lat="44.8573445" lon="9.5476119"><ele>173.25</ele><time>2026-04-26T15:39:08.041Z</time></trkpt><trkpt lat="44.8572378" lon="9.5476902"><ele>175.0</ele><time>2026-04-26T15:39:09.041Z</time></trkpt><trkpt lat="44.8571274" lon="9.5477517"><ele>175.0</ele><time>2026-04-26T15:39:10.042Z</time></trkpt><trkpt lat="44.8570097" lon="9.5477816"><ele>175.0</ele><time>2026-04-26T15:39:11.042Z</time></trkpt><trkpt lat="44.8568851" lon="9.5477728"><ele>175.0</ele><time>2026-04-26T15:39:12.041Z</time></trkpt><trkpt lat="44.856763" lon="9.5477357"><ele>175.0</ele><time>2026-04-26T15:39:13.041Z</time></trkpt><trkpt lat="44.8566398" lon="9.5476789"><ele>176.0</ele><time>2026-04-26T15:39:14.042Z</time></trkpt><trkpt lat="44.8565204" lon="9.5476165"><ele>177.0</ele><time>2026-04-26T15:39:15.043Z</time></trkpt><trkpt lat="44.8564093" lon="9.54755"><ele>178.0</ele><time>2026-04-26T15:39:16.041Z</time></trkpt><trkpt lat="44.8563092" lon="9.5474691"><ele>179.0</ele><time>2026-04-26T15:39:17.041Z</time></trkpt><trkpt lat="44.8562293" lon="9.5473636"><ele>179.0</ele><time>2026-04-26T15:39:18.041Z</time></trkpt><trkpt lat="44.8561698" lon="9.5472421"><ele>179.0</ele><time>2026-04-26T15:39:19.042Z</time></trkpt><trkpt lat="44.8561274" lon="9.5471175"><ele>179.0</ele><time>2026-04-26T15:39:20.044Z</time></trkpt><trkpt lat="44.8560856" lon="9.5470031"><ele>179.0</ele><time>2026-04-26T15:39:21.044Z</time></trkpt><trkpt lat="44.8560392" lon="9.5469055"><ele>179.0</ele><time>2026-04-26T15:39:22.045Z</time></trkpt><trkpt lat="44.8559868" lon="9.5468373"><ele>179.0</ele><time>2026-04-26T15:39:23.042Z</time></trkpt><trkpt lat="44.8559303" lon="9.5467966"><ele>179.79999999999998</ele><time>2026-04-26T15:39:24.043Z</time></trkpt><trkpt lat="44.8558194" lon="9.5467958"><ele>180.6</ele><time>2026-04-26T15:39:26.044Z</time></trkpt><trkpt lat="44.8557365" lon="9.5468634"><ele>181.4</ele><time>2026-04-26T15:39:28.043Z</time></trkpt><trkpt lat="44.8556924" lon="9.5469317"><ele>182.2</ele><time>2026-04-26T15:39:31.041Z</time></trkpt><trkpt lat="44.8556805" lon="9.5470246"><ele>183.0</ele><time>2026-04-26T15:39:34.041Z</time></trkpt><trkpt lat="44.8557367" lon="9.5471667"><ele>182.33333333333334</ele><time>2026-04-26T15:39:36.042Z</time></trkpt><trkpt lat="44.8557824" lon="9.5472439"><ele>181.66666666666666</ele><time>2026-04-26T15:39:37.041Z</time></trkpt><trkpt lat="44.8558354" lon="9.5473233"><ele>181.0</ele><time>2026-04-26T15:39:38.042Z</time></trkpt><trkpt lat="44.8558974" lon="9.5474054"><ele>180.33333333333331</ele><time>2026-04-26T15:39:39.042Z</time></trkpt><trkpt lat="44.8559604" lon="9.547488"><ele>179.66666666666666</ele><time>2026-04-26T15:39:40.043Z</time></trkpt><trkpt lat="44.8560243" lon="9.5475699"><ele>179.0</ele><time>2026-04-26T15:39:41.042Z</time></trkpt><trkpt lat="44.8560964" lon="9.5476499"><ele>179.0</ele><time>2026-04-26T15:39:42.041Z</time></trkpt><trkpt lat="44.8561761" lon="9.5477218"><ele>179.0</ele><time>2026-04-26T15:39:43.042Z</time></trkpt><trkpt lat="44.8562678" lon="9.5477832"><ele>179.0</ele><time>2026-04-26T15:39:44.042Z</time></trkpt><trkpt lat="44.8563667" lon="9.5478379"><ele>179.0</ele><time>2026-04-26T15:39:45.042Z</time></trkpt><trkpt lat="44.8564683" lon="9.54789"><ele>179.0</ele><time>2026-04-26T15:39:46.041Z</time></trkpt><trkpt lat="44.8565717" lon="9.5479417"><ele>180.5</ele><time>2026-04-26T15:39:47.041Z</time></trkpt><trkpt lat="44.8566833" lon="9.5479967"><ele>182.0</ele><time>2026-04-26T15:39:48.042Z</time></trkpt><trkpt lat="44.8568" lon="9.5480517"><ele>183.5</ele><time>2026-04-26T15:39:49.041Z</time></trkpt><trkpt lat="44.856925" lon="9.5481117"><ele>185.0</ele><time>2026-04-26T15:39:50.042Z</time></trkpt><trkpt lat="44.857055" lon="9.548175"><ele>185.0</ele><time>2026-04-26T15:39:51.043Z</time></trkpt><trkpt lat="44.857195" lon="9.5482433"><ele>185.0</ele><time>2026-04-26T15:39:52.041Z</time></trkpt><trkpt lat="44.8573467" lon="9.5483183"><ele>185.0</ele><time>2026-04-26T15:39:53.041Z</time></trkpt><trkpt lat="44.8574983" lon="9.5483917"><ele>182.75</ele><time>2026-04-26T15:39:54.042Z</time></trkpt><trkpt lat="44.8576433" lon="9.54846"><ele>180.5</ele><time>2026-04-26T15:39:55.041Z</time></trkpt><trkpt lat="44.8577833" lon="9.548525"><ele>178.25</ele><time>2026-04-26T15:39:56.042Z</time></trkpt><trkpt lat="44.8579167" lon="9.5485933"><ele>176.0</ele><time>2026-04-26T15:39:57.042Z</time></trkpt><trkpt lat="44.8580417" lon="9.5486783"><ele>184.0</ele><time>2026-04-26T15:39:58.041Z</time></trkpt><trkpt lat="44.858165" lon="9.5487817"><ele>192.0</ele><time>2026-04-26T15:39:59.042Z</time></trkpt><trkpt lat="44.858285" lon="9.5489033"><ele>200.0</ele><time>2026-04-26T15:40:00.043Z</time></trkpt><trkpt lat="44.8584133" lon="9.5490433"><ele>190.66666666666669</ele><time>2026-04-26T15:40:01.043Z</time></trkpt><trkpt lat="44.8585583" lon="9.549195"><ele>181.33333333333334</ele><time>2026-04-26T15:40:02.042Z</time></trkpt><trkpt lat="44.8587183" lon="9.5493567"><ele>172.0</ele><time>2026-04-26T15:40:03.042Z</time></trkpt><trkpt lat="44.8588767" lon="9.5495217"><ele>172.66666666666669</ele><time>2026-04-26T15:40:04.044Z</time></trkpt><trkpt lat="44.8590267" lon="9.5496833"><ele>173.33333333333334</ele><time>2026-04-26T15:40:05.042Z</time></trkpt><trkpt lat="44.859165" lon="9.54983"><ele>174.0</ele><time>2026-04-26T15:40:06.043Z</time></trkpt><trkpt lat="44.8592967" lon="9.5499733"><ele>174.0</ele><time>2026-04-26T15:40:07.044Z</time></trkpt><trkpt lat="44.8594283" lon="9.5501083"><ele>174.0</ele><time>2026-04-26T15:40:08.043Z</time></trkpt><trkpt lat="44.8595617" lon="9.5502467"><ele>174.0</ele><time>2026-04-26T15:40:09.044Z</time></trkpt><trkpt lat="44.8596933" lon="9.55038"><ele>180.66666666666669</ele><time>2026-04-26T15:40:10.044Z</time></trkpt><trkpt lat="44.85982" lon="9.5505133"><ele>187.33333333333334</ele><time>2026-04-26T15:40:11.042Z</time></trkpt><trkpt lat="44.859945" lon="9.5506583"><ele>194.0</ele><time>2026-04-26T15:40:12.041Z</time></trkpt><trkpt lat="44.8600683" lon="9.5508217"><ele>191.66666666666669</ele><time>2026-04-26T15:40:13.041Z</time></trkpt><trkpt lat="44.8601883" lon="9.550985"><ele>189.33333333333334</ele><time>2026-04-26T15:40:14.042Z</time></trkpt><trkpt lat="44.8603017" lon="9.55114"><ele>187.0</ele><time>2026-04-26T15:40:15.043Z</time></trkpt><trkpt lat="44.86041" lon="9.5512783"><ele>187.0</ele><time>2026-04-26T15:40:16.041Z</time></trkpt><trkpt lat="44.860515" lon="9.5513967"><ele>187.0</ele><time>2026-04-26T15:40:17.041Z</time></trkpt><trkpt lat="44.8606167" lon="9.5515017"><ele>187.0</ele><time>2026-04-26T15:40:18.041Z</time></trkpt><trkpt lat="44.8606983" lon="9.5515917"><ele>187.0</ele><time>2026-04-26T15:40:19.042Z</time></trkpt><trkpt lat="44.8607617" lon="9.5516617"><ele>187.0</ele><time>2026-04-26T15:40:20.041Z</time></trkpt><trkpt lat="44.860785" lon="9.551745"><ele>187.0</ele><time>2026-04-26T15:40:22.042Z</time></trkpt><trkpt lat="44.8607083" lon="9.5517383"><ele>187.0</ele><time>2026-04-26T15:40:27.042Z</time></trkpt><trkpt lat="44.86059" lon="9.5516317"><ele>187.0</ele><time>2026-04-26T15:40:29.044Z</time></trkpt><trkpt lat="44.8605267" lon="9.5515533"><ele>187.0</ele><time>2026-04-26T15:40:30.042Z</time></trkpt><trkpt lat="44.8604533" lon="9.5514667"><ele>187.0</ele><time>2026-04-26T15:40:31.042Z</time></trkpt><trkpt lat="44.86037" lon="9.5513817"><ele>187.0</ele><time>2026-04-26T15:40:32.042Z</time></trkpt><trkpt lat="44.8602833" lon="9.5513033"><ele>187.0</ele><time>2026-04-26T15:40:33.042Z</time></trkpt><trkpt lat="44.860195" lon="9.551225"><ele>187.0</ele><time>2026-04-26T15:40:34.041Z</time></trkpt><trkpt lat="44.8601083" lon="9.55115"><ele>187.0</ele><time>2026-04-26T15:40:35.042Z</time></trkpt><trkpt lat="44.8600217" lon="9.5510783"><ele>187.0</ele><time>2026-04-26T15:40:36.043Z</time></trkpt><trkpt lat="44.8599483" lon="9.5510083"><ele>188.39999999999998</ele><time>2026-04-26T15:40:37.043Z</time></trkpt><trkpt lat="44.8598783" lon="9.5509333"><ele>189.79999999999998</ele><time>2026-04-26T15:40:38.042Z</time></trkpt><trkpt lat="44.859805" lon="9.55085"><ele>191.2</ele><time>2026-04-26T15:40:39.042Z</time></trkpt><trkpt lat="44.85973" lon="9.5507667"><ele>192.6</ele><time>2026-04-26T15:40:40.041Z</time></trkpt><trkpt lat="44.85965" lon="9.5506883"><ele>194.0</ele><time>2026-04-26T15:40:41.042Z</time></trkpt><trkpt lat="44.8595783" lon="9.5506183"><ele>194.0</ele><time>2026-04-26T15:40:42.041Z</time></trkpt><trkpt lat="44.8595133" lon="9.5505633"><ele>194.0</ele><time>2026-04-26T15:40:43.041Z</time></trkpt><trkpt lat="44.8594533" lon="9.5505333"><ele>194.0</ele><time>2026-04-26T15:40:44.041Z</time></trkpt><trkpt lat="44.8593367" lon="9.5505733"><ele>194.0</ele><time>2026-04-26T15:40:46.042Z</time></trkpt><trkpt lat="44.8593533" lon="9.55075"><ele>194.0</ele><time>2026-04-26T15:40:48.043Z</time></trkpt><trkpt lat="44.8593933" lon="9.5508533"><ele>194.0</ele><time>2026-04-26T15:40:49.042Z</time></trkpt><trkpt lat="44.8594633" lon="9.55098"><ele>194.0</ele><time>2026-04-26T15:40:50.041Z</time></trkpt><trkpt lat="44.85955" lon="9.5511217"><ele>194.0</ele><time>2026-04-26T15:40:51.042Z</time></trkpt><trkpt lat="44.8596367" lon="9.55126"><ele>194.0</ele><time>2026-04-26T15:40:52.043Z</time></trkpt><trkpt lat="44.8597267" lon="9.5513883"><ele>199.75</ele><time>2026-04-26T15:40:53.043Z</time></trkpt><trkpt lat="44.85981" lon="9.5515217"><ele>205.5</ele><time>2026-04-26T15:40:54.042Z</time></trkpt><trkpt lat="44.859885" lon="9.5516633"><ele>211.25</ele><time>2026-04-26T15:40:55.042Z</time></trkpt><trkpt lat="44.859945" lon="9.55182"><ele>217.0</ele><time>2026-04-26T15:40:56.042Z</time></trkpt><trkpt lat="44.86" lon="9.5519717"><ele>220.6</ele><time>2026-04-26T15:40:57.042Z</time></trkpt><trkpt lat="44.860045" lon="9.55211"><ele>224.2</ele><time>2026-04-26T15:40:58.042Z</time></trkpt><trkpt lat="44.86008" lon="9.5522417"><ele>227.8</ele><time>2026-04-26T15:40:59.044Z</time></trkpt><trkpt lat="44.8600933" lon="9.552375"><ele>231.4</ele><time>2026-04-26T15:41:00.041Z</time></trkpt><trkpt lat="44.86009" lon="9.5525133"><ele>235.0</ele><time>2026-04-26T15:41:01.041Z</time></trkpt><trkpt lat="44.8600817" lon="9.5526433"><ele>235.0</ele><time>2026-04-26T15:41:02.041Z</time></trkpt><trkpt lat="44.8600867" lon="9.552755"><ele>235.0</ele><time>2026-04-26T15:41:03.042Z</time></trkpt><trkpt lat="44.86013" lon="9.5528433"><ele>235.0</ele><time>2026-04-26T15:41:04.042Z</time></trkpt><trkpt lat="44.8602033" lon="9.5529133"><ele>235.0</ele><time>2026-04-26T15:41:05.042Z</time></trkpt><trkpt lat="44.8602933" lon="9.552975"><ele>235.0</ele><time>2026-04-26T15:41:06.042Z</time></trkpt><trkpt lat="44.8604" lon="9.5530417"><ele>233.6</ele><time>2026-04-26T15:41:07.042Z</time></trkpt><trkpt lat="44.8604867" lon="9.5531233"><ele>232.2</ele><time>2026-04-26T15:41:08.041Z</time></trkpt><trkpt lat="44.8605717" lon="9.55323"><ele>230.8</ele><time>2026-04-26T15:41:09.042Z</time></trkpt><trkpt lat="44.8606583" lon="9.5533283"><ele>229.4</ele><time>2026-04-26T15:41:10.042Z</time></trkpt><trkpt lat="44.8607467" lon="9.553395"><ele>228.0</ele><time>2026-04-26T15:41:11.042Z</time></trkpt><trkpt lat="44.8608367" lon="9.55344"><ele>228.0</ele><time>2026-04-26T15:41:12.041Z</time></trkpt><trkpt lat="44.8609183" lon="9.5534883"><ele>228.0</ele><time>2026-04-26T15:41:13.041Z</time></trkpt><trkpt lat="44.8609817" lon="9.553545"><ele>228.0</ele><time>2026-04-26T15:41:14.042Z</time></trkpt><trkpt lat="44.8610283" lon="9.55363"><ele>228.0</ele><time>2026-04-26T15:41:15.042Z</time></trkpt><trkpt lat="44.8610617" lon="9.5537317"><ele>228.0</ele><time>2026-04-26T15:41:16.041Z</time></trkpt><trkpt lat="44.861075" lon="9.5538583"><ele>228.0</ele><time>2026-04-26T15:41:17.041Z</time></trkpt><trkpt lat="44.8610533" lon="9.5539933"><ele>225.8</ele><time>2026-04-26T15:41:18.043Z</time></trkpt><trkpt lat="44.8610083" lon="9.5541383"><ele>223.60000000000002</ele><time>2026-04-26T15:41:19.042Z</time></trkpt><trkpt lat="44.8609533" lon="9.5542733"><ele>221.39999999999998</ele><time>2026-04-26T15:41:20.043Z</time></trkpt><trkpt lat="44.8609133" lon="9.5544067"><ele>219.2</ele><time>2026-04-26T15:41:21.042Z</time></trkpt><trkpt lat="44.8608967" lon="9.5545367"><ele>217.0</ele><time>2026-04-26T15:41:22.042Z</time></trkpt><trkpt lat="44.8609033" lon="9.5546717"><ele>219.49999999999997</ele><time>2026-04-26T15:41:23.042Z</time></trkpt><trkpt lat="44.8609267" lon="9.55481"><ele>222.0</ele><time>2026-04-26T15:41:24.042Z</time></trkpt><trkpt lat="44.86096" lon="9.5549317"><ele>224.5</ele><time>2026-04-26T15:41:25.041Z</time></trkpt><trkpt lat="44.861" lon="9.5550317"><ele>227.0</ele><time>2026-04-26T15:41:26.042Z</time></trkpt><trkpt lat="44.8610383" lon="9.555115"><ele>229.49999999999997</ele><time>2026-04-26T15:41:27.043Z</time></trkpt><trkpt lat="44.8610817" lon="9.5552417"><ele>232.0</ele><time>2026-04-26T15:41:29.042Z</time></trkpt><trkpt lat="44.8610033" lon="9.5552817"><ele>237.0</ele><time>2026-04-26T15:41:33.043Z</time></trkpt><trkpt lat="44.860925" lon="9.555185"><ele>242.0</ele><time>2026-04-26T15:41:35.043Z</time></trkpt><trkpt lat="44.8608783" lon="9.5551017"><ele>247.0</ele><time>2026-04-26T15:41:36.041Z</time></trkpt><trkpt lat="44.86083" lon="9.5549867"><ele>252.0</ele><time>2026-04-26T15:41:37.042Z</time></trkpt><trkpt lat="44.860775" lon="9.5548417"><ele>257.0</ele><time>2026-04-26T15:41:38.041Z</time></trkpt><trkpt lat="44.8607267" lon="9.5547083"><ele>257.0</ele><time>2026-04-26T15:41:39.042Z</time></trkpt><trkpt lat="44.8606867" lon="9.5545867"><ele>257.0</ele><time>2026-04-26T15:41:40.041Z</time></trkpt><trkpt lat="44.86066" lon="9.5544883"><ele>257.0</ele><time>2026-04-26T15:41:41.043Z</time></trkpt><trkpt lat="44.8606333" lon="9.5543617"><ele>257.0</ele><time>2026-04-26T15:41:43.042Z</time></trkpt><trkpt lat="44.86055" lon="9.55425"><ele>257.0</ele><time>2026-04-26T15:42:26.042Z</time></trkpt><trkpt lat="44.860515" lon="9.554175"><ele>257.0</ele><time>2026-04-26T15:42:27.042Z</time></trkpt><trkpt lat="44.8604733" lon="9.5540833"><ele>256.5</ele><time>2026-04-26T15:42:28.042Z</time></trkpt><trkpt lat="44.86043" lon="9.553985"><ele>256.0</ele><time>2026-04-26T15:42:29.042Z</time></trkpt><trkpt lat="44.8603833" lon="9.55389"><ele>255.5</ele><time>2026-04-26T15:42:30.042Z</time></trkpt><trkpt lat="44.8603233" lon="9.5538117"><ele>255.0</ele><time>2026-04-26T15:42:31.042Z</time></trkpt><trkpt lat="44.8602517" lon="9.55375"><ele>254.50000000000003</ele><time>2026-04-26T15:42:32.041Z</time></trkpt><trkpt lat="44.8601717" lon="9.55371"><ele>254.0</ele><time>2026-04-26T15:42:33.043Z</time></trkpt><trkpt lat="44.8600767" lon="9.5536933"><ele>254.00000000000003</ele><time>2026-04-26T15:42:34.042Z</time></trkpt><trkpt lat="44.8599767" lon="9.553705"><ele>254.0</ele><time>2026-04-26T15:42:35.043Z</time></trkpt><trkpt lat="44.8598867" lon="9.5537133"><ele>254.0</ele><time>2026-04-26T15:42:36.042Z</time></trkpt><trkpt lat="44.8598017" lon="9.55371"><ele>254.0</ele><time>2026-04-26T15:42:37.042Z</time></trkpt><trkpt lat="44.8597267" lon="9.5536817"><ele>254.00000000000003</ele><time>2026-04-26T15:42:38.044Z</time></trkpt><trkpt lat="44.85967" lon="9.5535967"><ele>254.0</ele><time>2026-04-26T15:42:39.043Z</time></trkpt><trkpt lat="44.85962" lon="9.553485"><ele>254.0</ele><time>2026-04-26T15:42:40.043Z</time></trkpt><trkpt lat="44.85957" lon="9.5533433"><ele>254.0</ele><time>2026-04-26T15:42:41.043Z</time></trkpt><trkpt lat="44.859515" lon="9.5531783"><ele>254.0</ele><time>2026-04-26T15:42:42.042Z</time></trkpt><trkpt lat="44.8594517" lon="9.5530317"><ele>254.0</ele><time>2026-04-26T15:42:43.042Z</time></trkpt><trkpt lat="44.859395" lon="9.5528983"><ele>249.25</ele><time>2026-04-26T15:42:44.041Z</time></trkpt><trkpt lat="44.8593433" lon="9.552765"><ele>244.5</ele><time>2026-04-26T15:42:45.043Z</time></trkpt><trkpt lat="44.8592883" lon="9.5526267"><ele>239.75</ele><time>2026-04-26T15:42:46.041Z</time></trkpt><trkpt lat="44.8592183" lon="9.5524983"><ele>235.0</ele><time>2026-04-26T15:42:47.042Z</time></trkpt><trkpt lat="44.8591267" lon="9.5523817"><ele>245.75</ele><time>2026-04-26T15:42:48.042Z</time></trkpt><trkpt lat="44.85903" lon="9.55228"><ele>256.5</ele><time>2026-04-26T15:42:49.043Z</time></trkpt><trkpt lat="44.8589367" lon="9.5522017"><ele>267.25</ele><time>2026-04-26T15:42:50.042Z</time></trkpt><trkpt lat="44.8588267" lon="9.5521533"><ele>278.0</ele><time>2026-04-26T15:42:51.043Z</time></trkpt><trkpt lat="44.858705" lon="9.5521133"><ele>278.0</ele><time>2026-04-26T15:42:52.042Z</time></trkpt><trkpt lat="44.858585" lon="9.5520667"><ele>278.0</ele><time>2026-04-26T15:42:53.042Z</time></trkpt><trkpt lat="44.8584767" lon="9.552015"><ele>278.0</ele><time>2026-04-26T15:42:54.043Z</time></trkpt><trkpt lat="44.8583883" lon="9.5519517"><ele>278.0</ele><time>2026-04-26T15:42:55.042Z</time></trkpt><trkpt lat="44.8583083" lon="9.55189"><ele>278.0</ele><time>2026-04-26T15:42:56.042Z</time></trkpt><trkpt lat="44.8582367" lon="9.551855"><ele>278.5</ele><time>2026-04-26T15:42:57.043Z</time></trkpt><trkpt lat="44.8581667" lon="9.5518467"><ele>279.0</ele><time>2026-04-26T15:42:58.042Z</time></trkpt><trkpt lat="44.8580933" lon="9.5518617"><ele>279.5</ele><time>2026-04-26T15:42:59.042Z</time></trkpt><trkpt lat="44.8580267" lon="9.551945"><ele>280.0</ele><time>2026-04-26T15:43:00.042Z</time></trkpt><trkpt lat="44.8579567" lon="9.55205"><ele>280.5</ele><time>2026-04-26T15:43:01.042Z</time></trkpt><trkpt lat="44.8578883" lon="9.5521683"><ele>281.0</ele><time>2026-04-26T15:43:02.042Z</time></trkpt><trkpt lat="44.857825" lon="9.5522783"><ele>285.6</ele><time>2026-04-26T15:43:03.043Z</time></trkpt><trkpt lat="44.85778" lon="9.5523767"><ele>290.20000000000005</ele><time>2026-04-26T15:43:04.041Z</time></trkpt><trkpt lat="44.857755" lon="9.5524783"><ele>294.79999999999995</ele><time>2026-04-26T15:43:05.041Z</time></trkpt><trkpt lat="44.8577417" lon="9.5526"><ele>299.4</ele><time>2026-04-26T15:43:06.043Z</time></trkpt><trkpt lat="44.8577317" lon="9.55274"><ele>304.0</ele><time>2026-04-26T15:43:07.041Z</time></trkpt><trkpt lat="44.85772" lon="9.5528867"><ele>304.8</ele><time>2026-04-26T15:43:08.041Z</time></trkpt><trkpt lat="44.8576983" lon="9.553035"><ele>305.59999999999997</ele><time>2026-04-26T15:43:09.042Z</time></trkpt><trkpt lat="44.8576717" lon="9.5531883"><ele>306.4</ele><time>2026-04-26T15:43:10.041Z</time></trkpt><trkpt lat="44.8576367" lon="9.5533367"><ele>307.2</ele><time>2026-04-26T15:43:11.042Z</time></trkpt><trkpt lat="44.8576033" lon="9.553485"><ele>308.0</ele><time>2026-04-26T15:43:12.041Z</time></trkpt><trkpt lat="44.8575817" lon="9.5536433"><ele>311.25</ele><time>2026-04-26T15:43:13.041Z</time></trkpt><trkpt lat="44.8575767" lon="9.553815"><ele>314.5</ele><time>2026-04-26T15:43:14.043Z</time></trkpt><trkpt lat="44.85758" lon="9.5539883"><ele>317.75</ele><time>2026-04-26T15:43:15.042Z</time></trkpt><trkpt lat="44.857585" lon="9.5541617"><ele>321.0</ele><time>2026-04-26T15:43:16.044Z</time></trkpt><trkpt lat="44.8575883" lon="9.5543367"><ele>321.0</ele><time>2026-04-26T15:43:17.042Z</time></trkpt><trkpt lat="44.8575917" lon="9.554505"><ele>321.0</ele><time>2026-04-26T15:43:18.043Z</time></trkpt><trkpt lat="44.857595" lon="9.5546533"><ele>321.0</ele><time>2026-04-26T15:43:19.043Z</time></trkpt><trkpt lat="44.8575967" lon="9.5547933"><ele>321.0</ele><time>2026-04-26T15:43:20.041Z</time></trkpt><trkpt lat="44.8575783" lon="9.5549233"><ele>321.0</ele><time>2026-04-26T15:43:21.043Z</time></trkpt><trkpt lat="44.85754" lon="9.5550583"><ele>323.6</ele><time>2026-04-26T15:43:22.041Z</time></trkpt><trkpt lat="44.8574883" lon="9.5552067"><ele>326.20000000000005</ele><time>2026-04-26T15:43:23.042Z</time></trkpt><trkpt lat="44.8574283" lon="9.5553567"><ele>328.79999999999995</ele><time>2026-04-26T15:43:24.042Z</time></trkpt><trkpt lat="44.8573722" lon="9.5554936"><ele>331.4</ele><time>2026-04-26T15:43:25.042Z</time></trkpt><trkpt lat="44.8573322" lon="9.555609"><ele>334.0</ele><time>2026-04-26T15:43:26.042Z</time></trkpt><trkpt lat="44.8573061" lon="9.5557213"><ele>336.6</ele><time>2026-04-26T15:43:27.042Z</time></trkpt><trkpt lat="44.8572837" lon="9.5558444"><ele>339.2</ele><time>2026-04-26T15:43:28.042Z</time></trkpt><trkpt lat="44.8572601" lon="9.5559713"><ele>341.8</ele><time>2026-04-26T15:43:29.042Z</time></trkpt><trkpt lat="44.8572259" lon="9.5561005"><ele>344.40000000000003</ele><time>2026-04-26T15:43:30.041Z</time></trkpt><trkpt lat="44.8571832" lon="9.5562354"><ele>347.0</ele><time>2026-04-26T15:43:31.042Z</time></trkpt><trkpt lat="44.8571434" lon="9.5563856"><ele>349.75</ele><time>2026-04-26T15:43:32.042Z</time></trkpt><trkpt lat="44.8571081" lon="9.5565489"><ele>352.5</ele><time>2026-04-26T15:43:33.042Z</time></trkpt><trkpt lat="44.8570688" lon="9.5567172"><ele>355.25</ele><time>2026-04-26T15:43:34.042Z</time></trkpt><trkpt lat="44.8570339" lon="9.5568751"><ele>358.0</ele><time>2026-04-26T15:43:35.042Z</time></trkpt><trkpt lat="44.8570001" lon="9.5570153"><ele>359.59999999999997</ele><time>2026-04-26T15:43:36.042Z</time></trkpt><trkpt lat="44.8569556" lon="9.5571441"><ele>361.2</ele><time>2026-04-26T15:43:37.041Z</time></trkpt><trkpt lat="44.8569048" lon="9.5572655"><ele>362.8</ele><time>2026-04-26T15:43:38.042Z</time></trkpt><trkpt lat="44.8568578" lon="9.5573767"><ele>364.4</ele><time>2026-04-26T15:43:39.042Z</time></trkpt><trkpt lat="44.8568221" lon="9.557473"><ele>366.0</ele><time>2026-04-26T15:43:40.041Z</time></trkpt><trkpt lat="44.8568116" lon="9.5576024"><ele>366.0</ele><time>2026-04-26T15:43:42.042Z</time></trkpt><trkpt lat="44.8569141" lon="9.5576328"><ele>366.0</ele><time>2026-04-26T15:43:44.042Z</time></trkpt><trkpt lat="44.8569831" lon="9.557599"><ele>366.0</ele><time>2026-04-26T15:43:45.042Z</time></trkpt><trkpt lat="44.8570498" lon="9.5575366"><ele>366.0</ele><time>2026-04-26T15:43:46.043Z</time></trkpt><trkpt lat="44.8571173" lon="9.5574376"><ele>366.0</ele><time>2026-04-26T15:43:47.042Z</time></trkpt><trkpt lat="44.8572003" lon="9.5573242"><ele>366.0</ele><time>2026-04-26T15:43:48.042Z</time></trkpt><trkpt lat="44.8573006" lon="9.5572175"><ele>366.0</ele><time>2026-04-26T15:43:49.042Z</time></trkpt><trkpt lat="44.8574048" lon="9.5571318"><ele>366.0</ele><time>2026-04-26T15:43:50.043Z</time></trkpt><trkpt lat="44.8574914" lon="9.5570526"><ele>366.0</ele><time>2026-04-26T15:43:51.043Z</time></trkpt><trkpt lat="44.8575607" lon="9.5569861"><ele>366.0</ele><time>2026-04-26T15:43:52.044Z</time></trkpt><trkpt lat="44.8576199" lon="9.5569426"><ele>366.0</ele><time>2026-04-26T15:43:53.041Z</time></trkpt><trkpt lat="44.8577115" lon="9.5569585"><ele>366.0</ele><time>2026-04-26T15:43:55.043Z</time></trkpt><trkpt lat="44.8577187" lon="9.5570771"><ele>366.0</ele><time>2026-04-26T15:43:57.042Z</time></trkpt><trkpt lat="44.8576481" lon="9.5572506"><ele>366.0</ele><time>2026-04-26T15:43:59.042Z</time></trkpt><trkpt lat="44.8575984" lon="9.5573532"><ele>366.0</ele><time>2026-04-26T15:44:00.041Z</time></trkpt><trkpt lat="44.8575576" lon="9.557477"><ele>366.0</ele><time>2026-04-26T15:44:01.043Z</time></trkpt><trkpt lat="44.8575296" lon="9.5576175"><ele>366.0</ele><time>2026-04-26T15:44:02.042Z</time></trkpt><trkpt lat="44.857508" lon="9.5577633"><ele>366.0</ele><time>2026-04-26T15:44:03.043Z</time></trkpt><trkpt lat="44.8574815" lon="9.5579096"><ele>366.0</ele><time>2026-04-26T15:44:04.042Z</time></trkpt><trkpt lat="44.8574501" lon="9.5580609"><ele>366.0</ele><time>2026-04-26T15:44:05.043Z</time></trkpt><trkpt lat="44.8574202" lon="9.5582166"><ele>367.75</ele><time>2026-04-26T15:44:06.042Z</time></trkpt><trkpt lat="44.857388" lon="9.5583722"><ele>369.5</ele><time>2026-04-26T15:44:07.042Z</time></trkpt><trkpt lat="44.8573482" lon="9.5585274"><ele>371.25</ele><time>2026-04-26T15:44:08.041Z</time></trkpt><trkpt lat="44.8573025" lon="9.5586766"><ele>373.0</ele><time>2026-04-26T15:44:09.042Z</time></trkpt><trkpt lat="44.8572598" lon="9.5588202"><ele>375.59999999999997</ele><time>2026-04-26T15:44:10.042Z</time></trkpt><trkpt lat="44.8572199" lon="9.5589525"><ele>378.2</ele><time>2026-04-26T15:44:11.042Z</time></trkpt><trkpt lat="44.8571797" lon="9.5590674"><ele>380.8</ele><time>2026-04-26T15:44:12.043Z</time></trkpt><trkpt lat="44.8571439" lon="9.5591647"><ele>383.4</ele><time>2026-04-26T15:44:13.042Z</time></trkpt><trkpt lat="44.8571221" lon="9.5592561"><ele>386.0</ele><time>2026-04-26T15:44:14.043Z</time></trkpt><trkpt lat="44.8571453" lon="9.5594198"><ele>386.0</ele><time>2026-04-26T15:44:16.042Z</time></trkpt><trkpt lat="44.8572543" lon="9.5595241"><ele>386.0</ele><time>2026-04-26T15:44:18.042Z</time></trkpt><trkpt lat="44.8573425" lon="9.5595541"><ele>386.0</ele><time>2026-04-26T15:44:19.042Z</time></trkpt><trkpt lat="44.8574434" lon="9.5595828"><ele>386.0</ele><time>2026-04-26T15:44:20.042Z</time></trkpt><trkpt lat="44.8575432" lon="9.5596203"><ele>386.0</ele><time>2026-04-26T15:44:21.043Z</time></trkpt><trkpt lat="44.8576293" lon="9.5596673"><ele>388.3333333333333</ele><time>2026-04-26T15:44:22.042Z</time></trkpt><trkpt lat="44.857695" lon="9.5597137"><ele>390.66666666666663</ele><time>2026-04-26T15:44:23.042Z</time></trkpt><trkpt lat="44.8577519" lon="9.5598282"><ele>393.0</ele><time>2026-04-26T15:44:25.043Z</time></trkpt><trkpt lat="44.8576962" lon="9.5599324"><ele>395.33333333333337</ele><time>2026-04-26T15:44:27.044Z</time></trkpt><trkpt lat="44.8576344" lon="9.5599683"><ele>397.6666666666667</ele><time>2026-04-26T15:44:28.042Z</time></trkpt><trkpt lat="44.8575469" lon="9.56"><ele>400.0</ele><time>2026-04-26T15:44:29.042Z</time></trkpt><trkpt lat="44.8574627" lon="9.5600502"><ele>400.0</ele><time>2026-04-26T15:44:30.042Z</time></trkpt><trkpt lat="44.8573929" lon="9.5601185"><ele>400.0</ele><time>2026-04-26T15:44:31.043Z</time></trkpt><trkpt lat="44.8573393" lon="9.5602056"><ele>400.0</ele><time>2026-04-26T15:44:32.042Z</time></trkpt><trkpt lat="44.8573031" lon="9.5603222"><ele>400.0</ele><time>2026-04-26T15:44:33.044Z</time></trkpt><trkpt lat="44.8572844" lon="9.560475"><ele>400.0</ele><time>2026-04-26T15:44:34.042Z</time></trkpt><trkpt lat="44.8572684" lon="9.5606303"><ele>401.6666666666667</ele><time>2026-04-26T15:44:35.042Z</time></trkpt><trkpt lat="44.8572536" lon="9.5607698"><ele>403.33333333333337</ele><time>2026-04-26T15:44:36.042Z</time></trkpt><trkpt lat="44.85724" lon="9.5608892"><ele>405.0</ele><time>2026-04-26T15:44:37.043Z</time></trkpt><trkpt lat="44.8572195" lon="9.5609888"><ele>406.66666666666663</ele><time>2026-04-26T15:44:38.042Z</time></trkpt><trkpt lat="44.8571923" lon="9.5610729"><ele>408.3333333333333</ele><time>2026-04-26T15:44:39.042Z</time></trkpt><trkpt lat="44.8571482" lon="9.5611395"><ele>410.0</ele><time>2026-04-26T15:44:40.043Z</time></trkpt><trkpt lat="44.8570777" lon="9.5611999"><ele>411.49999999999994</ele><time>2026-04-26T15:44:41.042Z</time></trkpt><trkpt lat="44.8570026" lon="9.5612702"><ele>413.0</ele><time>2026-04-26T15:44:42.042Z</time></trkpt><trkpt lat="44.8569329" lon="9.5613446"><ele>414.5</ele><time>2026-04-26T15:44:43.043Z</time></trkpt><trkpt lat="44.856871" lon="9.5614123"><ele>416.0</ele><time>2026-04-26T15:44:44.042Z</time></trkpt><trkpt lat="44.856814" lon="9.561454"><ele>417.49999999999994</ele><time>2026-04-26T15:44:45.042Z</time></trkpt><trkpt lat="44.8567059" lon="9.561449"><ele>419.0</ele><time>2026-04-26T15:44:47.043Z</time></trkpt><trkpt lat="44.8566366" lon="9.5614065"><ele>419.2</ele><time>2026-04-26T15:44:48.043Z</time></trkpt><trkpt lat="44.8565578" lon="9.5613541"><ele>419.4</ele><time>2026-04-26T15:44:49.043Z</time></trkpt><trkpt lat="44.8564689" lon="9.561282"><ele>419.6</ele><time>2026-04-26T15:44:50.042Z</time></trkpt><trkpt lat="44.8563697" lon="9.5612046"><ele>419.8</ele><time>2026-04-26T15:44:51.042Z</time></trkpt><trkpt lat="44.8562649" lon="9.561129"><ele>420.0</ele><time>2026-04-26T15:44:52.042Z</time></trkpt><trkpt lat="44.8561702" lon="9.5610729"><ele>416.8333333333333</ele><time>2026-04-26T15:44:53.042Z</time></trkpt><trkpt lat="44.8560831" lon="9.5610363"><ele>413.66666666666663</ele><time>2026-04-26T15:44:54.043Z</time></trkpt><trkpt lat="44.855999" lon="9.5610238"><ele>410.5</ele><time>2026-04-26T15:44:55.042Z</time></trkpt><trkpt lat="44.8559141" lon="9.5610298"><ele>407.3333333333333</ele><time>2026-04-26T15:44:56.043Z</time></trkpt><trkpt lat="44.855825" lon="9.5610667"><ele>404.16666666666663</ele><time>2026-04-26T15:44:57.044Z</time></trkpt><trkpt lat="44.8557399" lon="9.56112"><ele>401.0</ele><time>2026-04-26T15:44:58.042Z</time></trkpt><trkpt lat="44.8556498" lon="9.5611773"><ele>405.8</ele><time>2026-04-26T15:44:59.044Z</time></trkpt><trkpt lat="44.8555508" lon="9.5612454"><ele>410.6</ele><time>2026-04-26T15:45:00.043Z</time></trkpt><trkpt lat="44.8554581" lon="9.5613174"><ele>415.4</ele><time>2026-04-26T15:45:01.044Z</time></trkpt><trkpt lat="44.8553733" lon="9.5613867"><ele>420.2</ele><time>2026-04-26T15:45:02.045Z</time></trkpt><trkpt lat="44.8552983" lon="9.56145"><ele>425.0</ele><time>2026-04-26T15:45:03.043Z</time></trkpt><trkpt lat="44.855215" lon="9.5614983"><ele>425.0</ele><time>2026-04-26T15:45:04.042Z</time></trkpt><trkpt lat="44.855125" lon="9.56154"><ele>425.0</ele><time>2026-04-26T15:45:05.042Z</time></trkpt><trkpt lat="44.8550267" lon="9.5615717"><ele>425.0</ele><time>2026-04-26T15:45:06.044Z</time></trkpt><trkpt lat="44.8549317" lon="9.5615967"><ele>425.0</ele><time>2026-04-26T15:45:07.042Z</time></trkpt><trkpt lat="44.8548467" lon="9.561625"><ele>425.0</ele><time>2026-04-26T15:45:08.042Z</time></trkpt><trkpt lat="44.8547683" lon="9.5616467"><ele>423.2</ele><time>2026-04-26T15:45:09.042Z</time></trkpt><trkpt lat="44.8547033" lon="9.5616617"><ele>421.4</ele><time>2026-04-26T15:45:10.042Z</time></trkpt><trkpt lat="44.854575" lon="9.5616917"><ele>419.6</ele><time>2026-04-26T15:45:12.042Z</time></trkpt><trkpt lat="44.8544967" lon="9.56172"><ele>417.8</ele><time>2026-04-26T15:45:13.042Z</time></trkpt><trkpt lat="44.8544083" lon="9.5617733"><ele>416.0</ele><time>2026-04-26T15:45:14.042Z</time></trkpt><trkpt lat="44.85432" lon="9.56184"><ele>414.6</ele><time>2026-04-26T15:45:15.043Z</time></trkpt><trkpt lat="44.85423" lon="9.5618983"><ele>413.20000000000005</ele><time>2026-04-26T15:45:16.043Z</time></trkpt><trkpt lat="44.8541317" lon="9.5619433"><ele>411.79999999999995</ele><time>2026-04-26T15:45:17.042Z</time></trkpt><trkpt lat="44.8540317" lon="9.5619817"><ele>410.4</ele><time>2026-04-26T15:45:18.043Z</time></trkpt><trkpt lat="44.85393" lon="9.56202"><ele>409.0</ele><time>2026-04-26T15:45:19.043Z</time></trkpt><trkpt lat="44.8538333" lon="9.5620617"><ele>409.6</ele><time>2026-04-26T15:45:20.042Z</time></trkpt><trkpt lat="44.8537367" lon="9.5621133"><ele>410.2</ele><time>2026-04-26T15:45:21.042Z</time></trkpt><trkpt lat="44.853645" lon="9.562175"><ele>410.8</ele><time>2026-04-26T15:45:22.042Z</time></trkpt><trkpt lat="44.8535583" lon="9.56223"><ele>411.40000000000003</ele><time>2026-04-26T15:45:23.043Z</time></trkpt><trkpt lat="44.8534817" lon="9.5622817"><ele>412.0</ele><time>2026-04-26T15:45:24.043Z</time></trkpt><trkpt lat="44.8534133" lon="9.5623433"><ele>411.99999999999994</ele><time>2026-04-26T15:45:25.042Z</time></trkpt><trkpt lat="44.8533533" lon="9.56242"><ele>412.0</ele><time>2026-04-26T15:45:26.043Z</time></trkpt><trkpt lat="44.8533033" lon="9.5624967"><ele>412.0</ele><time>2026-04-26T15:45:27.042Z</time></trkpt><trkpt lat="44.853265" lon="9.562575"><ele>412.0</ele><time>2026-04-26T15:45:28.042Z</time></trkpt><trkpt lat="44.853235" lon="9.5626633"><ele>412.0</ele><time>2026-04-26T15:45:29.043Z</time></trkpt><trkpt lat="44.85322" lon="9.56276"><ele>411.99999999999994</ele><time>2026-04-26T15:45:30.042Z</time></trkpt><trkpt lat="44.853195" lon="9.562845"><ele>412.0</ele><time>2026-04-26T15:45:31.042Z</time></trkpt><trkpt lat="44.8531567" lon="9.5629217"><ele>414.6</ele><time>2026-04-26T15:45:32.042Z</time></trkpt><trkpt lat="44.8531" lon="9.5629733"><ele>417.20000000000005</ele><time>2026-04-26T15:45:33.042Z</time></trkpt><trkpt lat="44.8530183" lon="9.5629967"><ele>419.8</ele><time>2026-04-26T15:45:34.042Z</time></trkpt><trkpt lat="44.8529267" lon="9.563015"><ele>422.4</ele><time>2026-04-26T15:45:35.042Z</time></trkpt><trkpt lat="44.85282" lon="9.5630167"><ele>425.0</ele><time>2026-04-26T15:45:36.042Z</time></trkpt><trkpt lat="44.8527" lon="9.56302"><ele>425.4</ele><time>2026-04-26T15:45:37.043Z</time></trkpt><trkpt lat="44.852585" lon="9.56302"><ele>425.8</ele><time>2026-04-26T15:45:38.042Z</time></trkpt><trkpt lat="44.8524833" lon="9.5630033"><ele>426.20000000000005</ele><time>2026-04-26T15:45:39.043Z</time></trkpt><trkpt lat="44.8523817" lon="9.562965"><ele>426.6</ele><time>2026-04-26T15:45:40.042Z</time></trkpt><trkpt lat="44.8522733" lon="9.5628917"><ele>427.0</ele><time>2026-04-26T15:45:41.042Z</time></trkpt><trkpt lat="44.8521583" lon="9.5628083"><ele>426.20000000000005</ele><time>2026-04-26T15:45:42.042Z</time></trkpt><trkpt lat="44.8520533" lon="9.5627167"><ele>425.40000000000003</ele><time>2026-04-26T15:45:43.042Z</time></trkpt><trkpt lat="44.8519633" lon="9.5626183"><ele>424.6</ele><time>2026-04-26T15:45:44.042Z</time></trkpt><trkpt lat="44.8518833" lon="9.56252"><ele>423.79999999999995</ele><time>2026-04-26T15:45:45.044Z</time></trkpt><trkpt lat="44.851815" lon="9.5624333"><ele>423.0</ele><time>2026-04-26T15:45:46.043Z</time></trkpt><trkpt lat="44.8517533" lon="9.5623733"><ele>423.0</ele><time>2026-04-26T15:45:47.042Z</time></trkpt><trkpt lat="44.85165" lon="9.5623283"><ele>423.0</ele><time>2026-04-26T15:45:49.041Z</time></trkpt><trkpt lat="44.8516367" lon="9.5624433"><ele>423.0</ele><time>2026-04-26T15:45:58.042Z</time></trkpt><trkpt lat="44.8517017" lon="9.5626083"><ele>423.0</ele><time>2026-04-26T15:46:00.041Z</time></trkpt><trkpt lat="44.8517317" lon="9.5627167"><ele>423.0</ele><time>2026-04-26T15:46:01.042Z</time></trkpt><trkpt lat="44.8517533" lon="9.562835"><ele>423.79999999999995</ele><time>2026-04-26T15:46:02.042Z</time></trkpt><trkpt lat="44.85176" lon="9.56295"><ele>424.6</ele><time>2026-04-26T15:46:03.041Z</time></trkpt><trkpt lat="44.8517617" lon="9.563055"><ele>425.40000000000003</ele><time>2026-04-26T15:46:04.041Z</time></trkpt><trkpt lat="44.8517533" lon="9.563195"><ele>426.20000000000005</ele><time>2026-04-26T15:46:06.041Z</time></trkpt><trkpt lat="44.851788" lon="9.5633553"><ele>427.0</ele><time>2026-04-26T15:46:44.041Z</time></trkpt><trkpt lat="44.8518397" lon="9.5634822"><ele>427.00000000000006</ele><time>2026-04-26T15:46:45.042Z</time></trkpt><trkpt lat="44.8518943" lon="9.5635875"><ele>427.0</ele><time>2026-04-26T15:46:46.041Z</time></trkpt><trkpt lat="44.8519518" lon="9.5636759"><ele>427.0</ele><time>2026-04-26T15:46:47.041Z</time></trkpt><trkpt lat="44.852013" lon="9.563765"><ele>427.0</ele><time>2026-04-26T15:46:48.042Z</time></trkpt><trkpt lat="44.8520794" lon="9.5638554"><ele>427.00000000000006</ele><time>2026-04-26T15:46:49.042Z</time></trkpt><trkpt lat="44.8521413" lon="9.5639451"><ele>427.0</ele><time>2026-04-26T15:46:50.042Z</time></trkpt><trkpt lat="44.8521932" lon="9.5640327"><ele>430.40000000000003</ele><time>2026-04-26T15:46:51.042Z</time></trkpt><trkpt lat="44.8522334" lon="9.5641244"><ele>433.80000000000007</ele><time>2026-04-26T15:46:52.041Z</time></trkpt><trkpt lat="44.8522607" lon="9.5642188"><ele>437.2</ele><time>2026-04-26T15:46:53.041Z</time></trkpt><trkpt lat="44.852272" lon="9.5643132"><ele>440.6</ele><time>2026-04-26T15:46:54.042Z</time></trkpt><trkpt lat="44.8522256" lon="9.5644596"><ele>444.0</ele><time>2026-04-26T15:46:56.042Z</time></trkpt><trkpt lat="44.8520883" lon="9.5645017"><ele>446.3333333333333</ele><time>2026-04-26T15:46:58.042Z</time></trkpt><trkpt lat="44.8520083" lon="9.56453"><ele>448.66666666666663</ele><time>2026-04-26T15:46:59.041Z</time></trkpt><trkpt lat="44.85192" lon="9.5645533"><ele>451.0</ele><time>2026-04-26T15:47:00.043Z</time></trkpt><trkpt lat="44.8518367" lon="9.564575"><ele>453.3333333333333</ele><time>2026-04-26T15:47:01.042Z</time></trkpt><trkpt lat="44.8517667" lon="9.5646"><ele>455.66666666666663</ele><time>2026-04-26T15:47:02.042Z</time></trkpt><trkpt lat="44.851705" lon="9.564625"><ele>458.0</ele><time>2026-04-26T15:47:03.042Z</time></trkpt><trkpt lat="44.851605" lon="9.564705"><ele>457.99999999999994</ele><time>2026-04-26T15:47:05.041Z</time></trkpt><trkpt lat="44.8515233" lon="9.5648317"><ele>458.0</ele><time>2026-04-26T15:47:07.041Z</time></trkpt><trkpt lat="44.851495" lon="9.5649133"><ele>458.0</ele><time>2026-04-26T15:47:08.041Z</time></trkpt><trkpt lat="44.8514617" lon="9.5650017"><ele>458.0</ele><time>2026-04-26T15:47:09.042Z</time></trkpt><trkpt lat="44.851435" lon="9.56509"><ele>457.99999999999994</ele><time>2026-04-26T15:47:10.041Z</time></trkpt><trkpt lat="44.8514183" lon="9.56518"><ele>458.0</ele><time>2026-04-26T15:47:11.041Z</time></trkpt><trkpt lat="44.851395" lon="9.5652683"><ele>458.0</ele><time>2026-04-26T15:47:12.043Z</time></trkpt><trkpt lat="44.8513667" lon="9.565355"><ele>458.0</ele><time>2026-04-26T15:47:13.043Z</time></trkpt><trkpt lat="44.851325" lon="9.5654383"><ele>458.0</ele><time>2026-04-26T15:47:14.044Z</time></trkpt><trkpt lat="44.8512867" lon="9.5655217"><ele>458.0</ele><time>2026-04-26T15:47:15.044Z</time></trkpt><trkpt lat="44.851255" lon="9.56562"><ele>458.0</ele><time>2026-04-26T15:47:16.041Z</time></trkpt><trkpt lat="44.8512217" lon="9.5657233"><ele>458.0</ele><time>2026-04-26T15:47:17.042Z</time></trkpt><trkpt lat="44.85119" lon="9.56583"><ele>458.0</ele><time>2026-04-26T15:47:18.042Z</time></trkpt><trkpt lat="44.8511583" lon="9.56591"><ele>457.49999999999994</ele><time>2026-04-26T15:47:19.043Z</time></trkpt><trkpt lat="44.8510833" lon="9.5660283"><ele>457.0</ele><time>2026-04-26T15:47:21.042Z</time></trkpt><trkpt lat="44.851" lon="9.5660683"><ele>456.5</ele><time>2026-04-26T15:47:23.041Z</time></trkpt><trkpt lat="44.8509317" lon="9.5660517"><ele>456.0</ele><time>2026-04-26T15:47:26.042Z</time></trkpt><trkpt lat="44.850875" lon="9.5661033"><ele>455.49999999999994</ele><time>2026-04-26T15:48:00.041Z</time></trkpt><trkpt lat="44.8508233" lon="9.5661783"><ele>455.0</ele><time>2026-04-26T15:48:02.041Z</time></trkpt><trkpt lat="44.8507817" lon="9.5662867"><ele>456.99999999999994</ele><time>2026-04-26T15:48:04.041Z</time></trkpt><trkpt lat="44.8507767" lon="9.56643"><ele>459.0</ele><time>2026-04-26T15:48:06.041Z</time></trkpt><trkpt lat="44.8507933" lon="9.5665167"><ele>461.0</ele><time>2026-04-26T15:48:07.042Z</time></trkpt><trkpt lat="44.850815" lon="9.5666083"><ele>463.0</ele><time>2026-04-26T15:48:08.045Z</time></trkpt><trkpt lat="44.85085" lon="9.5667033"><ele>464.99999999999994</ele><time>2026-04-26T15:48:09.041Z</time></trkpt><trkpt lat="44.8508867" lon="9.5668083"><ele>467.0</ele><time>2026-04-26T15:48:10.041Z</time></trkpt><trkpt lat="44.850925" lon="9.5669183"><ele>470.99999999999994</ele><time>2026-04-26T15:48:11.042Z</time></trkpt><trkpt lat="44.850965" lon="9.5670217"><ele>475.0</ele><time>2026-04-26T15:48:12.041Z</time></trkpt><trkpt lat="44.8510017" lon="9.5671283"><ele>479.0</ele><time>2026-04-26T15:48:13.042Z</time></trkpt><trkpt lat="44.8510333" lon="9.5672367"><ele>483.0</ele><time>2026-04-26T15:48:14.043Z</time></trkpt><trkpt lat="44.8510567" lon="9.56735"><ele>486.99999999999994</ele><time>2026-04-26T15:48:15.043Z</time></trkpt><trkpt lat="44.851065" lon="9.5674667"><ele>491.0</ele><time>2026-04-26T15:48:16.042Z</time></trkpt><trkpt lat="44.851065" lon="9.5675883"><ele>492.3333333333333</ele><time>2026-04-26T15:48:17.042Z</time></trkpt><trkpt lat="44.8510667" lon="9.5677083"><ele>493.66666666666663</ele><time>2026-04-26T15:48:18.043Z</time></trkpt><trkpt lat="44.8510733" lon="9.56783"><ele>495.0</ele><time>2026-04-26T15:48:19.042Z</time></trkpt><trkpt lat="44.851085" lon="9.56795"><ele>496.33333333333337</ele><time>2026-04-26T15:48:20.042Z</time></trkpt><trkpt lat="44.8511033" lon="9.568065"><ele>497.6666666666667</ele><time>2026-04-26T15:48:21.043Z</time></trkpt><trkpt lat="44.8511117" lon="9.5681717"><ele>499.0</ele><time>2026-04-26T15:48:22.042Z</time></trkpt><trkpt lat="44.85111" lon="9.568275"><ele>500.33333333333337</ele><time>2026-04-26T15:48:23.042Z</time></trkpt><trkpt lat="44.8510967" lon="9.568375"><ele>501.6666666666667</ele><time>2026-04-26T15:48:24.041Z</time></trkpt><trkpt lat="44.851065" lon="9.5684733"><ele>503.0</ele><time>2026-04-26T15:48:25.043Z</time></trkpt><trkpt lat="44.8510233" lon="9.5685783"><ele>504.33333333333337</ele><time>2026-04-26T15:48:26.041Z</time></trkpt><trkpt lat="44.8509733" lon="9.5686933"><ele>505.6666666666667</ele><time>2026-04-26T15:48:27.042Z</time></trkpt><trkpt lat="44.8509267" lon="9.5687967"><ele>507.0</ele><time>2026-04-26T15:48:28.043Z</time></trkpt><trkpt lat="44.85089" lon="9.56889"><ele>507.0</ele><time>2026-04-26T15:48:29.042Z</time></trkpt><trkpt lat="44.8508267" lon="9.5690333"><ele>507.0</ele><time>2026-04-26T15:48:31.041Z</time></trkpt><trkpt lat="44.8507767" lon="9.5690883"><ele>507.0</ele><time>2026-04-26T15:48:32.043Z</time></trkpt><trkpt lat="44.8507267" lon="9.5691517"><ele>507.0</ele><time>2026-04-26T15:48:33.042Z</time></trkpt><trkpt lat="44.85068" lon="9.5692267"><ele>507.0</ele><time>2026-04-26T15:48:34.042Z</time></trkpt><trkpt lat="44.8506367" lon="9.5693217"><ele>507.0</ele><time>2026-04-26T15:48:35.041Z</time></trkpt><trkpt lat="44.8505917" lon="9.5694133"><ele>507.0</ele><time>2026-04-26T15:48:36.043Z</time></trkpt><trkpt lat="44.850555" lon="9.5695033"><ele>507.0</ele><time>2026-04-26T15:48:37.042Z</time></trkpt><trkpt lat="44.850515" lon="9.56961"><ele>507.0</ele><time>2026-04-26T15:48:38.043Z</time></trkpt><trkpt lat="44.8504767" lon="9.5697183"><ele>507.0</ele><time>2026-04-26T15:48:39.044Z</time></trkpt><trkpt lat="44.85044" lon="9.5698283"><ele>507.0</ele><time>2026-04-26T15:48:40.043Z</time></trkpt><trkpt lat="44.8504033" lon="9.5699333"><ele>507.0</ele><time>2026-04-26T15:48:41.044Z</time></trkpt><trkpt lat="44.8503733" lon="9.5700267"><ele>509.8</ele><time>2026-04-26T15:48:42.043Z</time></trkpt><trkpt lat="44.8503333" lon="9.5701683"><ele>512.6</ele><time>2026-04-26T15:48:44.041Z</time></trkpt><trkpt lat="44.8503083" lon="9.5702733"><ele>515.4000000000001</ele><time>2026-04-26T15:48:46.042Z</time></trkpt><trkpt lat="44.8503283" lon="9.5703933"><ele>518.2</ele><time>2026-04-26T15:48:48.043Z</time></trkpt><trkpt lat="44.8504317" lon="9.5705183"><ele>521.0</ele><time>2026-04-26T15:48:50.044Z</time></trkpt><trkpt lat="44.8504917" lon="9.5705733"><ele>522.5</ele><time>2026-04-26T15:48:51.043Z</time></trkpt><trkpt lat="44.85055" lon="9.570615"><ele>524.0</ele><time>2026-04-26T15:48:52.044Z</time></trkpt><trkpt lat="44.850615" lon="9.5706467"><ele>525.5</ele><time>2026-04-26T15:48:53.045Z</time></trkpt><trkpt lat="44.8506833" lon="9.5706767"><ele>527.0</ele><time>2026-04-26T15:48:54.042Z</time></trkpt><trkpt lat="44.8507817" lon="9.5707667"><ele>528.5</ele><time>2026-04-26T15:48:56.041Z</time></trkpt><trkpt lat="44.8508383" lon="9.5709"><ele>530.0</ele><time>2026-04-26T15:48:58.042Z</time></trkpt><trkpt lat="44.8508567" lon="9.5709933"><ele>530.0</ele><time>2026-04-26T15:48:59.042Z</time></trkpt><trkpt lat="44.8508617" lon="9.5711083"><ele>530.0</ele><time>2026-04-26T15:49:00.043Z</time></trkpt><trkpt lat="44.8508483" lon="9.5712317"><ele>530.0</ele><time>2026-04-26T15:49:01.042Z</time></trkpt><trkpt lat="44.85083" lon="9.5713433"><ele>530.0</ele><time>2026-04-26T15:49:02.041Z</time></trkpt><trkpt lat="44.850805" lon="9.5714433"><ele>530.0</ele><time>2026-04-26T15:49:03.043Z</time></trkpt><trkpt lat="44.8507617" lon="9.57152"><ele>530.0</ele><time>2026-04-26T15:49:04.041Z</time></trkpt><trkpt lat="44.850675" lon="9.5716367"><ele>532.0</ele><time>2026-04-26T15:49:06.042Z</time></trkpt><trkpt lat="44.8505983" lon="9.5717833"><ele>534.0</ele><time>2026-04-26T15:49:08.043Z</time></trkpt><trkpt lat="44.8505517" lon="9.5718633"><ele>536.0</ele><time>2026-04-26T15:49:09.043Z</time></trkpt><trkpt lat="44.85051" lon="9.5719483"><ele>538.0</ele><time>2026-04-26T15:49:10.042Z</time></trkpt><trkpt lat="44.8504817" lon="9.5720333"><ele>540.0</ele><time>2026-04-26T15:49:11.042Z</time></trkpt><trkpt lat="44.850475" lon="9.5721383"><ele>542.0</ele><time>2026-04-26T15:49:12.041Z</time></trkpt><trkpt lat="44.8504933" lon="9.572245"><ele>543.5</ele><time>2026-04-26T15:49:13.041Z</time></trkpt><trkpt lat="44.8505183" lon="9.57236"><ele>545.0</ele><time>2026-04-26T15:49:14.041Z</time></trkpt><trkpt lat="44.85055" lon="9.5724733"><ele>546.5</ele><time>2026-04-26T15:49:15.042Z</time></trkpt><trkpt lat="44.8505817" lon="9.57257"><ele>548.0</ele><time>2026-04-26T15:49:16.041Z</time></trkpt><trkpt lat="44.850665" lon="9.5726883"><ele>549.5</ele><time>2026-04-26T15:49:18.042Z</time></trkpt><trkpt lat="44.850735" lon="9.572715"><ele>551.0</ele><time>2026-04-26T15:49:19.042Z</time></trkpt><trkpt lat="44.8508117" lon="9.5727367"><ele>551.0</ele><time>2026-04-26T15:49:20.042Z</time></trkpt><trkpt lat="44.85088" lon="9.5727733"><ele>551.0</ele><time>2026-04-26T15:49:21.042Z</time></trkpt><trkpt lat="44.8509367" lon="9.5728333"><ele>551.0</ele><time>2026-04-26T15:49:22.043Z</time></trkpt><trkpt lat="44.8510067" lon="9.5729533"><ele>551.0</ele><time>2026-04-26T15:49:24.042Z</time></trkpt><trkpt lat="44.8510183" lon="9.5731"><ele>551.0</ele><time>2026-04-26T15:49:26.041Z</time></trkpt><trkpt lat="44.8509833" lon="9.5732667"><ele>551.1666666666666</ele><time>2026-04-26T15:49:28.042Z</time></trkpt><trkpt lat="44.850955" lon="9.5733683"><ele>551.3333333333333</ele><time>2026-04-26T15:49:29.042Z</time></trkpt><trkpt lat="44.85092" lon="9.5734683"><ele>551.5</ele><time>2026-04-26T15:49:30.043Z</time></trkpt><trkpt lat="44.8508883" lon="9.5735717"><ele>551.6666666666666</ele><time>2026-04-26T15:49:31.044Z</time></trkpt><trkpt lat="44.8508517" lon="9.5736633"><ele>551.8333333333334</ele><time>2026-04-26T15:49:32.043Z</time></trkpt><trkpt lat="44.8508217" lon="9.5737483"><ele>552.0</ele><time>2026-04-26T15:49:33.043Z</time></trkpt><trkpt lat="44.8507767" lon="9.5739117"><ele>553.0</ele><time>2026-04-26T15:49:35.043Z</time></trkpt><trkpt lat="44.8507017" lon="9.574055"><ele>554.0</ele><time>2026-04-26T15:49:37.042Z</time></trkpt><trkpt lat="44.8506533" lon="9.5741233"><ele>555.0</ele><time>2026-04-26T15:49:38.043Z</time></trkpt><trkpt lat="44.85059" lon="9.57425"><ele>556.0</ele><time>2026-04-26T15:49:40.041Z</time></trkpt><trkpt lat="44.8505833" lon="9.574405"><ele>557.0</ele><time>2026-04-26T15:49:42.042Z</time></trkpt><trkpt lat="44.8505933" lon="9.57452"><ele>558.6666666666666</ele><time>2026-04-26T15:49:43.042Z</time></trkpt><trkpt lat="44.8506" lon="9.5746433"><ele>560.3333333333333</ele><time>2026-04-26T15:49:44.044Z</time></trkpt><trkpt lat="44.8506017" lon="9.5747617"><ele>562.0</ele><time>2026-04-26T15:49:45.042Z</time></trkpt><trkpt lat="44.8506" lon="9.5748683"><ele>563.6666666666666</ele><time>2026-04-26T15:49:46.042Z</time></trkpt><trkpt lat="44.8505983" lon="9.5749717"><ele>565.3333333333334</ele><time>2026-04-26T15:49:47.041Z</time></trkpt><trkpt lat="44.8506" lon="9.5750783"><ele>567.0</ele><time>2026-04-26T15:49:48.041Z</time></trkpt><trkpt lat="44.8506033" lon="9.5751817"><ele>567.0</ele><time>2026-04-26T15:49:49.042Z</time></trkpt><trkpt lat="44.85061" lon="9.5752817"><ele>567.0</ele><time>2026-04-26T15:49:50.043Z</time></trkpt><trkpt lat="44.8506267" lon="9.5753817"><ele>567.0</ele><time>2026-04-26T15:49:51.042Z</time></trkpt><trkpt lat="44.8506483" lon="9.5754833"><ele>567.0</ele><time>2026-04-26T15:49:52.042Z</time></trkpt><trkpt lat="44.8506717" lon="9.5755983"><ele>567.0</ele><time>2026-04-26T15:49:53.042Z</time></trkpt><trkpt lat="44.850685" lon="9.5756983"><ele>567.0</ele><time>2026-04-26T15:49:54.042Z</time></trkpt><trkpt lat="44.850695" lon="9.5758067"><ele>568.4285714285714</ele><time>2026-04-26T15:49:55.042Z</time></trkpt><trkpt lat="44.8507117" lon="9.5759067"><ele>569.8571428571429</ele><time>2026-04-26T15:49:56.043Z</time></trkpt><trkpt lat="44.850725" lon="9.5759983"><ele>571.2857142857142</ele><time>2026-04-26T15:49:57.042Z</time></trkpt><trkpt lat="44.8507433" lon="9.5760833"><ele>572.7142857142858</ele><time>2026-04-26T15:49:58.043Z</time></trkpt><trkpt lat="44.850785" lon="9.57617"><ele>574.1428571428571</ele><time>2026-04-26T15:49:59.042Z</time></trkpt><trkpt lat="44.8508267" lon="9.57626"><ele>575.5714285714286</ele><time>2026-04-26T15:50:00.042Z</time></trkpt><trkpt lat="44.8508717" lon="9.5763533"><ele>577.0</ele><time>2026-04-26T15:50:01.041Z</time></trkpt><trkpt lat="44.8509183" lon="9.576455"><ele>580.3333333333334</ele><time>2026-04-26T15:50:02.043Z</time></trkpt><trkpt lat="44.85097" lon="9.57656"><ele>583.6666666666667</ele><time>2026-04-26T15:50:03.042Z</time></trkpt><trkpt lat="44.8510217" lon="9.5766617"><ele>587.0</ele><time>2026-04-26T15:50:04.041Z</time></trkpt><trkpt lat="44.851065" lon="9.5767533"><ele>590.3333333333334</ele><time>2026-04-26T15:50:05.041Z</time></trkpt><trkpt lat="44.8511017" lon="9.5768317"><ele>593.6666666666666</ele><time>2026-04-26T15:50:06.043Z</time></trkpt><trkpt lat="44.8512017" lon="9.5769083"><ele>597.0</ele><time>2026-04-26T15:50:08.041Z</time></trkpt><trkpt lat="44.8512683" lon="9.576945"><ele>597.0000000000001</ele><time>2026-04-26T15:50:09.042Z</time></trkpt><trkpt lat="44.85134" lon="9.5769717"><ele>597.0</ele><time>2026-04-26T15:50:10.043Z</time></trkpt><trkpt lat="44.8514117" lon="9.5770167"><ele>597.0</ele><time>2026-04-26T15:50:11.042Z</time></trkpt><trkpt lat="44.8514833" lon="9.57706"><ele>597.0</ele><time>2026-04-26T15:50:12.042Z</time></trkpt><trkpt lat="44.8515517" lon="9.5770883"><ele>597.0</ele><time>2026-04-26T15:50:13.043Z</time></trkpt><trkpt lat="44.851625" lon="9.5771083"><ele>597.0000000000001</ele><time>2026-04-26T15:50:14.041Z</time></trkpt><trkpt lat="44.8516967" lon="9.5771167"><ele>597.0</ele><time>2026-04-26T15:50:15.042Z</time></trkpt><trkpt lat="44.8517667" lon="9.5771167"><ele>600.8333333333334</ele><time>2026-04-26T15:50:16.041Z</time></trkpt><trkpt lat="44.8518333" lon="9.5770917"><ele>604.6666666666666</ele><time>2026-04-26T15:50:17.042Z</time></trkpt><trkpt lat="44.8518983" lon="9.5770783"><ele>608.5</ele><time>2026-04-26T15:50:18.043Z</time></trkpt><trkpt lat="44.8520017" lon="9.5770817"><ele>612.3333333333333</ele><time>2026-04-26T15:50:20.043Z</time></trkpt><trkpt lat="44.8520883" lon="9.577095"><ele>616.1666666666666</ele><time>2026-04-26T15:50:22.042Z</time></trkpt><trkpt lat="44.8521533" lon="9.5771167"><ele>620.0</ele><time>2026-04-26T15:50:24.041Z</time></trkpt><trkpt lat="44.8522217" lon="9.5771067"><ele>620.0</ele><time>2026-04-26T15:50:27.042Z</time></trkpt><trkpt lat="44.852255" lon="9.576995"><ele>620.0</ele><time>2026-04-26T15:51:06.042Z</time></trkpt><trkpt lat="44.8522317" lon="9.5771133"><ele>620.0</ele><time>2026-04-26T15:51:08.041Z</time></trkpt><trkpt lat="44.8522367" lon="9.5772617"><ele>620.0</ele><time>2026-04-26T15:51:10.042Z</time></trkpt><trkpt lat="44.8522917" lon="9.5773933"><ele>620.0</ele><time>2026-04-26T15:51:12.042Z</time></trkpt><trkpt lat="44.85234" lon="9.5775467"><ele>620.0</ele><time>2026-04-26T15:51:14.043Z</time></trkpt><trkpt lat="44.85237" lon="9.5776983"><ele>620.0</ele><time>2026-04-26T15:51:16.042Z</time></trkpt><trkpt lat="44.8523767" lon="9.5777883"><ele>620.0</ele><time>2026-04-26T15:51:17.043Z</time></trkpt><trkpt lat="44.852385" lon="9.57788"><ele>620.0</ele><time>2026-04-26T15:51:18.045Z</time></trkpt><trkpt lat="44.8523717" lon="9.57804"><ele>620.0</ele><time>2026-04-26T15:51:20.042Z</time></trkpt><trkpt lat="44.85234" lon="9.5781567"><ele>620.0</ele><time>2026-04-26T15:51:22.042Z</time></trkpt><trkpt lat="44.8523083" lon="9.578295"><ele>621.0</ele><time>2026-04-26T15:51:24.042Z</time></trkpt><trkpt lat="44.8523133" lon="9.57848"><ele>622.0</ele><time>2026-04-26T15:51:26.043Z</time></trkpt><trkpt lat="44.8523" lon="9.5785817"><ele>623.0</ele><time>2026-04-26T15:51:27.042Z</time></trkpt><trkpt lat="44.8522917" lon="9.57868"><ele>624.0</ele><time>2026-04-26T15:51:28.043Z</time></trkpt><trkpt lat="44.8523083" lon="9.57878"><ele>625.0</ele><time>2026-04-26T15:51:29.043Z</time></trkpt><trkpt lat="44.8523133" lon="9.5788767"><ele>626.0</ele><time>2026-04-26T15:51:30.042Z</time></trkpt><trkpt lat="44.8523433" lon="9.57905"><ele>626.1666666666666</ele><time>2026-04-26T15:51:32.043Z</time></trkpt><trkpt lat="44.852315" lon="9.5791333"><ele>626.3333333333333</ele><time>2026-04-26T15:51:33.042Z</time></trkpt><trkpt lat="44.85229" lon="9.57923"><ele>626.5</ele><time>2026-04-26T15:51:36.042Z</time></trkpt><trkpt lat="44.8523683" lon="9.57922"><ele>626.6666666666666</ele><time>2026-04-26T15:51:39.042Z</time></trkpt><trkpt lat="44.8524467" lon="9.579165"><ele>626.8333333333334</ele><time>2026-04-26T15:51:49.042Z</time></trkpt><trkpt lat="44.852565" lon="9.5790867"><ele>627.0</ele><time>2026-04-26T15:51:51.042Z</time></trkpt><trkpt lat="44.8526483" lon="9.5790383"><ele>628.0</ele><time>2026-04-26T15:51:52.042Z</time></trkpt><trkpt lat="44.85273" lon="9.5789967"><ele>629.0</ele><time>2026-04-26T15:51:53.042Z</time></trkpt><trkpt lat="44.8528083" lon="9.57896"><ele>630.0</ele><time>2026-04-26T15:51:54.042Z</time></trkpt><trkpt lat="44.852875" lon="9.5789083"><ele>631.0</ele><time>2026-04-26T15:51:55.043Z</time></trkpt><trkpt lat="44.8529317" lon="9.5788467"><ele>632.0</ele><time>2026-04-26T15:51:56.042Z</time></trkpt><trkpt lat="44.8529817" lon="9.5787667"><ele>633.0</ele><time>2026-04-26T15:51:57.043Z</time></trkpt><trkpt lat="44.853025" lon="9.5786817"><ele>634.0</ele><time>2026-04-26T15:51:58.043Z</time></trkpt><trkpt lat="44.85306" lon="9.578605"><ele>635.0</ele><time>2026-04-26T15:51:59.042Z</time></trkpt><trkpt lat="44.8531067" lon="9.578535"><ele>636.0</ele><time>2026-04-26T15:52:00.042Z</time></trkpt><trkpt lat="44.8531583" lon="9.5784733"><ele>637.0</ele><time>2026-04-26T15:52:01.042Z</time></trkpt><trkpt lat="44.853225" lon="9.5784233"><ele>638.0</ele><time>2026-04-26T15:52:02.042Z</time></trkpt><trkpt lat="44.853305" lon="9.5783783"><ele>639.0</ele><time>2026-04-26T15:52:03.043Z</time></trkpt><trkpt lat="44.8533883" lon="9.5783317"><ele>642.6666666666666</ele><time>2026-04-26T15:52:04.042Z</time></trkpt><trkpt lat="44.8534667" lon="9.5782833"><ele>646.3333333333334</ele><time>2026-04-26T15:52:05.041Z</time></trkpt><trkpt lat="44.85354" lon="9.5782283"><ele>650.0</ele><time>2026-04-26T15:52:06.044Z</time></trkpt><trkpt lat="44.8536133" lon="9.578175"><ele>653.6666666666667</ele><time>2026-04-26T15:52:07.042Z</time></trkpt><trkpt lat="44.8536883" lon="9.57814"><ele>657.3333333333334</ele><time>2026-04-26T15:52:08.043Z</time></trkpt><trkpt lat="44.8537617" lon="9.5781317"><ele>661.0</ele><time>2026-04-26T15:52:09.043Z</time></trkpt><trkpt lat="44.8538317" lon="9.5781433"><ele>661.0</ele><time>2026-04-26T15:52:10.043Z</time></trkpt><trkpt lat="44.85393" lon="9.578195"><ele>661.0</ele><time>2026-04-26T15:52:12.043Z</time></trkpt><trkpt lat="44.8539817" lon="9.5782817"><ele>661.0</ele><time>2026-04-26T15:52:14.042Z</time></trkpt><trkpt lat="44.8540467" lon="9.5783217"><ele>661.0</ele><time>2026-04-26T15:52:17.042Z</time></trkpt><trkpt lat="44.8541083" lon="9.57835"><ele>661.0</ele><time>2026-04-26T15:52:24.043Z</time></trkpt><trkpt lat="44.8541783" lon="9.578385"><ele>661.0</ele><time>2026-04-26T15:52:26.042Z</time></trkpt><trkpt lat="44.854255" lon="9.5783917"><ele>664.1666666666667</ele><time>2026-04-26T15:52:28.042Z</time></trkpt><trkpt lat="44.85435" lon="9.57842"><ele>667.3333333333334</ele><time>2026-04-26T15:52:31.043Z</time></trkpt><trkpt lat="44.8544383" lon="9.5784467"><ele>670.5</ele><time>2026-04-26T15:52:34.043Z</time></trkpt><trkpt lat="44.8545183" lon="9.5784817"><ele>673.6666666666666</ele><time>2026-04-26T15:52:36.042Z</time></trkpt><trkpt lat="44.8545833" lon="9.5785133"><ele>676.8333333333333</ele><time>2026-04-26T15:52:38.043Z</time></trkpt><trkpt lat="44.8546633" lon="9.5785717"><ele>680.0</ele><time>2026-04-26T15:52:41.043Z</time></trkpt><trkpt lat="44.8547267" lon="9.5786083"><ele>680.0</ele><time>2026-04-26T15:52:43.041Z</time></trkpt><trkpt lat="44.8547983" lon="9.5786467"><ele>680.0</ele><time>2026-04-26T15:52:47.042Z</time></trkpt><trkpt lat="44.85485" lon="9.5786983"><ele>680.0</ele><time>2026-04-26T15:52:49.042Z</time></trkpt><trkpt lat="44.8549317" lon="9.5787817"><ele>680.0</ele><time>2026-04-26T15:52:51.044Z</time></trkpt><trkpt lat="44.855" lon="9.578815"><ele>680.0</ele><time>2026-04-26T15:52:53.044Z</time></trkpt><trkpt lat="44.85507" lon="9.5787817"><ele>680.0</ele><time>2026-04-26T15:52:55.042Z</time></trkpt><trkpt lat="44.8551267" lon="9.5787333"><ele>679.8</ele><time>2026-04-26T15:52:57.043Z</time></trkpt><trkpt lat="44.8551817" lon="9.57868"><ele>679.6</ele><time>2026-04-26T15:53:01.042Z</time></trkpt><trkpt lat="44.8552969" lon="9.5787636"><ele>679.4000000000001</ele><time>2026-04-26T15:53:54.042Z</time></trkpt><trkpt lat="44.8553752" lon="9.5788976"><ele>679.2</ele><time>2026-04-26T15:53:56.042Z</time></trkpt><trkpt lat="44.8554202" lon="9.5789788"><ele>679.0</ele><time>2026-04-26T15:53:57.042Z</time></trkpt><trkpt lat="44.8554848" lon="9.5791156"><ele>679.0</ele><time>2026-04-26T15:53:59.042Z</time></trkpt><trkpt lat="44.8555319" lon="9.5792834"><ele>679.0</ele><time>2026-04-26T15:54:01.043Z</time></trkpt><trkpt lat="44.8555573" lon="9.5793745"><ele>679.0</ele><time>2026-04-26T15:54:02.043Z</time></trkpt><trkpt lat="44.855581" lon="9.5794598"><ele>679.0</ele><time>2026-04-26T15:54:03.042Z</time></trkpt><trkpt lat="44.8556089" lon="9.5796203"><ele>679.0</ele><time>2026-04-26T15:54:05.043Z</time></trkpt><trkpt lat="44.8556171" lon="9.5797114"><ele>679.0</ele><time>2026-04-26T15:54:06.042Z</time></trkpt><trkpt lat="44.8556285" lon="9.5798076"><ele>680.6</ele><time>2026-04-26T15:54:07.043Z</time></trkpt><trkpt lat="44.8556424" lon="9.579899"><ele>682.2</ele><time>2026-04-26T15:54:08.045Z</time></trkpt><trkpt lat="44.8556749" lon="9.5800627"><ele>683.8000000000001</ele><time>2026-04-26T15:54:10.045Z</time></trkpt><trkpt lat="44.8557407" lon="9.5802089"><ele>685.4000000000001</ele><time>2026-04-26T15:54:12.044Z</time></trkpt><trkpt lat="44.8557803" lon="9.5802824"><ele>687.0</ele><time>2026-04-26T15:54:13.042Z</time></trkpt><trkpt lat="44.8558417" lon="9.5804167"><ele>687.0</ele><time>2026-04-26T15:54:15.044Z</time></trkpt><trkpt lat="44.8559067" lon="9.5805617"><ele>687.0</ele><time>2026-04-26T15:54:17.042Z</time></trkpt><trkpt lat="44.8559483" lon="9.5806333"><ele>687.0</ele><time>2026-04-26T15:54:18.044Z</time></trkpt><trkpt lat="44.8560383" lon="9.5807567"><ele>687.0</ele><time>2026-04-26T15:54:20.043Z</time></trkpt><trkpt lat="44.8560967" lon="9.5808267"><ele>687.0</ele><time>2026-04-26T15:54:21.043Z</time></trkpt><trkpt lat="44.8561533" lon="9.580895"><ele>686.5714285714286</ele><time>2026-04-26T15:54:22.042Z</time></trkpt><trkpt lat="44.856205" lon="9.5809567"><ele>686.1428571428571</ele><time>2026-04-26T15:54:23.042Z</time></trkpt><trkpt lat="44.856255" lon="9.58102"><ele>685.7142857142857</ele><time>2026-04-26T15:54:24.043Z</time></trkpt><trkpt lat="44.8563017" lon="9.5810833"><ele>685.2857142857142</ele><time>2026-04-26T15:54:25.043Z</time></trkpt><trkpt lat="44.856345" lon="9.5811517"><ele>684.8571428571429</ele><time>2026-04-26T15:54:26.043Z</time></trkpt><trkpt lat="44.8563867" lon="9.5812317"><ele>684.4285714285713</ele><time>2026-04-26T15:54:27.044Z</time></trkpt><trkpt lat="44.8564183" lon="9.5813167"><ele>684.0</ele><time>2026-04-26T15:54:28.044Z</time></trkpt><trkpt lat="44.8564483" lon="9.5814033"><ele>685.0</ele><time>2026-04-26T15:54:29.043Z</time></trkpt><trkpt lat="44.85648" lon="9.5814867"><ele>686.0</ele><time>2026-04-26T15:54:30.044Z</time></trkpt><trkpt lat="44.8565283" lon="9.5816317"><ele>687.0</ele><time>2026-04-26T15:54:32.042Z</time></trkpt><trkpt lat="44.8565767" lon="9.5817633"><ele>688.0</ele><time>2026-04-26T15:54:34.042Z</time></trkpt><trkpt lat="44.856595" lon="9.5818817"><ele>689.0</ele><time>2026-04-26T15:54:36.042Z</time></trkpt><trkpt lat="44.856605" lon="9.5820167"><ele>689.0</ele><time>2026-04-26T15:54:38.044Z</time></trkpt><trkpt lat="44.8566267" lon="9.5821867"><ele>689.0</ele><time>2026-04-26T15:54:40.042Z</time></trkpt><trkpt lat="44.85664" lon="9.5823333"><ele>689.0</ele><time>2026-04-26T15:54:42.043Z</time></trkpt><trkpt lat="44.8566283" lon="9.5824633"><ele>689.0</ele><time>2026-04-26T15:54:44.045Z</time></trkpt><trkpt lat="44.8565983" lon="9.5825867"><ele>689.0</ele><time>2026-04-26T15:54:46.043Z</time></trkpt><trkpt lat="44.85661" lon="9.5827417"><ele>689.0</ele><time>2026-04-26T15:54:48.042Z</time></trkpt><trkpt lat="44.8566717" lon="9.5828083"><ele>689.0</ele><time>2026-04-26T15:54:50.044Z</time></trkpt><trkpt lat="44.8567467" lon="9.58277"><ele>689.0</ele><time>2026-04-26T15:54:52.043Z</time></trkpt><trkpt lat="44.85682" lon="9.58273"><ele>689.0</ele><time>2026-04-26T15:54:54.041Z</time></trkpt><trkpt lat="44.8569283" lon="9.5826767"><ele>689.0</ele><time>2026-04-26T15:54:56.042Z</time></trkpt><trkpt lat="44.8570233" lon="9.582585"><ele>685.8000000000001</ele><time>2026-04-26T15:54:58.041Z</time></trkpt><trkpt lat="44.857105" lon="9.5824717"><ele>682.6</ele><time>2026-04-26T15:55:00.041Z</time></trkpt><trkpt lat="44.8571833" lon="9.5823417"><ele>679.4</ele><time>2026-04-26T15:55:02.043Z</time></trkpt><trkpt lat="44.8572517" lon="9.582225"><ele>676.2</ele><time>2026-04-26T15:55:04.041Z</time></trkpt><trkpt lat="44.8573217" lon="9.5822083"><ele>673.0</ele><time>2026-04-26T15:55:06.042Z</time></trkpt><trkpt lat="44.8573867" lon="9.5822767"><ele>673.0</ele><time>2026-04-26T15:55:08.043Z</time></trkpt><trkpt lat="44.857445" lon="9.5823867"><ele>673.0</ele><time>2026-04-26T15:55:10.041Z</time></trkpt><trkpt lat="44.8575067" lon="9.5825017"><ele>673.0</ele><time>2026-04-26T15:55:12.041Z</time></trkpt><trkpt lat="44.8575633" lon="9.5825867"><ele>673.0</ele><time>2026-04-26T15:55:14.044Z</time></trkpt><trkpt lat="44.8576617" lon="9.5826233"><ele>673.0</ele><time>2026-04-26T15:55:16.042Z</time></trkpt><trkpt lat="44.85776" lon="9.5825967"><ele>669.4</ele><time>2026-04-26T15:55:18.041Z</time></trkpt><trkpt lat="44.8578183" lon="9.58251"><ele>665.8</ele><time>2026-04-26T15:55:20.041Z</time></trkpt><trkpt lat="44.857865" lon="9.58238"><ele>662.2</ele><time>2026-04-26T15:55:22.041Z</time></trkpt><trkpt lat="44.8578817" lon="9.582255"><ele>658.6</ele><time>2026-04-26T15:55:24.041Z</time></trkpt><trkpt lat="44.85793" lon="9.5821783"><ele>655.0</ele><time>2026-04-26T15:55:26.041Z</time></trkpt><trkpt lat="44.85803" lon="9.582105"><ele>655.0</ele><time>2026-04-26T15:55:28.042Z</time></trkpt><trkpt lat="44.8580883" lon="9.5820467"><ele>655.0</ele><time>2026-04-26T15:55:29.042Z</time></trkpt><trkpt lat="44.858155" lon="9.5819683"><ele>655.0</ele><time>2026-04-26T15:55:30.042Z</time></trkpt><trkpt lat="44.8582267" lon="9.5818917"><ele>655.0</ele><time>2026-04-26T15:55:31.041Z</time></trkpt><trkpt lat="44.8582983" lon="9.5818167"><ele>655.0</ele><time>2026-04-26T15:55:32.042Z</time></trkpt><trkpt lat="44.858365" lon="9.581755"><ele>655.0</ele><time>2026-04-26T15:55:33.042Z</time></trkpt><trkpt lat="44.8584267" lon="9.5816983"><ele>655.7142857142858</ele><time>2026-04-26T15:55:34.041Z</time></trkpt><trkpt lat="44.8584883" lon="9.5816583"><ele>656.4285714285714</ele><time>2026-04-26T15:55:35.042Z</time></trkpt><trkpt lat="44.858555" lon="9.5816283"><ele>657.1428571428571</ele><time>2026-04-26T15:55:36.041Z</time></trkpt><trkpt lat="44.8586183" lon="9.5816"><ele>657.8571428571429</ele><time>2026-04-26T15:55:37.041Z</time></trkpt><trkpt lat="44.8586783" lon="9.5815517"><ele>658.5714285714286</ele><time>2026-04-26T15:55:38.042Z</time></trkpt><trkpt lat="44.8587417" lon="9.5814867"><ele>659.2857142857143</ele><time>2026-04-26T15:55:39.042Z</time></trkpt><trkpt lat="44.8587983" lon="9.581415"><ele>660.0</ele><time>2026-04-26T15:55:40.041Z</time></trkpt><trkpt lat="44.858855" lon="9.5813367"><ele>660.0000000000001</ele><time>2026-04-26T15:55:41.042Z</time></trkpt><trkpt lat="44.85891" lon="9.58126"><ele>660.0</ele><time>2026-04-26T15:55:42.042Z</time></trkpt><trkpt lat="44.85896" lon="9.5811833"><ele>660.0</ele><time>2026-04-26T15:55:43.041Z</time></trkpt><trkpt lat="44.8590083" lon="9.581115"><ele>660.0</ele><time>2026-04-26T15:55:44.044Z</time></trkpt><trkpt lat="44.85906" lon="9.5810483"><ele>660.0</ele><time>2026-04-26T15:55:45.042Z</time></trkpt><trkpt lat="44.85911" lon="9.5809833"><ele>660.0000000000001</ele><time>2026-04-26T15:55:46.043Z</time></trkpt><trkpt lat="44.85916" lon="9.5809233"><ele>660.0</ele><time>2026-04-26T15:55:47.041Z</time></trkpt><trkpt lat="44.8592467" lon="9.5808233"><ele>658.0</ele><time>2026-04-26T15:55:49.043Z</time></trkpt><trkpt lat="44.859345" lon="9.5807983"><ele>656.0</ele><time>2026-04-26T15:55:51.041Z</time></trkpt><trkpt lat="44.85942" lon="9.580865"><ele>654.0</ele><time>2026-04-26T15:55:53.041Z</time></trkpt><trkpt lat="44.859505" lon="9.581"><ele>652.0</ele><time>2026-04-26T15:55:55.041Z</time></trkpt><trkpt lat="44.8595517" lon="9.5810883"><ele>650.0</ele><time>2026-04-26T15:55:56.043Z</time></trkpt><trkpt lat="44.8596017" lon="9.581185"><ele>650.0</ele><time>2026-04-26T15:55:57.042Z</time></trkpt><trkpt lat="44.8596483" lon="9.58127"><ele>650.0</ele><time>2026-04-26T15:55:58.043Z</time></trkpt><trkpt lat="44.8596917" lon="9.5813383"><ele>650.0</ele><time>2026-04-26T15:55:59.042Z</time></trkpt><trkpt lat="44.8597717" lon="9.5814267"><ele>650.0</ele><time>2026-04-26T15:56:01.041Z</time></trkpt><trkpt lat="44.8598867" lon="9.581475"><ele>650.0</ele><time>2026-04-26T15:56:03.043Z</time></trkpt><trkpt lat="44.8599517" lon="9.581475"><ele>650.0</ele><time>2026-04-26T15:56:04.041Z</time></trkpt><trkpt lat="44.8600167" lon="9.5814433"><ele>650.0</ele><time>2026-04-26T15:56:05.043Z</time></trkpt><trkpt lat="44.8600783" lon="9.5813933"><ele>650.0</ele><time>2026-04-26T15:56:06.041Z</time></trkpt><trkpt lat="44.860142" lon="9.5813463"><ele>650.0</ele><time>2026-04-26T15:56:07.041Z</time></trkpt><trkpt lat="44.8602095" lon="9.5813172"><ele>650.0</ele><time>2026-04-26T15:56:08.043Z</time></trkpt><trkpt lat="44.8602821" lon="9.5813008"><ele>650.0</ele><time>2026-04-26T15:56:09.043Z</time></trkpt><trkpt lat="44.8603571" lon="9.5812985"><ele>650.0</ele><time>2026-04-26T15:56:10.043Z</time></trkpt><trkpt lat="44.8604264" lon="9.5813121"><ele>650.0</ele><time>2026-04-26T15:56:11.043Z</time></trkpt><trkpt lat="44.8605135" lon="9.5813914"><ele>647.4</ele><time>2026-04-26T15:56:13.042Z</time></trkpt><trkpt lat="44.8605342" lon="9.5815313"><ele>644.8</ele><time>2026-04-26T15:56:15.041Z</time></trkpt><trkpt lat="44.8605056" lon="9.5816535"><ele>642.2</ele><time>2026-04-26T15:56:17.042Z</time></trkpt><trkpt lat="44.8605233" lon="9.581781"><ele>639.6</ele><time>2026-04-26T15:56:20.041Z</time></trkpt><trkpt lat="44.8606267" lon="9.5818963"><ele>637.0</ele><time>2026-04-26T15:56:22.041Z</time></trkpt><trkpt lat="44.8606864" lon="9.581966"><ele>636.5</ele><time>2026-04-26T15:56:23.041Z</time></trkpt><trkpt lat="44.8607474" lon="9.5820353"><ele>636.0</ele><time>2026-04-26T15:56:24.042Z</time></trkpt><trkpt lat="44.8608084" lon="9.5821055"><ele>635.5</ele><time>2026-04-26T15:56:25.041Z</time></trkpt><trkpt lat="44.8608713" lon="9.5821768"><ele>635.0</ele><time>2026-04-26T15:56:26.042Z</time></trkpt><trkpt lat="44.860929" lon="9.582249"><ele>634.5</ele><time>2026-04-26T15:56:27.042Z</time></trkpt><trkpt lat="44.8609777" lon="9.5823198"><ele>634.0</ele><time>2026-04-26T15:56:28.041Z</time></trkpt><trkpt lat="44.8610255" lon="9.5823898"><ele>634.0</ele><time>2026-04-26T15:56:29.042Z</time></trkpt><trkpt lat="44.8610723" lon="9.5824616"><ele>634.0</ele><time>2026-04-26T15:56:30.042Z</time></trkpt><trkpt lat="44.8611103" lon="9.582533"><ele>634.0</ele><time>2026-04-26T15:56:31.041Z</time></trkpt><trkpt lat="44.8611392" lon="9.5826134"><ele>634.0</ele><time>2026-04-26T15:56:32.042Z</time></trkpt><trkpt lat="44.86117" lon="9.5827061"><ele>634.0</ele><time>2026-04-26T15:56:33.043Z</time></trkpt><trkpt lat="44.8612063" lon="9.5828016"><ele>634.0</ele><time>2026-04-26T15:56:34.041Z</time></trkpt><trkpt lat="44.8612468" lon="9.5828978"><ele>634.0</ele><time>2026-04-26T15:56:35.041Z</time></trkpt><trkpt lat="44.8612879" lon="9.5829912"><ele>632.3333333333334</ele><time>2026-04-26T15:56:36.042Z</time></trkpt><trkpt lat="44.8613383" lon="9.583075"><ele>630.6666666666667</ele><time>2026-04-26T15:56:37.041Z</time></trkpt><trkpt lat="44.8613917" lon="9.5831583"><ele>629.0</ele><time>2026-04-26T15:56:38.043Z</time></trkpt><trkpt lat="44.8614533" lon="9.583235"><ele>627.3333333333334</ele><time>2026-04-26T15:56:39.043Z</time></trkpt><trkpt lat="44.8615217" lon="9.5833083"><ele>625.6666666666666</ele><time>2026-04-26T15:56:40.041Z</time></trkpt><trkpt lat="44.8615867" lon="9.5833783"><ele>624.0</ele><time>2026-04-26T15:56:41.041Z</time></trkpt><trkpt lat="44.8616517" lon="9.5834417"><ele>624.0</ele><time>2026-04-26T15:56:42.042Z</time></trkpt><trkpt lat="44.8617133" lon="9.5835"><ele>624.0</ele><time>2026-04-26T15:56:43.043Z</time></trkpt><trkpt lat="44.8617733" lon="9.5835483"><ele>624.0</ele><time>2026-04-26T15:56:44.044Z</time></trkpt><trkpt lat="44.8618317" lon="9.5835883"><ele>624.0</ele><time>2026-04-26T15:56:45.044Z</time></trkpt><trkpt lat="44.8618883" lon="9.5836283"><ele>624.0</ele><time>2026-04-26T15:56:46.042Z</time></trkpt><trkpt lat="44.8619467" lon="9.5836667"><ele>624.0</ele><time>2026-04-26T15:56:47.042Z</time></trkpt><trkpt lat="44.86201" lon="9.5837033"><ele>624.0</ele><time>2026-04-26T15:56:48.043Z</time></trkpt><trkpt lat="44.8620783" lon="9.5837417"><ele>620.5</ele><time>2026-04-26T15:56:49.041Z</time></trkpt><trkpt lat="44.8621467" lon="9.583775"><ele>617.0</ele><time>2026-04-26T15:56:50.041Z</time></trkpt><trkpt lat="44.8622133" lon="9.5837983"><ele>613.5</ele><time>2026-04-26T15:56:51.043Z</time></trkpt><trkpt lat="44.8623083" lon="9.58385"><ele>610.0</ele><time>2026-04-26T15:56:53.041Z</time></trkpt><trkpt lat="44.8623817" lon="9.5839567"><ele>606.5</ele><time>2026-04-26T15:56:55.041Z</time></trkpt><trkpt lat="44.8624367" lon="9.5840767"><ele>603.0</ele><time>2026-04-26T15:56:57.042Z</time></trkpt><trkpt lat="44.862505" lon="9.5841133"><ele>603.0</ele><time>2026-04-26T15:56:59.041Z</time></trkpt><trkpt lat="44.86257" lon="9.58412"><ele>603.0</ele><time>2026-04-26T15:57:01.041Z</time></trkpt><trkpt lat="44.8626283" lon="9.584195"><ele>603.0</ele><time>2026-04-26T15:57:04.041Z</time></trkpt><trkpt lat="44.8626317" lon="9.584315"><ele>603.0</ele><time>2026-04-26T15:57:07.042Z</time></trkpt><trkpt lat="44.862585" lon="9.5844033"><ele>603.0</ele><time>2026-04-26T15:57:09.044Z</time></trkpt><trkpt lat="44.86251" lon="9.5844733"><ele>603.0</ele><time>2026-04-26T15:57:11.043Z</time></trkpt><trkpt lat="44.8624317" lon="9.5845383"><ele>600.5</ele><time>2026-04-26T15:57:13.043Z</time></trkpt><trkpt lat="44.8623583" lon="9.584615"><ele>598.0</ele><time>2026-04-26T15:57:15.044Z</time></trkpt><trkpt lat="44.8622772" lon="9.584693"><ele>595.5</ele><time>2026-04-26T15:57:17.041Z</time></trkpt><trkpt lat="44.8622069" lon="9.5847437"><ele>593.0</ele><time>2026-04-26T15:57:19.041Z</time></trkpt><trkpt lat="44.8621466" lon="9.5847834"><ele>590.5</ele><time>2026-04-26T15:57:22.041Z</time></trkpt><trkpt lat="44.8621256" lon="9.5849421"><ele>588.0</ele><time>2026-04-26T15:57:27.041Z</time></trkpt><trkpt lat="44.8621855" lon="9.5850418"><ele>588.0</ele><time>2026-04-26T15:57:29.041Z</time></trkpt><trkpt lat="44.8622596" lon="9.5851485"><ele>588.0</ele><time>2026-04-26T15:57:31.041Z</time></trkpt><trkpt lat="44.8623049" lon="9.5853029"><ele>588.0</ele><time>2026-04-26T15:57:33.042Z</time></trkpt><trkpt lat="44.8623148" lon="9.585405"><ele>588.0</ele><time>2026-04-26T15:57:34.041Z</time></trkpt><trkpt lat="44.8623097" lon="9.585517"><ele>588.0</ele><time>2026-04-26T15:57:35.042Z</time></trkpt><trkpt lat="44.8622867" lon="9.5856372"><ele>586.3333333333334</ele><time>2026-04-26T15:57:36.042Z</time></trkpt><trkpt lat="44.8622551" lon="9.5857659"><ele>584.6666666666666</ele><time>2026-04-26T15:57:37.042Z</time></trkpt><trkpt lat="44.8622231" lon="9.5858906"><ele>583.0</ele><time>2026-04-26T15:57:38.042Z</time></trkpt><trkpt lat="44.8621897" lon="9.5860048"><ele>581.3333333333333</ele><time>2026-04-26T15:57:39.042Z</time></trkpt><trkpt lat="44.8621528" lon="9.5861085"><ele>579.6666666666666</ele><time>2026-04-26T15:57:40.041Z</time></trkpt><trkpt lat="44.8621139" lon="9.5862067"><ele>578.0</ele><time>2026-04-26T15:57:41.043Z</time></trkpt><trkpt lat="44.8620794" lon="9.5862942"><ele>576.1999999999999</ele><time>2026-04-26T15:57:42.042Z</time></trkpt><trkpt lat="44.8620375" lon="9.5864325"><ele>574.4</ele><time>2026-04-26T15:57:44.041Z</time></trkpt><trkpt lat="44.8620557" lon="9.5865379"><ele>572.5999999999999</ele><time>2026-04-26T15:57:46.041Z</time></trkpt><trkpt lat="44.8621552" lon="9.5866379"><ele>570.8</ele><time>2026-04-26T15:57:48.043Z</time></trkpt><trkpt lat="44.8622379" lon="9.5866984"><ele>569.0</ele><time>2026-04-26T15:57:49.041Z</time></trkpt><trkpt lat="44.8623385" lon="9.5867724"><ele>569.0</ele><time>2026-04-26T15:57:50.042Z</time></trkpt><trkpt lat="44.862445" lon="9.5868543"><ele>569.0</ele><time>2026-04-26T15:57:51.042Z</time></trkpt><trkpt lat="44.8625578" lon="9.5869355"><ele>569.0</ele><time>2026-04-26T15:57:52.041Z</time></trkpt><trkpt lat="44.8626826" lon="9.5870098"><ele>569.0</ele><time>2026-04-26T15:57:53.041Z</time></trkpt><trkpt lat="44.8628092" lon="9.5870788"><ele>569.0</ele><time>2026-04-26T15:57:54.043Z</time></trkpt><trkpt lat="44.8629265" lon="9.5871537"><ele>569.0</ele><time>2026-04-26T15:57:55.043Z</time></trkpt><trkpt lat="44.8630317" lon="9.5872489"><ele>569.0</ele><time>2026-04-26T15:57:56.044Z</time></trkpt><trkpt lat="44.8631277" lon="9.5873672"><ele>569.0</ele><time>2026-04-26T15:57:57.044Z</time></trkpt><trkpt lat="44.8632189" lon="9.5875047"><ele>569.0</ele><time>2026-04-26T15:57:58.044Z</time></trkpt><trkpt lat="44.8633041" lon="9.5876468"><ele>569.0</ele><time>2026-04-26T15:57:59.042Z</time></trkpt><trkpt lat="44.8633784" lon="9.5877892"><ele>569.0</ele><time>2026-04-26T15:58:00.042Z</time></trkpt><trkpt lat="44.8634502" lon="9.5879303"><ele>569.0</ele><time>2026-04-26T15:58:01.042Z</time></trkpt><trkpt lat="44.8635227" lon="9.5880712"><ele>567.5</ele><time>2026-04-26T15:58:02.042Z</time></trkpt><trkpt lat="44.8635954" lon="9.5882159"><ele>566.0</ele><time>2026-04-26T15:58:03.043Z</time></trkpt><trkpt lat="44.8636686" lon="9.5883712"><ele>564.5</ele><time>2026-04-26T15:58:04.043Z</time></trkpt><trkpt lat="44.8637433" lon="9.5885367"><ele>563.0</ele><time>2026-04-26T15:58:05.043Z</time></trkpt><trkpt lat="44.86381" lon="9.5887"><ele>563.0</ele><time>2026-04-26T15:58:06.043Z</time></trkpt><trkpt lat="44.8638717" lon="9.58886"><ele>563.0</ele><time>2026-04-26T15:58:07.044Z</time></trkpt><trkpt lat="44.863935" lon="9.5890117"><ele>563.0</ele><time>2026-04-26T15:58:08.044Z</time></trkpt><trkpt lat="44.864015" lon="9.58916"><ele>563.0</ele><time>2026-04-26T15:58:09.043Z</time></trkpt><trkpt lat="44.864125" lon="9.5893033"><ele>563.0</ele><time>2026-04-26T15:58:10.042Z</time></trkpt><trkpt lat="44.86424" lon="9.589455"><ele>563.0</ele><time>2026-04-26T15:58:11.043Z</time></trkpt><trkpt lat="44.8643517" lon="9.5896033"><ele>563.0</ele><time>2026-04-26T15:58:12.042Z</time></trkpt><trkpt lat="44.8644467" lon="9.5897533"><ele>559.75</ele><time>2026-04-26T15:58:13.042Z</time></trkpt><trkpt lat="44.864535" lon="9.5899033"><ele>556.5</ele><time>2026-04-26T15:58:14.044Z</time></trkpt><trkpt lat="44.8646167" lon="9.59005"><ele>553.25</ele><time>2026-04-26T15:58:15.043Z</time></trkpt><trkpt lat="44.86469" lon="9.59019"><ele>550.0</ele><time>2026-04-26T15:58:16.041Z</time></trkpt><trkpt lat="44.864755" lon="9.5903333"><ele>551.25</ele><time>2026-04-26T15:58:17.043Z</time></trkpt><trkpt lat="44.8648033" lon="9.5904833"><ele>552.5</ele><time>2026-04-26T15:58:18.041Z</time></trkpt><trkpt lat="44.8648333" lon="9.59065"><ele>553.75</ele><time>2026-04-26T15:58:19.041Z</time></trkpt><trkpt lat="44.8648467" lon="9.590835"><ele>555.0</ele><time>2026-04-26T15:58:20.042Z</time></trkpt><trkpt lat="44.864855" lon="9.5910233"><ele>554.25</ele><time>2026-04-26T15:58:21.042Z</time></trkpt><trkpt lat="44.8648567" lon="9.5912083"><ele>553.5</ele><time>2026-04-26T15:58:22.041Z</time></trkpt><trkpt lat="44.8648467" lon="9.5913833"><ele>552.75</ele><time>2026-04-26T15:58:23.042Z</time></trkpt><trkpt lat="44.8648283" lon="9.5915517"><ele>552.0</ele><time>2026-04-26T15:58:24.041Z</time></trkpt><trkpt lat="44.8648117" lon="9.591725"><ele>552.0</ele><time>2026-04-26T15:58:25.042Z</time></trkpt><trkpt lat="44.864805" lon="9.59192"><ele>552.0</ele><time>2026-04-26T15:58:26.042Z</time></trkpt><trkpt lat="44.8648067" lon="9.592115"><ele>552.0</ele><time>2026-04-26T15:58:27.042Z</time></trkpt><trkpt lat="44.8648083" lon="9.5922983"><ele>552.0</ele><time>2026-04-26T15:58:28.043Z</time></trkpt><trkpt lat="44.864815" lon="9.5924533"><ele>551.1666666666666</ele><time>2026-04-26T15:58:29.042Z</time></trkpt><trkpt lat="44.8648283" lon="9.5925783"><ele>550.3333333333334</ele><time>2026-04-26T15:58:30.042Z</time></trkpt><trkpt lat="44.8648517" lon="9.5926767"><ele>549.5</ele><time>2026-04-26T15:58:31.042Z</time></trkpt><trkpt lat="44.864935" lon="9.5927883"><ele>548.6666666666667</ele><time>2026-04-26T15:58:33.042Z</time></trkpt><trkpt lat="44.8650017" lon="9.5927717"><ele>547.8333333333334</ele><time>2026-04-26T15:58:34.043Z</time></trkpt><trkpt lat="44.8650617" lon="9.5927017"><ele>547.0</ele><time>2026-04-26T15:58:35.044Z</time></trkpt><trkpt lat="44.8651167" lon="9.59261"><ele>542.2</ele><time>2026-04-26T15:58:36.042Z</time></trkpt><trkpt lat="44.8651683" lon="9.5925033"><ele>537.4000000000001</ele><time>2026-04-26T15:58:37.042Z</time></trkpt><trkpt lat="44.865215" lon="9.5923833"><ele>532.5999999999999</ele><time>2026-04-26T15:58:38.042Z</time></trkpt><trkpt lat="44.86526" lon="9.5922533"><ele>527.8</ele><time>2026-04-26T15:58:39.042Z</time></trkpt><trkpt lat="44.8653" lon="9.5921133"><ele>523.0</ele><time>2026-04-26T15:58:40.041Z</time></trkpt><trkpt lat="44.8653283" lon="9.5919617"><ele>523.0</ele><time>2026-04-26T15:58:41.042Z</time></trkpt><trkpt lat="44.8653433" lon="9.5917983"><ele>523.0</ele><time>2026-04-26T15:58:42.042Z</time></trkpt><trkpt lat="44.8653517" lon="9.5916267"><ele>523.0</ele><time>2026-04-26T15:58:43.041Z</time></trkpt><trkpt lat="44.8653583" lon="9.5914583"><ele>523.0</ele><time>2026-04-26T15:58:44.042Z</time></trkpt><trkpt lat="44.8653733" lon="9.5913033"><ele>523.6</ele><time>2026-04-26T15:58:45.043Z</time></trkpt><trkpt lat="44.865405" lon="9.5911683"><ele>524.1999999999999</ele><time>2026-04-26T15:58:46.041Z</time></trkpt><trkpt lat="44.86546" lon="9.59105"><ele>524.8</ele><time>2026-04-26T15:58:47.043Z</time></trkpt><trkpt lat="44.8655283" lon="9.5909533"><ele>525.4</ele><time>2026-04-26T15:58:48.042Z</time></trkpt><trkpt lat="44.8656067" lon="9.59087"><ele>526.0</ele><time>2026-04-26T15:58:49.042Z</time></trkpt><trkpt lat="44.8656917" lon="9.5908067"><ele>526.0</ele><time>2026-04-26T15:58:50.042Z</time></trkpt><trkpt lat="44.8657783" lon="9.5907583"><ele>526.0</ele><time>2026-04-26T15:58:51.043Z</time></trkpt><trkpt lat="44.8658617" lon="9.5907233"><ele>526.0</ele><time>2026-04-26T15:58:52.042Z</time></trkpt><trkpt lat="44.865945" lon="9.590705"><ele>526.0</ele><time>2026-04-26T15:58:53.043Z</time></trkpt><trkpt lat="44.8660267" lon="9.59071"><ele>526.0</ele><time>2026-04-26T15:58:54.042Z</time></trkpt><trkpt lat="44.8661067" lon="9.590745"><ele>526.0</ele><time>2026-04-26T15:58:55.043Z</time></trkpt><trkpt lat="44.8661817" lon="9.5908117"><ele>523.0</ele><time>2026-04-26T15:58:56.044Z</time></trkpt><trkpt lat="44.8662533" lon="9.5909033"><ele>520.0</ele><time>2026-04-26T15:58:57.043Z</time></trkpt><trkpt lat="44.8663217" lon="9.5910133"><ele>517.0</ele><time>2026-04-26T15:58:58.041Z</time></trkpt><trkpt lat="44.8663933" lon="9.5911267"><ele>514.0</ele><time>2026-04-26T15:58:59.043Z</time></trkpt><trkpt lat="44.86646" lon="9.5912417"><ele>511.0</ele><time>2026-04-26T15:59:00.042Z</time></trkpt><trkpt lat="44.8665233" lon="9.5913583"><ele>511.0</ele><time>2026-04-26T15:59:01.041Z</time></trkpt><trkpt lat="44.8665817" lon="9.5914783"><ele>511.0</ele><time>2026-04-26T15:59:02.043Z</time></trkpt><trkpt lat="44.8666333" lon="9.5916"><ele>511.0</ele><time>2026-04-26T15:59:03.042Z</time></trkpt><trkpt lat="44.8666783" lon="9.5917233"><ele>511.0</ele><time>2026-04-26T15:59:04.042Z</time></trkpt><trkpt lat="44.8667233" lon="9.59184"><ele>511.0</ele><time>2026-04-26T15:59:05.043Z</time></trkpt><trkpt lat="44.8667767" lon="9.5919483"><ele>510.8</ele><time>2026-04-26T15:59:06.043Z</time></trkpt><trkpt lat="44.866835" lon="9.5920483"><ele>510.6</ele><time>2026-04-26T15:59:07.041Z</time></trkpt><trkpt lat="44.8668867" lon="9.5921467"><ele>510.4</ele><time>2026-04-26T15:59:08.042Z</time></trkpt><trkpt lat="44.8669233" lon="9.5922517"><ele>510.2</ele><time>2026-04-26T15:59:09.042Z</time></trkpt><trkpt lat="44.8669483" lon="9.59238"><ele>510.0</ele><time>2026-04-26T15:59:10.042Z</time></trkpt><trkpt lat="44.8669733" lon="9.5925267"><ele>510.0</ele><time>2026-04-26T15:59:11.042Z</time></trkpt><trkpt lat="44.8670033" lon="9.59268"><ele>510.0</ele><time>2026-04-26T15:59:12.042Z</time></trkpt><trkpt lat="44.8670367" lon="9.592825"><ele>510.0</ele><time>2026-04-26T15:59:13.045Z</time></trkpt><trkpt lat="44.8670733" lon="9.5929567"><ele>510.0</ele><time>2026-04-26T15:59:14.043Z</time></trkpt><trkpt lat="44.8671183" lon="9.5930783"><ele>510.0</ele><time>2026-04-26T15:59:15.042Z</time></trkpt><trkpt lat="44.86718" lon="9.5931883"><ele>510.75</ele><time>2026-04-26T15:59:16.041Z</time></trkpt><trkpt lat="44.8672667" lon="9.5932883"><ele>511.5</ele><time>2026-04-26T15:59:17.042Z</time></trkpt><trkpt lat="44.8673633" lon="9.5933733"><ele>512.25</ele><time>2026-04-26T15:59:18.043Z</time></trkpt><trkpt lat="44.8674683" lon="9.5934383"><ele>513.0</ele><time>2026-04-26T15:59:19.043Z</time></trkpt><trkpt lat="44.8675783" lon="9.5934783"><ele>511.79999999999995</ele><time>2026-04-26T15:59:20.043Z</time></trkpt><trkpt lat="44.8676833" lon="9.593505"><ele>510.59999999999997</ele><time>2026-04-26T15:59:21.043Z</time></trkpt><trkpt lat="44.8677833" lon="9.5935217"><ele>509.40000000000003</ele><time>2026-04-26T15:59:22.042Z</time></trkpt><trkpt lat="44.867875" lon="9.5935383"><ele>508.20000000000005</ele><time>2026-04-26T15:59:23.042Z</time></trkpt><trkpt lat="44.8679617" lon="9.59355"><ele>507.0</ele><time>2026-04-26T15:59:24.043Z</time></trkpt><trkpt lat="44.8680483" lon="9.5935583"><ele>507.0</ele><time>2026-04-26T15:59:25.042Z</time></trkpt><trkpt lat="44.8681283" lon="9.593565"><ele>507.0</ele><time>2026-04-26T15:59:26.042Z</time></trkpt><trkpt lat="44.8682067" lon="9.5935733"><ele>507.0</ele><time>2026-04-26T15:59:27.042Z</time></trkpt><trkpt lat="44.8682833" lon="9.593585"><ele>507.0</ele><time>2026-04-26T15:59:28.042Z</time></trkpt><trkpt lat="44.86836" lon="9.59361"><ele>507.0</ele><time>2026-04-26T15:59:29.042Z</time></trkpt><trkpt lat="44.8684317" lon="9.5936483"><ele>507.0</ele><time>2026-04-26T15:59:30.042Z</time></trkpt><trkpt lat="44.868495" lon="9.593695"><ele>506.85714285714283</ele><time>2026-04-26T15:59:31.042Z</time></trkpt><trkpt lat="44.8685517" lon="9.5937517"><ele>506.7142857142858</ele><time>2026-04-26T15:59:32.042Z</time></trkpt><trkpt lat="44.8686017" lon="9.5938183"><ele>506.5714285714286</ele><time>2026-04-26T15:59:33.042Z</time></trkpt><trkpt lat="44.8686483" lon="9.59389"><ele>506.42857142857144</ele><time>2026-04-26T15:59:34.043Z</time></trkpt><trkpt lat="44.8686967" lon="9.59397"><ele>506.28571428571433</ele><time>2026-04-26T15:59:35.042Z</time></trkpt><trkpt lat="44.8687467" lon="9.594055"><ele>506.1428571428572</ele><time>2026-04-26T15:59:36.041Z</time></trkpt><trkpt lat="44.8687983" lon="9.5941483"><ele>506.00000000000006</ele><time>2026-04-26T15:59:37.042Z</time></trkpt><trkpt lat="44.8688483" lon="9.5942467"><ele>506.0</ele><time>2026-04-26T15:59:38.042Z</time></trkpt><trkpt lat="44.8688983" lon="9.5943467"><ele>506.0</ele><time>2026-04-26T15:59:39.043Z</time></trkpt><trkpt lat="44.8689433" lon="9.5944467"><ele>506.0</ele><time>2026-04-26T15:59:40.041Z</time></trkpt><trkpt lat="44.8689917" lon="9.59455"><ele>506.0</ele><time>2026-04-26T15:59:41.041Z</time></trkpt><trkpt lat="44.8690517" lon="9.5946567"><ele>506.0</ele><time>2026-04-26T15:59:42.043Z</time></trkpt><trkpt lat="44.8691267" lon="9.5947733"><ele>506.0</ele><time>2026-04-26T15:59:43.041Z</time></trkpt><trkpt lat="44.8692082" lon="9.5948955"><ele>506.0</ele><time>2026-04-26T15:59:44.041Z</time></trkpt><trkpt lat="44.8693005" lon="9.5950191"><ele>506.0</ele><time>2026-04-26T15:59:45.043Z</time></trkpt><trkpt lat="44.8694048" lon="9.5951357"><ele>506.0</ele><time>2026-04-26T15:59:46.043Z</time></trkpt><trkpt lat="44.8695198" lon="9.5952512"><ele>508.75</ele><time>2026-04-26T15:59:47.042Z</time></trkpt><trkpt lat="44.869643" lon="9.595365"><ele>511.5</ele><time>2026-04-26T15:59:48.043Z</time></trkpt><trkpt lat="44.8697681" lon="9.5954671"><ele>514.25</ele><time>2026-04-26T15:59:49.043Z</time></trkpt><trkpt lat="44.8698863" lon="9.5955556"><ele>517.0</ele><time>2026-04-26T15:59:50.044Z</time></trkpt><trkpt lat="44.8700054" lon="9.5956256"><ele>515.6</ele><time>2026-04-26T15:59:51.042Z</time></trkpt><trkpt lat="44.8701173" lon="9.595683"><ele>514.2</ele><time>2026-04-26T15:59:52.044Z</time></trkpt><trkpt lat="44.8702211" lon="9.595726"><ele>512.8</ele><time>2026-04-26T15:59:53.043Z</time></trkpt><trkpt lat="44.8703217" lon="9.5957606"><ele>511.4</ele><time>2026-04-26T15:59:54.044Z</time></trkpt><trkpt lat="44.8704231" lon="9.5957898"><ele>510.0</ele><time>2026-04-26T15:59:55.045Z</time></trkpt><trkpt lat="44.8705346" lon="9.5958224"><ele>510.0</ele><time>2026-04-26T15:59:56.043Z</time></trkpt><trkpt lat="44.8706544" lon="9.5958712"><ele>510.0</ele><time>2026-04-26T15:59:57.044Z</time></trkpt><trkpt lat="44.8707832" lon="9.5959325"><ele>510.0</ele><time>2026-04-26T15:59:58.043Z</time></trkpt><trkpt lat="44.8709268" lon="9.5960009"><ele>510.0</ele><time>2026-04-26T15:59:59.045Z</time></trkpt><trkpt lat="44.8710744" lon="9.5960721"><ele>510.33333333333337</ele><time>2026-04-26T16:00:00.044Z</time></trkpt><trkpt lat="44.8712178" lon="9.5961447"><ele>510.6666666666667</ele><time>2026-04-26T16:00:01.044Z</time></trkpt><trkpt lat="44.8713593" lon="9.5962404"><ele>511.0</ele><time>2026-04-26T16:00:02.124Z</time></trkpt><trkpt lat="44.8714883" lon="9.5963571"><ele>511.0</ele><time>2026-04-26T16:00:03.042Z</time></trkpt><trkpt lat="44.8716277" lon="9.596499"><ele>511.0</ele><time>2026-04-26T16:00:04.042Z</time></trkpt><trkpt lat="44.8717684" lon="9.5966517"><ele>511.0</ele><time>2026-04-26T16:00:05.042Z</time></trkpt><trkpt lat="44.8719147" lon="9.5968083"><ele>507.6666666666667</ele><time>2026-04-26T16:00:06.042Z</time></trkpt><trkpt lat="44.8720591" lon="9.5969661"><ele>504.33333333333337</ele><time>2026-04-26T16:00:07.042Z</time></trkpt><trkpt lat="44.872195" lon="9.5971285"><ele>501.0</ele><time>2026-04-26T16:00:08.042Z</time></trkpt><trkpt lat="44.8723273" lon="9.597293"><ele>501.0</ele><time>2026-04-26T16:00:09.043Z</time></trkpt><trkpt lat="44.8724651" lon="9.5974587"><ele>501.0</ele><time>2026-04-26T16:00:10.042Z</time></trkpt><trkpt lat="44.8725954" lon="9.5976137"><ele>501.0</ele><time>2026-04-26T16:00:11.043Z</time></trkpt><trkpt lat="44.8727157" lon="9.5977556"><ele>501.25</ele><time>2026-04-26T16:00:12.042Z</time></trkpt><trkpt lat="44.8728379" lon="9.5978904"><ele>501.5</ele><time>2026-04-26T16:00:13.042Z</time></trkpt><trkpt lat="44.8729549" lon="9.5980263"><ele>501.75</ele><time>2026-04-26T16:00:14.042Z</time></trkpt><trkpt lat="44.8730612" lon="9.5981545"><ele>502.0</ele><time>2026-04-26T16:00:15.045Z</time></trkpt><trkpt lat="44.873157" lon="9.5982717"><ele>502.0</ele><time>2026-04-26T16:00:16.042Z</time></trkpt><trkpt lat="44.8732454" lon="9.5983749"><ele>502.00000000000006</ele><time>2026-04-26T16:00:17.041Z</time></trkpt><trkpt lat="44.8733262" lon="9.5984723"><ele>502.00000000000006</ele><time>2026-04-26T16:00:18.043Z</time></trkpt><trkpt lat="44.8734" lon="9.5985646"><ele>502.0</ele><time>2026-04-26T16:00:19.044Z</time></trkpt><trkpt lat="44.873469" lon="9.5986547"><ele>502.0</ele><time>2026-04-26T16:00:20.043Z</time></trkpt><trkpt lat="44.8735442" lon="9.5987491"><ele>501.75</ele><time>2026-04-26T16:00:21.044Z</time></trkpt><trkpt lat="44.8736271" lon="9.5988453"><ele>501.5</ele><time>2026-04-26T16:00:22.042Z</time></trkpt><trkpt lat="44.8737156" lon="9.598947"><ele>501.25</ele><time>2026-04-26T16:00:23.043Z</time></trkpt><trkpt lat="44.8738048" lon="9.5990535"><ele>501.0</ele><time>2026-04-26T16:00:24.042Z</time></trkpt><trkpt lat="44.8738994" lon="9.5991614"><ele>501.0</ele><time>2026-04-26T16:00:25.042Z</time></trkpt><trkpt lat="44.8739971" lon="9.5992722"><ele>501.0</ele><time>2026-04-26T16:00:26.043Z</time></trkpt><trkpt lat="44.8740856" lon="9.5993902"><ele>501.0</ele><time>2026-04-26T16:00:27.043Z</time></trkpt><trkpt lat="44.8741562" lon="9.5995138"><ele>501.0</ele><time>2026-04-26T16:00:28.041Z</time></trkpt><trkpt lat="44.8742135" lon="9.5996529"><ele>501.5</ele><time>2026-04-26T16:00:29.045Z</time></trkpt><trkpt lat="44.8742638" lon="9.5998071"><ele>502.0</ele><time>2026-04-26T16:00:30.042Z</time></trkpt><trkpt lat="44.874322" lon="9.5999712"><ele>502.5</ele><time>2026-04-26T16:00:31.042Z</time></trkpt><trkpt lat="44.874396" lon="9.6001344"><ele>503.0</ele><time>2026-04-26T16:00:32.041Z</time></trkpt><trkpt lat="44.8744795" lon="9.6002967"><ele>503.75</ele><time>2026-04-26T16:00:33.042Z</time></trkpt><trkpt lat="44.8745645" lon="9.600457"><ele>504.5</ele><time>2026-04-26T16:00:34.043Z</time></trkpt><trkpt lat="44.8746447" lon="9.6006094"><ele>505.25</ele><time>2026-04-26T16:00:35.043Z</time></trkpt><trkpt lat="44.8747216" lon="9.6007546"><ele>506.0</ele><time>2026-04-26T16:00:36.042Z</time></trkpt><trkpt lat="44.8747865" lon="9.6008979"><ele>506.0</ele><time>2026-04-26T16:00:37.043Z</time></trkpt><trkpt lat="44.8748414" lon="9.6010527"><ele>506.0</ele><time>2026-04-26T16:00:38.042Z</time></trkpt><trkpt lat="44.8748906" lon="9.6012363"><ele>506.0</ele><time>2026-04-26T16:00:39.044Z</time></trkpt><trkpt lat="44.8749388" lon="9.6014336"><ele>506.0</ele><time>2026-04-26T16:00:40.042Z</time></trkpt><trkpt lat="44.8749897" lon="9.6016293"><ele>502.75</ele><time>2026-04-26T16:00:41.043Z</time></trkpt><trkpt lat="44.8750386" lon="9.6018224"><ele>499.5</ele><time>2026-04-26T16:00:42.042Z</time></trkpt><trkpt lat="44.8750825" lon="9.6020134"><ele>496.25</ele><time>2026-04-26T16:00:43.043Z</time></trkpt><trkpt lat="44.8751242" lon="9.6021935"><ele>493.0</ele><time>2026-04-26T16:00:44.042Z</time></trkpt><trkpt lat="44.8751739" lon="9.6023715"><ele>489.75</ele><time>2026-04-26T16:00:45.044Z</time></trkpt><trkpt lat="44.875238" lon="9.6025484"><ele>486.5</ele><time>2026-04-26T16:00:46.041Z</time></trkpt><trkpt lat="44.8753086" lon="9.6027131"><ele>483.25</ele><time>2026-04-26T16:00:47.044Z</time></trkpt><trkpt lat="44.8753809" lon="9.6028732"><ele>480.0</ele><time>2026-04-26T16:00:48.042Z</time></trkpt><trkpt lat="44.8754516" lon="9.6030327"><ele>479.5</ele><time>2026-04-26T16:00:49.042Z</time></trkpt><trkpt lat="44.8755185" lon="9.6031871"><ele>479.0</ele><time>2026-04-26T16:00:50.042Z</time></trkpt><trkpt lat="44.8755752" lon="9.603341"><ele>478.5</ele><time>2026-04-26T16:00:51.043Z</time></trkpt><trkpt lat="44.8756167" lon="9.6034945"><ele>478.0</ele><time>2026-04-26T16:00:52.044Z</time></trkpt><trkpt lat="44.8756412" lon="9.6036451"><ele>476.79999999999995</ele><time>2026-04-26T16:00:53.044Z</time></trkpt><trkpt lat="44.8756439" lon="9.6037936"><ele>475.59999999999997</ele><time>2026-04-26T16:00:54.043Z</time></trkpt><trkpt lat="44.8756194" lon="9.6039378"><ele>474.40000000000003</ele><time>2026-04-26T16:00:55.045Z</time></trkpt><trkpt lat="44.8755739" lon="9.6040778"><ele>473.20000000000005</ele><time>2026-04-26T16:00:56.044Z</time></trkpt><trkpt lat="44.875509" lon="9.6042166"><ele>472.0</ele><time>2026-04-26T16:00:57.043Z</time></trkpt><trkpt lat="44.8754327" lon="9.6043502"><ele>471.0</ele><time>2026-04-26T16:00:58.042Z</time></trkpt><trkpt lat="44.8753669" lon="9.6044967"><ele>470.0</ele><time>2026-04-26T16:00:59.043Z</time></trkpt><trkpt lat="44.8753173" lon="9.604662"><ele>469.0</ele><time>2026-04-26T16:01:00.042Z</time></trkpt><trkpt lat="44.8752806" lon="9.6048436"><ele>468.0</ele><time>2026-04-26T16:01:01.043Z</time></trkpt><trkpt lat="44.8752553" lon="9.6050333"><ele>468.0</ele><time>2026-04-26T16:01:02.042Z</time></trkpt><trkpt lat="44.8752473" lon="9.605219"><ele>468.0</ele><time>2026-04-26T16:01:03.042Z</time></trkpt><trkpt lat="44.875256" lon="9.6053965"><ele>468.0</ele><time>2026-04-26T16:01:04.042Z</time></trkpt><trkpt lat="44.875277" lon="9.6055646"><ele>468.0</ele><time>2026-04-26T16:01:05.043Z</time></trkpt><trkpt lat="44.8753151" lon="9.6057195"><ele>470.0</ele><time>2026-04-26T16:01:06.043Z</time></trkpt><trkpt lat="44.8753804" lon="9.6058632"><ele>472.0</ele><time>2026-04-26T16:01:07.042Z</time></trkpt><trkpt lat="44.8754664" lon="9.6059952"><ele>474.0</ele><time>2026-04-26T16:01:08.044Z</time></trkpt><trkpt lat="44.8755575" lon="9.6061291"><ele>476.0</ele><time>2026-04-26T16:01:09.042Z</time></trkpt><trkpt lat="44.8756459" lon="9.6062778"><ele>478.75</ele><time>2026-04-26T16:01:10.041Z</time></trkpt><trkpt lat="44.8757311" lon="9.6064381"><ele>481.5</ele><time>2026-04-26T16:01:11.042Z</time></trkpt><trkpt lat="44.87581" lon="9.606601"><ele>484.25</ele><time>2026-04-26T16:01:12.042Z</time></trkpt><trkpt lat="44.8758854" lon="9.6067616"><ele>487.0</ele><time>2026-04-26T16:01:13.042Z</time></trkpt><trkpt lat="44.8759729" lon="9.6069134"><ele>483.5</ele><time>2026-04-26T16:01:14.042Z</time></trkpt><trkpt lat="44.8760753" lon="9.6070566"><ele>480.0</ele><time>2026-04-26T16:01:15.043Z</time></trkpt><trkpt lat="44.876181" lon="9.6071914"><ele>476.5</ele><time>2026-04-26T16:01:16.042Z</time></trkpt><trkpt lat="44.8762859" lon="9.6073142"><ele>473.0</ele><time>2026-04-26T16:01:17.042Z</time></trkpt><trkpt lat="44.8763839" lon="9.6074339"><ele>473.0</ele><time>2026-04-26T16:01:18.042Z</time></trkpt><trkpt lat="44.8764689" lon="9.6075669"><ele>473.0</ele><time>2026-04-26T16:01:19.043Z</time></trkpt><trkpt lat="44.8765452" lon="9.6077211"><ele>473.0</ele><time>2026-04-26T16:01:20.042Z</time></trkpt><trkpt lat="44.876617" lon="9.6078878"><ele>473.0</ele><time>2026-04-26T16:01:21.042Z</time></trkpt><trkpt lat="44.8766857" lon="9.6080615"><ele>473.5</ele><time>2026-04-26T16:01:22.042Z</time></trkpt><trkpt lat="44.8767521" lon="9.6082456"><ele>474.0</ele><time>2026-04-26T16:01:23.042Z</time></trkpt><trkpt lat="44.8768141" lon="9.6084281"><ele>474.5</ele><time>2026-04-26T16:01:24.044Z</time></trkpt><trkpt lat="44.8768767" lon="9.6086018"><ele>475.0</ele><time>2026-04-26T16:01:25.045Z</time></trkpt><trkpt lat="44.8769454" lon="9.6087621"><ele>472.5</ele><time>2026-04-26T16:01:26.043Z</time></trkpt><trkpt lat="44.877028" lon="9.6089035"><ele>470.0</ele><time>2026-04-26T16:01:27.043Z</time></trkpt><trkpt lat="44.8771239" lon="9.6090256"><ele>467.5</ele><time>2026-04-26T16:01:28.043Z</time></trkpt><trkpt lat="44.8772265" lon="9.6091315"><ele>465.0</ele><time>2026-04-26T16:01:29.045Z</time></trkpt><trkpt lat="44.8773276" lon="9.6092229"><ele>465.0</ele><time>2026-04-26T16:01:30.042Z</time></trkpt><trkpt lat="44.8774302" lon="9.6093013"><ele>465.0</ele><time>2026-04-26T16:01:31.042Z</time></trkpt><trkpt lat="44.8775283" lon="9.6093675"><ele>465.0</ele><time>2026-04-26T16:01:32.042Z</time></trkpt><trkpt lat="44.8776246" lon="9.609423"><ele>465.0</ele><time>2026-04-26T16:01:33.044Z</time></trkpt><trkpt lat="44.8777178" lon="9.6094711"><ele>465.0</ele><time>2026-04-26T16:01:34.042Z</time></trkpt><trkpt lat="44.877804" lon="9.6095169"><ele>463.5</ele><time>2026-04-26T16:01:35.047Z</time></trkpt><trkpt lat="44.8778826" lon="9.6095734"><ele>462.0</ele><time>2026-04-26T16:01:36.043Z</time></trkpt><trkpt lat="44.8779505" lon="9.6096476"><ele>460.5</ele><time>2026-04-26T16:01:37.043Z</time></trkpt><trkpt lat="44.8780042" lon="9.6097426"><ele>459.0</ele><time>2026-04-26T16:01:38.042Z</time></trkpt><trkpt lat="44.8780374" lon="9.6098553"><ele>457.5</ele><time>2026-04-26T16:01:39.042Z</time></trkpt><trkpt lat="44.8780505" lon="9.6099784"><ele>456.0</ele><time>2026-04-26T16:01:40.042Z</time></trkpt><trkpt lat="44.878042" lon="9.6100972"><ele>456.0</ele><time>2026-04-26T16:01:41.042Z</time></trkpt><trkpt lat="44.8780147" lon="9.6101997"><ele>456.0</ele><time>2026-04-26T16:01:42.043Z</time></trkpt><trkpt lat="44.8779723" lon="9.6102927"><ele>456.0</ele><time>2026-04-26T16:01:43.043Z</time></trkpt><trkpt lat="44.8779177" lon="9.610379"><ele>456.0</ele><time>2026-04-26T16:01:44.042Z</time></trkpt><trkpt lat="44.8778528" lon="9.6104608"><ele>456.0</ele><time>2026-04-26T16:01:45.043Z</time></trkpt><trkpt lat="44.8777808" lon="9.6105417"><ele>456.0</ele><time>2026-04-26T16:01:46.042Z</time></trkpt><trkpt lat="44.8777057" lon="9.6106249"><ele>456.4</ele><time>2026-04-26T16:01:47.042Z</time></trkpt><trkpt lat="44.8776327" lon="9.6107084"><ele>456.8</ele><time>2026-04-26T16:01:48.042Z</time></trkpt><trkpt lat="44.8775564" lon="9.6107967"><ele>457.19999999999993</ele><time>2026-04-26T16:01:49.042Z</time></trkpt><trkpt lat="44.8774744" lon="9.6108892"><ele>457.59999999999997</ele><time>2026-04-26T16:01:50.042Z</time></trkpt><trkpt lat="44.8773898" lon="9.6109895"><ele>458.0</ele><time>2026-04-26T16:01:51.042Z</time></trkpt><trkpt lat="44.8773094" lon="9.6111061"><ele>455.25</ele><time>2026-04-26T16:01:52.043Z</time></trkpt><trkpt lat="44.877233" lon="9.6112385"><ele>452.5</ele><time>2026-04-26T16:01:53.042Z</time></trkpt><trkpt lat="44.8771678" lon="9.6113868"><ele>449.75</ele><time>2026-04-26T16:01:54.043Z</time></trkpt><trkpt lat="44.8771094" lon="9.6115457"><ele>447.0</ele><time>2026-04-26T16:01:55.042Z</time></trkpt><trkpt lat="44.8770516" lon="9.6117084"><ele>447.0</ele><time>2026-04-26T16:01:56.043Z</time></trkpt><trkpt lat="44.8769913" lon="9.6118651"><ele>447.0</ele><time>2026-04-26T16:01:57.043Z</time></trkpt><trkpt lat="44.8769265" lon="9.6120104"><ele>447.0</ele><time>2026-04-26T16:01:58.042Z</time></trkpt><trkpt lat="44.8768553" lon="9.6121433"><ele>447.0</ele><time>2026-04-26T16:01:59.042Z</time></trkpt><trkpt lat="44.8767768" lon="9.6122676"><ele>445.5</ele><time>2026-04-26T16:02:00.042Z</time></trkpt><trkpt lat="44.8766889" lon="9.6123798"><ele>444.0</ele><time>2026-04-26T16:02:01.042Z</time></trkpt><trkpt lat="44.8765966" lon="9.6124857"><ele>442.5</ele><time>2026-04-26T16:02:02.043Z</time></trkpt><trkpt lat="44.876504" lon="9.6125902"><ele>441.0</ele><time>2026-04-26T16:02:03.042Z</time></trkpt><trkpt lat="44.8764153" lon="9.6126927"><ele>441.0</ele><time>2026-04-26T16:02:04.042Z</time></trkpt><trkpt lat="44.8763343" lon="9.6127948"><ele>441.0</ele><time>2026-04-26T16:02:05.042Z</time></trkpt><trkpt lat="44.8762597" lon="9.6129006"><ele>441.0</ele><time>2026-04-26T16:02:06.042Z</time></trkpt><trkpt lat="44.8761938" lon="9.6130178"><ele>441.0</ele><time>2026-04-26T16:02:07.044Z</time></trkpt><trkpt lat="44.876137" lon="9.6131521"><ele>441.0</ele><time>2026-04-26T16:02:08.042Z</time></trkpt><trkpt lat="44.8760976" lon="9.6133026"><ele>439.25</ele><time>2026-04-26T16:02:09.043Z</time></trkpt><trkpt lat="44.876075" lon="9.6134733"><ele>437.5</ele><time>2026-04-26T16:02:10.042Z</time></trkpt><trkpt lat="44.876055" lon="9.61365"><ele>435.75</ele><time>2026-04-26T16:02:11.042Z</time></trkpt><trkpt lat="44.8760367" lon="9.61383"><ele>434.0</ele><time>2026-04-26T16:02:12.043Z</time></trkpt><trkpt lat="44.87602" lon="9.614005"><ele>431.75</ele><time>2026-04-26T16:02:13.042Z</time></trkpt><trkpt lat="44.876005" lon="9.614175"><ele>429.5</ele><time>2026-04-26T16:02:14.043Z</time></trkpt><trkpt lat="44.87599" lon="9.6143383"><ele>427.25</ele><time>2026-04-26T16:02:15.043Z</time></trkpt><trkpt lat="44.8759733" lon="9.6144933"><ele>425.0</ele><time>2026-04-26T16:02:16.042Z</time></trkpt><trkpt lat="44.8759567" lon="9.6146433"><ele>425.8333333333333</ele><time>2026-04-26T16:02:17.043Z</time></trkpt><trkpt lat="44.8759383" lon="9.6147833"><ele>426.66666666666663</ele><time>2026-04-26T16:02:18.043Z</time></trkpt><trkpt lat="44.8759217" lon="9.6149183"><ele>427.5</ele><time>2026-04-26T16:02:19.042Z</time></trkpt><trkpt lat="44.875905" lon="9.615035"><ele>428.33333333333337</ele><time>2026-04-26T16:02:20.043Z</time></trkpt><trkpt lat="44.8758817" lon="9.6151233"><ele>429.1666666666667</ele><time>2026-04-26T16:02:21.043Z</time></trkpt><trkpt lat="44.875825" lon="9.6152167"><ele>430.0</ele><time>2026-04-26T16:02:23.042Z</time></trkpt><trkpt lat="44.875735" lon="9.615265"><ele>430.0</ele><time>2026-04-26T16:02:31.043Z</time></trkpt><trkpt lat="44.8756" lon="9.6152283"><ele>430.0</ele><time>2026-04-26T16:02:33.043Z</time></trkpt><trkpt lat="44.875515" lon="9.6152083"><ele>430.0</ele><time>2026-04-26T16:02:34.043Z</time></trkpt><trkpt lat="44.8754283" lon="9.6152083"><ele>430.0</ele><time>2026-04-26T16:02:35.043Z</time></trkpt><trkpt lat="44.8753417" lon="9.615235"><ele>430.0</ele><time>2026-04-26T16:02:36.043Z</time></trkpt><trkpt lat="44.875255" lon="9.6152867"><ele>429.6</ele><time>2026-04-26T16:02:37.042Z</time></trkpt><trkpt lat="44.8751683" lon="9.615355"><ele>429.2</ele><time>2026-04-26T16:02:38.043Z</time></trkpt><trkpt lat="44.87508" lon="9.6154333"><ele>428.79999999999995</ele><time>2026-04-26T16:02:39.042Z</time></trkpt><trkpt lat="44.8749933" lon="9.6155183"><ele>428.4</ele><time>2026-04-26T16:02:40.042Z</time></trkpt><trkpt lat="44.8749117" lon="9.61561"><ele>428.0</ele><time>2026-04-26T16:02:41.042Z</time></trkpt><trkpt lat="44.8748367" lon="9.6157033"><ele>428.0</ele><time>2026-04-26T16:02:42.042Z</time></trkpt><trkpt lat="44.8747733" lon="9.615795"><ele>427.99999999999994</ele><time>2026-04-26T16:02:43.043Z</time></trkpt><trkpt lat="44.87473" lon="9.6158783"><ele>427.99999999999994</ele><time>2026-04-26T16:02:44.042Z</time></trkpt><trkpt lat="44.87472" lon="9.6160417"><ele>428.0</ele><time>2026-04-26T16:02:46.043Z</time></trkpt><trkpt lat="44.874795" lon="9.6161583"><ele>428.0</ele><time>2026-04-26T16:02:48.042Z</time></trkpt><trkpt lat="44.8749067" lon="9.6161533"><ele>427.99999999999994</ele><time>2026-04-26T16:02:50.042Z</time></trkpt><trkpt lat="44.874965" lon="9.6160883"><ele>428.0</ele><time>2026-04-26T16:02:51.043Z</time></trkpt><trkpt lat="44.8750167" lon="9.6159917"><ele>428.0</ele><time>2026-04-26T16:02:52.044Z</time></trkpt><trkpt lat="44.8750667" lon="9.6158833"><ele>428.0</ele><time>2026-04-26T16:02:53.042Z</time></trkpt><trkpt lat="44.8751217" lon="9.615795"><ele>427.99999999999994</ele><time>2026-04-26T16:02:54.042Z</time></trkpt><trkpt lat="44.875185" lon="9.6157317"><ele>428.0</ele><time>2026-04-26T16:02:55.042Z</time></trkpt><trkpt lat="44.8752517" lon="9.6156967"><ele>426.59999999999997</ele><time>2026-04-26T16:02:56.043Z</time></trkpt><trkpt lat="44.875325" lon="9.6156967"><ele>425.19999999999993</ele><time>2026-04-26T16:02:57.043Z</time></trkpt><trkpt lat="44.8754" lon="9.615735"><ele>423.8</ele><time>2026-04-26T16:02:58.043Z</time></trkpt><trkpt lat="44.87547" lon="9.6158217"><ele>422.4</ele><time>2026-04-26T16:02:59.042Z</time></trkpt><trkpt lat="44.87554" lon="9.6159383"><ele>421.0</ele><time>2026-04-26T16:03:00.043Z</time></trkpt><trkpt lat="44.8756083" lon="9.6160617"><ele>418.75</ele><time>2026-04-26T16:03:01.045Z</time></trkpt><trkpt lat="44.8756633" lon="9.6161933"><ele>416.5</ele><time>2026-04-26T16:03:02.043Z</time></trkpt><trkpt lat="44.8757" lon="9.6163467"><ele>414.25</ele><time>2026-04-26T16:03:03.042Z</time></trkpt><trkpt lat="44.87572" lon="9.616515"><ele>412.0</ele><time>2026-04-26T16:03:04.042Z</time></trkpt><trkpt lat="44.8757283" lon="9.6167"><ele>412.0</ele><time>2026-04-26T16:03:05.042Z</time></trkpt><trkpt lat="44.87573" lon="9.6168833"><ele>412.0</ele><time>2026-04-26T16:03:06.042Z</time></trkpt><trkpt lat="44.8757317" lon="9.6170667"><ele>412.0</ele><time>2026-04-26T16:03:07.044Z</time></trkpt><trkpt lat="44.8757317" lon="9.6172417"><ele>412.0</ele><time>2026-04-26T16:03:08.042Z</time></trkpt><trkpt lat="44.8757317" lon="9.6174117"><ele>410.8</ele><time>2026-04-26T16:03:09.044Z</time></trkpt><trkpt lat="44.8757367" lon="9.6175667"><ele>409.6</ele><time>2026-04-26T16:03:10.043Z</time></trkpt><trkpt lat="44.8757533" lon="9.6177067"><ele>408.40000000000003</ele><time>2026-04-26T16:03:11.042Z</time></trkpt><trkpt lat="44.8757883" lon="9.617835"><ele>407.20000000000005</ele><time>2026-04-26T16:03:12.042Z</time></trkpt><trkpt lat="44.875835" lon="9.6179533"><ele>406.0</ele><time>2026-04-26T16:03:13.043Z</time></trkpt><trkpt lat="44.875885" lon="9.6180617"><ele>405.00000000000006</ele><time>2026-04-26T16:03:14.042Z</time></trkpt><trkpt lat="44.8759283" lon="9.61817"><ele>404.0</ele><time>2026-04-26T16:03:15.044Z</time></trkpt><trkpt lat="44.875955" lon="9.618275"><ele>403.0</ele><time>2026-04-26T16:03:16.042Z</time></trkpt><trkpt lat="44.875955" lon="9.6183783"><ele>402.0</ele><time>2026-04-26T16:03:17.042Z</time></trkpt><trkpt lat="44.8759267" lon="9.61846"><ele>401.00000000000006</ele><time>2026-04-26T16:03:18.042Z</time></trkpt><trkpt lat="44.8757967" lon="9.6185"><ele>400.0</ele><time>2026-04-26T16:03:20.042Z</time></trkpt><trkpt lat="44.875705" lon="9.6184483"><ele>400.0</ele><time>2026-04-26T16:03:21.043Z</time></trkpt><trkpt lat="44.8756133" lon="9.6183617"><ele>400.0</ele><time>2026-04-26T16:03:22.045Z</time></trkpt><trkpt lat="44.8755417" lon="9.6182717"><ele>400.0</ele><time>2026-04-26T16:03:23.043Z</time></trkpt><trkpt lat="44.87549" lon="9.6181717"><ele>400.0</ele><time>2026-04-26T16:03:24.042Z</time></trkpt><trkpt lat="44.8754567" lon="9.6180583"><ele>400.0</ele><time>2026-04-26T16:03:25.042Z</time></trkpt><trkpt lat="44.8754533" lon="9.6179333"><ele>401.2</ele><time>2026-04-26T16:03:26.042Z</time></trkpt><trkpt lat="44.8754583" lon="9.6177967"><ele>402.4</ele><time>2026-04-26T16:03:27.042Z</time></trkpt><trkpt lat="44.87544" lon="9.6176533"><ele>403.6</ele><time>2026-04-26T16:03:28.043Z</time></trkpt><trkpt lat="44.875395" lon="9.617515"><ele>404.8</ele><time>2026-04-26T16:03:29.043Z</time></trkpt><trkpt lat="44.875335" lon="9.6173933"><ele>406.0</ele><time>2026-04-26T16:03:30.043Z</time></trkpt><trkpt lat="44.8752617" lon="9.61729"><ele>406.00000000000006</ele><time>2026-04-26T16:03:31.042Z</time></trkpt><trkpt lat="44.8751833" lon="9.6172117"><ele>406.0</ele><time>2026-04-26T16:03:32.042Z</time></trkpt><trkpt lat="44.8751033" lon="9.6171633"><ele>406.0</ele><time>2026-04-26T16:03:33.042Z</time></trkpt><trkpt lat="44.87502" lon="9.6171467"><ele>406.0</ele><time>2026-04-26T16:03:34.043Z</time></trkpt><trkpt lat="44.874945" lon="9.61717"><ele>406.00000000000006</ele><time>2026-04-26T16:03:35.044Z</time></trkpt><trkpt lat="44.87488" lon="9.61724"><ele>406.0</ele><time>2026-04-26T16:03:36.046Z</time></trkpt><trkpt lat="44.8748583" lon="9.617375"><ele>403.25</ele><time>2026-04-26T16:03:37.042Z</time></trkpt><trkpt lat="44.8748567" lon="9.6175317"><ele>400.5</ele><time>2026-04-26T16:03:38.044Z</time></trkpt><trkpt lat="44.874885" lon="9.6177467"><ele>397.75</ele><time>2026-04-26T16:03:39.043Z</time></trkpt><trkpt lat="44.8749033" lon="9.617975"><ele>395.0</ele><time>2026-04-26T16:03:40.042Z</time></trkpt><trkpt lat="44.8749167" lon="9.6182167"><ele>392.0</ele><time>2026-04-26T16:03:41.113Z</time></trkpt><trkpt lat="44.8749267" lon="9.6184583"><ele>389.0</ele><time>2026-04-26T16:03:42.042Z</time></trkpt><trkpt lat="44.87494" lon="9.6187017"><ele>386.0</ele><time>2026-04-26T16:03:43.044Z</time></trkpt><trkpt lat="44.8749617" lon="9.6189567"><ele>384.3333333333333</ele><time>2026-04-26T16:03:44.043Z</time></trkpt><trkpt lat="44.8749883" lon="9.6192167"><ele>382.66666666666663</ele><time>2026-04-26T16:03:45.042Z</time></trkpt><trkpt lat="44.8750183" lon="9.6194667"><ele>381.0</ele><time>2026-04-26T16:03:46.042Z</time></trkpt><trkpt lat="44.8750467" lon="9.6197083"><ele>379.6666666666667</ele><time>2026-04-26T16:03:47.042Z</time></trkpt><trkpt lat="44.875075" lon="9.6199433"><ele>378.33333333333337</ele><time>2026-04-26T16:03:48.043Z</time></trkpt><trkpt lat="44.8751017" lon="9.6201733"><ele>377.0</ele><time>2026-04-26T16:03:49.042Z</time></trkpt><trkpt lat="44.87513" lon="9.6203933"><ele>377.0</ele><time>2026-04-26T16:03:50.044Z</time></trkpt><trkpt lat="44.875165" lon="9.6206117"><ele>377.0</ele><time>2026-04-26T16:03:51.044Z</time></trkpt><trkpt lat="44.8752117" lon="9.6208267"><ele>377.0</ele><time>2026-04-26T16:03:52.043Z</time></trkpt><trkpt lat="44.875265" lon="9.621035"><ele>374.0</ele><time>2026-04-26T16:03:53.042Z</time></trkpt><trkpt lat="44.875325" lon="9.6212333"><ele>371.0</ele><time>2026-04-26T16:03:54.044Z</time></trkpt><trkpt lat="44.87538" lon="9.6214167"><ele>368.0</ele><time>2026-04-26T16:03:55.042Z</time></trkpt><trkpt lat="44.87543" lon="9.6215767"><ele>365.0</ele><time>2026-04-26T16:03:56.045Z</time></trkpt><trkpt lat="44.875465" lon="9.6217267"><ele>365.0</ele><time>2026-04-26T16:03:57.043Z</time></trkpt><trkpt lat="44.8754833" lon="9.6218783"><ele>365.0</ele><time>2026-04-26T16:03:58.042Z</time></trkpt><trkpt lat="44.87548" lon="9.6220267"><ele>365.0</ele><time>2026-04-26T16:03:59.043Z</time></trkpt><trkpt lat="44.8754583" lon="9.6221567"><ele>365.0</ele><time>2026-04-26T16:04:00.042Z</time></trkpt><trkpt lat="44.8754217" lon="9.6222583"><ele>365.0</ele><time>2026-04-26T16:04:01.044Z</time></trkpt><trkpt lat="44.8753733" lon="9.6223317"><ele>363.8</ele><time>2026-04-26T16:04:02.042Z</time></trkpt><trkpt lat="44.8753117" lon="9.6223617"><ele>362.6</ele><time>2026-04-26T16:04:03.042Z</time></trkpt><trkpt lat="44.8752467" lon="9.6223267"><ele>361.4</ele><time>2026-04-26T16:04:04.042Z</time></trkpt><trkpt lat="44.8751833" lon="9.62223"><ele>360.2</ele><time>2026-04-26T16:04:05.042Z</time></trkpt><trkpt lat="44.8751183" lon="9.6220667"><ele>359.0</ele><time>2026-04-26T16:04:06.043Z</time></trkpt><trkpt lat="44.8750483" lon="9.62189"><ele>359.0</ele><time>2026-04-26T16:04:07.042Z</time></trkpt><trkpt lat="44.874975" lon="9.6217083"><ele>359.0</ele><time>2026-04-26T16:04:08.044Z</time></trkpt><trkpt lat="44.8748983" lon="9.6215167"><ele>359.0</ele><time>2026-04-26T16:04:09.046Z</time></trkpt><trkpt lat="44.8748167" lon="9.6213267"><ele>360.5</ele><time>2026-04-26T16:04:10.042Z</time></trkpt><trkpt lat="44.8747367" lon="9.6211483"><ele>362.0</ele><time>2026-04-26T16:04:11.043Z</time></trkpt><trkpt lat="44.8746583" lon="9.6209767"><ele>363.5</ele><time>2026-04-26T16:04:12.042Z</time></trkpt><trkpt lat="44.8745833" lon="9.620815"><ele>365.0</ele><time>2026-04-26T16:04:13.042Z</time></trkpt><trkpt lat="44.8745133" lon="9.62067"><ele>365.0</ele><time>2026-04-26T16:04:14.042Z</time></trkpt><trkpt lat="44.8744417" lon="9.6205533"><ele>365.0</ele><time>2026-04-26T16:04:15.043Z</time></trkpt><trkpt lat="44.8743683" lon="9.6204733"><ele>365.0</ele><time>2026-04-26T16:04:16.043Z</time></trkpt><trkpt lat="44.8742917" lon="9.6204267"><ele>365.0</ele><time>2026-04-26T16:04:17.043Z</time></trkpt><trkpt lat="44.8742117" lon="9.6204333"><ele>365.0</ele><time>2026-04-26T16:04:18.043Z</time></trkpt><trkpt lat="44.8741483" lon="9.6205017"><ele>365.0</ele><time>2026-04-26T16:04:19.042Z</time></trkpt><trkpt lat="44.8741067" lon="9.620625"><ele>362.75</ele><time>2026-04-26T16:04:20.043Z</time></trkpt><trkpt lat="44.8741117" lon="9.6207883"><ele>360.5</ele><time>2026-04-26T16:04:21.042Z</time></trkpt><trkpt lat="44.8741483" lon="9.62099"><ele>358.25</ele><time>2026-04-26T16:04:22.046Z</time></trkpt><trkpt lat="44.87419" lon="9.621215"><ele>356.0</ele><time>2026-04-26T16:04:23.045Z</time></trkpt><trkpt lat="44.874235" lon="9.62147"><ele>357.0</ele><time>2026-04-26T16:04:24.045Z</time></trkpt><trkpt lat="44.8742767" lon="9.6217283"><ele>358.0</ele><time>2026-04-26T16:04:25.043Z</time></trkpt><trkpt lat="44.8743167" lon="9.6219883"><ele>359.0</ele><time>2026-04-26T16:04:26.043Z</time></trkpt><trkpt lat="44.8743533" lon="9.6222417"><ele>356.33333333333337</ele><time>2026-04-26T16:04:27.044Z</time></trkpt><trkpt lat="44.8743867" lon="9.6224833"><ele>353.6666666666667</ele><time>2026-04-26T16:04:28.044Z</time></trkpt><trkpt lat="44.8744183" lon="9.6227117"><ele>351.0</ele><time>2026-04-26T16:04:29.043Z</time></trkpt><trkpt lat="44.8744483" lon="9.6229083"><ele>348.25</ele><time>2026-04-26T16:04:30.043Z</time></trkpt><trkpt lat="44.874485" lon="9.623075"><ele>345.5</ele><time>2026-04-26T16:04:31.044Z</time></trkpt><trkpt lat="44.87454" lon="9.6232133"><ele>342.75</ele><time>2026-04-26T16:04:32.043Z</time></trkpt><trkpt lat="44.874625" lon="9.62333"><ele>340.0</ele><time>2026-04-26T16:04:33.044Z</time></trkpt><trkpt lat="44.8747233" lon="9.62343"><ele>340.0</ele><time>2026-04-26T16:04:34.045Z</time></trkpt><trkpt lat="44.87482" lon="9.6235233"><ele>340.0</ele><time>2026-04-26T16:04:35.043Z</time></trkpt><trkpt lat="44.8748967" lon="9.62361"><ele>340.0</ele><time>2026-04-26T16:04:36.043Z</time></trkpt><trkpt lat="44.8749583" lon="9.623685"><ele>340.0</ele><time>2026-04-26T16:04:37.043Z</time></trkpt><trkpt lat="44.8750133" lon="9.6238283"><ele>340.0</ele><time>2026-04-26T16:04:39.044Z</time></trkpt><trkpt lat="44.8749933" lon="9.6240267"><ele>339.4</ele><time>2026-04-26T16:04:41.043Z</time></trkpt><trkpt lat="44.8749817" lon="9.624155"><ele>338.8</ele><time>2026-04-26T16:04:42.043Z</time></trkpt><trkpt lat="44.8749883" lon="9.6242867"><ele>338.20000000000005</ele><time>2026-04-26T16:04:43.045Z</time></trkpt><trkpt lat="44.875025" lon="9.62442"><ele>337.6</ele><time>2026-04-26T16:04:44.044Z</time></trkpt><trkpt lat="44.8750833" lon="9.6245533"><ele>337.0</ele><time>2026-04-26T16:04:45.044Z</time></trkpt><trkpt lat="44.8751617" lon="9.62469"><ele>336.25</ele><time>2026-04-26T16:04:46.044Z</time></trkpt><trkpt lat="44.8752583" lon="9.62483"><ele>335.5</ele><time>2026-04-26T16:04:47.042Z</time></trkpt><trkpt lat="44.87536" lon="9.6249717"><ele>334.75</ele><time>2026-04-26T16:04:48.042Z</time></trkpt><trkpt lat="44.8754667" lon="9.6251167"><ele>334.0</ele><time>2026-04-26T16:04:49.043Z</time></trkpt><trkpt lat="44.8755717" lon="9.6252683"><ele>338.3333333333333</ele><time>2026-04-26T16:04:50.043Z</time></trkpt><trkpt lat="44.875675" lon="9.6254267"><ele>342.6666666666667</ele><time>2026-04-26T16:04:51.043Z</time></trkpt><trkpt lat="44.87577" lon="9.6255967"><ele>347.0</ele><time>2026-04-26T16:04:52.042Z</time></trkpt><trkpt lat="44.8758583" lon="9.6257767"><ele>347.0</ele><time>2026-04-26T16:04:53.044Z</time></trkpt><trkpt lat="44.875935" lon="9.625955"><ele>347.0</ele><time>2026-04-26T16:04:54.042Z</time></trkpt><trkpt lat="44.8759983" lon="9.62613"><ele>347.0</ele><time>2026-04-26T16:04:55.042Z</time></trkpt><trkpt lat="44.8760433" lon="9.6263"><ele>347.0</ele><time>2026-04-26T16:04:56.044Z</time></trkpt><trkpt lat="44.876065" lon="9.62647"><ele>341.25</ele><time>2026-04-26T16:04:57.042Z</time></trkpt><trkpt lat="44.8760667" lon="9.626645"><ele>335.5</ele><time>2026-04-26T16:04:58.042Z</time></trkpt><trkpt lat="44.8760483" lon="9.6268267"><ele>329.75</ele><time>2026-04-26T16:04:59.042Z</time></trkpt><trkpt lat="44.87602" lon="9.6270133"><ele>324.0</ele><time>2026-04-26T16:05:00.042Z</time></trkpt><trkpt lat="44.8759933" lon="9.6271983"><ele>324.0</ele><time>2026-04-26T16:05:01.042Z</time></trkpt><trkpt lat="44.8759833" lon="9.6273767"><ele>324.0</ele><time>2026-04-26T16:05:02.043Z</time></trkpt><trkpt lat="44.87599" lon="9.6275517"><ele>324.0</ele><time>2026-04-26T16:05:03.042Z</time></trkpt><trkpt lat="44.876005" lon="9.6277283"><ele>324.0</ele><time>2026-04-26T16:05:04.042Z</time></trkpt><trkpt lat="44.8760217" lon="9.627905"><ele>326.25</ele><time>2026-04-26T16:05:05.044Z</time></trkpt><trkpt lat="44.8760383" lon="9.6280783"><ele>328.5</ele><time>2026-04-26T16:05:06.043Z</time></trkpt><trkpt lat="44.8760483" lon="9.62825"><ele>330.75</ele><time>2026-04-26T16:05:07.042Z</time></trkpt><trkpt lat="44.87605" lon="9.6284317"><ele>333.0</ele><time>2026-04-26T16:05:08.043Z</time></trkpt><trkpt lat="44.8760383" lon="9.628633"><ele>332.6666666666667</ele><time>2026-04-26T16:05:09.043Z</time></trkpt><trkpt lat="44.8760112" lon="9.6288504"><ele>332.33333333333337</ele><time>2026-04-26T16:05:10.043Z</time></trkpt><trkpt lat="44.8759696" lon="9.6290758"><ele>332.0</ele><time>2026-04-26T16:05:11.042Z</time></trkpt><trkpt lat="44.8759189" lon="9.6293042"><ele>326.33333333333337</ele><time>2026-04-26T16:05:12.042Z</time></trkpt><trkpt lat="44.8758668" lon="9.6295367"><ele>320.6666666666667</ele><time>2026-04-26T16:05:13.043Z</time></trkpt><trkpt lat="44.8758258" lon="9.6297684"><ele>315.0</ele><time>2026-04-26T16:05:14.043Z</time></trkpt><trkpt lat="44.8758022" lon="9.6300018"><ele>315.0</ele><time>2026-04-26T16:05:15.043Z</time></trkpt><trkpt lat="44.8757891" lon="9.6302295"><ele>315.0</ele><time>2026-04-26T16:05:16.042Z</time></trkpt><trkpt lat="44.8757736" lon="9.6304474"><ele>315.0</ele><time>2026-04-26T16:05:17.043Z</time></trkpt><trkpt lat="44.8757415" lon="9.63065"><ele>312.6666666666667</ele><time>2026-04-26T16:05:18.043Z</time></trkpt><trkpt lat="44.8756817" lon="9.6308424"><ele>310.33333333333337</ele><time>2026-04-26T16:05:19.042Z</time></trkpt><trkpt lat="44.8755989" lon="9.6310356"><ele>308.0</ele><time>2026-04-26T16:05:20.042Z</time></trkpt><trkpt lat="44.8755077" lon="9.6312291"><ele>305.33333333333337</ele><time>2026-04-26T16:05:21.042Z</time></trkpt><trkpt lat="44.8754166" lon="9.6314165"><ele>302.6666666666667</ele><time>2026-04-26T16:05:22.042Z</time></trkpt><trkpt lat="44.8753265" lon="9.6316014"><ele>300.0</ele><time>2026-04-26T16:05:23.043Z</time></trkpt><trkpt lat="44.8752376" lon="9.6317778"><ele>300.0</ele><time>2026-04-26T16:05:24.044Z</time></trkpt><trkpt lat="44.8751592" lon="9.6319476"><ele>300.0</ele><time>2026-04-26T16:05:25.042Z</time></trkpt><trkpt lat="44.8750946" lon="9.6321125"><ele>300.0</ele><time>2026-04-26T16:05:26.043Z</time></trkpt><trkpt lat="44.875054" lon="9.6322741"><ele>300.0</ele><time>2026-04-26T16:05:27.042Z</time></trkpt><trkpt lat="44.8750369" lon="9.6324312"><ele>300.2</ele><time>2026-04-26T16:05:28.042Z</time></trkpt><trkpt lat="44.8750365" lon="9.6325839"><ele>300.4</ele><time>2026-04-26T16:05:29.042Z</time></trkpt><trkpt lat="44.8750381" lon="9.6327338"><ele>300.6</ele><time>2026-04-26T16:05:30.044Z</time></trkpt><trkpt lat="44.8750244" lon="9.6328722"><ele>300.8</ele><time>2026-04-26T16:05:31.044Z</time></trkpt><trkpt lat="44.8749914" lon="9.6329928"><ele>301.0</ele><time>2026-04-26T16:05:32.044Z</time></trkpt><trkpt lat="44.8749549" lon="9.6330991"><ele>301.0</ele><time>2026-04-26T16:05:33.044Z</time></trkpt><trkpt lat="44.8749238" lon="9.6332018"><ele>301.0</ele><time>2026-04-26T16:05:34.043Z</time></trkpt><trkpt lat="44.8749072" lon="9.6333048"><ele>301.0</ele><time>2026-04-26T16:05:35.044Z</time></trkpt><trkpt lat="44.8749098" lon="9.6334065"><ele>301.0</ele><time>2026-04-26T16:05:36.043Z</time></trkpt><trkpt lat="44.874927" lon="9.6335066"><ele>301.0</ele><time>2026-04-26T16:05:37.044Z</time></trkpt><trkpt lat="44.8749576" lon="9.6336071"><ele>301.0</ele><time>2026-04-26T16:05:38.043Z</time></trkpt><trkpt lat="44.8749873" lon="9.6336991"><ele>301.0</ele><time>2026-04-26T16:05:39.043Z</time></trkpt><trkpt lat="44.8750337" lon="9.6338313"><ele>301.0</ele><time>2026-04-26T16:05:41.042Z</time></trkpt><trkpt lat="44.8751301" lon="9.633826"><ele>301.0</ele><time>2026-04-26T16:05:44.043Z</time></trkpt><trkpt lat="44.8752195" lon="9.6337148"><ele>301.0</ele><time>2026-04-26T16:05:46.043Z</time></trkpt><trkpt lat="44.8752754" lon="9.6336468"><ele>301.0</ele><time>2026-04-26T16:05:47.043Z</time></trkpt><trkpt lat="44.8753327" lon="9.6335873"><ele>301.0</ele><time>2026-04-26T16:05:48.042Z</time></trkpt><trkpt lat="44.8753868" lon="9.6335397"><ele>301.0</ele><time>2026-04-26T16:05:49.042Z</time></trkpt><trkpt lat="44.8754816" lon="9.6334797"><ele>301.0</ele><time>2026-04-26T16:05:51.044Z</time></trkpt><trkpt lat="44.8755636" lon="9.6335107"><ele>301.0</ele><time>2026-04-26T16:05:53.043Z</time></trkpt><trkpt lat="44.8756482" lon="9.6335785"><ele>301.0</ele><time>2026-04-26T16:05:55.042Z</time></trkpt><trkpt lat="44.8757464" lon="9.633632"><ele>301.0</ele><time>2026-04-26T16:05:57.042Z</time></trkpt><trkpt lat="44.8758373" lon="9.633639"><ele>301.0</ele><time>2026-04-26T16:05:59.043Z</time></trkpt><trkpt lat="44.8759109" lon="9.6336298"><ele>300.6</ele><time>2026-04-26T16:06:01.045Z</time></trkpt><trkpt lat="44.8760103" lon="9.6336182"><ele>300.20000000000005</ele><time>2026-04-26T16:06:03.044Z</time></trkpt><trkpt lat="44.8760775" lon="9.6336051"><ele>299.79999999999995</ele><time>2026-04-26T16:06:04.045Z</time></trkpt><trkpt lat="44.8761598" lon="9.6335891"><ele>299.4</ele><time>2026-04-26T16:06:05.045Z</time></trkpt><trkpt lat="44.8762587" lon="9.6335862"><ele>299.0</ele><time>2026-04-26T16:06:06.043Z</time></trkpt><trkpt lat="44.8763677" lon="9.633588"><ele>299.0</ele><time>2026-04-26T16:06:07.044Z</time></trkpt><trkpt lat="44.8764717" lon="9.633594"><ele>299.0</ele><time>2026-04-26T16:06:08.044Z</time></trkpt><trkpt lat="44.8765668" lon="9.6336025"><ele>299.0</ele><time>2026-04-26T16:06:09.043Z</time></trkpt><trkpt lat="44.8766564" lon="9.633613"><ele>299.0</ele><time>2026-04-26T16:06:10.042Z</time></trkpt><trkpt lat="44.8767378" lon="9.6336237"><ele>299.0</ele><time>2026-04-26T16:06:11.044Z</time></trkpt><trkpt lat="44.8768188" lon="9.6336367"><ele>298.6666666666667</ele><time>2026-04-26T16:06:12.044Z</time></trkpt><trkpt lat="44.8769003" lon="9.6336429"><ele>298.33333333333337</ele><time>2026-04-26T16:06:13.043Z</time></trkpt><trkpt lat="44.8769765" lon="9.6336324"><ele>298.0</ele><time>2026-04-26T16:06:14.045Z</time></trkpt><trkpt lat="44.8770512" lon="9.6336141"><ele>297.6666666666667</ele><time>2026-04-26T16:06:15.045Z</time></trkpt><trkpt lat="44.877127" lon="9.6336016"><ele>297.3333333333333</ele><time>2026-04-26T16:06:16.043Z</time></trkpt><trkpt lat="44.8772009" lon="9.6336051"><ele>297.0</ele><time>2026-04-26T16:06:17.043Z</time></trkpt><trkpt lat="44.8772671" lon="9.6336328"><ele>298.1666666666667</ele><time>2026-04-26T16:06:18.044Z</time></trkpt><trkpt lat="44.8773353" lon="9.6336755"><ele>299.3333333333333</ele><time>2026-04-26T16:06:19.044Z</time></trkpt><trkpt lat="44.8774076" lon="9.6337233"><ele>300.5</ele><time>2026-04-26T16:06:20.042Z</time></trkpt><trkpt lat="44.8774795" lon="9.6337735"><ele>301.66666666666663</ele><time>2026-04-26T16:06:21.044Z</time></trkpt><trkpt lat="44.8775513" lon="9.6338195"><ele>302.8333333333333</ele><time>2026-04-26T16:06:22.042Z</time></trkpt><trkpt lat="44.8776163" lon="9.6338548"><ele>304.0</ele><time>2026-04-26T16:06:23.042Z</time></trkpt><trkpt lat="44.8777271" lon="9.6338971"><ele>304.0</ele><time>2026-04-26T16:06:25.043Z</time></trkpt><trkpt lat="44.8778142" lon="9.6339182"><ele>304.0</ele><time>2026-04-26T16:06:27.043Z</time></trkpt><trkpt lat="44.877911" lon="9.6339336"><ele>304.0</ele><time>2026-04-26T16:06:29.044Z</time></trkpt><trkpt lat="44.878019" lon="9.6339675"><ele>304.0</ele><time>2026-04-26T16:06:31.044Z</time></trkpt><trkpt lat="44.8781165" lon="9.6340381"><ele>304.0</ele><time>2026-04-26T16:06:33.045Z</time></trkpt><trkpt lat="44.8782086" lon="9.6341142"><ele>304.0</ele><time>2026-04-26T16:06:35.044Z</time></trkpt><trkpt lat="44.8783237" lon="9.6341707"><ele>304.0</ele><time>2026-04-26T16:06:37.044Z</time></trkpt><trkpt lat="44.8783897" lon="9.634182"><ele>304.0</ele><time>2026-04-26T16:06:38.046Z</time></trkpt><trkpt lat="44.8784617" lon="9.6341817"><ele>304.0</ele><time>2026-04-26T16:06:39.044Z</time></trkpt><trkpt lat="44.8785433" lon="9.63417"><ele>304.0</ele><time>2026-04-26T16:06:40.042Z</time></trkpt><trkpt lat="44.87863" lon="9.6341583"><ele>304.0</ele><time>2026-04-26T16:06:41.044Z</time></trkpt><trkpt lat="44.8787183" lon="9.6341467"><ele>304.0</ele><time>2026-04-26T16:06:42.042Z</time></trkpt><trkpt lat="44.8788083" lon="9.634135"><ele>304.0</ele><time>2026-04-26T16:06:43.041Z</time></trkpt><trkpt lat="44.8789017" lon="9.63412"><ele>304.0</ele><time>2026-04-26T16:06:44.041Z</time></trkpt><trkpt lat="44.878995" lon="9.6341017"><ele>304.0</ele><time>2026-04-26T16:06:45.045Z</time></trkpt><trkpt lat="44.879085" lon="9.6340783"><ele>304.0</ele><time>2026-04-26T16:06:46.041Z</time></trkpt><trkpt lat="44.8791683" lon="9.6340533"><ele>304.0</ele><time>2026-04-26T16:06:47.041Z</time></trkpt><trkpt lat="44.8792483" lon="9.6340317"><ele>304.0</ele><time>2026-04-26T16:06:48.041Z</time></trkpt><trkpt lat="44.879325" lon="9.6340167"><ele>304.0</ele><time>2026-04-26T16:06:49.041Z</time></trkpt><trkpt lat="44.8794" lon="9.6340117"><ele>304.0</ele><time>2026-04-26T16:06:50.041Z</time></trkpt><trkpt lat="44.8794733" lon="9.6340167"><ele>304.0</ele><time>2026-04-26T16:06:51.042Z</time></trkpt><trkpt lat="44.8795467" lon="9.6340267"><ele>304.0</ele><time>2026-04-26T16:06:52.043Z</time></trkpt><trkpt lat="44.8796283" lon="9.6340367"><ele>305.16666666666663</ele><time>2026-04-26T16:06:53.042Z</time></trkpt><trkpt lat="44.8797183" lon="9.6340367"><ele>306.3333333333333</ele><time>2026-04-26T16:06:54.041Z</time></trkpt><trkpt lat="44.87981" lon="9.63403"><ele>307.5</ele><time>2026-04-26T16:06:55.041Z</time></trkpt><trkpt lat="44.8799017" lon="9.6340183"><ele>308.6666666666667</ele><time>2026-04-26T16:06:56.042Z</time></trkpt><trkpt lat="44.8799917" lon="9.6340067"><ele>309.83333333333337</ele><time>2026-04-26T16:06:57.044Z</time></trkpt><trkpt lat="44.880075" lon="9.6339983"><ele>311.0</ele><time>2026-04-26T16:06:58.041Z</time></trkpt><trkpt lat="44.8801533" lon="9.6340033"><ele>311.7142857142857</ele><time>2026-04-26T16:06:59.043Z</time></trkpt><trkpt lat="44.88023" lon="9.6340133"><ele>312.42857142857144</ele><time>2026-04-26T16:07:00.042Z</time></trkpt><trkpt lat="44.8803017" lon="9.634035"><ele>313.14285714285717</ele><time>2026-04-26T16:07:01.044Z</time></trkpt><trkpt lat="44.8803717" lon="9.6340683"><ele>313.8571428571429</ele><time>2026-04-26T16:07:02.043Z</time></trkpt><trkpt lat="44.8804367" lon="9.6341167"><ele>314.57142857142856</ele><time>2026-04-26T16:07:03.042Z</time></trkpt><trkpt lat="44.8804917" lon="9.6341833"><ele>315.28571428571433</ele><time>2026-04-26T16:07:04.041Z</time></trkpt><trkpt lat="44.8805417" lon="9.634265"><ele>316.0</ele><time>2026-04-26T16:07:05.043Z</time></trkpt><trkpt lat="44.8805817" lon="9.6343533"><ele>316.0</ele><time>2026-04-26T16:07:06.041Z</time></trkpt><trkpt lat="44.8806067" lon="9.6344617"><ele>316.0</ele><time>2026-04-26T16:07:07.043Z</time></trkpt><trkpt lat="44.8806217" lon="9.6345783"><ele>316.0</ele><time>2026-04-26T16:07:08.043Z</time></trkpt><trkpt lat="44.880635" lon="9.634685"><ele>316.0</ele><time>2026-04-26T16:07:09.043Z</time></trkpt><trkpt lat="44.88065" lon="9.63479"><ele>316.0</ele><time>2026-04-26T16:07:10.044Z</time></trkpt><trkpt lat="44.8806683" lon="9.6348983"><ele>316.0</ele><time>2026-04-26T16:07:11.042Z</time></trkpt><trkpt lat="44.8806883" lon="9.6350133"><ele>317.5</ele><time>2026-04-26T16:07:12.042Z</time></trkpt><trkpt lat="44.88071" lon="9.6351317"><ele>319.0</ele><time>2026-04-26T16:07:13.044Z</time></trkpt><trkpt lat="44.8807333" lon="9.6352567"><ele>320.5</ele><time>2026-04-26T16:07:14.042Z</time></trkpt><trkpt lat="44.8807517" lon="9.6353767"><ele>322.0</ele><time>2026-04-26T16:07:15.042Z</time></trkpt><trkpt lat="44.8807717" lon="9.6354833"><ele>323.5</ele><time>2026-04-26T16:07:16.042Z</time></trkpt><trkpt lat="44.8807917" lon="9.635585"><ele>325.0</ele><time>2026-04-26T16:07:17.041Z</time></trkpt><trkpt lat="44.88081" lon="9.63568"><ele>325.6</ele><time>2026-04-26T16:07:18.041Z</time></trkpt><trkpt lat="44.8808267" lon="9.6357717"><ele>326.2</ele><time>2026-04-26T16:07:19.041Z</time></trkpt><trkpt lat="44.880855" lon="9.6359367"><ele>326.79999999999995</ele><time>2026-04-26T16:07:21.043Z</time></trkpt><trkpt lat="44.880905" lon="9.6360817"><ele>327.4</ele><time>2026-04-26T16:07:23.041Z</time></trkpt><trkpt lat="44.8809533" lon="9.6362367"><ele>328.0</ele><time>2026-04-26T16:07:25.041Z</time></trkpt><trkpt lat="44.8809967" lon="9.6364033"><ele>326.0</ele><time>2026-04-26T16:07:27.042Z</time></trkpt><trkpt lat="44.88102" lon="9.6365783"><ele>324.0</ele><time>2026-04-26T16:07:29.043Z</time></trkpt><trkpt lat="44.8810283" lon="9.6366733"><ele>322.0</ele><time>2026-04-26T16:07:30.043Z</time></trkpt><trkpt lat="44.8810417" lon="9.636775"><ele>320.0</ele><time>2026-04-26T16:07:31.041Z</time></trkpt><trkpt lat="44.8810633" lon="9.6368717"><ele>318.0</ele><time>2026-04-26T16:07:32.042Z</time></trkpt><trkpt lat="44.8810967" lon="9.6369667"><ele>316.0</ele><time>2026-04-26T16:07:33.043Z</time></trkpt><trkpt lat="44.8811283" lon="9.63706"><ele>315.3333333333333</ele><time>2026-04-26T16:07:34.042Z</time></trkpt><trkpt lat="44.881175" lon="9.6371567"><ele>314.66666666666663</ele><time>2026-04-26T16:07:35.041Z</time></trkpt><trkpt lat="44.88123" lon="9.6372483"><ele>314.0</ele><time>2026-04-26T16:07:36.042Z</time></trkpt><trkpt lat="44.881295" lon="9.6373283"><ele>313.3333333333333</ele><time>2026-04-26T16:07:37.042Z</time></trkpt><trkpt lat="44.8813617" lon="9.6373983"><ele>312.6666666666667</ele><time>2026-04-26T16:07:38.041Z</time></trkpt><trkpt lat="44.88143" lon="9.637465"><ele>312.0</ele><time>2026-04-26T16:07:39.042Z</time></trkpt><trkpt lat="44.8815" lon="9.637525"><ele>312.0</ele><time>2026-04-26T16:07:40.041Z</time></trkpt><trkpt lat="44.8815733" lon="9.6375733"><ele>312.0</ele><time>2026-04-26T16:07:41.041Z</time></trkpt><trkpt lat="44.8816433" lon="9.637615"><ele>312.0</ele><time>2026-04-26T16:07:42.042Z</time></trkpt><trkpt lat="44.881705" lon="9.6376417"><ele>312.0</ele><time>2026-04-26T16:07:43.041Z</time></trkpt><trkpt lat="44.8817717" lon="9.637655"><ele>312.0</ele><time>2026-04-26T16:07:44.041Z</time></trkpt><trkpt lat="44.88189" lon="9.6376617"><ele>312.0</ele><time>2026-04-26T16:07:46.043Z</time></trkpt><trkpt lat="44.8819783" lon="9.637695"><ele>311.6666666666667</ele><time>2026-04-26T16:07:48.042Z</time></trkpt><trkpt lat="44.882045" lon="9.6377183"><ele>311.3333333333333</ele><time>2026-04-26T16:07:50.042Z</time></trkpt><trkpt lat="44.8821333" lon="9.6377333"><ele>311.0</ele><time>2026-04-26T16:07:53.042Z</time></trkpt><trkpt lat="44.8822283" lon="9.6377517"><ele>310.66666666666663</ele><time>2026-04-26T16:07:55.042Z</time></trkpt><trkpt lat="44.8823367" lon="9.6377667"><ele>310.3333333333333</ele><time>2026-04-26T16:07:57.042Z</time></trkpt><trkpt lat="44.8824133" lon="9.6377783"><ele>310.0</ele><time>2026-04-26T16:07:59.042Z</time></trkpt><trkpt lat="44.8824833" lon="9.6377967"><ele>310.16666666666663</ele><time>2026-04-26T16:08:01.042Z</time></trkpt><trkpt lat="44.88256" lon="9.637825"><ele>310.3333333333333</ele><time>2026-04-26T16:08:03.042Z</time></trkpt><trkpt lat="44.8826383" lon="9.6378367"><ele>310.5</ele><time>2026-04-26T16:08:05.041Z</time></trkpt><trkpt lat="44.88271" lon="9.63785"><ele>310.6666666666667</ele><time>2026-04-26T16:08:07.042Z</time></trkpt><trkpt lat="44.8827867" lon="9.6378733"><ele>310.83333333333337</ele><time>2026-04-26T16:08:09.042Z</time></trkpt><trkpt lat="44.88288" lon="9.63791"><ele>311.0</ele><time>2026-04-26T16:08:12.044Z</time></trkpt><trkpt lat="44.88296" lon="9.6379383"><ele>311.0</ele><time>2026-04-26T16:08:15.042Z</time></trkpt><trkpt lat="44.8830333" lon="9.637955"><ele>311.0</ele><time>2026-04-26T16:08:18.041Z</time></trkpt><trkpt lat="44.883105" lon="9.6379583"><ele>311.0</ele><time>2026-04-26T16:08:21.042Z</time></trkpt><trkpt lat="44.883185" lon="9.637985"><ele>311.0</ele><time>2026-04-26T16:08:23.041Z</time></trkpt><trkpt lat="44.8833017" lon="9.6380267"><ele>311.0</ele><time>2026-04-26T16:08:25.042Z</time></trkpt><trkpt lat="44.8833767" lon="9.6380433"><ele>311.0</ele><time>2026-04-26T16:08:26.041Z</time></trkpt><trkpt lat="44.883455" lon="9.6380617"><ele>311.0</ele><time>2026-04-26T16:08:27.042Z</time></trkpt><trkpt lat="44.8835433" lon="9.6380833"><ele>311.0</ele><time>2026-04-26T16:08:28.043Z</time></trkpt><trkpt lat="44.8836283" lon="9.63811"><ele>311.0</ele><time>2026-04-26T16:08:29.043Z</time></trkpt><trkpt lat="44.8837183" lon="9.6381317"><ele>311.0</ele><time>2026-04-26T16:08:30.042Z</time></trkpt><trkpt lat="44.8838067" lon="9.6381567"><ele>311.0</ele><time>2026-04-26T16:08:31.041Z</time></trkpt><trkpt lat="44.883895" lon="9.6381867"><ele>311.0</ele><time>2026-04-26T16:08:32.043Z</time></trkpt><trkpt lat="44.8839683" lon="9.6382217"><ele>311.0</ele><time>2026-04-26T16:08:33.043Z</time></trkpt><trkpt lat="44.884035" lon="9.638255"><ele>311.0</ele><time>2026-04-26T16:08:34.043Z</time></trkpt><trkpt lat="44.8841" lon="9.6382917"><ele>311.0</ele><time>2026-04-26T16:08:35.041Z</time></trkpt><trkpt lat="44.8842217" lon="9.63829"><ele>311.0</ele><time>2026-04-26T16:08:37.042Z</time></trkpt><trkpt lat="44.884275" lon="9.6382367"><ele>311.0</ele><time>2026-04-26T16:08:38.043Z</time></trkpt><trkpt lat="44.8843417" lon="9.638175"><ele>311.0</ele><time>2026-04-26T16:08:39.044Z</time></trkpt><trkpt lat="44.8844133" lon="9.63812"><ele>311.0</ele><time>2026-04-26T16:08:40.042Z</time></trkpt><trkpt lat="44.8844867" lon="9.6380633"><ele>311.0</ele><time>2026-04-26T16:08:41.041Z</time></trkpt><trkpt lat="44.8845533" lon="9.6380083"><ele>311.0</ele><time>2026-04-26T16:08:42.042Z</time></trkpt><trkpt lat="44.884625" lon="9.637945"><ele>311.0</ele><time>2026-04-26T16:08:43.045Z</time></trkpt><trkpt lat="44.8847" lon="9.6378817"><ele>311.0</ele><time>2026-04-26T16:08:44.045Z</time></trkpt><trkpt lat="44.8847717" lon="9.63783"><ele>311.0</ele><time>2026-04-26T16:08:45.043Z</time></trkpt><trkpt lat="44.8848417" lon="9.63779"><ele>310.33333333333337</ele><time>2026-04-26T16:08:46.042Z</time></trkpt><trkpt lat="44.884915" lon="9.6377667"><ele>309.6666666666667</ele><time>2026-04-26T16:08:47.041Z</time></trkpt><trkpt lat="44.8850017" lon="9.6377367"><ele>309.0</ele><time>2026-04-26T16:08:48.045Z</time></trkpt><trkpt lat="44.885085" lon="9.6377217"><ele>308.3333333333333</ele><time>2026-04-26T16:08:49.042Z</time></trkpt><trkpt lat="44.8851633" lon="9.637715"><ele>307.66666666666663</ele><time>2026-04-26T16:08:50.042Z</time></trkpt><trkpt lat="44.88524" lon="9.637695"><ele>307.0</ele><time>2026-04-26T16:08:51.042Z</time></trkpt><trkpt lat="44.885315" lon="9.637665"><ele>307.0</ele><time>2026-04-26T16:08:52.041Z</time></trkpt><trkpt lat="44.8853833" lon="9.637635"><ele>307.0</ele><time>2026-04-26T16:08:53.044Z</time></trkpt><trkpt lat="44.885495" lon="9.6375983"><ele>307.0</ele><time>2026-04-26T16:08:55.042Z</time></trkpt><trkpt lat="44.8855783" lon="9.6375767"><ele>307.0</ele><time>2026-04-26T16:08:57.043Z</time></trkpt><trkpt lat="44.8856683" lon="9.6375417"><ele>307.0</ele><time>2026-04-26T16:08:59.041Z</time></trkpt><trkpt lat="44.885735" lon="9.6375217"><ele>307.0</ele><time>2026-04-26T16:09:00.042Z</time></trkpt><trkpt lat="44.8858" lon="9.6374983"><ele>306.99999999999994</ele><time>2026-04-26T16:09:01.042Z</time></trkpt><trkpt lat="44.8858617" lon="9.6374633"><ele>307.0</ele><time>2026-04-26T16:09:02.043Z</time></trkpt><trkpt lat="44.8859217" lon="9.63741"><ele>307.0</ele><time>2026-04-26T16:09:03.043Z</time></trkpt><trkpt lat="44.8859817" lon="9.6373567"><ele>307.0</ele><time>2026-04-26T16:09:04.041Z</time></trkpt><trkpt lat="44.8860417" lon="9.6373133"><ele>307.0</ele><time>2026-04-26T16:09:05.042Z</time></trkpt><trkpt lat="44.8861017" lon="9.6372833"><ele>306.99999999999994</ele><time>2026-04-26T16:09:06.041Z</time></trkpt><trkpt lat="44.886205" lon="9.637265"><ele>307.0</ele><time>2026-04-26T16:09:08.042Z</time></trkpt><trkpt lat="44.886275" lon="9.6372533"><ele>306.66666666666663</ele><time>2026-04-26T16:09:09.043Z</time></trkpt><trkpt lat="44.8863583" lon="9.63723"><ele>306.3333333333333</ele><time>2026-04-26T16:09:10.041Z</time></trkpt><trkpt lat="44.88644" lon="9.6372117"><ele>306.0</ele><time>2026-04-26T16:09:11.041Z</time></trkpt><trkpt lat="44.8865233" lon="9.6371817"><ele>305.6666666666667</ele><time>2026-04-26T16:09:12.043Z</time></trkpt><trkpt lat="44.8866" lon="9.6371533"><ele>305.33333333333337</ele><time>2026-04-26T16:09:13.041Z</time></trkpt><trkpt lat="44.8866717" lon="9.6371283"><ele>305.0</ele><time>2026-04-26T16:09:14.041Z</time></trkpt><trkpt lat="44.8867367" lon="9.6371033"><ele>303.83333333333337</ele><time>2026-04-26T16:09:15.042Z</time></trkpt><trkpt lat="44.886805" lon="9.63708"><ele>302.6666666666667</ele><time>2026-04-26T16:09:16.041Z</time></trkpt><trkpt lat="44.8868683" lon="9.63707"><ele>301.5</ele><time>2026-04-26T16:09:17.041Z</time></trkpt><trkpt lat="44.8869383" lon="9.6370617"><ele>300.3333333333333</ele><time>2026-04-26T16:09:18.041Z</time></trkpt><trkpt lat="44.8870033" lon="9.637055"><ele>299.16666666666663</ele><time>2026-04-26T16:09:19.041Z</time></trkpt><trkpt lat="44.887095" lon="9.6370967"><ele>298.0</ele><time>2026-04-26T16:09:21.042Z</time></trkpt><trkpt lat="44.8871433" lon="9.637195"><ele>298.0</ele><time>2026-04-26T16:09:23.042Z</time></trkpt><trkpt lat="44.88723" lon="9.6372433"><ele>298.0</ele><time>2026-04-26T16:09:25.041Z</time></trkpt><trkpt lat="44.88736" lon="9.63723"><ele>298.0</ele><time>2026-04-26T16:09:27.044Z</time></trkpt><trkpt lat="44.8874383" lon="9.6372183"><ele>298.0</ele><time>2026-04-26T16:09:28.041Z</time></trkpt><trkpt lat="44.88752" lon="9.6372167"><ele>298.0</ele><time>2026-04-26T16:09:29.041Z</time></trkpt><trkpt lat="44.88761" lon="9.637215"><ele>297.0</ele><time>2026-04-26T16:09:30.043Z</time></trkpt><trkpt lat="44.8877067" lon="9.6372183"><ele>296.0</ele><time>2026-04-26T16:09:31.041Z</time></trkpt><trkpt lat="44.8878033" lon="9.6372183"><ele>295.0</ele><time>2026-04-26T16:09:32.041Z</time></trkpt><trkpt lat="44.8878967" lon="9.6372217"><ele>294.0</ele><time>2026-04-26T16:09:33.043Z</time></trkpt><trkpt lat="44.8879883" lon="9.6372233"><ele>293.0</ele><time>2026-04-26T16:09:34.041Z</time></trkpt><trkpt lat="44.8880783" lon="9.6372317"><ele>293.0</ele><time>2026-04-26T16:09:35.042Z</time></trkpt><trkpt lat="44.88816" lon="9.63724"><ele>293.0</ele><time>2026-04-26T16:09:36.042Z</time></trkpt><trkpt lat="44.8882433" lon="9.6372433"><ele>293.0</ele><time>2026-04-26T16:09:37.043Z</time></trkpt><trkpt lat="44.888325" lon="9.6372483"><ele>293.0</ele><time>2026-04-26T16:09:38.042Z</time></trkpt><trkpt lat="44.8884" lon="9.6372517"><ele>293.0</ele><time>2026-04-26T16:09:39.043Z</time></trkpt><trkpt lat="44.8884683" lon="9.637255"><ele>293.0</ele><time>2026-04-26T16:09:40.042Z</time></trkpt><trkpt lat="44.8885833" lon="9.63724"><ele>292.2</ele><time>2026-04-26T16:09:42.043Z</time></trkpt><trkpt lat="44.888695" lon="9.6371817"><ele>291.4</ele><time>2026-04-26T16:09:44.043Z</time></trkpt><trkpt lat="44.888775" lon="9.6371433"><ele>290.59999999999997</ele><time>2026-04-26T16:09:45.043Z</time></trkpt><trkpt lat="44.8888717" lon="9.6371267"><ele>289.8</ele><time>2026-04-26T16:09:46.042Z</time></trkpt><trkpt lat="44.8889917" lon="9.6371183"><ele>289.0</ele><time>2026-04-26T16:09:47.041Z</time></trkpt><trkpt lat="44.8891217" lon="9.6370983"><ele>289.0</ele><time>2026-04-26T16:09:48.041Z</time></trkpt><trkpt lat="44.8892483" lon="9.6370733"><ele>289.0</ele><time>2026-04-26T16:09:49.042Z</time></trkpt><trkpt lat="44.8893717" lon="9.6370483"><ele>289.0</ele><time>2026-04-26T16:09:50.041Z</time></trkpt><trkpt lat="44.8894867" lon="9.6370367"><ele>289.0</ele><time>2026-04-26T16:09:51.042Z</time></trkpt><trkpt lat="44.8896067" lon="9.63704"><ele>288.25</ele><time>2026-04-26T16:09:52.041Z</time></trkpt><trkpt lat="44.8897283" lon="9.6370667"><ele>287.5</ele><time>2026-04-26T16:09:53.041Z</time></trkpt><trkpt lat="44.88985" lon="9.6371067"><ele>286.75</ele><time>2026-04-26T16:09:54.042Z</time></trkpt><trkpt lat="44.8899617" lon="9.637165"><ele>286.0</ele><time>2026-04-26T16:09:55.041Z</time></trkpt><trkpt lat="44.890065" lon="9.6372283"><ele>285.6</ele><time>2026-04-26T16:09:56.042Z</time></trkpt><trkpt lat="44.89016" lon="9.6372933"><ele>285.20000000000005</ele><time>2026-04-26T16:09:57.043Z</time></trkpt><trkpt lat="44.8902483" lon="9.63735"><ele>284.79999999999995</ele><time>2026-04-26T16:09:58.044Z</time></trkpt><trkpt lat="44.89033" lon="9.6374083"><ele>284.4</ele><time>2026-04-26T16:09:59.044Z</time></trkpt><trkpt lat="44.890405" lon="9.6374683"><ele>284.0</ele><time>2026-04-26T16:10:00.043Z</time></trkpt><trkpt lat="44.89047" lon="9.6375317"><ele>284.0</ele><time>2026-04-26T16:10:01.042Z</time></trkpt><trkpt lat="44.8905217" lon="9.6376017"><ele>284.0</ele><time>2026-04-26T16:10:02.042Z</time></trkpt><trkpt lat="44.890565" lon="9.63768"><ele>284.0</ele><time>2026-04-26T16:10:03.042Z</time></trkpt><trkpt lat="44.8906017" lon="9.6377633"><ele>284.0</ele><time>2026-04-26T16:10:04.042Z</time></trkpt><trkpt lat="44.8906367" lon="9.6378433"><ele>284.0</ele><time>2026-04-26T16:10:05.041Z</time></trkpt><trkpt lat="44.890675" lon="9.637915"><ele>284.0</ele><time>2026-04-26T16:10:06.042Z</time></trkpt><trkpt lat="44.8907667" lon="9.63802"><ele>284.1666666666667</ele><time>2026-04-26T16:10:08.042Z</time></trkpt><trkpt lat="44.89085" lon="9.6380667"><ele>284.33333333333337</ele><time>2026-04-26T16:10:10.044Z</time></trkpt><trkpt lat="44.8909283" lon="9.6380933"><ele>284.5</ele><time>2026-04-26T16:10:13.043Z</time></trkpt><trkpt lat="44.891025" lon="9.638125"><ele>284.6666666666667</ele><time>2026-04-26T16:13:28.042Z</time></trkpt><trkpt lat="44.8910917" lon="9.6381483"><ele>284.8333333333333</ele><time>2026-04-26T16:13:29.042Z</time></trkpt><trkpt lat="44.8911667" lon="9.63818"><ele>285.0</ele><time>2026-04-26T16:13:30.042Z</time></trkpt><trkpt lat="44.891255" lon="9.63823"><ele>284.0</ele><time>2026-04-26T16:13:31.042Z</time></trkpt><trkpt lat="44.8913467" lon="9.63829"><ele>283.0</ele><time>2026-04-26T16:13:32.041Z</time></trkpt><trkpt lat="44.8914367" lon="9.6383567"><ele>282.0</ele><time>2026-04-26T16:13:33.042Z</time></trkpt><trkpt lat="44.8915167" lon="9.6384183"><ele>281.0</ele><time>2026-04-26T16:13:34.042Z</time></trkpt><trkpt lat="44.8916017" lon="9.6384767"><ele>280.0</ele><time>2026-04-26T16:13:35.043Z</time></trkpt><trkpt lat="44.8916917" lon="9.6385317"><ele>278.75</ele><time>2026-04-26T16:13:36.042Z</time></trkpt><trkpt lat="44.8917833" lon="9.6385767"><ele>277.5</ele><time>2026-04-26T16:13:37.042Z</time></trkpt><trkpt lat="44.8918867" lon="9.638615"><ele>276.25</ele><time>2026-04-26T16:13:38.041Z</time></trkpt><trkpt lat="44.892005" lon="9.6386733"><ele>275.0</ele><time>2026-04-26T16:13:39.042Z</time></trkpt><trkpt lat="44.89212" lon="9.638745"><ele>275.0</ele><time>2026-04-26T16:13:40.043Z</time></trkpt><trkpt lat="44.892235" lon="9.638815"><ele>275.0</ele><time>2026-04-26T16:13:41.043Z</time></trkpt><trkpt lat="44.892345" lon="9.6388783"><ele>275.0</ele><time>2026-04-26T16:13:42.042Z</time></trkpt><trkpt lat="44.8924483" lon="9.6389367"><ele>275.0</ele><time>2026-04-26T16:13:43.043Z</time></trkpt><trkpt lat="44.89255" lon="9.638985"><ele>273.6</ele><time>2026-04-26T16:13:44.042Z</time></trkpt><trkpt lat="44.8926533" lon="9.63902"><ele>272.2</ele><time>2026-04-26T16:13:45.043Z</time></trkpt><trkpt lat="44.8927533" lon="9.6390433"><ele>270.8</ele><time>2026-04-26T16:13:46.042Z</time></trkpt><trkpt lat="44.8928617" lon="9.6390617"><ele>269.4</ele><time>2026-04-26T16:13:47.043Z</time></trkpt><trkpt lat="44.892975" lon="9.6390717"><ele>268.0</ele><time>2026-04-26T16:13:48.042Z</time></trkpt><trkpt lat="44.8930967" lon="9.6390917"><ele>268.0</ele><time>2026-04-26T16:13:49.042Z</time></trkpt><trkpt lat="44.8932283" lon="9.6391167"><ele>268.0</ele><time>2026-04-26T16:13:50.042Z</time></trkpt><trkpt lat="44.8933467" lon="9.6391483"><ele>268.0</ele><time>2026-04-26T16:13:51.044Z</time></trkpt><trkpt lat="44.8934567" lon="9.639195"><ele>268.0</ele><time>2026-04-26T16:13:52.043Z</time></trkpt><trkpt lat="44.8935617" lon="9.6392283"><ele>266.6</ele><time>2026-04-26T16:13:53.042Z</time></trkpt><trkpt lat="44.89366" lon="9.63926"><ele>265.20000000000005</ele><time>2026-04-26T16:13:54.043Z</time></trkpt><trkpt lat="44.8937567" lon="9.63929"><ele>263.8</ele><time>2026-04-26T16:13:55.043Z</time></trkpt><trkpt lat="44.89387" lon="9.6392867"><ele>262.40000000000003</ele><time>2026-04-26T16:13:56.041Z</time></trkpt><trkpt lat="44.893975" lon="9.639285"><ele>261.0</ele><time>2026-04-26T16:13:57.043Z</time></trkpt><trkpt lat="44.8940717" lon="9.639285"><ele>261.0</ele><time>2026-04-26T16:13:58.042Z</time></trkpt><trkpt lat="44.8941683" lon="9.6392933"><ele>261.0</ele><time>2026-04-26T16:13:59.043Z</time></trkpt><trkpt lat="44.8942583" lon="9.6393133"><ele>261.0</ele><time>2026-04-26T16:14:00.041Z</time></trkpt><trkpt lat="44.8943467" lon="9.639335"><ele>261.0</ele><time>2026-04-26T16:14:01.042Z</time></trkpt><trkpt lat="44.8944333" lon="9.6393483"><ele>261.0</ele><time>2026-04-26T16:14:02.044Z</time></trkpt><trkpt lat="44.89452" lon="9.6393483"><ele>260.1666666666667</ele><time>2026-04-26T16:14:03.042Z</time></trkpt><trkpt lat="44.894605" lon="9.6393433"><ele>259.3333333333333</ele><time>2026-04-26T16:14:04.045Z</time></trkpt><trkpt lat="44.8946867" lon="9.6393367"><ele>258.5</ele><time>2026-04-26T16:14:05.042Z</time></trkpt><trkpt lat="44.8947667" lon="9.639325"><ele>257.66666666666663</ele><time>2026-04-26T16:14:06.043Z</time></trkpt><trkpt lat="44.8948433" lon="9.6393117"><ele>256.8333333333333</ele><time>2026-04-26T16:14:07.042Z</time></trkpt><trkpt lat="44.89492" lon="9.6393017"><ele>256.0</ele><time>2026-04-26T16:14:08.042Z</time></trkpt><trkpt lat="44.8949867" lon="9.6392933"><ele>256.0</ele><time>2026-04-26T16:14:09.043Z</time></trkpt><trkpt lat="44.8950533" lon="9.6392917"><ele>256.0</ele><time>2026-04-26T16:14:10.043Z</time></trkpt><trkpt lat="44.8951683" lon="9.6392833"><ele>256.0</ele><time>2026-04-26T16:14:12.041Z</time></trkpt><trkpt lat="44.8953033" lon="9.6392933"><ele>256.0</ele><time>2026-04-26T16:14:14.042Z</time></trkpt><trkpt lat="44.89539" lon="9.639295"><ele>256.0</ele><time>2026-04-26T16:14:15.043Z</time></trkpt><trkpt lat="44.89548" lon="9.6392917"><ele>255.8</ele><time>2026-04-26T16:14:16.041Z</time></trkpt><trkpt lat="44.8955733" lon="9.6392767"><ele>255.60000000000002</ele><time>2026-04-26T16:14:17.042Z</time></trkpt><trkpt lat="44.8956683" lon="9.6392433"><ele>255.4</ele><time>2026-04-26T16:14:18.042Z</time></trkpt><trkpt lat="44.895765" lon="9.6392083"><ele>255.2</ele><time>2026-04-26T16:14:19.042Z</time></trkpt><trkpt lat="44.89587" lon="9.6391833"><ele>255.0</ele><time>2026-04-26T16:14:20.042Z</time></trkpt><trkpt lat="44.89599" lon="9.6391717"><ele>255.0</ele><time>2026-04-26T16:14:21.042Z</time></trkpt><trkpt lat="44.8961217" lon="9.6391617"><ele>255.0</ele><time>2026-04-26T16:14:22.041Z</time></trkpt><trkpt lat="44.89626" lon="9.639155"><ele>255.0</ele><time>2026-04-26T16:14:23.041Z</time></trkpt><trkpt lat="44.8964017" lon="9.6391617"><ele>255.0</ele><time>2026-04-26T16:14:24.042Z</time></trkpt><trkpt lat="44.8965333" lon="9.6391667"><ele>255.0</ele><time>2026-04-26T16:14:25.042Z</time></trkpt><trkpt lat="44.8966583" lon="9.639165"><ele>255.0</ele><time>2026-04-26T16:14:26.042Z</time></trkpt><trkpt lat="44.8967767" lon="9.6391683"><ele>255.0</ele><time>2026-04-26T16:14:27.042Z</time></trkpt><trkpt lat="44.896885" lon="9.6391783"><ele>255.0</ele><time>2026-04-26T16:14:28.042Z</time></trkpt><trkpt lat="44.8969833" lon="9.6392033"><ele>254.5</ele><time>2026-04-26T16:14:29.044Z</time></trkpt><trkpt lat="44.897095" lon="9.6392433"><ele>254.0</ele><time>2026-04-26T16:14:30.044Z</time></trkpt><trkpt lat="44.8972183" lon="9.639275"><ele>253.5</ele><time>2026-04-26T16:14:31.044Z</time></trkpt><trkpt lat="44.897355" lon="9.6392917"><ele>253.0</ele><time>2026-04-26T16:14:32.044Z</time></trkpt><trkpt lat="44.8974983" lon="9.6393067"><ele>252.5</ele><time>2026-04-26T16:14:33.045Z</time></trkpt><trkpt lat="44.897635" lon="9.6393317"><ele>252.0</ele><time>2026-04-26T16:14:34.044Z</time></trkpt><trkpt lat="44.8977667" lon="9.6393517"><ele>251.5</ele><time>2026-04-26T16:14:35.044Z</time></trkpt><trkpt lat="44.8978983" lon="9.6393683"><ele>251.0</ele><time>2026-04-26T16:14:36.044Z</time></trkpt><trkpt lat="44.8980283" lon="9.6393833"><ele>251.0</ele><time>2026-04-26T16:14:37.043Z</time></trkpt><trkpt lat="44.8981633" lon="9.6393967"><ele>251.0</ele><time>2026-04-26T16:14:38.045Z</time></trkpt><trkpt lat="44.8982967" lon="9.63941"><ele>251.0</ele><time>2026-04-26T16:14:39.044Z</time></trkpt><trkpt lat="44.898425" lon="9.6394183"><ele>251.0</ele><time>2026-04-26T16:14:40.044Z</time></trkpt><trkpt lat="44.8985533" lon="9.6394317"><ele>249.25</ele><time>2026-04-26T16:14:41.045Z</time></trkpt><trkpt lat="44.8986733" lon="9.6394417"><ele>247.5</ele><time>2026-04-26T16:14:42.044Z</time></trkpt><trkpt lat="44.8987967" lon="9.63945"><ele>245.75</ele><time>2026-04-26T16:14:43.044Z</time></trkpt><trkpt lat="44.8989183" lon="9.6394533"><ele>244.0</ele><time>2026-04-26T16:14:44.044Z</time></trkpt><trkpt lat="44.8990317" lon="9.6394583"><ele>243.39999999999998</ele><time>2026-04-26T16:14:45.045Z</time></trkpt><trkpt lat="44.89914" lon="9.6394717"><ele>242.79999999999998</ele><time>2026-04-26T16:14:46.042Z</time></trkpt><trkpt lat="44.89925" lon="9.639485"><ele>242.20000000000002</ele><time>2026-04-26T16:14:47.042Z</time></trkpt><trkpt lat="44.8993617" lon="9.6395083"><ele>241.60000000000002</ele><time>2026-04-26T16:14:48.042Z</time></trkpt><trkpt lat="44.8994733" lon="9.63955"><ele>241.0</ele><time>2026-04-26T16:14:49.041Z</time></trkpt><trkpt lat="44.8995883" lon="9.6396"><ele>241.0</ele><time>2026-04-26T16:14:50.042Z</time></trkpt><trkpt lat="44.8997067" lon="9.6396633"><ele>241.0</ele><time>2026-04-26T16:14:51.042Z</time></trkpt><trkpt lat="44.8998267" lon="9.6397317"><ele>241.0</ele><time>2026-04-26T16:14:52.042Z</time></trkpt><trkpt lat="44.8999533" lon="9.639795"><ele>241.0</ele><time>2026-04-26T16:14:53.042Z</time></trkpt><trkpt lat="44.9000783" lon="9.639855"><ele>240.75</ele><time>2026-04-26T16:14:54.043Z</time></trkpt><trkpt lat="44.900195" lon="9.6399117"><ele>240.5</ele><time>2026-04-26T16:14:55.042Z</time></trkpt><trkpt lat="44.90032" lon="9.6399717"><ele>240.25</ele><time>2026-04-26T16:14:56.042Z</time></trkpt><trkpt lat="44.9004467" lon="9.6400317"><ele>240.0</ele><time>2026-04-26T16:14:57.042Z</time></trkpt><trkpt lat="44.9005717" lon="9.64009"><ele>240.0</ele><time>2026-04-26T16:14:58.042Z</time></trkpt><trkpt lat="44.900695" lon="9.64015"><ele>240.0</ele><time>2026-04-26T16:14:59.042Z</time></trkpt><trkpt lat="44.9008217" lon="9.6402117"><ele>240.0</ele><time>2026-04-26T16:15:00.042Z</time></trkpt><trkpt lat="44.9009517" lon="9.6402733"><ele>240.0</ele><time>2026-04-26T16:15:01.043Z</time></trkpt><trkpt lat="44.9010817" lon="9.6403383"><ele>239.0</ele><time>2026-04-26T16:15:02.126Z</time></trkpt><trkpt lat="44.901215" lon="9.6404033"><ele>238.0</ele><time>2026-04-26T16:15:03.043Z</time></trkpt><trkpt lat="44.9013467" lon="9.6404667"><ele>237.0</ele><time>2026-04-26T16:15:04.042Z</time></trkpt><trkpt lat="44.9014717" lon="9.640525"><ele>236.0</ele><time>2026-04-26T16:15:05.042Z</time></trkpt><trkpt lat="44.9015933" lon="9.6405833"><ele>236.0</ele><time>2026-04-26T16:15:06.041Z</time></trkpt><trkpt lat="44.90171" lon="9.6406417"><ele>236.0</ele><time>2026-04-26T16:15:07.042Z</time></trkpt><trkpt lat="44.9018167" lon="9.640695"><ele>236.0</ele><time>2026-04-26T16:15:08.042Z</time></trkpt><trkpt lat="44.9019317" lon="9.6407533"><ele>236.0</ele><time>2026-04-26T16:15:09.042Z</time></trkpt><trkpt lat="44.9020533" lon="9.6408167"><ele>235.5</ele><time>2026-04-26T16:15:10.042Z</time></trkpt><trkpt lat="44.9021917" lon="9.6408867"><ele>235.0</ele><time>2026-04-26T16:15:11.043Z</time></trkpt><trkpt lat="44.90232" lon="9.6409583"><ele>234.5</ele><time>2026-04-26T16:15:12.041Z</time></trkpt><trkpt lat="44.9024567" lon="9.6410267"><ele>234.0</ele><time>2026-04-26T16:15:13.042Z</time></trkpt><trkpt lat="44.9025917" lon="9.6410933"><ele>233.0</ele><time>2026-04-26T16:15:14.043Z</time></trkpt><trkpt lat="44.90272" lon="9.64115"><ele>232.0</ele><time>2026-04-26T16:15:15.042Z</time></trkpt><trkpt lat="44.9028533" lon="9.6412117"><ele>231.0</ele><time>2026-04-26T16:15:16.042Z</time></trkpt><trkpt lat="44.90299" lon="9.6412717"><ele>230.0</ele><time>2026-04-26T16:15:17.042Z</time></trkpt><trkpt lat="44.9031333" lon="9.641335"><ele>230.0</ele><time>2026-04-26T16:15:18.042Z</time></trkpt><trkpt lat="44.9032817" lon="9.6414033"><ele>230.0</ele><time>2026-04-26T16:15:19.042Z</time></trkpt><trkpt lat="44.9034283" lon="9.6414667"><ele>230.0</ele><time>2026-04-26T16:15:20.042Z</time></trkpt><trkpt lat="44.903575" lon="9.641535"><ele>229.0</ele><time>2026-04-26T16:15:21.043Z</time></trkpt><trkpt lat="44.9037133" lon="9.6416"><ele>228.0</ele><time>2026-04-26T16:15:22.043Z</time></trkpt><trkpt lat="44.9038417" lon="9.6416617"><ele>227.0</ele><time>2026-04-26T16:15:23.042Z</time></trkpt><trkpt lat="44.9039583" lon="9.6417217"><ele>226.0</ele><time>2026-04-26T16:15:24.045Z</time></trkpt><trkpt lat="44.9040633" lon="9.64177"><ele>226.0</ele><time>2026-04-26T16:15:25.044Z</time></trkpt><trkpt lat="44.90415" lon="9.64181"><ele>226.00000000000003</ele><time>2026-04-26T16:15:26.045Z</time></trkpt><trkpt lat="44.90422" lon="9.6418433"><ele>226.00000000000003</ele><time>2026-04-26T16:15:27.044Z</time></trkpt><trkpt lat="44.90432" lon="9.6419017"><ele>226.0</ele><time>2026-04-26T16:15:29.043Z</time></trkpt><trkpt lat="44.9043767" lon="9.6420133"><ele>226.0</ele><time>2026-04-26T16:15:31.042Z</time></trkpt><trkpt lat="44.904375" lon="9.6421783"><ele>225.20000000000002</ele><time>2026-04-26T16:15:33.042Z</time></trkpt><trkpt lat="44.90436" lon="9.64228"><ele>224.40000000000003</ele><time>2026-04-26T16:15:34.042Z</time></trkpt><trkpt lat="44.90434" lon="9.6423783"><ele>223.6</ele><time>2026-04-26T16:15:35.042Z</time></trkpt><trkpt lat="44.9043417" lon="9.6425383"><ele>222.8</ele><time>2026-04-26T16:15:37.042Z</time></trkpt><trkpt lat="44.9044083" lon="9.6426183"><ele>222.0</ele><time>2026-04-26T16:15:40.042Z</time></trkpt><trkpt lat="44.9044683" lon="9.6427383"><ele>222.8</ele><time>2026-04-26T16:15:42.043Z</time></trkpt><trkpt lat="44.9045" lon="9.6428817"><ele>223.6</ele><time>2026-04-26T16:15:44.042Z</time></trkpt><trkpt lat="44.9045083" lon="9.6430417"><ele>224.40000000000003</ele><time>2026-04-26T16:15:46.043Z</time></trkpt><trkpt lat="44.9045217" lon="9.6431583"><ele>225.20000000000002</ele><time>2026-04-26T16:15:48.043Z</time></trkpt><trkpt lat="44.904605" lon="9.6432133"><ele>226.0</ele><time>2026-04-26T16:15:50.042Z</time></trkpt><trkpt lat="44.9046667" lon="9.6432333"><ele>226.0</ele><time>2026-04-26T16:15:51.043Z</time></trkpt><trkpt lat="44.90473" lon="9.6432617"><ele>226.00000000000003</ele><time>2026-04-26T16:15:52.044Z</time></trkpt><trkpt lat="44.904815" lon="9.6432733"><ele>226.00000000000003</ele><time>2026-04-26T16:15:53.044Z</time></trkpt><trkpt lat="44.9049183" lon="9.6432517"><ele>226.0</ele><time>2026-04-26T16:15:54.044Z</time></trkpt><trkpt lat="44.905015" lon="9.6432283"><ele>226.0</ele><time>2026-04-26T16:15:55.044Z</time></trkpt><trkpt lat="44.9051283" lon="9.6432067"><ele>224.8</ele><time>2026-04-26T16:15:56.045Z</time></trkpt><trkpt lat="44.9052233" lon="9.6432117"><ele>223.60000000000002</ele><time>2026-04-26T16:15:57.044Z</time></trkpt><trkpt lat="44.9053183" lon="9.643235"><ele>222.4</ele><time>2026-04-26T16:15:58.043Z</time></trkpt><trkpt lat="44.9054217" lon="9.6432733"><ele>221.2</ele><time>2026-04-26T16:15:59.042Z</time></trkpt><trkpt lat="44.9055167" lon="9.6433167"><ele>220.0</ele><time>2026-04-26T16:16:00.043Z</time></trkpt><trkpt lat="44.90561" lon="9.64336"><ele>220.0</ele><time>2026-04-26T16:16:01.044Z</time></trkpt><trkpt lat="44.9057017" lon="9.6433983"><ele>220.0</ele><time>2026-04-26T16:16:02.042Z</time></trkpt><trkpt lat="44.9058" lon="9.6434367"><ele>220.0</ele><time>2026-04-26T16:16:03.044Z</time></trkpt><trkpt lat="44.9059083" lon="9.6434767"><ele>220.0</ele><time>2026-04-26T16:16:04.042Z</time></trkpt><trkpt lat="44.9060317" lon="9.6435083"><ele>220.0</ele><time>2026-04-26T16:16:05.043Z</time></trkpt><trkpt lat="44.9061633" lon="9.6435333"><ele>218.5</ele><time>2026-04-26T16:16:06.045Z</time></trkpt><trkpt lat="44.9063033" lon="9.6435567"><ele>217.0</ele><time>2026-04-26T16:16:07.044Z</time></trkpt><trkpt lat="44.9064433" lon="9.64359"><ele>215.5</ele><time>2026-04-26T16:16:08.043Z</time></trkpt><trkpt lat="44.9065767" lon="9.64363"><ele>214.0</ele><time>2026-04-26T16:16:09.042Z</time></trkpt><trkpt lat="44.9066933" lon="9.64368"><ele>209.25</ele><time>2026-04-26T16:16:10.042Z</time></trkpt><trkpt lat="44.9068133" lon="9.6437333"><ele>204.5</ele><time>2026-04-26T16:16:11.042Z</time></trkpt><trkpt lat="44.9069333" lon="9.6437883"><ele>199.75</ele><time>2026-04-26T16:16:12.042Z</time></trkpt><trkpt lat="44.9070583" lon="9.643845"><ele>195.0</ele><time>2026-04-26T16:16:13.042Z</time></trkpt><trkpt lat="44.9071867" lon="9.6439"><ele>195.0</ele><time>2026-04-26T16:16:14.043Z</time></trkpt><trkpt lat="44.9073067" lon="9.64396"><ele>195.0</ele><time>2026-04-26T16:16:15.045Z</time></trkpt><trkpt lat="44.90741" lon="9.644015"><ele>195.0</ele><time>2026-04-26T16:16:16.042Z</time></trkpt><trkpt lat="44.907495" lon="9.6440767"><ele>195.0</ele><time>2026-04-26T16:16:17.042Z</time></trkpt><trkpt lat="44.9075567" lon="9.6441417"><ele>195.0</ele><time>2026-04-26T16:16:18.043Z</time></trkpt><trkpt lat="44.9076" lon="9.644225"><ele>194.57142857142856</ele><time>2026-04-26T16:16:19.043Z</time></trkpt><trkpt lat="44.9076183" lon="9.6443183"><ele>194.14285714285714</ele><time>2026-04-26T16:16:20.043Z</time></trkpt><trkpt lat="44.9076083" lon="9.6444067"><ele>193.71428571428572</ele><time>2026-04-26T16:16:21.043Z</time></trkpt><trkpt lat="44.9075883" lon="9.6445"><ele>193.28571428571428</ele><time>2026-04-26T16:16:22.042Z</time></trkpt><trkpt lat="44.9075783" lon="9.644595"><ele>192.85714285714286</ele><time>2026-04-26T16:16:23.043Z</time></trkpt><trkpt lat="44.9075817" lon="9.6446867"><ele>192.42857142857142</ele><time>2026-04-26T16:16:24.046Z</time></trkpt><trkpt lat="44.9076233" lon="9.6448217"><ele>192.0</ele><time>2026-04-26T16:16:26.042Z</time></trkpt><trkpt lat="44.9076783" lon="9.6448717"><ele>193.2</ele><time>2026-04-26T16:16:27.044Z</time></trkpt><trkpt lat="44.9077317" lon="9.64492"><ele>194.39999999999998</ele><time>2026-04-26T16:16:28.043Z</time></trkpt><trkpt lat="44.9078433" lon="9.6449933"><ele>195.60000000000002</ele><time>2026-04-26T16:16:29.044Z</time></trkpt><trkpt lat="44.9079617" lon="9.645075"><ele>196.8</ele><time>2026-04-26T16:16:30.042Z</time></trkpt><trkpt lat="44.908065" lon="9.64514"><ele>198.0</ele><time>2026-04-26T16:16:31.043Z</time></trkpt><trkpt lat="44.9081617" lon="9.64522"><ele>200.2</ele><time>2026-04-26T16:16:32.043Z</time></trkpt><trkpt lat="44.908235" lon="9.6453167"><ele>202.4</ele><time>2026-04-26T16:16:33.042Z</time></trkpt><trkpt lat="44.9082967" lon="9.6454217"><ele>204.6</ele><time>2026-04-26T16:16:34.044Z</time></trkpt><trkpt lat="44.90834" lon="9.64555"><ele>206.79999999999998</ele><time>2026-04-26T16:16:35.044Z</time></trkpt><trkpt lat="44.9083717" lon="9.6456917"><ele>209.0</ele><time>2026-04-26T16:16:36.042Z</time></trkpt><trkpt lat="44.9083833" lon="9.6458467"><ele>209.0</ele><time>2026-04-26T16:16:37.045Z</time></trkpt><trkpt lat="44.9083833" lon="9.6459867"><ele>209.0</ele><time>2026-04-26T16:16:38.042Z</time></trkpt><trkpt lat="44.908375" lon="9.6461417"><ele>209.0</ele><time>2026-04-26T16:16:39.043Z</time></trkpt><trkpt lat="44.9083583" lon="9.64633"><ele>209.0</ele><time>2026-04-26T16:16:40.042Z</time></trkpt><trkpt lat="44.90834" lon="9.64654"><ele>209.33333333333334</ele><time>2026-04-26T16:16:41.042Z</time></trkpt><trkpt lat="44.908325" lon="9.646765"><ele>209.66666666666669</ele><time>2026-04-26T16:16:42.042Z</time></trkpt><trkpt lat="44.9083167" lon="9.6469783"><ele>210.0</ele><time>2026-04-26T16:16:43.042Z</time></trkpt><trkpt lat="44.90831" lon="9.6471867"><ele>210.0</ele><time>2026-04-26T16:16:44.043Z</time></trkpt><trkpt lat="44.9082983" lon="9.647395"><ele>210.0</ele><time>2026-04-26T16:16:45.042Z</time></trkpt><trkpt lat="44.9082867" lon="9.64761"><ele>210.0</ele><time>2026-04-26T16:16:46.043Z</time></trkpt><trkpt lat="44.9082717" lon="9.6478333"><ele>210.0</ele><time>2026-04-26T16:16:47.043Z</time></trkpt><trkpt lat="44.9082567" lon="9.648055"><ele>210.0</ele><time>2026-04-26T16:16:48.043Z</time></trkpt><trkpt lat="44.90824" lon="9.6482817"><ele>210.0</ele><time>2026-04-26T16:16:49.043Z</time></trkpt><trkpt lat="44.9082217" lon="9.6484917"><ele>209.75</ele><time>2026-04-26T16:16:50.043Z</time></trkpt><trkpt lat="44.9082017" lon="9.648685"><ele>209.5</ele><time>2026-04-26T16:16:51.043Z</time></trkpt><trkpt lat="44.9081833" lon="9.648865"><ele>209.25</ele><time>2026-04-26T16:16:52.044Z</time></trkpt><trkpt lat="44.9081667" lon="9.6490417"><ele>209.0</ele><time>2026-04-26T16:16:53.045Z</time></trkpt><trkpt lat="44.9081533" lon="9.6492167"><ele>209.0</ele><time>2026-04-26T16:16:54.045Z</time></trkpt><trkpt lat="44.9081417" lon="9.64938"><ele>209.0</ele><time>2026-04-26T16:16:55.045Z</time></trkpt><trkpt lat="44.908135" lon="9.6495283"><ele>209.0</ele><time>2026-04-26T16:16:56.045Z</time></trkpt><trkpt lat="44.9081417" lon="9.64965"><ele>209.0</ele><time>2026-04-26T16:16:57.044Z</time></trkpt><trkpt lat="44.908175" lon="9.6497467"><ele>209.0</ele><time>2026-04-26T16:16:58.044Z</time></trkpt><trkpt lat="44.9082367" lon="9.6498167"><ele>208.6</ele><time>2026-04-26T16:16:59.043Z</time></trkpt><trkpt lat="44.908305" lon="9.6498717"><ele>208.2</ele><time>2026-04-26T16:17:00.043Z</time></trkpt><trkpt lat="44.9083967" lon="9.6499117"><ele>207.79999999999998</ele><time>2026-04-26T16:17:01.043Z</time></trkpt><trkpt lat="44.9085133" lon="9.64996"><ele>207.39999999999998</ele><time>2026-04-26T16:17:02.044Z</time></trkpt><trkpt lat="44.9086417" lon="9.650005"><ele>207.0</ele><time>2026-04-26T16:17:03.043Z</time></trkpt><trkpt lat="44.9087617" lon="9.6500417"><ele>206.33333333333334</ele><time>2026-04-26T16:17:04.042Z</time></trkpt><trkpt lat="44.9088683" lon="9.6500717"><ele>205.66666666666669</ele><time>2026-04-26T16:17:05.042Z</time></trkpt><trkpt lat="44.9089517" lon="9.6501033"><ele>205.0</ele><time>2026-04-26T16:17:06.042Z</time></trkpt><trkpt lat="44.9090233" lon="9.6501483"><ele>204.33333333333334</ele><time>2026-04-26T16:17:07.043Z</time></trkpt><trkpt lat="44.9090783" lon="9.6502133"><ele>203.66666666666669</ele><time>2026-04-26T16:17:08.042Z</time></trkpt><trkpt lat="44.9091133" lon="9.6502983"><ele>203.0</ele><time>2026-04-26T16:17:09.043Z</time></trkpt><trkpt lat="44.90914" lon="9.65041"><ele>202.0</ele><time>2026-04-26T16:17:10.042Z</time></trkpt><trkpt lat="44.9091583" lon="9.6505333"><ele>201.0</ele><time>2026-04-26T16:17:11.044Z</time></trkpt><trkpt lat="44.90918" lon="9.6506533"><ele>200.0</ele><time>2026-04-26T16:17:12.042Z</time></trkpt><trkpt lat="44.9092217" lon="9.65076"><ele>199.0</ele><time>2026-04-26T16:17:13.043Z</time></trkpt><trkpt lat="44.9092817" lon="9.6508533"><ele>198.0</ele><time>2026-04-26T16:17:14.042Z</time></trkpt><trkpt lat="44.9093717" lon="9.6509483"><ele>198.0</ele><time>2026-04-26T16:17:15.044Z</time></trkpt><trkpt lat="44.90948" lon="9.6510483"><ele>198.0</ele><time>2026-04-26T16:17:16.042Z</time></trkpt><trkpt lat="44.9096" lon="9.6511433"><ele>198.0</ele><time>2026-04-26T16:17:17.042Z</time></trkpt><trkpt lat="44.9097117" lon="9.65123"><ele>198.0</ele><time>2026-04-26T16:17:18.043Z</time></trkpt><trkpt lat="44.9098217" lon="9.6513133"><ele>196.5</ele><time>2026-04-26T16:17:19.042Z</time></trkpt><trkpt lat="44.9099283" lon="9.6514067"><ele>195.0</ele><time>2026-04-26T16:17:20.043Z</time></trkpt><trkpt lat="44.9100267" lon="9.6515217"><ele>193.5</ele><time>2026-04-26T16:17:21.043Z</time></trkpt><trkpt lat="44.9101133" lon="9.6516517"><ele>192.0</ele><time>2026-04-26T16:17:22.044Z</time></trkpt><trkpt lat="44.9101867" lon="9.6517967"><ele>192.0</ele><time>2026-04-26T16:17:23.045Z</time></trkpt><trkpt lat="44.9102517" lon="9.6519567"><ele>192.0</ele><time>2026-04-26T16:17:24.044Z</time></trkpt><trkpt lat="44.910305" lon="9.6521133"><ele>192.0</ele><time>2026-04-26T16:17:25.042Z</time></trkpt><trkpt lat="44.910355" lon="9.652265"><ele>192.0</ele><time>2026-04-26T16:17:26.042Z</time></trkpt><trkpt lat="44.9103983" lon="9.6524167"><ele>191.75</ele><time>2026-04-26T16:17:27.043Z</time></trkpt><trkpt lat="44.91043" lon="9.65257"><ele>191.5</ele><time>2026-04-26T16:17:28.046Z</time></trkpt><trkpt lat="44.9104567" lon="9.652735"><ele>191.25</ele><time>2026-04-26T16:17:29.042Z</time></trkpt><trkpt lat="44.91048" lon="9.6529167"><ele>191.0</ele><time>2026-04-26T16:17:30.042Z</time></trkpt><trkpt lat="44.9104983" lon="9.653105"><ele>192.0</ele><time>2026-04-26T16:17:31.043Z</time></trkpt><trkpt lat="44.9105167" lon="9.65329"><ele>193.0</ele><time>2026-04-26T16:17:32.042Z</time></trkpt><trkpt lat="44.9105267" lon="9.6534667"><ele>194.0</ele><time>2026-04-26T16:17:33.043Z</time></trkpt><trkpt lat="44.91053" lon="9.6536333"><ele>195.0</ele><time>2026-04-26T16:17:34.075Z</time></trkpt><trkpt lat="44.9105317" lon="9.6537883"><ele>195.5</ele><time>2026-04-26T16:17:35.042Z</time></trkpt><trkpt lat="44.9105183" lon="9.6539383"><ele>196.0</ele><time>2026-04-26T16:17:36.043Z</time></trkpt><trkpt lat="44.91049" lon="9.6540883"><ele>196.5</ele><time>2026-04-26T16:17:37.043Z</time></trkpt><trkpt lat="44.9104633" lon="9.6542067"><ele>197.0</ele><time>2026-04-26T16:17:38.043Z</time></trkpt><trkpt lat="44.9104483" lon="9.654305"><ele>197.5</ele><time>2026-04-26T16:17:39.042Z</time></trkpt><trkpt lat="44.9104183" lon="9.6543967"><ele>198.0</ele><time>2026-04-26T16:17:40.042Z</time></trkpt><trkpt lat="44.91037" lon="9.6545"><ele>198.0</ele><time>2026-04-26T16:17:41.042Z</time></trkpt><trkpt lat="44.910295" lon="9.654615"><ele>198.0</ele><time>2026-04-26T16:17:42.043Z</time></trkpt><trkpt lat="44.9102117" lon="9.654745"><ele>198.0</ele><time>2026-04-26T16:17:43.044Z</time></trkpt><trkpt lat="44.9101483" lon="9.6548933"><ele>198.0</ele><time>2026-04-26T16:17:44.043Z</time></trkpt><trkpt lat="44.9100867" lon="9.65506"><ele>198.0</ele><time>2026-04-26T16:17:45.043Z</time></trkpt><trkpt lat="44.9100267" lon="9.6552217"><ele>198.0</ele><time>2026-04-26T16:17:46.042Z</time></trkpt><trkpt lat="44.909965" lon="9.6553883"><ele>198.0</ele><time>2026-04-26T16:17:47.043Z</time></trkpt><trkpt lat="44.9099033" lon="9.6555633"><ele>198.0</ele><time>2026-04-26T16:17:48.042Z</time></trkpt><trkpt lat="44.9098433" lon="9.6557417"><ele>198.0</ele><time>2026-04-26T16:17:49.044Z</time></trkpt><trkpt lat="44.9097833" lon="9.6559233"><ele>198.0</ele><time>2026-04-26T16:17:50.044Z</time></trkpt><trkpt lat="44.9097233" lon="9.6561083"><ele>198.0</ele><time>2026-04-26T16:17:51.044Z</time></trkpt><trkpt lat="44.909655" lon="9.6563017"><ele>198.0</ele><time>2026-04-26T16:17:52.041Z</time></trkpt><trkpt lat="44.9095867" lon="9.6564883"><ele>197.25</ele><time>2026-04-26T16:17:53.043Z</time></trkpt><trkpt lat="44.9095217" lon="9.6566633"><ele>196.5</ele><time>2026-04-26T16:17:54.042Z</time></trkpt><trkpt lat="44.90946" lon="9.6568283"><ele>195.75</ele><time>2026-04-26T16:17:55.042Z</time></trkpt><trkpt lat="44.909395" lon="9.6569933"><ele>195.0</ele><time>2026-04-26T16:17:56.041Z</time></trkpt><trkpt lat="44.9093283" lon="9.65716"><ele>194.75</ele><time>2026-04-26T16:17:57.043Z</time></trkpt><trkpt lat="44.909265" lon="9.65733"><ele>194.5</ele><time>2026-04-26T16:17:58.041Z</time></trkpt><trkpt lat="44.909205" lon="9.65749"><ele>194.25</ele><time>2026-04-26T16:17:59.041Z</time></trkpt><trkpt lat="44.9091483" lon="9.6576533"><ele>194.0</ele><time>2026-04-26T16:18:00.041Z</time></trkpt><trkpt lat="44.909085" lon="9.6578083"><ele>193.5</ele><time>2026-04-26T16:18:01.041Z</time></trkpt><trkpt lat="44.9090167" lon="9.6579717"><ele>193.0</ele><time>2026-04-26T16:18:02.041Z</time></trkpt><trkpt lat="44.9089433" lon="9.6581317"><ele>192.5</ele><time>2026-04-26T16:18:03.042Z</time></trkpt><trkpt lat="44.908855" lon="9.6582667"><ele>192.0</ele><time>2026-04-26T16:18:04.041Z</time></trkpt><trkpt lat="44.9087667" lon="9.6583917"><ele>192.0</ele><time>2026-04-26T16:18:05.042Z</time></trkpt><trkpt lat="44.9086917" lon="9.6585333"><ele>192.0</ele><time>2026-04-26T16:18:06.041Z</time></trkpt><trkpt lat="44.9086333" lon="9.6586983"><ele>192.0</ele><time>2026-04-26T16:18:07.041Z</time></trkpt><trkpt lat="44.9085867" lon="9.6588833"><ele>192.0</ele><time>2026-04-26T16:18:08.041Z</time></trkpt><trkpt lat="44.908545" lon="9.6590683"><ele>189.0</ele><time>2026-04-26T16:18:09.043Z</time></trkpt><trkpt lat="44.9085083" lon="9.6592467"><ele>186.0</ele><time>2026-04-26T16:18:10.042Z</time></trkpt><trkpt lat="44.908475" lon="9.6594233"><ele>183.0</ele><time>2026-04-26T16:18:11.042Z</time></trkpt><trkpt lat="44.9084433" lon="9.6596033"><ele>180.0</ele><time>2026-04-26T16:18:12.041Z</time></trkpt><trkpt lat="44.9084167" lon="9.6597883"><ele>178.75</ele><time>2026-04-26T16:18:13.042Z</time></trkpt><trkpt lat="44.9083867" lon="9.65998"><ele>177.5</ele><time>2026-04-26T16:18:14.042Z</time></trkpt><trkpt lat="44.9083617" lon="9.6601767"><ele>176.25</ele><time>2026-04-26T16:18:15.042Z</time></trkpt><trkpt lat="44.9083383" lon="9.6603583"><ele>175.0</ele><time>2026-04-26T16:18:16.041Z</time></trkpt><trkpt lat="44.908315" lon="9.6605417"><ele>174.75</ele><time>2026-04-26T16:18:17.043Z</time></trkpt><trkpt lat="44.90829" lon="9.6607167"><ele>174.5</ele><time>2026-04-26T16:18:18.042Z</time></trkpt><trkpt lat="44.908265" lon="9.660895"><ele>174.25</ele><time>2026-04-26T16:18:19.043Z</time></trkpt><trkpt lat="44.9082417" lon="9.661075"><ele>174.0</ele><time>2026-04-26T16:18:20.041Z</time></trkpt><trkpt lat="44.9082183" lon="9.6612483"><ele>174.0</ele><time>2026-04-26T16:18:21.042Z</time></trkpt><trkpt lat="44.908195" lon="9.661425"><ele>174.0</ele><time>2026-04-26T16:18:22.041Z</time></trkpt><trkpt lat="44.9081717" lon="9.6616017"><ele>174.0</ele><time>2026-04-26T16:18:23.041Z</time></trkpt><trkpt lat="44.90815" lon="9.661765"><ele>174.0</ele><time>2026-04-26T16:18:24.041Z</time></trkpt><trkpt lat="44.9081283" lon="9.6619367"><ele>174.0</ele><time>2026-04-26T16:18:25.042Z</time></trkpt><trkpt lat="44.90811" lon="9.6620933"><ele>174.0</ele><time>2026-04-26T16:18:26.041Z</time></trkpt><trkpt lat="44.9080933" lon="9.6622467"><ele>174.0</ele><time>2026-04-26T16:18:27.044Z</time></trkpt><trkpt lat="44.9080767" lon="9.66239"><ele>174.0</ele><time>2026-04-26T16:18:28.042Z</time></trkpt><trkpt lat="44.9080617" lon="9.6625317"><ele>174.0</ele><time>2026-04-26T16:18:29.041Z</time></trkpt><trkpt lat="44.9080467" lon="9.6626617"><ele>174.0</ele><time>2026-04-26T16:18:30.041Z</time></trkpt><trkpt lat="44.9080317" lon="9.66278"><ele>174.0</ele><time>2026-04-26T16:18:31.042Z</time></trkpt><trkpt lat="44.90802" lon="9.66289"><ele>174.0</ele><time>2026-04-26T16:18:32.041Z</time></trkpt><trkpt lat="44.9080067" lon="9.6630033"><ele>174.0</ele><time>2026-04-26T16:18:33.043Z</time></trkpt><trkpt lat="44.9079933" lon="9.6631233"><ele>174.0</ele><time>2026-04-26T16:18:34.042Z</time></trkpt><trkpt lat="44.9079783" lon="9.6632667"><ele>174.0</ele><time>2026-04-26T16:18:35.041Z</time></trkpt><trkpt lat="44.9079667" lon="9.6634083"><ele>174.0</ele><time>2026-04-26T16:18:36.042Z</time></trkpt><trkpt lat="44.9079533" lon="9.663535"><ele>174.0</ele><time>2026-04-26T16:18:37.042Z</time></trkpt><trkpt lat="44.9079417" lon="9.6636517"><ele>174.0</ele><time>2026-04-26T16:18:38.041Z</time></trkpt><trkpt lat="44.9079283" lon="9.6637617"><ele>174.0</ele><time>2026-04-26T16:18:39.042Z</time></trkpt><trkpt lat="44.9079117" lon="9.663875"><ele>174.0</ele><time>2026-04-26T16:18:40.042Z</time></trkpt><trkpt lat="44.90789" lon="9.6639917"><ele>174.0</ele><time>2026-04-26T16:18:41.041Z</time></trkpt><trkpt lat="44.9078667" lon="9.6641083"><ele>173.79999999999998</ele><time>2026-04-26T16:18:42.041Z</time></trkpt><trkpt lat="44.9078433" lon="9.6642183"><ele>173.6</ele><time>2026-04-26T16:18:43.041Z</time></trkpt><trkpt lat="44.907815" lon="9.6643283"><ele>173.4</ele><time>2026-04-26T16:18:44.042Z</time></trkpt><trkpt lat="44.90778" lon="9.66446"><ele>173.2</ele><time>2026-04-26T16:18:45.042Z</time></trkpt><trkpt lat="44.9077367" lon="9.664605"><ele>173.0</ele><time>2026-04-26T16:18:46.042Z</time></trkpt><trkpt lat="44.90769" lon="9.66476"><ele>173.2</ele><time>2026-04-26T16:18:47.042Z</time></trkpt><trkpt lat="44.9076433" lon="9.6648933"><ele>173.4</ele><time>2026-04-26T16:18:48.041Z</time></trkpt><trkpt lat="44.9075933" lon="9.66501"><ele>173.6</ele><time>2026-04-26T16:18:49.042Z</time></trkpt><trkpt lat="44.9075517" lon="9.6651183"><ele>173.79999999999998</ele><time>2026-04-26T16:18:50.041Z</time></trkpt><trkpt lat="44.9075133" lon="9.6652217"><ele>174.0</ele><time>2026-04-26T16:18:51.042Z</time></trkpt><trkpt lat="44.9074767" lon="9.66532"><ele>173.6</ele><time>2026-04-26T16:18:52.042Z</time></trkpt><trkpt lat="44.9074417" lon="9.6654133"><ele>173.2</ele><time>2026-04-26T16:18:53.043Z</time></trkpt><trkpt lat="44.90739" lon="9.6655333"><ele>172.79999999999998</ele><time>2026-04-26T16:18:55.041Z</time></trkpt><trkpt lat="44.9073433" lon="9.6656567"><ele>172.39999999999998</ele><time>2026-04-26T16:19:05.042Z</time></trkpt><trkpt lat="44.907405" lon="9.6657733"><ele>172.0</ele><time>2026-04-26T16:19:08.041Z</time></trkpt><trkpt lat="44.9075" lon="9.66591"><ele>172.0</ele><time>2026-04-26T16:19:10.044Z</time></trkpt><trkpt lat="44.9075633" lon="9.666005"><ele>172.0</ele><time>2026-04-26T16:19:11.041Z</time></trkpt><trkpt lat="44.9076317" lon="9.666095"><ele>172.0</ele><time>2026-04-26T16:19:12.041Z</time></trkpt><trkpt lat="44.907695" lon="9.6661767"><ele>172.0</ele><time>2026-04-26T16:19:13.041Z</time></trkpt><trkpt lat="44.9077567" lon="9.6662583"><ele>172.0</ele><time>2026-04-26T16:19:14.042Z</time></trkpt><trkpt lat="44.9078167" lon="9.666345"><ele>172.0</ele><time>2026-04-26T16:19:15.043Z</time></trkpt><trkpt lat="44.9078783" lon="9.6664383"><ele>171.8</ele><time>2026-04-26T16:19:16.041Z</time></trkpt><trkpt lat="44.9079317" lon="9.666525"><ele>171.6</ele><time>2026-04-26T16:19:17.041Z</time></trkpt><trkpt lat="44.9079933" lon="9.6666333"><ele>171.4</ele><time>2026-04-26T16:19:19.041Z</time></trkpt><trkpt lat="44.908045" lon="9.666695"><ele>171.20000000000002</ele><time>2026-04-26T16:22:46.042Z</time></trkpt><trkpt lat="44.90814" lon="9.6667983"><ele>171.0</ele><time>2026-04-26T16:22:48.042Z</time></trkpt><trkpt lat="44.90821" lon="9.6668817"><ele>171.5</ele><time>2026-04-26T16:22:49.044Z</time></trkpt><trkpt lat="44.9082933" lon="9.6669817"><ele>172.0</ele><time>2026-04-26T16:22:50.043Z</time></trkpt><trkpt lat="44.90839" lon="9.6670817"><ele>172.5</ele><time>2026-04-26T16:22:51.042Z</time></trkpt><trkpt lat="44.9084933" lon="9.6671783"><ele>173.0</ele><time>2026-04-26T16:22:52.043Z</time></trkpt><trkpt lat="44.9086083" lon="9.66728"><ele>173.0</ele><time>2026-04-26T16:22:53.042Z</time></trkpt><trkpt lat="44.9087333" lon="9.6673833"><ele>173.0</ele><time>2026-04-26T16:22:54.043Z</time></trkpt><trkpt lat="44.9088633" lon="9.6674833"><ele>173.0</ele><time>2026-04-26T16:22:55.043Z</time></trkpt><trkpt lat="44.9089983" lon="9.667585"><ele>173.0</ele><time>2026-04-26T16:22:56.043Z</time></trkpt><trkpt lat="44.9091383" lon="9.6676883"><ele>172.33333333333331</ele><time>2026-04-26T16:22:57.042Z</time></trkpt><trkpt lat="44.909285" lon="9.66778"><ele>171.66666666666666</ele><time>2026-04-26T16:22:58.043Z</time></trkpt><trkpt lat="44.9094433" lon="9.6678417"><ele>171.0</ele><time>2026-04-26T16:22:59.041Z</time></trkpt><trkpt lat="44.9096083" lon="9.6678767"><ele>171.0</ele><time>2026-04-26T16:23:00.042Z</time></trkpt><trkpt lat="44.9097667" lon="9.6678933"><ele>171.0</ele><time>2026-04-26T16:23:01.043Z</time></trkpt><trkpt lat="44.909915" lon="9.667905"><ele>171.0</ele><time>2026-04-26T16:23:02.044Z</time></trkpt><trkpt lat="44.9100567" lon="9.667915"><ele>171.0</ele><time>2026-04-26T16:23:03.043Z</time></trkpt><trkpt lat="44.91019" lon="9.6679217"><ele>170.75</ele><time>2026-04-26T16:23:04.042Z</time></trkpt><trkpt lat="44.9103167" lon="9.6679317"><ele>170.5</ele><time>2026-04-26T16:23:05.042Z</time></trkpt><trkpt lat="44.9104467" lon="9.6679383"><ele>170.25</ele><time>2026-04-26T16:23:06.041Z</time></trkpt><trkpt lat="44.910575" lon="9.6679483"><ele>170.0</ele><time>2026-04-26T16:23:07.042Z</time></trkpt><trkpt lat="44.9107" lon="9.6679667"><ele>170.0</ele><time>2026-04-26T16:23:08.042Z</time></trkpt><trkpt lat="44.9108267" lon="9.667995"><ele>170.0</ele><time>2026-04-26T16:23:09.042Z</time></trkpt><trkpt lat="44.91095" lon="9.6680333"><ele>170.0</ele><time>2026-04-26T16:23:10.042Z</time></trkpt><trkpt lat="44.91107" lon="9.6680817"><ele>170.0</ele><time>2026-04-26T16:23:11.042Z</time></trkpt><trkpt lat="44.911185" lon="9.6681317"><ele>169.8</ele><time>2026-04-26T16:23:12.042Z</time></trkpt><trkpt lat="44.9112967" lon="9.66818"><ele>169.6</ele><time>2026-04-26T16:23:13.042Z</time></trkpt><trkpt lat="44.9114017" lon="9.6682267"><ele>169.39999999999998</ele><time>2026-04-26T16:23:14.045Z</time></trkpt><trkpt lat="44.9114967" lon="9.6682717"><ele>169.2</ele><time>2026-04-26T16:23:15.043Z</time></trkpt><trkpt lat="44.9115833" lon="9.66831"><ele>169.0</ele><time>2026-04-26T16:23:16.043Z</time></trkpt><trkpt lat="44.9116667" lon="9.668345"><ele>168.79999999999998</ele><time>2026-04-26T16:23:17.043Z</time></trkpt><trkpt lat="44.9117533" lon="9.668385"><ele>168.6</ele><time>2026-04-26T16:23:18.044Z</time></trkpt><trkpt lat="44.9118517" lon="9.6684333"><ele>168.4</ele><time>2026-04-26T16:23:19.043Z</time></trkpt><trkpt lat="44.911965" lon="9.6684883"><ele>168.2</ele><time>2026-04-26T16:23:20.042Z</time></trkpt><trkpt lat="44.91209" lon="9.6685517"><ele>168.0</ele><time>2026-04-26T16:23:21.043Z</time></trkpt><trkpt lat="44.9122267" lon="9.6686183"><ele>168.0</ele><time>2026-04-26T16:23:22.042Z</time></trkpt><trkpt lat="44.9123667" lon="9.6686867"><ele>168.0</ele><time>2026-04-26T16:23:23.043Z</time></trkpt><trkpt lat="44.912505" lon="9.6687533"><ele>168.0</ele><time>2026-04-26T16:23:24.044Z</time></trkpt><trkpt lat="44.9126483" lon="9.6688133"><ele>168.0</ele><time>2026-04-26T16:23:25.043Z</time></trkpt><trkpt lat="44.912795" lon="9.6688717"><ele>167.66666666666666</ele><time>2026-04-26T16:23:26.044Z</time></trkpt><trkpt lat="44.9129433" lon="9.6689233"><ele>167.33333333333331</ele><time>2026-04-26T16:23:27.042Z</time></trkpt><trkpt lat="44.913095" lon="9.6689633"><ele>167.0</ele><time>2026-04-26T16:23:28.044Z</time></trkpt><trkpt lat="44.9132467" lon="9.668985"><ele>167.0</ele><time>2026-04-26T16:23:29.042Z</time></trkpt><trkpt lat="44.9134" lon="9.6689933"><ele>167.0</ele><time>2026-04-26T16:23:30.042Z</time></trkpt><trkpt lat="44.9135533" lon="9.6689883"><ele>167.0</ele><time>2026-04-26T16:23:31.042Z</time></trkpt><trkpt lat="44.9137067" lon="9.6689783"><ele>166.33333333333331</ele><time>2026-04-26T16:23:32.042Z</time></trkpt><trkpt lat="44.91386" lon="9.668965"><ele>165.66666666666666</ele><time>2026-04-26T16:23:33.043Z</time></trkpt><trkpt lat="44.9140117" lon="9.6689633"><ele>165.0</ele><time>2026-04-26T16:23:34.042Z</time></trkpt><trkpt lat="44.9141633" lon="9.6689683"><ele>165.33333333333334</ele><time>2026-04-26T16:23:35.041Z</time></trkpt><trkpt lat="44.914315" lon="9.6689867"><ele>165.66666666666669</ele><time>2026-04-26T16:23:36.043Z</time></trkpt><trkpt lat="44.91447" lon="9.6690167"><ele>166.0</ele><time>2026-04-26T16:23:37.042Z</time></trkpt><trkpt lat="44.9146267" lon="9.66905"><ele>166.0</ele><time>2026-04-26T16:23:38.042Z</time></trkpt><trkpt lat="44.9147783" lon="9.6690783"><ele>166.0</ele><time>2026-04-26T16:23:39.042Z</time></trkpt><trkpt lat="44.9149283" lon="9.6691067"><ele>166.0</ele><time>2026-04-26T16:23:40.043Z</time></trkpt><trkpt lat="44.9150783" lon="9.66914"><ele>165.33333333333334</ele><time>2026-04-26T16:23:41.042Z</time></trkpt><trkpt lat="44.9152317" lon="9.6691717"><ele>164.66666666666666</ele><time>2026-04-26T16:23:42.042Z</time></trkpt><trkpt lat="44.9153871" lon="9.6692024"><ele>164.0</ele><time>2026-04-26T16:23:43.042Z</time></trkpt><trkpt lat="44.9155506" lon="9.6692291"><ele>164.0</ele><time>2026-04-26T16:23:44.043Z</time></trkpt><trkpt lat="44.9157137" lon="9.6692569"><ele>164.0</ele><time>2026-04-26T16:23:45.043Z</time></trkpt><trkpt lat="44.9158719" lon="9.6692837"><ele>164.0</ele><time>2026-04-26T16:23:46.043Z</time></trkpt><trkpt lat="44.9160196" lon="9.6693097"><ele>164.0</ele><time>2026-04-26T16:23:47.043Z</time></trkpt><trkpt lat="44.9161581" lon="9.6693335"><ele>164.0</ele><time>2026-04-26T16:23:48.043Z</time></trkpt><trkpt lat="44.9162924" lon="9.6693558"><ele>164.0</ele><time>2026-04-26T16:23:49.043Z</time></trkpt><trkpt lat="44.9164253" lon="9.6693764"><ele>164.0</ele><time>2026-04-26T16:23:50.042Z</time></trkpt><trkpt lat="44.9165596" lon="9.669401"><ele>164.0</ele><time>2026-04-26T16:23:51.044Z</time></trkpt><trkpt lat="44.9166936" lon="9.6694256"><ele>164.0</ele><time>2026-04-26T16:23:52.042Z</time></trkpt><trkpt lat="44.9168309" lon="9.6694501"><ele>164.0</ele><time>2026-04-26T16:23:53.043Z</time></trkpt><trkpt lat="44.9169681" lon="9.6694816"><ele>164.0</ele><time>2026-04-26T16:23:54.043Z</time></trkpt><trkpt lat="44.9171052" lon="9.6695185"><ele>163.25</ele><time>2026-04-26T16:23:55.043Z</time></trkpt><trkpt lat="44.9172442" lon="9.6695612"><ele>162.5</ele><time>2026-04-26T16:23:56.042Z</time></trkpt><trkpt lat="44.9173826" lon="9.6696125"><ele>161.75</ele><time>2026-04-26T16:23:57.042Z</time></trkpt><trkpt lat="44.9175169" lon="9.6696736"><ele>161.0</ele><time>2026-04-26T16:23:58.043Z</time></trkpt><trkpt lat="44.9176454" lon="9.6697421"><ele>161.0</ele><time>2026-04-26T16:23:59.042Z</time></trkpt><trkpt lat="44.9177684" lon="9.6698128"><ele>161.0</ele><time>2026-04-26T16:24:00.042Z</time></trkpt><trkpt lat="44.9178874" lon="9.6698791"><ele>161.0</ele><time>2026-04-26T16:24:01.043Z</time></trkpt><trkpt lat="44.9180068" lon="9.6699366"><ele>161.0</ele><time>2026-04-26T16:24:02.042Z</time></trkpt><trkpt lat="44.9181229" lon="9.6699804"><ele>161.0</ele><time>2026-04-26T16:24:03.043Z</time></trkpt><trkpt lat="44.9182342" lon="9.6700093"><ele>161.0</ele><time>2026-04-26T16:24:04.043Z</time></trkpt><trkpt lat="44.9183437" lon="9.6700336"><ele>161.0</ele><time>2026-04-26T16:24:05.044Z</time></trkpt><trkpt lat="44.9184555" lon="9.6700557"><ele>161.0</ele><time>2026-04-26T16:24:06.043Z</time></trkpt><trkpt lat="44.9185731" lon="9.6700706"><ele>161.0</ele><time>2026-04-26T16:24:07.043Z</time></trkpt><trkpt lat="44.9186975" lon="9.670077"><ele>161.0</ele><time>2026-04-26T16:24:08.043Z</time></trkpt><trkpt lat="44.9188303" lon="9.670088"><ele>161.0</ele><time>2026-04-26T16:24:09.043Z</time></trkpt><trkpt lat="44.9189685" lon="9.6700956"><ele>161.0</ele><time>2026-04-26T16:24:10.043Z</time></trkpt><trkpt lat="44.9191074" lon="9.6700997"><ele>160.0</ele><time>2026-04-26T16:24:11.041Z</time></trkpt><trkpt lat="44.9192437" lon="9.670108"><ele>159.0</ele><time>2026-04-26T16:24:12.043Z</time></trkpt><trkpt lat="44.9193803" lon="9.6701286"><ele>158.0</ele><time>2026-04-26T16:24:13.042Z</time></trkpt><trkpt lat="44.9195142" lon="9.6701622"><ele>157.0</ele><time>2026-04-26T16:24:14.042Z</time></trkpt><trkpt lat="44.9196471" lon="9.6702062"><ele>157.0</ele><time>2026-04-26T16:24:15.043Z</time></trkpt><trkpt lat="44.9197829" lon="9.6702534"><ele>157.0</ele><time>2026-04-26T16:24:16.042Z</time></trkpt><trkpt lat="44.9199169" lon="9.6703014"><ele>157.0</ele><time>2026-04-26T16:24:17.044Z</time></trkpt><trkpt lat="44.9200472" lon="9.6703523"><ele>157.0</ele><time>2026-04-26T16:24:18.043Z</time></trkpt><trkpt lat="44.9201811" lon="9.6703973"><ele>156.0</ele><time>2026-04-26T16:24:19.043Z</time></trkpt><trkpt lat="44.920316" lon="9.6704322"><ele>155.0</ele><time>2026-04-26T16:24:20.042Z</time></trkpt><trkpt lat="44.9204541" lon="9.6704519"><ele>154.0</ele><time>2026-04-26T16:24:21.042Z</time></trkpt><trkpt lat="44.9205973" lon="9.6704584"><ele>153.0</ele><time>2026-04-26T16:24:22.042Z</time></trkpt><trkpt lat="44.9207433" lon="9.6704483"><ele>153.0</ele><time>2026-04-26T16:24:23.043Z</time></trkpt><trkpt lat="44.9208883" lon="9.6704317"><ele>153.0</ele><time>2026-04-26T16:24:24.046Z</time></trkpt><trkpt lat="44.921035" lon="9.670405"><ele>153.0</ele><time>2026-04-26T16:24:25.044Z</time></trkpt><trkpt lat="44.9211767" lon="9.6703783"><ele>153.0</ele><time>2026-04-26T16:24:26.042Z</time></trkpt><trkpt lat="44.921315" lon="9.6703533"><ele>153.0</ele><time>2026-04-26T16:24:27.042Z</time></trkpt><trkpt lat="44.921445" lon="9.6703317"><ele>153.0</ele><time>2026-04-26T16:24:28.042Z</time></trkpt><trkpt lat="44.9215667" lon="9.67031"><ele>153.0</ele><time>2026-04-26T16:24:29.042Z</time></trkpt><trkpt lat="44.9216867" lon="9.67029"><ele>153.0</ele><time>2026-04-26T16:24:30.042Z</time></trkpt><trkpt lat="44.92181" lon="9.6702683"><ele>153.0</ele><time>2026-04-26T16:24:31.042Z</time></trkpt><trkpt lat="44.92194" lon="9.6702467"><ele>153.0</ele><time>2026-04-26T16:24:32.042Z</time></trkpt><trkpt lat="44.9220783" lon="9.67022"><ele>153.0</ele><time>2026-04-26T16:24:33.043Z</time></trkpt><trkpt lat="44.922225" lon="9.6701933"><ele>153.0</ele><time>2026-04-26T16:24:34.042Z</time></trkpt><trkpt lat="44.9223717" lon="9.6701683"><ele>153.0</ele><time>2026-04-26T16:24:35.042Z</time></trkpt><trkpt lat="44.9225133" lon="9.6701433"><ele>153.0</ele><time>2026-04-26T16:24:36.042Z</time></trkpt><trkpt lat="44.92265" lon="9.6701167"><ele>153.0</ele><time>2026-04-26T16:24:37.042Z</time></trkpt><trkpt lat="44.9227833" lon="9.6700933"><ele>153.0</ele><time>2026-04-26T16:24:38.043Z</time></trkpt><trkpt lat="44.9229217" lon="9.6700817"><ele>152.66666666666666</ele><time>2026-04-26T16:24:39.043Z</time></trkpt><trkpt lat="44.9230683" lon="9.6700883"><ele>152.33333333333331</ele><time>2026-04-26T16:24:40.042Z</time></trkpt><trkpt lat="44.9232183" lon="9.6701283"><ele>152.0</ele><time>2026-04-26T16:24:41.042Z</time></trkpt><trkpt lat="44.92338" lon="9.6701967"><ele>151.33333333333331</ele><time>2026-04-26T16:24:42.043Z</time></trkpt><trkpt lat="44.923545" lon="9.670285"><ele>150.66666666666666</ele><time>2026-04-26T16:24:43.042Z</time></trkpt><trkpt lat="44.9237067" lon="9.67037"><ele>150.0</ele><time>2026-04-26T16:24:44.043Z</time></trkpt><trkpt lat="44.92387" lon="9.67045"><ele>150.0</ele><time>2026-04-26T16:24:45.042Z</time></trkpt><trkpt lat="44.9240367" lon="9.6705267"><ele>150.0</ele><time>2026-04-26T16:24:46.043Z</time></trkpt><trkpt lat="44.924205" lon="9.6705917"><ele>150.0</ele><time>2026-04-26T16:24:47.043Z</time></trkpt><trkpt lat="44.92437" lon="9.670645"><ele>150.0</ele><time>2026-04-26T16:24:48.044Z</time></trkpt><trkpt lat="44.924535" lon="9.67069"><ele>150.0</ele><time>2026-04-26T16:24:49.042Z</time></trkpt><trkpt lat="44.9247" lon="9.6707283"><ele>150.0</ele><time>2026-04-26T16:24:50.043Z</time></trkpt><trkpt lat="44.924865" lon="9.6707617"><ele>150.0</ele><time>2026-04-26T16:24:51.044Z</time></trkpt><trkpt lat="44.9250283" lon="9.6707917"><ele>150.0</ele><time>2026-04-26T16:24:52.043Z</time></trkpt><trkpt lat="44.92519" lon="9.6708117"><ele>150.0</ele><time>2026-04-26T16:24:53.042Z</time></trkpt><trkpt lat="44.9253483" lon="9.6708233"><ele>150.0</ele><time>2026-04-26T16:24:54.043Z</time></trkpt><trkpt lat="44.9255" lon="9.6708217"><ele>150.0</ele><time>2026-04-26T16:24:55.043Z</time></trkpt><trkpt lat="44.9256483" lon="9.670815"><ele>150.0</ele><time>2026-04-26T16:24:56.043Z</time></trkpt><trkpt lat="44.9257883" lon="9.6708033"><ele>150.0</ele><time>2026-04-26T16:24:57.043Z</time></trkpt><trkpt lat="44.9259217" lon="9.6707917"><ele>149.5</ele><time>2026-04-26T16:24:58.043Z</time></trkpt><trkpt lat="44.9260533" lon="9.6707783"><ele>149.0</ele><time>2026-04-26T16:24:59.042Z</time></trkpt><trkpt lat="44.9261883" lon="9.6707617"><ele>148.5</ele><time>2026-04-26T16:25:00.044Z</time></trkpt><trkpt lat="44.92633" lon="9.6707467"><ele>148.0</ele><time>2026-04-26T16:25:01.043Z</time></trkpt><trkpt lat="44.9264783" lon="9.6707267"><ele>148.0</ele><time>2026-04-26T16:25:02.043Z</time></trkpt><trkpt lat="44.92663" lon="9.6707133"><ele>148.0</ele><time>2026-04-26T16:25:03.043Z</time></trkpt><trkpt lat="44.9267833" lon="9.6707067"><ele>148.0</ele><time>2026-04-26T16:25:04.042Z</time></trkpt><trkpt lat="44.9269367" lon="9.67071"><ele>147.66666666666669</ele><time>2026-04-26T16:25:05.042Z</time></trkpt><trkpt lat="44.92709" lon="9.6707183"><ele>147.33333333333334</ele><time>2026-04-26T16:25:06.042Z</time></trkpt><trkpt lat="44.9272433" lon="9.67073"><ele>147.0</ele><time>2026-04-26T16:25:07.043Z</time></trkpt><trkpt lat="44.927395" lon="9.6707383"><ele>147.0</ele><time>2026-04-26T16:25:08.042Z</time></trkpt><trkpt lat="44.9275483" lon="9.6707483"><ele>147.0</ele><time>2026-04-26T16:25:09.043Z</time></trkpt><trkpt lat="44.9277033" lon="9.67076"><ele>147.0</ele><time>2026-04-26T16:25:10.043Z</time></trkpt><trkpt lat="44.9278583" lon="9.6707717"><ele>147.33333333333334</ele><time>2026-04-26T16:25:11.042Z</time></trkpt><trkpt lat="44.928015" lon="9.670785"><ele>147.66666666666669</ele><time>2026-04-26T16:25:12.042Z</time></trkpt><trkpt lat="44.9281746" lon="9.6707942"><ele>148.0</ele><time>2026-04-26T16:25:13.042Z</time></trkpt><trkpt lat="44.9283377" lon="9.6708053"><ele>147.66666666666669</ele><time>2026-04-26T16:25:14.042Z</time></trkpt><trkpt lat="44.9285014" lon="9.6708179"><ele>147.33333333333334</ele><time>2026-04-26T16:25:15.043Z</time></trkpt><trkpt lat="44.9286648" lon="9.6708276"><ele>147.0</ele><time>2026-04-26T16:25:16.043Z</time></trkpt><trkpt lat="44.9288283" lon="9.6708375"><ele>147.0</ele><time>2026-04-26T16:25:17.042Z</time></trkpt><trkpt lat="44.9289928" lon="9.6708403"><ele>147.0</ele><time>2026-04-26T16:25:18.044Z</time></trkpt><trkpt lat="44.9291554" lon="9.6708238"><ele>147.0</ele><time>2026-04-26T16:25:19.043Z</time></trkpt><trkpt lat="44.9293055" lon="9.6707946"><ele>146.25</ele><time>2026-04-26T16:25:20.043Z</time></trkpt><trkpt lat="44.9294425" lon="9.6707601"><ele>145.5</ele><time>2026-04-26T16:25:21.043Z</time></trkpt><trkpt lat="44.9295689" lon="9.6707246"><ele>144.75</ele><time>2026-04-26T16:25:22.043Z</time></trkpt><trkpt lat="44.9296882" lon="9.6706882"><ele>144.0</ele><time>2026-04-26T16:25:23.042Z</time></trkpt><trkpt lat="44.9298042" lon="9.6706521"><ele>144.0</ele><time>2026-04-26T16:25:24.043Z</time></trkpt><trkpt lat="44.9299204" lon="9.6706168"><ele>144.0</ele><time>2026-04-26T16:25:25.042Z</time></trkpt><trkpt lat="44.9300349" lon="9.6705842"><ele>144.0</ele><time>2026-04-26T16:25:26.042Z</time></trkpt><trkpt lat="44.9301467" lon="9.6705522"><ele>144.0</ele><time>2026-04-26T16:25:27.042Z</time></trkpt><trkpt lat="44.9302593" lon="9.6705197"><ele>144.0</ele><time>2026-04-26T16:25:28.042Z</time></trkpt><trkpt lat="44.9303714" lon="9.6704885"><ele>144.0</ele><time>2026-04-26T16:25:29.044Z</time></trkpt><trkpt lat="44.9304861" lon="9.6704537"><ele>144.0</ele><time>2026-04-26T16:25:30.042Z</time></trkpt><trkpt lat="44.9306043" lon="9.6704173"><ele>144.0</ele><time>2026-04-26T16:25:31.043Z</time></trkpt><trkpt lat="44.9307206" lon="9.6703808"><ele>144.0</ele><time>2026-04-26T16:25:32.042Z</time></trkpt><trkpt lat="44.9308293" lon="9.6703472"><ele>144.0</ele><time>2026-04-26T16:25:33.044Z</time></trkpt><trkpt lat="44.9309325" lon="9.6703206"><ele>144.0</ele><time>2026-04-26T16:25:34.043Z</time></trkpt><trkpt lat="44.9310282" lon="9.6702957"><ele>144.0</ele><time>2026-04-26T16:25:35.041Z</time></trkpt><trkpt lat="44.9311206" lon="9.6702734"><ele>144.0</ele><time>2026-04-26T16:25:36.041Z</time></trkpt><trkpt lat="44.931209" lon="9.6702478"><ele>143.6</ele><time>2026-04-26T16:25:37.041Z</time></trkpt><trkpt lat="44.9312984" lon="9.6702244"><ele>143.2</ele><time>2026-04-26T16:25:38.041Z</time></trkpt><trkpt lat="44.9313913" lon="9.6701978"><ele>142.79999999999998</ele><time>2026-04-26T16:25:39.042Z</time></trkpt><trkpt lat="44.9314886" lon="9.6701692"><ele>142.4</ele><time>2026-04-26T16:25:40.041Z</time></trkpt><trkpt lat="44.9315916" lon="9.6701428"><ele>142.0</ele><time>2026-04-26T16:25:41.041Z</time></trkpt><trkpt lat="44.9317003" lon="9.6701146"><ele>142.0</ele><time>2026-04-26T16:25:42.042Z</time></trkpt><trkpt lat="44.931814" lon="9.6700869"><ele>142.0</ele><time>2026-04-26T16:25:43.042Z</time></trkpt><trkpt lat="44.9319312" lon="9.6700573"><ele>142.0</ele><time>2026-04-26T16:25:44.041Z</time></trkpt><trkpt lat="44.9320515" lon="9.6700259"><ele>142.0</ele><time>2026-04-26T16:25:45.043Z</time></trkpt><trkpt lat="44.9321712" lon="9.6699936"><ele>142.0</ele><time>2026-04-26T16:25:46.042Z</time></trkpt><trkpt lat="44.9322932" lon="9.6699612"><ele>142.0</ele><time>2026-04-26T16:25:47.042Z</time></trkpt><trkpt lat="44.9324169" lon="9.6699258"><ele>142.0</ele><time>2026-04-26T16:25:48.041Z</time></trkpt><trkpt lat="44.932539" lon="9.669893"><ele>142.0</ele><time>2026-04-26T16:25:49.042Z</time></trkpt><trkpt lat="44.9326545" lon="9.6698624"><ele>142.25</ele><time>2026-04-26T16:25:50.041Z</time></trkpt><trkpt lat="44.9327673" lon="9.6698317"><ele>142.5</ele><time>2026-04-26T16:25:51.042Z</time></trkpt><trkpt lat="44.932877" lon="9.6698019"><ele>142.75</ele><time>2026-04-26T16:25:52.042Z</time></trkpt><trkpt lat="44.9329867" lon="9.6697733"><ele>143.0</ele><time>2026-04-26T16:25:53.042Z</time></trkpt><trkpt lat="44.9331" lon="9.669745"><ele>143.0</ele><time>2026-04-26T16:25:54.042Z</time></trkpt><trkpt lat="44.933215" lon="9.6697183"><ele>143.0</ele><time>2026-04-26T16:25:55.041Z</time></trkpt><trkpt lat="44.933335" lon="9.6696983"><ele>143.0</ele><time>2026-04-26T16:25:56.041Z</time></trkpt><trkpt lat="44.933455" lon="9.66969"><ele>143.0</ele><time>2026-04-26T16:25:57.042Z</time></trkpt><trkpt lat="44.933575" lon="9.669695"><ele>143.0</ele><time>2026-04-26T16:25:58.042Z</time></trkpt><trkpt lat="44.933695" lon="9.6697183"><ele>143.0</ele><time>2026-04-26T16:25:59.043Z</time></trkpt><trkpt lat="44.9338167" lon="9.6697467"><ele>143.0</ele><time>2026-04-26T16:26:00.041Z</time></trkpt><trkpt lat="44.9339383" lon="9.6697883"><ele>143.0</ele><time>2026-04-26T16:26:01.041Z</time></trkpt><trkpt lat="44.93406" lon="9.669845"><ele>143.0</ele><time>2026-04-26T16:26:02.042Z</time></trkpt><trkpt lat="44.93418" lon="9.6699183"><ele>143.0</ele><time>2026-04-26T16:26:03.043Z</time></trkpt><trkpt lat="44.9343" lon="9.6700033"><ele>143.0</ele><time>2026-04-26T16:26:04.042Z</time></trkpt><trkpt lat="44.9344217" lon="9.6700983"><ele>143.0</ele><time>2026-04-26T16:26:05.042Z</time></trkpt><trkpt lat="44.93454" lon="9.6702117"><ele>142.75</ele><time>2026-04-26T16:26:06.041Z</time></trkpt><trkpt lat="44.9346483" lon="9.670335"><ele>142.5</ele><time>2026-04-26T16:26:07.041Z</time></trkpt><trkpt lat="44.9347483" lon="9.6704633"><ele>142.25</ele><time>2026-04-26T16:26:08.041Z</time></trkpt><trkpt lat="44.9348367" lon="9.6706"><ele>142.0</ele><time>2026-04-26T16:26:09.042Z</time></trkpt><trkpt lat="44.93491" lon="9.670735"><ele>142.0</ele><time>2026-04-26T16:26:10.041Z</time></trkpt><trkpt lat="44.9349717" lon="9.6708633"><ele>142.0</ele><time>2026-04-26T16:26:11.043Z</time></trkpt><trkpt lat="44.9350233" lon="9.67098"><ele>142.0</ele><time>2026-04-26T16:26:12.041Z</time></trkpt><trkpt lat="44.9350733" lon="9.6710983"><ele>142.0</ele><time>2026-04-26T16:26:13.041Z</time></trkpt><trkpt lat="44.9351283" lon="9.671225"><ele>142.0</ele><time>2026-04-26T16:26:14.041Z</time></trkpt><trkpt lat="44.9351883" lon="9.6713567"><ele>142.0</ele><time>2026-04-26T16:26:15.042Z</time></trkpt><trkpt lat="44.9352533" lon="9.6714933"><ele>142.0</ele><time>2026-04-26T16:26:16.041Z</time></trkpt><trkpt lat="44.9353217" lon="9.67164"><ele>142.0</ele><time>2026-04-26T16:26:17.042Z</time></trkpt><trkpt lat="44.93539" lon="9.6717967"><ele>142.0</ele><time>2026-04-26T16:26:18.041Z</time></trkpt><trkpt lat="44.9354583" lon="9.671955"><ele>142.0</ele><time>2026-04-26T16:26:19.042Z</time></trkpt><trkpt lat="44.93553" lon="9.672115"><ele>142.0</ele><time>2026-04-26T16:26:20.041Z</time></trkpt><trkpt lat="44.9356" lon="9.6722783"><ele>142.0</ele><time>2026-04-26T16:26:21.042Z</time></trkpt><trkpt lat="44.9356783" lon="9.6724433"><ele>142.0</ele><time>2026-04-26T16:26:22.042Z</time></trkpt><trkpt lat="44.935755" lon="9.6726033"><ele>142.0</ele><time>2026-04-26T16:26:23.046Z</time></trkpt><trkpt lat="44.93583" lon="9.67276"><ele>142.0</ele><time>2026-04-26T16:26:24.041Z</time></trkpt><trkpt lat="44.9359083" lon="9.6729117"><ele>142.0</ele><time>2026-04-26T16:26:25.042Z</time></trkpt><trkpt lat="44.9359933" lon="9.6730567"><ele>142.0</ele><time>2026-04-26T16:26:26.041Z</time></trkpt><trkpt lat="44.9360833" lon="9.6731917"><ele>141.5</ele><time>2026-04-26T16:26:27.041Z</time></trkpt><trkpt lat="44.9361867" lon="9.6733183"><ele>141.0</ele><time>2026-04-26T16:26:28.041Z</time></trkpt><trkpt lat="44.9363" lon="9.6734367"><ele>140.5</ele><time>2026-04-26T16:26:29.041Z</time></trkpt><trkpt lat="44.93642" lon="9.673545"><ele>140.0</ele><time>2026-04-26T16:26:30.041Z</time></trkpt><trkpt lat="44.936545" lon="9.6736433"><ele>140.0</ele><time>2026-04-26T16:26:31.042Z</time></trkpt><trkpt lat="44.9366767" lon="9.6737283"><ele>140.0</ele><time>2026-04-26T16:26:32.041Z</time></trkpt><trkpt lat="44.936805" lon="9.673805"><ele>140.0</ele><time>2026-04-26T16:26:33.041Z</time></trkpt><trkpt lat="44.9369367" lon="9.67388"><ele>140.0</ele><time>2026-04-26T16:26:34.042Z</time></trkpt><trkpt lat="44.9370717" lon="9.6739583"><ele>139.66666666666666</ele><time>2026-04-26T16:26:35.045Z</time></trkpt><trkpt lat="44.9372167" lon="9.6740383"><ele>139.33333333333334</ele><time>2026-04-26T16:26:36.041Z</time></trkpt><trkpt lat="44.93737" lon="9.6741217"><ele>139.0</ele><time>2026-04-26T16:26:37.042Z</time></trkpt><trkpt lat="44.9375283" lon="9.67421"><ele>138.33333333333334</ele><time>2026-04-26T16:26:38.041Z</time></trkpt><trkpt lat="44.9376883" lon="9.6742967"><ele>137.66666666666666</ele><time>2026-04-26T16:26:39.041Z</time></trkpt><trkpt lat="44.93785" lon="9.6743867"><ele>137.0</ele><time>2026-04-26T16:26:40.041Z</time></trkpt><trkpt lat="44.938015" lon="9.674475"><ele>137.0</ele><time>2026-04-26T16:26:41.041Z</time></trkpt><trkpt lat="44.9381817" lon="9.674565"><ele>137.0</ele><time>2026-04-26T16:26:42.041Z</time></trkpt><trkpt lat="44.9383483" lon="9.6746567"><ele>137.0</ele><time>2026-04-26T16:26:43.042Z</time></trkpt><trkpt lat="44.93851" lon="9.674745"><ele>137.33333333333331</ele><time>2026-04-26T16:26:44.041Z</time></trkpt><trkpt lat="44.9386667" lon="9.6748317"><ele>137.66666666666666</ele><time>2026-04-26T16:26:45.042Z</time></trkpt><trkpt lat="44.9388183" lon="9.67492"><ele>138.0</ele><time>2026-04-26T16:26:46.043Z</time></trkpt><trkpt lat="44.93897" lon="9.6750033"><ele>138.0</ele><time>2026-04-26T16:26:47.042Z</time></trkpt><trkpt lat="44.9391217" lon="9.675085"><ele>138.0</ele><time>2026-04-26T16:26:48.042Z</time></trkpt><trkpt lat="44.93927" lon="9.6751667"><ele>138.0</ele><time>2026-04-26T16:26:49.041Z</time></trkpt><trkpt lat="44.9394167" lon="9.67525"><ele>137.0</ele><time>2026-04-26T16:26:50.042Z</time></trkpt><trkpt lat="44.9395617" lon="9.67533"><ele>136.0</ele><time>2026-04-26T16:26:51.043Z</time></trkpt><trkpt lat="44.9397067" lon="9.6754083"><ele>135.0</ele><time>2026-04-26T16:26:52.041Z</time></trkpt><trkpt lat="44.9398467" lon="9.675485"><ele>135.0</ele><time>2026-04-26T16:26:53.041Z</time></trkpt><trkpt lat="44.9399817" lon="9.6755583"><ele>135.0</ele><time>2026-04-26T16:26:54.042Z</time></trkpt><trkpt lat="44.9401133" lon="9.6756283"><ele>135.0</ele><time>2026-04-26T16:26:55.041Z</time></trkpt><trkpt lat="44.9402417" lon="9.6756983"><ele>135.0</ele><time>2026-04-26T16:26:56.041Z</time></trkpt><trkpt lat="44.94037" lon="9.67577"><ele>135.25</ele><time>2026-04-26T16:26:57.042Z</time></trkpt><trkpt lat="44.9405" lon="9.6758417"><ele>135.5</ele><time>2026-04-26T16:26:58.044Z</time></trkpt><trkpt lat="44.94063" lon="9.6759117"><ele>135.75</ele><time>2026-04-26T16:26:59.042Z</time></trkpt><trkpt lat="44.94076" lon="9.67598"><ele>136.0</ele><time>2026-04-26T16:27:00.042Z</time></trkpt><trkpt lat="44.9408817" lon="9.676045"><ele>135.5</ele><time>2026-04-26T16:27:01.043Z</time></trkpt><trkpt lat="44.9409967" lon="9.6761067"><ele>135.0</ele><time>2026-04-26T16:27:02.042Z</time></trkpt><trkpt lat="44.9411083" lon="9.6761683"><ele>134.5</ele><time>2026-04-26T16:27:03.042Z</time></trkpt><trkpt lat="44.941215" lon="9.6762267"><ele>134.0</ele><time>2026-04-26T16:27:04.042Z</time></trkpt><trkpt lat="44.94132" lon="9.676285"><ele>134.0</ele><time>2026-04-26T16:27:05.042Z</time></trkpt><trkpt lat="44.9414267" lon="9.67634"><ele>134.0</ele><time>2026-04-26T16:27:06.043Z</time></trkpt><trkpt lat="44.9415417" lon="9.676395"><ele>134.0</ele><time>2026-04-26T16:27:07.045Z</time></trkpt><trkpt lat="44.941665" lon="9.676445"><ele>134.0</ele><time>2026-04-26T16:27:08.043Z</time></trkpt><trkpt lat="44.94179" lon="9.6764917"><ele>133.75</ele><time>2026-04-26T16:27:09.043Z</time></trkpt><trkpt lat="44.9419183" lon="9.6765317"><ele>133.5</ele><time>2026-04-26T16:27:10.042Z</time></trkpt><trkpt lat="44.9420483" lon="9.6765683"><ele>133.25</ele><time>2026-04-26T16:27:11.042Z</time></trkpt><trkpt lat="44.94218" lon="9.6766033"><ele>133.0</ele><time>2026-04-26T16:27:12.042Z</time></trkpt><trkpt lat="44.9423133" lon="9.67664"><ele>133.0</ele><time>2026-04-26T16:27:13.042Z</time></trkpt><trkpt lat="44.942445" lon="9.6766767"><ele>133.0</ele><time>2026-04-26T16:27:14.043Z</time></trkpt><trkpt lat="44.942575" lon="9.67671"><ele>133.0</ele><time>2026-04-26T16:27:15.042Z</time></trkpt><trkpt lat="44.9427" lon="9.676745"><ele>133.0</ele><time>2026-04-26T16:27:16.043Z</time></trkpt><trkpt lat="44.942825" lon="9.6767783"><ele>132.75</ele><time>2026-04-26T16:27:17.042Z</time></trkpt><trkpt lat="44.9429467" lon="9.6768117"><ele>132.5</ele><time>2026-04-26T16:27:18.042Z</time></trkpt><trkpt lat="44.943065" lon="9.6768433"><ele>132.25</ele><time>2026-04-26T16:27:19.041Z</time></trkpt><trkpt lat="44.9431833" lon="9.6768783"><ele>132.0</ele><time>2026-04-26T16:27:20.042Z</time></trkpt><trkpt lat="44.943295" lon="9.6769117"><ele>131.6</ele><time>2026-04-26T16:27:21.042Z</time></trkpt><trkpt lat="44.9434033" lon="9.6769417"><ele>131.2</ele><time>2026-04-26T16:27:22.042Z</time></trkpt><trkpt lat="44.9435083" lon="9.6769717"><ele>130.8</ele><time>2026-04-26T16:27:23.041Z</time></trkpt><trkpt lat="44.9436117" lon="9.677"><ele>130.4</ele><time>2026-04-26T16:27:24.042Z</time></trkpt><trkpt lat="44.9437167" lon="9.677025"><ele>130.0</ele><time>2026-04-26T16:27:25.043Z</time></trkpt><trkpt lat="44.94382" lon="9.67705"><ele>130.0</ele><time>2026-04-26T16:27:26.044Z</time></trkpt><trkpt lat="44.943925" lon="9.67708"><ele>130.0</ele><time>2026-04-26T16:27:27.044Z</time></trkpt><trkpt lat="44.944035" lon="9.67711"><ele>130.0</ele><time>2026-04-26T16:27:28.044Z</time></trkpt><trkpt lat="44.9441467" lon="9.67715"><ele>130.0</ele><time>2026-04-26T16:27:29.044Z</time></trkpt><trkpt lat="44.9442583" lon="9.677185"><ele>130.0</ele><time>2026-04-26T16:27:30.045Z</time></trkpt><trkpt lat="44.94437" lon="9.6772267"><ele>129.75</ele><time>2026-04-26T16:27:31.044Z</time></trkpt><trkpt lat="44.944485" lon="9.6772683"><ele>129.5</ele><time>2026-04-26T16:27:32.041Z</time></trkpt><trkpt lat="44.9446017" lon="9.67731"><ele>129.25</ele><time>2026-04-26T16:27:33.042Z</time></trkpt><trkpt lat="44.9447167" lon="9.6773533"><ele>129.0</ele><time>2026-04-26T16:27:34.041Z</time></trkpt><trkpt lat="44.9448367" lon="9.6774"><ele>129.0</ele><time>2026-04-26T16:27:35.041Z</time></trkpt><trkpt lat="44.9449633" lon="9.67745"><ele>129.0</ele><time>2026-04-26T16:27:36.041Z</time></trkpt><trkpt lat="44.94509" lon="9.6775067"><ele>129.0</ele><time>2026-04-26T16:27:37.043Z</time></trkpt><trkpt lat="44.9452117" lon="9.6775617"><ele>129.0</ele><time>2026-04-26T16:27:38.042Z</time></trkpt><trkpt lat="44.9453267" lon="9.6776183"><ele>128.8</ele><time>2026-04-26T16:27:39.042Z</time></trkpt><trkpt lat="44.9454367" lon="9.6776717"><ele>128.60000000000002</ele><time>2026-04-26T16:27:40.042Z</time></trkpt><trkpt lat="44.94554" lon="9.6777233"><ele>128.4</ele><time>2026-04-26T16:27:41.043Z</time></trkpt><trkpt lat="44.9456417" lon="9.677775"><ele>128.20000000000002</ele><time>2026-04-26T16:27:42.042Z</time></trkpt><trkpt lat="44.9457433" lon="9.6778317"><ele>128.0</ele><time>2026-04-26T16:27:43.042Z</time></trkpt><trkpt lat="44.9458433" lon="9.6778967"><ele>127.80000000000001</ele><time>2026-04-26T16:27:44.042Z</time></trkpt><trkpt lat="44.9459383" lon="9.6779667"><ele>127.60000000000001</ele><time>2026-04-26T16:27:45.043Z</time></trkpt><trkpt lat="44.9460267" lon="9.6780317"><ele>127.39999999999999</ele><time>2026-04-26T16:27:46.044Z</time></trkpt><trkpt lat="44.9461083" lon="9.6780983"><ele>127.19999999999999</ele><time>2026-04-26T16:27:47.042Z</time></trkpt><trkpt lat="44.9461833" lon="9.6781717"><ele>127.0</ele><time>2026-04-26T16:27:48.042Z</time></trkpt><trkpt lat="44.9462433" lon="9.6782667"><ele>127.0</ele><time>2026-04-26T16:27:49.041Z</time></trkpt><trkpt lat="44.946275" lon="9.6783917"><ele>127.0</ele><time>2026-04-26T16:27:50.042Z</time></trkpt><trkpt lat="44.9462783" lon="9.678545"><ele>127.0</ele><time>2026-04-26T16:27:51.042Z</time></trkpt><trkpt lat="44.9462633" lon="9.6787167"><ele>127.0</ele><time>2026-04-26T16:27:52.043Z</time></trkpt><trkpt lat="44.9462383" lon="9.6789133"><ele>127.33333333333334</ele><time>2026-04-26T16:27:53.045Z</time></trkpt><trkpt lat="44.9462133" lon="9.6791333"><ele>127.66666666666666</ele><time>2026-04-26T16:27:54.043Z</time></trkpt><trkpt lat="44.9461867" lon="9.6793633"><ele>128.0</ele><time>2026-04-26T16:27:55.042Z</time></trkpt><trkpt lat="44.9461633" lon="9.6795933"><ele>128.0</ele><time>2026-04-26T16:27:56.043Z</time></trkpt><trkpt lat="44.9461383" lon="9.6798217"><ele>128.0</ele><time>2026-04-26T16:27:57.043Z</time></trkpt><trkpt lat="44.9461117" lon="9.6800417"><ele>128.0</ele><time>2026-04-26T16:27:58.042Z</time></trkpt><trkpt lat="44.94608" lon="9.6802517"><ele>128.0</ele><time>2026-04-26T16:27:59.044Z</time></trkpt><trkpt lat="44.9460383" lon="9.68046"><ele>128.0</ele><time>2026-04-26T16:28:00.042Z</time></trkpt><trkpt lat="44.9459917" lon="9.6806633"><ele>128.0</ele><time>2026-04-26T16:28:01.042Z</time></trkpt><trkpt lat="44.9459367" lon="9.6808533"><ele>128.0</ele><time>2026-04-26T16:28:02.041Z</time></trkpt><trkpt lat="44.945875" lon="9.681025"><ele>128.0</ele><time>2026-04-26T16:28:03.042Z</time></trkpt><trkpt lat="44.9458067" lon="9.6811833"><ele>128.0</ele><time>2026-04-26T16:28:04.042Z</time></trkpt><trkpt lat="44.9457283" lon="9.681335"><ele>128.0</ele><time>2026-04-26T16:28:05.041Z</time></trkpt><trkpt lat="44.9456467" lon="9.6814767"><ele>127.75</ele><time>2026-04-26T16:28:06.043Z</time></trkpt><trkpt lat="44.9455617" lon="9.6816183"><ele>127.5</ele><time>2026-04-26T16:28:07.041Z</time></trkpt><trkpt lat="44.9454717" lon="9.6817667"><ele>127.25</ele><time>2026-04-26T16:28:08.042Z</time></trkpt><trkpt lat="44.9453833" lon="9.68192"><ele>127.0</ele><time>2026-04-26T16:28:09.042Z</time></trkpt><trkpt lat="44.9452967" lon="9.68207"><ele>127.0</ele><time>2026-04-26T16:28:10.041Z</time></trkpt><trkpt lat="44.9452117" lon="9.68221"><ele>127.0</ele><time>2026-04-26T16:28:11.041Z</time></trkpt><trkpt lat="44.9451283" lon="9.68235"><ele>127.0</ele><time>2026-04-26T16:28:12.041Z</time></trkpt><trkpt lat="44.94504" lon="9.6824983"><ele>127.0</ele><time>2026-04-26T16:28:13.043Z</time></trkpt><trkpt lat="44.94495" lon="9.682645"><ele>127.5</ele><time>2026-04-26T16:28:14.043Z</time></trkpt><trkpt lat="44.9448633" lon="9.68279"><ele>128.0</ele><time>2026-04-26T16:28:15.042Z</time></trkpt><trkpt lat="44.9447767" lon="9.6829317"><ele>128.5</ele><time>2026-04-26T16:28:16.042Z</time></trkpt><trkpt lat="44.9446967" lon="9.6830683"><ele>129.0</ele><time>2026-04-26T16:28:17.041Z</time></trkpt><trkpt lat="44.9446233" lon="9.6832"><ele>129.0</ele><time>2026-04-26T16:28:18.042Z</time></trkpt><trkpt lat="44.944555" lon="9.683335"><ele>129.0</ele><time>2026-04-26T16:28:19.042Z</time></trkpt><trkpt lat="44.9444967" lon="9.6834683"><ele>129.0</ele><time>2026-04-26T16:28:20.045Z</time></trkpt><trkpt lat="44.94445" lon="9.6835983"><ele>129.0</ele><time>2026-04-26T16:28:21.045Z</time></trkpt><trkpt lat="44.9444117" lon="9.6837267"><ele>129.0</ele><time>2026-04-26T16:28:22.043Z</time></trkpt><trkpt lat="44.9443783" lon="9.68385"><ele>128.83333333333334</ele><time>2026-04-26T16:28:23.045Z</time></trkpt><trkpt lat="44.94435" lon="9.6839667"><ele>128.66666666666666</ele><time>2026-04-26T16:28:24.044Z</time></trkpt><trkpt lat="44.944325" lon="9.684075"><ele>128.5</ele><time>2026-04-26T16:28:25.043Z</time></trkpt><trkpt lat="44.944305" lon="9.6841767"><ele>128.33333333333331</ele><time>2026-04-26T16:28:26.044Z</time></trkpt><trkpt lat="44.9442867" lon="9.68427"><ele>128.16666666666666</ele><time>2026-04-26T16:28:27.044Z</time></trkpt><trkpt lat="44.9442833" lon="9.6844167"><ele>128.0</ele><time>2026-04-26T16:28:29.044Z</time></trkpt><trkpt lat="44.9443617" lon="9.6844983"><ele>127.60000000000001</ele><time>2026-04-26T16:28:31.042Z</time></trkpt><trkpt lat="44.9444317" lon="9.684495"><ele>127.20000000000002</ele><time>2026-04-26T16:28:32.041Z</time></trkpt><trkpt lat="44.9445183" lon="9.6844867"><ele>126.8</ele><time>2026-04-26T16:28:33.042Z</time></trkpt><trkpt lat="44.9446217" lon="9.68449"><ele>126.4</ele><time>2026-04-26T16:28:34.042Z</time></trkpt><trkpt lat="44.9447967" lon="9.6845333"><ele>126.0</ele><time>2026-04-26T16:28:35.041Z</time></trkpt><trkpt lat="44.9449917" lon="9.6845967"><ele>126.0</ele><time>2026-04-26T16:28:36.041Z</time></trkpt><trkpt lat="44.94521" lon="9.6846717"><ele>126.0</ele><time>2026-04-26T16:28:37.042Z</time></trkpt><trkpt lat="44.9454267" lon="9.68475"><ele>126.0</ele><time>2026-04-26T16:28:38.042Z</time></trkpt><trkpt lat="44.94563" lon="9.684835"><ele>126.0</ele><time>2026-04-26T16:28:39.042Z</time></trkpt><trkpt lat="44.945835" lon="9.6849167"><ele>126.0</ele><time>2026-04-26T16:28:40.041Z</time></trkpt><trkpt lat="44.94605" lon="9.6849967"><ele>126.0</ele><time>2026-04-26T16:28:41.042Z</time></trkpt><trkpt lat="44.9462833" lon="9.6850767"><ele>126.0</ele><time>2026-04-26T16:28:42.041Z</time></trkpt><trkpt lat="44.9465283" lon="9.6851667"><ele>126.0</ele><time>2026-04-26T16:28:43.041Z</time></trkpt><trkpt lat="44.946765" lon="9.6852567"><ele>126.0</ele><time>2026-04-26T16:28:44.042Z</time></trkpt><trkpt lat="44.9469817" lon="9.6853367"><ele>126.0</ele><time>2026-04-26T16:28:45.043Z</time></trkpt><trkpt lat="44.947185" lon="9.6854083"><ele>126.0</ele><time>2026-04-26T16:28:46.042Z</time></trkpt><trkpt lat="44.9473767" lon="9.6854767"><ele>125.66666666666666</ele><time>2026-04-26T16:28:47.042Z</time></trkpt><trkpt lat="44.9475567" lon="9.6855433"><ele>125.33333333333333</ele><time>2026-04-26T16:28:48.043Z</time></trkpt><trkpt lat="44.9477283" lon="9.6856033"><ele>125.0</ele><time>2026-04-26T16:28:49.043Z</time></trkpt><trkpt lat="44.9478933" lon="9.68566"><ele>125.0</ele><time>2026-04-26T16:28:50.042Z</time></trkpt><trkpt lat="44.9480533" lon="9.685715"><ele>125.0</ele><time>2026-04-26T16:28:51.044Z</time></trkpt><trkpt lat="44.9482067" lon="9.6857667"><ele>125.0</ele><time>2026-04-26T16:28:52.042Z</time></trkpt><trkpt lat="44.94835" lon="9.6858167"><ele>124.75</ele><time>2026-04-26T16:28:53.042Z</time></trkpt><trkpt lat="44.9484883" lon="9.6858633"><ele>124.5</ele><time>2026-04-26T16:28:54.042Z</time></trkpt><trkpt lat="44.948625" lon="9.68591"><ele>124.25</ele><time>2026-04-26T16:28:55.044Z</time></trkpt><trkpt lat="44.948755" lon="9.685955"><ele>124.0</ele><time>2026-04-26T16:28:56.043Z</time></trkpt><trkpt lat="44.9488867" lon="9.6860033"><ele>124.0</ele><time>2026-04-26T16:28:57.044Z</time></trkpt><trkpt lat="44.9490267" lon="9.6860583"><ele>124.0</ele><time>2026-04-26T16:28:58.045Z</time></trkpt><trkpt lat="44.9491767" lon="9.6861167"><ele>124.0</ele><time>2026-04-26T16:28:59.043Z</time></trkpt><trkpt lat="44.9493333" lon="9.6861717"><ele>123.0</ele><time>2026-04-26T16:29:00.041Z</time></trkpt><trkpt lat="44.949495" lon="9.6862233"><ele>122.0</ele><time>2026-04-26T16:29:01.042Z</time></trkpt><trkpt lat="44.9496533" lon="9.68628"><ele>121.0</ele><time>2026-04-26T16:29:02.042Z</time></trkpt><trkpt lat="44.94981" lon="9.6863333"><ele>121.0</ele><time>2026-04-26T16:29:03.042Z</time></trkpt><trkpt lat="44.9499667" lon="9.68639"><ele>121.0</ele><time>2026-04-26T16:29:04.041Z</time></trkpt><trkpt lat="44.9501233" lon="9.6864467"><ele>121.0</ele><time>2026-04-26T16:29:05.042Z</time></trkpt><trkpt lat="44.9502767" lon="9.6865017"><ele>121.0</ele><time>2026-04-26T16:29:06.042Z</time></trkpt><trkpt lat="44.950425" lon="9.6865533"><ele>121.0</ele><time>2026-04-26T16:29:07.043Z</time></trkpt><trkpt lat="44.9505683" lon="9.6866067"><ele>121.0</ele><time>2026-04-26T16:29:08.042Z</time></trkpt><trkpt lat="44.9507117" lon="9.686665"><ele>121.0</ele><time>2026-04-26T16:29:09.042Z</time></trkpt><trkpt lat="44.9508467" lon="9.6867167"><ele>121.0</ele><time>2026-04-26T16:29:10.043Z</time></trkpt><trkpt lat="44.950975" lon="9.686765"><ele>121.0</ele><time>2026-04-26T16:29:11.041Z</time></trkpt><trkpt lat="44.9511" lon="9.6868067"><ele>121.0</ele><time>2026-04-26T16:29:12.041Z</time></trkpt><trkpt lat="44.9512217" lon="9.68685"><ele>121.0</ele><time>2026-04-26T16:29:13.042Z</time></trkpt><trkpt lat="44.951345" lon="9.68689"><ele>121.0</ele><time>2026-04-26T16:29:14.041Z</time></trkpt><trkpt lat="44.95146" lon="9.686925"><ele>121.0</ele><time>2026-04-26T16:29:15.043Z</time></trkpt><trkpt lat="44.951565" lon="9.68696"><ele>121.0</ele><time>2026-04-26T16:29:16.042Z</time></trkpt><trkpt lat="44.9516667" lon="9.6869967"><ele>120.50000000000001</ele><time>2026-04-26T16:29:17.042Z</time></trkpt><trkpt lat="44.95176" lon="9.6870283"><ele>120.0</ele><time>2026-04-26T16:29:18.044Z</time></trkpt><trkpt lat="44.9518483" lon="9.68706"><ele>119.5</ele><time>2026-04-26T16:29:19.045Z</time></trkpt><trkpt lat="44.9519317" lon="9.6870917"><ele>119.0</ele><time>2026-04-26T16:29:20.044Z</time></trkpt><trkpt lat="44.9520133" lon="9.6871233"><ele>118.50000000000001</ele><time>2026-04-26T16:29:21.045Z</time></trkpt><trkpt lat="44.9520933" lon="9.6871533"><ele>118.0</ele><time>2026-04-26T16:29:22.044Z</time></trkpt><trkpt lat="44.9521767" lon="9.6871817"><ele>118.0</ele><time>2026-04-26T16:29:23.044Z</time></trkpt><trkpt lat="44.9522633" lon="9.68721"><ele>118.00000000000001</ele><time>2026-04-26T16:29:24.045Z</time></trkpt><trkpt lat="44.9523533" lon="9.6872383"><ele>118.00000000000001</ele><time>2026-04-26T16:29:25.044Z</time></trkpt><trkpt lat="44.9524533" lon="9.6872733"><ele>118.0</ele><time>2026-04-26T16:29:26.041Z</time></trkpt><trkpt lat="44.9525533" lon="9.68731"><ele>118.0</ele><time>2026-04-26T16:29:27.042Z</time></trkpt><trkpt lat="44.9526533" lon="9.687345"><ele>118.4</ele><time>2026-04-26T16:29:28.042Z</time></trkpt><trkpt lat="44.9527567" lon="9.68738"><ele>118.80000000000001</ele><time>2026-04-26T16:29:29.041Z</time></trkpt><trkpt lat="44.9528583" lon="9.6874183"><ele>119.2</ele><time>2026-04-26T16:29:30.042Z</time></trkpt><trkpt lat="44.9529617" lon="9.68745"><ele>119.6</ele><time>2026-04-26T16:29:31.041Z</time></trkpt><trkpt lat="44.9530733" lon="9.687485"><ele>120.0</ele><time>2026-04-26T16:29:32.042Z</time></trkpt><trkpt lat="44.9531833" lon="9.6875233"><ele>120.0</ele><time>2026-04-26T16:29:33.043Z</time></trkpt><trkpt lat="44.953295" lon="9.6875567"><ele>120.0</ele><time>2026-04-26T16:29:34.043Z</time></trkpt><trkpt lat="44.9534083" lon="9.6875967"><ele>120.0</ele><time>2026-04-26T16:29:35.041Z</time></trkpt><trkpt lat="44.9535217" lon="9.6876383"><ele>120.0</ele><time>2026-04-26T16:29:36.041Z</time></trkpt><trkpt lat="44.9536367" lon="9.6876833"><ele>120.0</ele><time>2026-04-26T16:29:37.042Z</time></trkpt><trkpt lat="44.9537533" lon="9.6877283"><ele>120.0</ele><time>2026-04-26T16:29:38.041Z</time></trkpt><trkpt lat="44.9538717" lon="9.6877733"><ele>120.0</ele><time>2026-04-26T16:29:39.042Z</time></trkpt><trkpt lat="44.9539867" lon="9.687815"><ele>120.0</ele><time>2026-04-26T16:29:40.042Z</time></trkpt><trkpt lat="44.9540983" lon="9.687855"><ele>119.8</ele><time>2026-04-26T16:29:41.041Z</time></trkpt><trkpt lat="44.9542083" lon="9.6878967"><ele>119.6</ele><time>2026-04-26T16:29:42.041Z</time></trkpt><trkpt lat="44.95432" lon="9.6879367"><ele>119.4</ele><time>2026-04-26T16:29:43.042Z</time></trkpt><trkpt lat="44.9544283" lon="9.6879733"><ele>119.2</ele><time>2026-04-26T16:29:44.042Z</time></trkpt><trkpt lat="44.9545317" lon="9.6880067"><ele>119.0</ele><time>2026-04-26T16:29:45.042Z</time></trkpt><trkpt lat="44.9546283" lon="9.6880383"><ele>118.99999999999999</ele><time>2026-04-26T16:29:46.042Z</time></trkpt><trkpt lat="44.95472" lon="9.6880717"><ele>119.0</ele><time>2026-04-26T16:29:47.041Z</time></trkpt><trkpt lat="44.95481" lon="9.6881017"><ele>119.0</ele><time>2026-04-26T16:29:48.042Z</time></trkpt><trkpt lat="44.9548933" lon="9.68813"><ele>119.0</ele><time>2026-04-26T16:29:49.043Z</time></trkpt><trkpt lat="44.954975" lon="9.6881583"><ele>118.99999999999999</ele><time>2026-04-26T16:29:50.042Z</time></trkpt><trkpt lat="44.9550567" lon="9.6881867"><ele>119.0</ele><time>2026-04-26T16:29:51.042Z</time></trkpt><trkpt lat="44.9551417" lon="9.6882167"><ele>118.83333333333333</ele><time>2026-04-26T16:29:52.042Z</time></trkpt><trkpt lat="44.955225" lon="9.688245"><ele>118.66666666666666</ele><time>2026-04-26T16:29:53.042Z</time></trkpt><trkpt lat="44.955305" lon="9.6882767"><ele>118.5</ele><time>2026-04-26T16:29:54.042Z</time></trkpt><trkpt lat="44.9553833" lon="9.6883067"><ele>118.33333333333334</ele><time>2026-04-26T16:29:55.042Z</time></trkpt><trkpt lat="44.9554583" lon="9.6883317"><ele>118.16666666666667</ele><time>2026-04-26T16:29:56.045Z</time></trkpt><trkpt lat="44.9555283" lon="9.6883567"><ele>118.0</ele><time>2026-04-26T16:29:57.042Z</time></trkpt><trkpt lat="44.9555983" lon="9.6883833"><ele>118.0</ele><time>2026-04-26T16:29:58.042Z</time></trkpt><trkpt lat="44.955665" lon="9.688405"><ele>118.00000000000001</ele><time>2026-04-26T16:29:59.042Z</time></trkpt><trkpt lat="44.95573" lon="9.6884217"><ele>118.00000000000001</ele><time>2026-04-26T16:30:00.043Z</time></trkpt><trkpt lat="44.95585" lon="9.688455"><ele>118.0</ele><time>2026-04-26T16:30:02.042Z</time></trkpt><trkpt lat="44.9559767" lon="9.6884933"><ele>118.0</ele><time>2026-04-26T16:30:04.042Z</time></trkpt><trkpt lat="44.95604" lon="9.688515"><ele>118.0</ele><time>2026-04-26T16:30:05.042Z</time></trkpt><trkpt lat="44.9561017" lon="9.68854"><ele>118.00000000000001</ele><time>2026-04-26T16:30:06.042Z</time></trkpt><trkpt lat="44.956195" lon="9.6885883"><ele>118.00000000000001</ele><time>2026-04-26T16:30:08.043Z</time></trkpt><trkpt lat="44.9562783" lon="9.6886217"><ele>118.0</ele><time>2026-04-26T16:30:13.041Z</time></trkpt><trkpt lat="44.9564217" lon="9.6886633"><ele>118.0</ele><time>2026-04-26T16:30:15.042Z</time></trkpt><trkpt lat="44.9565283" lon="9.6886817"><ele>118.0</ele><time>2026-04-26T16:30:16.042Z</time></trkpt><trkpt lat="44.95666" lon="9.6886633"><ele>118.0</ele><time>2026-04-26T16:30:17.043Z</time></trkpt><trkpt lat="44.95679" lon="9.688645"><ele>118.0</ele><time>2026-04-26T16:30:18.042Z</time></trkpt><trkpt lat="44.9569267" lon="9.6886233"><ele>118.0</ele><time>2026-04-26T16:30:19.041Z</time></trkpt><trkpt lat="44.95706" lon="9.6885983"><ele>117.25</ele><time>2026-04-26T16:30:20.043Z</time></trkpt><trkpt lat="44.957195" lon="9.6885783"><ele>116.5</ele><time>2026-04-26T16:30:21.042Z</time></trkpt><trkpt lat="44.9573417" lon="9.6885633"><ele>115.75</ele><time>2026-04-26T16:30:22.042Z</time></trkpt><trkpt lat="44.9574867" lon="9.6885483"><ele>115.0</ele><time>2026-04-26T16:30:23.041Z</time></trkpt><trkpt lat="44.957625" lon="9.6885367"><ele>114.5</ele><time>2026-04-26T16:30:24.041Z</time></trkpt><trkpt lat="44.9577567" lon="9.68852"><ele>114.0</ele><time>2026-04-26T16:30:25.043Z</time></trkpt><trkpt lat="44.9578833" lon="9.6885017"><ele>113.5</ele><time>2026-04-26T16:30:26.042Z</time></trkpt><trkpt lat="44.9580067" lon="9.6884833"><ele>113.0</ele><time>2026-04-26T16:30:27.042Z</time></trkpt><trkpt lat="44.9581317" lon="9.6884667"><ele>113.0</ele><time>2026-04-26T16:30:28.041Z</time></trkpt><trkpt lat="44.9582583" lon="9.6884483"><ele>113.0</ele><time>2026-04-26T16:30:29.044Z</time></trkpt><trkpt lat="44.9583883" lon="9.6884317"><ele>113.0</ele><time>2026-04-26T16:30:30.042Z</time></trkpt><trkpt lat="44.958515" lon="9.6884133"><ele>113.0</ele><time>2026-04-26T16:30:31.042Z</time></trkpt><trkpt lat="44.95864" lon="9.688395"><ele>112.75</ele><time>2026-04-26T16:30:32.043Z</time></trkpt><trkpt lat="44.9587633" lon="9.6883783"><ele>112.5</ele><time>2026-04-26T16:30:33.042Z</time></trkpt><trkpt lat="44.9588833" lon="9.6883633"><ele>112.25</ele><time>2026-04-26T16:30:34.042Z</time></trkpt><trkpt lat="44.9590017" lon="9.6883483"><ele>112.0</ele><time>2026-04-26T16:30:35.042Z</time></trkpt><trkpt lat="44.959115" lon="9.688335"><ele>111.6</ele><time>2026-04-26T16:30:36.042Z</time></trkpt><trkpt lat="44.959225" lon="9.6883183"><ele>111.19999999999999</ele><time>2026-04-26T16:30:37.042Z</time></trkpt><trkpt lat="44.9593333" lon="9.6883033"><ele>110.8</ele><time>2026-04-26T16:30:38.043Z</time></trkpt><trkpt lat="44.9594367" lon="9.6882883"><ele>110.4</ele><time>2026-04-26T16:30:39.044Z</time></trkpt><trkpt lat="44.9595317" lon="9.688275"><ele>110.0</ele><time>2026-04-26T16:30:40.043Z</time></trkpt><trkpt lat="44.95962" lon="9.6882617"><ele>110.0</ele><time>2026-04-26T16:30:41.042Z</time></trkpt><trkpt lat="44.9596967" lon="9.688255"><ele>110.0</ele><time>2026-04-26T16:30:42.042Z</time></trkpt><trkpt lat="44.9597617" lon="9.6882467"><ele>110.0</ele><time>2026-04-26T16:30:43.042Z</time></trkpt><trkpt lat="44.9598783" lon="9.6881967"><ele>110.0</ele><time>2026-04-26T16:30:45.043Z</time></trkpt><trkpt lat="44.959945" lon="9.68803"><ele>110.0</ele><time>2026-04-26T16:30:47.043Z</time></trkpt><trkpt lat="44.9599533" lon="9.68788"><ele>110.2</ele><time>2026-04-26T16:30:48.043Z</time></trkpt><trkpt lat="44.9599517" lon="9.687705"><ele>110.4</ele><time>2026-04-26T16:30:49.042Z</time></trkpt><trkpt lat="44.9599467" lon="9.687535"><ele>110.6</ele><time>2026-04-26T16:30:50.042Z</time></trkpt><trkpt lat="44.9599383" lon="9.6873867"><ele>110.8</ele><time>2026-04-26T16:30:51.044Z</time></trkpt><trkpt lat="44.9599283" lon="9.6872783"><ele>111.0</ele><time>2026-04-26T16:30:52.042Z</time></trkpt><trkpt lat="44.9599667" lon="9.6871933"><ele>110.75</ele><time>2026-04-26T16:30:54.042Z</time></trkpt><trkpt lat="44.9600467" lon="9.6871617"><ele>110.5</ele><time>2026-04-26T16:30:55.042Z</time></trkpt><trkpt lat="44.9601467" lon="9.6871383"><ele>110.25</ele><time>2026-04-26T16:30:56.042Z</time></trkpt><trkpt lat="44.960275" lon="9.6871183"><ele>110.0</ele><time>2026-04-26T16:30:57.043Z</time></trkpt><trkpt lat="44.9604233" lon="9.6870983"><ele>110.0</ele><time>2026-04-26T16:30:58.041Z</time></trkpt><trkpt lat="44.9605783" lon="9.6870767"><ele>110.0</ele><time>2026-04-26T16:30:59.043Z</time></trkpt><trkpt lat="44.9607183" lon="9.68706"><ele>110.0</ele><time>2026-04-26T16:31:00.042Z</time></trkpt><trkpt lat="44.9608567" lon="9.6870317"><ele>110.0</ele><time>2026-04-26T16:31:01.042Z</time></trkpt><trkpt lat="44.960985" lon="9.6870067"><ele>109.8</ele><time>2026-04-26T16:31:02.042Z</time></trkpt><trkpt lat="44.9611067" lon="9.686985"><ele>109.6</ele><time>2026-04-26T16:31:03.042Z</time></trkpt><trkpt lat="44.9612133" lon="9.6869717"><ele>109.4</ele><time>2026-04-26T16:31:04.042Z</time></trkpt><trkpt lat="44.96129" lon="9.6869767"><ele>109.2</ele><time>2026-04-26T16:31:05.043Z</time></trkpt><trkpt lat="44.961375" lon="9.6870733"><ele>109.0</ele><time>2026-04-26T16:31:07.042Z</time></trkpt><trkpt lat="44.9613983" lon="9.6871667"><ele>109.0</ele><time>2026-04-26T16:31:08.042Z</time></trkpt><trkpt lat="44.9614117" lon="9.687305"><ele>109.0</ele><time>2026-04-26T16:31:09.042Z</time></trkpt><trkpt lat="44.96141" lon="9.6874967"><ele>109.0</ele><time>2026-04-26T16:31:10.042Z</time></trkpt><trkpt lat="44.9614067" lon="9.6876883"><ele>109.0</ele><time>2026-04-26T16:31:11.042Z</time></trkpt><trkpt lat="44.9614083" lon="9.6878717"><ele>108.80000000000001</ele><time>2026-04-26T16:31:12.043Z</time></trkpt><trkpt lat="44.961425" lon="9.688045"><ele>108.60000000000001</ele><time>2026-04-26T16:31:13.042Z</time></trkpt><trkpt lat="44.9614417" lon="9.688205"><ele>108.4</ele><time>2026-04-26T16:31:14.042Z</time></trkpt><trkpt lat="44.9614567" lon="9.6883467"><ele>108.2</ele><time>2026-04-26T16:31:15.042Z</time></trkpt><trkpt lat="44.961485" lon="9.6884667"><ele>108.0</ele><time>2026-04-26T16:31:16.043Z</time></trkpt><trkpt lat="44.9615267" lon="9.6885733"><ele>108.0</ele><time>2026-04-26T16:31:17.042Z</time></trkpt><trkpt lat="44.9615683" lon="9.68867"><ele>108.0</ele><time>2026-04-26T16:31:18.042Z</time></trkpt><trkpt lat="44.961605" lon="9.6887667"><ele>108.0</ele><time>2026-04-26T16:31:19.043Z</time></trkpt><trkpt lat="44.9616183" lon="9.68886"><ele>108.0</ele><time>2026-04-26T16:31:20.042Z</time></trkpt><trkpt lat="44.96162" lon="9.6889667"><ele>108.0</ele><time>2026-04-26T16:31:21.043Z</time></trkpt><trkpt lat="44.9616133" lon="9.6890983"><ele>108.0</ele><time>2026-04-26T16:31:22.043Z</time></trkpt><trkpt lat="44.9616" lon="9.6892533"><ele>107.5</ele><time>2026-04-26T16:31:23.042Z</time></trkpt><trkpt lat="44.9615883" lon="9.68943"><ele>107.0</ele><time>2026-04-26T16:31:24.041Z</time></trkpt><trkpt lat="44.9615733" lon="9.6896133"><ele>106.5</ele><time>2026-04-26T16:31:25.042Z</time></trkpt><trkpt lat="44.961555" lon="9.6897983"><ele>106.0</ele><time>2026-04-26T16:31:26.042Z</time></trkpt><trkpt lat="44.961535" lon="9.6899817"><ele>106.0</ele><time>2026-04-26T16:31:27.043Z</time></trkpt><trkpt lat="44.9615233" lon="9.690155"><ele>106.0</ele><time>2026-04-26T16:31:28.041Z</time></trkpt><trkpt lat="44.9615183" lon="9.6903233"><ele>106.0</ele><time>2026-04-26T16:31:29.047Z</time></trkpt><trkpt lat="44.9615133" lon="9.690495"><ele>106.0</ele><time>2026-04-26T16:31:30.042Z</time></trkpt><trkpt lat="44.9615033" lon="9.690665"><ele>106.0</ele><time>2026-04-26T16:31:31.042Z</time></trkpt><trkpt lat="44.961495" lon="9.6908233"><ele>106.0</ele><time>2026-04-26T16:31:32.043Z</time></trkpt><trkpt lat="44.9615017" lon="9.6909983"><ele>106.0</ele><time>2026-04-26T16:31:33.042Z</time></trkpt><trkpt lat="44.96151" lon="9.6911533"><ele>106.0</ele><time>2026-04-26T16:31:34.042Z</time></trkpt><trkpt lat="44.9615017" lon="9.6913167"><ele>106.25</ele><time>2026-04-26T16:31:35.042Z</time></trkpt><trkpt lat="44.96148" lon="9.6914917"><ele>106.5</ele><time>2026-04-26T16:31:36.042Z</time></trkpt><trkpt lat="44.9614567" lon="9.691675"><ele>106.75</ele><time>2026-04-26T16:31:37.042Z</time></trkpt><trkpt lat="44.9614367" lon="9.691845"><ele>107.0</ele><time>2026-04-26T16:31:38.043Z</time></trkpt><trkpt lat="44.9614167" lon="9.6920117"><ele>107.25</ele><time>2026-04-26T16:31:39.043Z</time></trkpt><trkpt lat="44.9614017" lon="9.6921917"><ele>107.5</ele><time>2026-04-26T16:31:40.043Z</time></trkpt><trkpt lat="44.961395" lon="9.6923733"><ele>107.75</ele><time>2026-04-26T16:31:41.043Z</time></trkpt><trkpt lat="44.9613867" lon="9.692565"><ele>108.0</ele><time>2026-04-26T16:31:42.042Z</time></trkpt><trkpt lat="44.961365" lon="9.6927567"><ele>107.5</ele><time>2026-04-26T16:31:43.043Z</time></trkpt><trkpt lat="44.9613483" lon="9.6929467"><ele>107.0</ele><time>2026-04-26T16:31:44.043Z</time></trkpt><trkpt lat="44.9613367" lon="9.6931333"><ele>106.5</ele><time>2026-04-26T16:31:45.042Z</time></trkpt><trkpt lat="44.9613283" lon="9.6933283"><ele>106.0</ele><time>2026-04-26T16:31:46.042Z</time></trkpt><trkpt lat="44.9613167" lon="9.6935217"><ele>106.0</ele><time>2026-04-26T16:31:47.042Z</time></trkpt><trkpt lat="44.9613067" lon="9.693705"><ele>106.0</ele><time>2026-04-26T16:31:48.042Z</time></trkpt><trkpt lat="44.9613083" lon="9.6938783"><ele>106.0</ele><time>2026-04-26T16:31:49.042Z</time></trkpt><trkpt lat="44.9613067" lon="9.69406"><ele>106.0</ele><time>2026-04-26T16:31:50.043Z</time></trkpt><trkpt lat="44.9613" lon="9.694245"><ele>106.25</ele><time>2026-04-26T16:31:51.042Z</time></trkpt><trkpt lat="44.9612967" lon="9.694435"><ele>106.5</ele><time>2026-04-26T16:31:52.042Z</time></trkpt><trkpt lat="44.961295" lon="9.6946083"><ele>106.75</ele><time>2026-04-26T16:31:53.042Z</time></trkpt><trkpt lat="44.9612917" lon="9.6947917"><ele>107.0</ele><time>2026-04-26T16:31:54.042Z</time></trkpt><trkpt lat="44.96129" lon="9.694975"><ele>107.0</ele><time>2026-04-26T16:31:55.043Z</time></trkpt><trkpt lat="44.961295" lon="9.6951533"><ele>107.0</ele><time>2026-04-26T16:31:56.042Z</time></trkpt><trkpt lat="44.9613033" lon="9.6953233"><ele>107.0</ele><time>2026-04-26T16:31:57.043Z</time></trkpt><trkpt lat="44.9613167" lon="9.6955083"><ele>107.0</ele><time>2026-04-26T16:31:58.043Z</time></trkpt><trkpt lat="44.9613283" lon="9.6956733"><ele>106.8</ele><time>2026-04-26T16:31:59.042Z</time></trkpt><trkpt lat="44.96134" lon="9.6958317"><ele>106.6</ele><time>2026-04-26T16:32:00.042Z</time></trkpt><trkpt lat="44.9613483" lon="9.69599"><ele>106.39999999999999</ele><time>2026-04-26T16:32:01.042Z</time></trkpt><trkpt lat="44.96136" lon="9.6961367"><ele>106.19999999999999</ele><time>2026-04-26T16:32:02.042Z</time></trkpt><trkpt lat="44.96137" lon="9.696265"><ele>106.0</ele><time>2026-04-26T16:32:03.043Z</time></trkpt><trkpt lat="44.9613767" lon="9.69639"><ele>105.8</ele><time>2026-04-26T16:32:04.043Z</time></trkpt><trkpt lat="44.9613883" lon="9.6965033"><ele>105.6</ele><time>2026-04-26T16:32:05.042Z</time></trkpt><trkpt lat="44.9613967" lon="9.6966367"><ele>105.4</ele><time>2026-04-26T16:32:06.042Z</time></trkpt><trkpt lat="44.961395" lon="9.69678"><ele>105.2</ele><time>2026-04-26T16:32:08.043Z</time></trkpt><trkpt lat="44.9614" lon="9.6968917"><ele>105.0</ele><time>2026-04-26T16:32:10.042Z</time></trkpt><trkpt lat="44.9614367" lon="9.6970767"><ele>104.75</ele><time>2026-04-26T16:32:12.042Z</time></trkpt><trkpt lat="44.9614517" lon="9.697235"><ele>104.5</ele><time>2026-04-26T16:32:13.042Z</time></trkpt><trkpt lat="44.9614717" lon="9.69743"><ele>104.25</ele><time>2026-04-26T16:32:14.042Z</time></trkpt><trkpt lat="44.9614967" lon="9.6976517"><ele>104.0</ele><time>2026-04-26T16:32:15.043Z</time></trkpt><trkpt lat="44.96152" lon="9.6978983"><ele>104.0</ele><time>2026-04-26T16:32:16.042Z</time></trkpt><trkpt lat="44.9615433" lon="9.698145"><ele>104.0</ele><time>2026-04-26T16:32:17.041Z</time></trkpt><trkpt lat="44.9615717" lon="9.698425"><ele>104.0</ele><time>2026-04-26T16:32:18.042Z</time></trkpt><trkpt lat="44.9616" lon="9.6986933"><ele>104.0</ele><time>2026-04-26T16:32:19.042Z</time></trkpt><trkpt lat="44.9616217" lon="9.6989517"><ele>104.0</ele><time>2026-04-26T16:32:20.042Z</time></trkpt><trkpt lat="44.96164" lon="9.6992"><ele>104.0</ele><time>2026-04-26T16:32:21.044Z</time></trkpt><trkpt lat="44.9616583" lon="9.6994467"><ele>104.33333333333333</ele><time>2026-04-26T16:32:22.043Z</time></trkpt><trkpt lat="44.9616733" lon="9.6996933"><ele>104.66666666666666</ele><time>2026-04-26T16:32:23.042Z</time></trkpt><trkpt lat="44.9616867" lon="9.6999433"><ele>105.0</ele><time>2026-04-26T16:32:24.041Z</time></trkpt><trkpt lat="44.9617017" lon="9.700195"><ele>104.33333333333334</ele><time>2026-04-26T16:32:25.044Z</time></trkpt><trkpt lat="44.96171" lon="9.70045"><ele>103.66666666666667</ele><time>2026-04-26T16:32:26.043Z</time></trkpt><trkpt lat="44.9617167" lon="9.7007017"><ele>103.0</ele><time>2026-04-26T16:32:27.043Z</time></trkpt><trkpt lat="44.9617233" lon="9.7009483"><ele>103.66666666666667</ele><time>2026-04-26T16:32:28.042Z</time></trkpt><trkpt lat="44.9617283" lon="9.7011917"><ele>104.33333333333334</ele><time>2026-04-26T16:32:29.041Z</time></trkpt><trkpt lat="44.961735" lon="9.7014333"><ele>105.0</ele><time>2026-04-26T16:32:30.043Z</time></trkpt><trkpt lat="44.9617467" lon="9.7016733"><ele>105.0</ele><time>2026-04-26T16:32:31.042Z</time></trkpt><trkpt lat="44.9617583" lon="9.7018933"><ele>105.0</ele><time>2026-04-26T16:32:32.042Z</time></trkpt><trkpt lat="44.96177" lon="9.7021017"><ele>105.0</ele><time>2026-04-26T16:32:33.043Z</time></trkpt><trkpt lat="44.9617833" lon="9.7022833"><ele>105.0</ele><time>2026-04-26T16:32:34.042Z</time></trkpt><trkpt lat="44.9617917" lon="9.702435"><ele>105.2</ele><time>2026-04-26T16:32:35.042Z</time></trkpt><trkpt lat="44.9618067" lon="9.7025533"><ele>105.4</ele><time>2026-04-26T16:32:36.042Z</time></trkpt><trkpt lat="44.9618433" lon="9.70265"><ele>105.6</ele><time>2026-04-26T16:32:37.043Z</time></trkpt><trkpt lat="44.961915" lon="9.7027117"><ele>105.8</ele><time>2026-04-26T16:32:38.043Z</time></trkpt><trkpt lat="44.96201" lon="9.70275"><ele>106.0</ele><time>2026-04-26T16:32:39.043Z</time></trkpt><trkpt lat="44.9621317" lon="9.7027767"><ele>105.5</ele><time>2026-04-26T16:32:40.042Z</time></trkpt><trkpt lat="44.9622567" lon="9.7028033"><ele>105.0</ele><time>2026-04-26T16:32:41.042Z</time></trkpt><trkpt lat="44.96238" lon="9.702815"><ele>104.5</ele><time>2026-04-26T16:32:42.043Z</time></trkpt><trkpt lat="44.9624967" lon="9.7028233"><ele>104.0</ele><time>2026-04-26T16:32:43.043Z</time></trkpt><trkpt lat="44.9625983" lon="9.7028333"><ele>103.80000000000001</ele><time>2026-04-26T16:32:44.044Z</time></trkpt><trkpt lat="44.9626933" lon="9.7028433"><ele>103.60000000000001</ele><time>2026-04-26T16:32:45.044Z</time></trkpt><trkpt lat="44.9627883" lon="9.7028567"><ele>103.4</ele><time>2026-04-26T16:32:46.042Z</time></trkpt><trkpt lat="44.9628783" lon="9.70286"><ele>103.2</ele><time>2026-04-26T16:32:47.042Z</time></trkpt><trkpt lat="44.9629567" lon="9.702865"><ele>103.0</ele><time>2026-04-26T16:32:48.042Z</time></trkpt><trkpt lat="44.963045" lon="9.7029217"><ele>103.0</ele><time>2026-04-26T16:32:50.042Z</time></trkpt><trkpt lat="44.9630683" lon="9.7030417"><ele>103.0</ele><time>2026-04-26T16:32:52.043Z</time></trkpt><trkpt lat="44.963055" lon="9.7032533"><ele>103.0</ele><time>2026-04-26T16:32:54.042Z</time></trkpt><trkpt lat="44.9630417" lon="9.7034133"><ele>103.0</ele><time>2026-04-26T16:32:55.042Z</time></trkpt><trkpt lat="44.96303" lon="9.7036"><ele>102.75</ele><time>2026-04-26T16:32:56.042Z</time></trkpt><trkpt lat="44.9630167" lon="9.7037967"><ele>102.5</ele><time>2026-04-26T16:32:57.043Z</time></trkpt><trkpt lat="44.9630017" lon="9.7039983"><ele>102.25</ele><time>2026-04-26T16:32:58.042Z</time></trkpt><trkpt lat="44.9629817" lon="9.704195"><ele>102.0</ele><time>2026-04-26T16:32:59.042Z</time></trkpt><trkpt lat="44.9629583" lon="9.70438"><ele>102.0</ele><time>2026-04-26T16:33:00.042Z</time></trkpt><trkpt lat="44.9629433" lon="9.70457"><ele>102.0</ele><time>2026-04-26T16:33:01.042Z</time></trkpt><trkpt lat="44.9629267" lon="9.7047683"><ele>102.0</ele><time>2026-04-26T16:33:02.042Z</time></trkpt><trkpt lat="44.9629067" lon="9.70497"><ele>102.0</ele><time>2026-04-26T16:33:03.042Z</time></trkpt><trkpt lat="44.9628883" lon="9.7051583"><ele>102.25</ele><time>2026-04-26T16:33:04.042Z</time></trkpt><trkpt lat="44.9628717" lon="9.705345"><ele>102.5</ele><time>2026-04-26T16:33:05.042Z</time></trkpt><trkpt lat="44.9628533" lon="9.70555"><ele>102.75</ele><time>2026-04-26T16:33:06.042Z</time></trkpt><trkpt lat="44.962835" lon="9.705755"><ele>103.0</ele><time>2026-04-26T16:33:07.042Z</time></trkpt><trkpt lat="44.9628217" lon="9.70595"><ele>102.0</ele><time>2026-04-26T16:33:08.043Z</time></trkpt><trkpt lat="44.9628067" lon="9.7061383"><ele>101.0</ele><time>2026-04-26T16:33:09.043Z</time></trkpt><trkpt lat="44.9627933" lon="9.7063317"><ele>100.0</ele><time>2026-04-26T16:33:10.042Z</time></trkpt><trkpt lat="44.9627783" lon="9.70653"><ele>99.0</ele><time>2026-04-26T16:33:11.044Z</time></trkpt><trkpt lat="44.96276" lon="9.706735"><ele>99.66666666666666</ele><time>2026-04-26T16:33:12.042Z</time></trkpt><trkpt lat="44.9627417" lon="9.7069483"><ele>100.33333333333333</ele><time>2026-04-26T16:33:13.044Z</time></trkpt><trkpt lat="44.9627217" lon="9.70717"><ele>101.0</ele><time>2026-04-26T16:33:14.042Z</time></trkpt><trkpt lat="44.9627017" lon="9.7073817"><ele>101.0</ele><time>2026-04-26T16:33:15.043Z</time></trkpt><trkpt lat="44.9626817" lon="9.707595"><ele>101.0</ele><time>2026-04-26T16:33:16.042Z</time></trkpt><trkpt lat="44.9626667" lon="9.7077967"><ele>101.0</ele><time>2026-04-26T16:33:17.042Z</time></trkpt><trkpt lat="44.9626467" lon="9.7079967"><ele>101.0</ele><time>2026-04-26T16:33:18.042Z</time></trkpt><trkpt lat="44.9626333" lon="9.7081867"><ele>101.25</ele><time>2026-04-26T16:33:19.042Z</time></trkpt><trkpt lat="44.9626217" lon="9.7083633"><ele>101.5</ele><time>2026-04-26T16:33:20.042Z</time></trkpt><trkpt lat="44.96261" lon="9.7085517"><ele>101.75</ele><time>2026-04-26T16:33:21.043Z</time></trkpt><trkpt lat="44.9625917" lon="9.7087433"><ele>102.0</ele><time>2026-04-26T16:33:22.043Z</time></trkpt><trkpt lat="44.962575" lon="9.7089417"><ele>102.0</ele><time>2026-04-26T16:33:23.042Z</time></trkpt><trkpt lat="44.9625583" lon="9.7091483"><ele>102.0</ele><time>2026-04-26T16:33:24.042Z</time></trkpt><trkpt lat="44.9625383" lon="9.7093533"><ele>102.0</ele><time>2026-04-26T16:33:25.043Z</time></trkpt><trkpt lat="44.96252" lon="9.709555"><ele>102.0</ele><time>2026-04-26T16:33:26.042Z</time></trkpt><trkpt lat="44.9625" lon="9.7097567"><ele>102.25</ele><time>2026-04-26T16:33:27.043Z</time></trkpt><trkpt lat="44.9624817" lon="9.7099567"><ele>102.5</ele><time>2026-04-26T16:33:28.043Z</time></trkpt><trkpt lat="44.962465" lon="9.7101617"><ele>102.75</ele><time>2026-04-26T16:33:29.042Z</time></trkpt><trkpt lat="44.9624467" lon="9.7103633"><ele>103.0</ele><time>2026-04-26T16:33:30.042Z</time></trkpt><trkpt lat="44.9624333" lon="9.7105667"><ele>103.0</ele><time>2026-04-26T16:33:31.043Z</time></trkpt><trkpt lat="44.9624233" lon="9.71077"><ele>103.0</ele><time>2026-04-26T16:33:32.042Z</time></trkpt><trkpt lat="44.9624183" lon="9.710975"><ele>103.0</ele><time>2026-04-26T16:33:33.043Z</time></trkpt><trkpt lat="44.9624117" lon="9.7111683"><ele>103.0</ele><time>2026-04-26T16:33:34.043Z</time></trkpt><trkpt lat="44.9624" lon="9.71135"><ele>103.0</ele><time>2026-04-26T16:33:35.042Z</time></trkpt><trkpt lat="44.96239" lon="9.7115233"><ele>103.0</ele><time>2026-04-26T16:33:36.043Z</time></trkpt><trkpt lat="44.9623783" lon="9.711695"><ele>103.0</ele><time>2026-04-26T16:33:37.043Z</time></trkpt><trkpt lat="44.9623683" lon="9.7118617"><ele>103.0</ele><time>2026-04-26T16:33:38.042Z</time></trkpt><trkpt lat="44.9623583" lon="9.71201"><ele>103.00000000000001</ele><time>2026-04-26T16:33:39.042Z</time></trkpt><trkpt lat="44.962355" lon="9.7121533"><ele>103.0</ele><time>2026-04-26T16:33:40.042Z</time></trkpt><trkpt lat="44.9623667" lon="9.7122767"><ele>103.0</ele><time>2026-04-26T16:33:41.043Z</time></trkpt><trkpt lat="44.9623983" lon="9.712365"><ele>103.0</ele><time>2026-04-26T16:33:42.042Z</time></trkpt><trkpt lat="44.9624517" lon="9.7124433"><ele>103.00000000000001</ele><time>2026-04-26T16:33:43.043Z</time></trkpt><trkpt lat="44.9625317" lon="9.7125033"><ele>103.0</ele><time>2026-04-26T16:33:44.043Z</time></trkpt><trkpt lat="44.9626367" lon="9.7125467"><ele>103.0</ele><time>2026-04-26T16:33:45.042Z</time></trkpt><trkpt lat="44.962755" lon="9.7125933"><ele>103.0</ele><time>2026-04-26T16:33:46.042Z</time></trkpt><trkpt lat="44.962905" lon="9.712645"><ele>103.0</ele><time>2026-04-26T16:33:47.043Z</time></trkpt><trkpt lat="44.9630383" lon="9.71269"><ele>103.0</ele><time>2026-04-26T16:33:48.042Z</time></trkpt><trkpt lat="44.963155" lon="9.7127317"><ele>102.66666666666667</ele><time>2026-04-26T16:33:49.042Z</time></trkpt><trkpt lat="44.96326" lon="9.7127717"><ele>102.33333333333334</ele><time>2026-04-26T16:33:50.043Z</time></trkpt><trkpt lat="44.9633483" lon="9.7128133"><ele>102.0</ele><time>2026-04-26T16:33:51.043Z</time></trkpt><trkpt lat="44.9634183" lon="9.7128633"><ele>101.66666666666666</ele><time>2026-04-26T16:33:52.042Z</time></trkpt><trkpt lat="44.96347" lon="9.7129283"><ele>101.33333333333333</ele><time>2026-04-26T16:33:53.042Z</time></trkpt><trkpt lat="44.9635067" lon="9.7130133"><ele>101.0</ele><time>2026-04-26T16:33:54.042Z</time></trkpt><trkpt lat="44.9635233" lon="9.7131183"><ele>100.4</ele><time>2026-04-26T16:33:55.044Z</time></trkpt><trkpt lat="44.9635133" lon="9.7132433"><ele>99.8</ele><time>2026-04-26T16:33:56.042Z</time></trkpt><trkpt lat="44.9634883" lon="9.7133833"><ele>99.2</ele><time>2026-04-26T16:33:57.043Z</time></trkpt><trkpt lat="44.9634633" lon="9.7135433"><ele>98.60000000000001</ele><time>2026-04-26T16:33:58.042Z</time></trkpt><trkpt lat="44.96344" lon="9.71371"><ele>98.0</ele><time>2026-04-26T16:33:59.042Z</time></trkpt><trkpt lat="44.9634167" lon="9.713875"><ele>98.0</ele><time>2026-04-26T16:34:00.042Z</time></trkpt><trkpt lat="44.9633883" lon="9.714045"><ele>98.0</ele><time>2026-04-26T16:34:01.043Z</time></trkpt><trkpt lat="44.9633617" lon="9.7142233"><ele>98.0</ele><time>2026-04-26T16:34:02.043Z</time></trkpt><trkpt lat="44.9633317" lon="9.7144083"><ele>98.0</ele><time>2026-04-26T16:34:03.042Z</time></trkpt><trkpt lat="44.9633017" lon="9.7146"><ele>98.5</ele><time>2026-04-26T16:34:04.043Z</time></trkpt><trkpt lat="44.963275" lon="9.7147967"><ele>99.0</ele><time>2026-04-26T16:34:05.041Z</time></trkpt><trkpt lat="44.96325" lon="9.7149983"><ele>99.5</ele><time>2026-04-26T16:34:06.042Z</time></trkpt><trkpt lat="44.9632217" lon="9.7152067"><ele>100.0</ele><time>2026-04-26T16:34:07.043Z</time></trkpt><trkpt lat="44.9631933" lon="9.71541"><ele>100.0</ele><time>2026-04-26T16:34:08.042Z</time></trkpt><trkpt lat="44.9631633" lon="9.7156217"><ele>100.0</ele><time>2026-04-26T16:34:09.043Z</time></trkpt><trkpt lat="44.9631333" lon="9.7158317"><ele>100.0</ele><time>2026-04-26T16:34:10.041Z</time></trkpt><trkpt lat="44.96311" lon="9.7160333"><ele>100.0</ele><time>2026-04-26T16:34:11.042Z</time></trkpt><trkpt lat="44.9630833" lon="9.7162367"><ele>100.33333333333334</ele><time>2026-04-26T16:34:12.042Z</time></trkpt><trkpt lat="44.9630533" lon="9.7164467"><ele>100.66666666666666</ele><time>2026-04-26T16:34:13.044Z</time></trkpt><trkpt lat="44.9630167" lon="9.716665"><ele>101.0</ele><time>2026-04-26T16:34:14.042Z</time></trkpt><trkpt lat="44.9629783" lon="9.7168867"><ele>101.0</ele><time>2026-04-26T16:34:15.043Z</time></trkpt><trkpt lat="44.962945" lon="9.7171"><ele>101.0</ele><time>2026-04-26T16:34:16.042Z</time></trkpt><trkpt lat="44.9629167" lon="9.7172983"><ele>101.0</ele><time>2026-04-26T16:34:17.043Z</time></trkpt><trkpt lat="44.9628883" lon="9.7174817"><ele>101.0</ele><time>2026-04-26T16:34:18.042Z</time></trkpt><trkpt lat="44.9628617" lon="9.717655"><ele>101.19999999999999</ele><time>2026-04-26T16:34:19.044Z</time></trkpt><trkpt lat="44.9628367" lon="9.7178133"><ele>101.39999999999999</ele><time>2026-04-26T16:34:20.042Z</time></trkpt><trkpt lat="44.962815" lon="9.7179583"><ele>101.6</ele><time>2026-04-26T16:34:21.042Z</time></trkpt><trkpt lat="44.9627917" lon="9.718085"><ele>101.8</ele><time>2026-04-26T16:34:22.042Z</time></trkpt><trkpt lat="44.96277" lon="9.7181933"><ele>102.0</ele><time>2026-04-26T16:34:23.043Z</time></trkpt><trkpt lat="44.962745" lon="9.7183167"><ele>102.0</ele><time>2026-04-26T16:34:25.043Z</time></trkpt><trkpt lat="44.9627767" lon="9.718395"><ele>102.0</ele><time>2026-04-26T16:34:30.042Z</time></trkpt><trkpt lat="44.96292" lon="9.718425"><ele>102.0</ele><time>2026-04-26T16:34:32.042Z</time></trkpt><trkpt lat="44.9630367" lon="9.7184167"><ele>102.0</ele><time>2026-04-26T16:34:33.042Z</time></trkpt><trkpt lat="44.96318" lon="9.7184"><ele>102.0</ele><time>2026-04-26T16:34:34.043Z</time></trkpt><trkpt lat="44.96334" lon="9.71838"><ele>102.0</ele><time>2026-04-26T16:34:35.043Z</time></trkpt><trkpt lat="44.963515" lon="9.7183567"><ele>102.0</ele><time>2026-04-26T16:34:36.043Z</time></trkpt><trkpt lat="44.9636933" lon="9.7183283"><ele>101.0</ele><time>2026-04-26T16:34:37.043Z</time></trkpt><trkpt lat="44.9638683" lon="9.7182983"><ele>100.0</ele><time>2026-04-26T16:34:38.043Z</time></trkpt><trkpt lat="44.9640517" lon="9.7182717"><ele>99.0</ele><time>2026-04-26T16:34:39.044Z</time></trkpt><trkpt lat="44.9642383" lon="9.71825"><ele>98.66666666666666</ele><time>2026-04-26T16:34:40.043Z</time></trkpt><trkpt lat="44.96443" lon="9.7182217"><ele>98.33333333333333</ele><time>2026-04-26T16:34:41.043Z</time></trkpt><trkpt lat="44.9646233" lon="9.7181917"><ele>98.0</ele><time>2026-04-26T16:34:42.042Z</time></trkpt><trkpt lat="44.96482" lon="9.7181617"><ele>98.0</ele><time>2026-04-26T16:34:43.043Z</time></trkpt><trkpt lat="44.965015" lon="9.718135"><ele>98.0</ele><time>2026-04-26T16:34:44.042Z</time></trkpt><trkpt lat="44.9652083" lon="9.7181083"><ele>98.0</ele><time>2026-04-26T16:34:45.043Z</time></trkpt><trkpt lat="44.965405" lon="9.7180783"><ele>98.33333333333333</ele><time>2026-04-26T16:34:46.042Z</time></trkpt><trkpt lat="44.9656" lon="9.71805"><ele>98.66666666666666</ele><time>2026-04-26T16:34:47.042Z</time></trkpt><trkpt lat="44.9657967" lon="9.7180217"><ele>99.0</ele><time>2026-04-26T16:34:48.042Z</time></trkpt><trkpt lat="44.9659917" lon="9.7179967"><ele>99.33333333333334</ele><time>2026-04-26T16:34:49.043Z</time></trkpt><trkpt lat="44.9661867" lon="9.7179733"><ele>99.66666666666667</ele><time>2026-04-26T16:34:50.043Z</time></trkpt><trkpt lat="44.9663733" lon="9.7179467"><ele>100.0</ele><time>2026-04-26T16:34:51.042Z</time></trkpt><trkpt lat="44.96655" lon="9.7179233"><ele>98.66666666666667</ele><time>2026-04-26T16:34:52.042Z</time></trkpt><trkpt lat="44.9667167" lon="9.7179017"><ele>97.33333333333334</ele><time>2026-04-26T16:34:53.042Z</time></trkpt><trkpt lat="44.9668817" lon="9.7178767"><ele>96.0</ele><time>2026-04-26T16:34:54.042Z</time></trkpt><trkpt lat="44.9670467" lon="9.7178517"><ele>96.0</ele><time>2026-04-26T16:34:55.042Z</time></trkpt><trkpt lat="44.9672117" lon="9.717825"><ele>96.0</ele><time>2026-04-26T16:34:56.043Z</time></trkpt><trkpt lat="44.96738" lon="9.7178"><ele>96.0</ele><time>2026-04-26T16:34:57.043Z</time></trkpt><trkpt lat="44.9675467" lon="9.7177767"><ele>96.0</ele><time>2026-04-26T16:34:58.041Z</time></trkpt><trkpt lat="44.9677133" lon="9.717755"><ele>96.0</ele><time>2026-04-26T16:34:59.041Z</time></trkpt><trkpt lat="44.9678833" lon="9.7177333"><ele>96.0</ele><time>2026-04-26T16:35:00.041Z</time></trkpt><trkpt lat="44.9680567" lon="9.7177067"><ele>96.0</ele><time>2026-04-26T16:35:01.042Z</time></trkpt><trkpt lat="44.9682367" lon="9.717675"><ele>96.0</ele><time>2026-04-26T16:35:02.041Z</time></trkpt><trkpt lat="44.9684233" lon="9.7176383"><ele>96.0</ele><time>2026-04-26T16:35:03.042Z</time></trkpt><trkpt lat="44.968615" lon="9.717595"><ele>96.33333333333334</ele><time>2026-04-26T16:35:04.043Z</time></trkpt><trkpt lat="44.9688083" lon="9.7175417"><ele>96.66666666666667</ele><time>2026-04-26T16:35:05.042Z</time></trkpt><trkpt lat="44.9690017" lon="9.717485"><ele>97.0</ele><time>2026-04-26T16:35:06.041Z</time></trkpt><trkpt lat="44.9691933" lon="9.7174333"><ele>96.0</ele><time>2026-04-26T16:35:07.042Z</time></trkpt><trkpt lat="44.969385" lon="9.7173933"><ele>95.0</ele><time>2026-04-26T16:35:08.041Z</time></trkpt><trkpt lat="44.9695767" lon="9.7173617"><ele>94.0</ele><time>2026-04-26T16:35:09.041Z</time></trkpt><trkpt lat="44.9697717" lon="9.7173333"><ele>94.0</ele><time>2026-04-26T16:35:10.041Z</time></trkpt><trkpt lat="44.96997" lon="9.7173033"><ele>94.0</ele><time>2026-04-26T16:35:11.041Z</time></trkpt><trkpt lat="44.970165" lon="9.7172783"><ele>94.0</ele><time>2026-04-26T16:35:12.042Z</time></trkpt><trkpt lat="44.9703583" lon="9.7172617"><ele>94.33333333333333</ele><time>2026-04-26T16:35:13.041Z</time></trkpt><trkpt lat="44.970555" lon="9.7172417"><ele>94.66666666666667</ele><time>2026-04-26T16:35:14.041Z</time></trkpt><trkpt lat="44.9707567" lon="9.71722"><ele>95.0</ele><time>2026-04-26T16:35:15.041Z</time></trkpt><trkpt lat="44.9709583" lon="9.7171983"><ele>95.0</ele><time>2026-04-26T16:35:16.042Z</time></trkpt><trkpt lat="44.97116" lon="9.717175"><ele>95.0</ele><time>2026-04-26T16:35:17.041Z</time></trkpt><trkpt lat="44.97136" lon="9.7171533"><ele>95.0</ele><time>2026-04-26T16:35:18.042Z</time></trkpt><trkpt lat="44.97156" lon="9.7171267"><ele>94.66666666666667</ele><time>2026-04-26T16:35:19.041Z</time></trkpt><trkpt lat="44.9717583" lon="9.717095"><ele>94.33333333333333</ele><time>2026-04-26T16:35:20.041Z</time></trkpt><trkpt lat="44.9719583" lon="9.7170617"><ele>94.0</ele><time>2026-04-26T16:35:21.042Z</time></trkpt><trkpt lat="44.972155" lon="9.7170217"><ele>94.0</ele><time>2026-04-26T16:35:22.042Z</time></trkpt><trkpt lat="44.9723533" lon="9.716975"><ele>94.0</ele><time>2026-04-26T16:35:23.041Z</time></trkpt><trkpt lat="44.9725502" lon="9.7169251"><ele>94.0</ele><time>2026-04-26T16:35:24.042Z</time></trkpt><trkpt lat="44.9727425" lon="9.7168741"><ele>93.33333333333333</ele><time>2026-04-26T16:35:25.041Z</time></trkpt><trkpt lat="44.9729335" lon="9.7168238"><ele>92.66666666666667</ele><time>2026-04-26T16:35:26.042Z</time></trkpt><trkpt lat="44.973122" lon="9.7167706"><ele>92.0</ele><time>2026-04-26T16:35:27.042Z</time></trkpt><trkpt lat="44.9733126" lon="9.7167229"><ele>92.0</ele><time>2026-04-26T16:35:28.041Z</time></trkpt><trkpt lat="44.9735001" lon="9.7166773"><ele>92.0</ele><time>2026-04-26T16:35:29.041Z</time></trkpt><trkpt lat="44.9736869" lon="9.7166309"><ele>92.0</ele><time>2026-04-26T16:35:30.042Z</time></trkpt><trkpt lat="44.9738761" lon="9.7165844"><ele>92.0</ele><time>2026-04-26T16:35:31.041Z</time></trkpt><trkpt lat="44.974068" lon="9.7165375"><ele>92.0</ele><time>2026-04-26T16:35:32.042Z</time></trkpt><trkpt lat="44.9742559" lon="9.7164921"><ele>92.0</ele><time>2026-04-26T16:35:33.042Z</time></trkpt><trkpt lat="44.9744396" lon="9.7164473"><ele>92.66666666666667</ele><time>2026-04-26T16:35:34.042Z</time></trkpt><trkpt lat="44.9746206" lon="9.7164015"><ele>93.33333333333333</ele><time>2026-04-26T16:35:35.041Z</time></trkpt><trkpt lat="44.9747979" lon="9.71636"><ele>94.0</ele><time>2026-04-26T16:35:36.043Z</time></trkpt><trkpt lat="44.9749735" lon="9.7163187"><ele>93.33333333333333</ele><time>2026-04-26T16:35:37.041Z</time></trkpt><trkpt lat="44.9751486" lon="9.7162807"><ele>92.66666666666667</ele><time>2026-04-26T16:35:38.041Z</time></trkpt><trkpt lat="44.9753281" lon="9.7162435"><ele>92.0</ele><time>2026-04-26T16:35:39.042Z</time></trkpt><trkpt lat="44.9755136" lon="9.7162042"><ele>92.0</ele><time>2026-04-26T16:35:40.042Z</time></trkpt><trkpt lat="44.9757039" lon="9.7161592"><ele>92.0</ele><time>2026-04-26T16:35:41.042Z</time></trkpt><trkpt lat="44.9758988" lon="9.7161126"><ele>92.0</ele><time>2026-04-26T16:35:42.041Z</time></trkpt><trkpt lat="44.9760955" lon="9.7160648"><ele>92.33333333333334</ele><time>2026-04-26T16:35:43.041Z</time></trkpt><trkpt lat="44.9762943" lon="9.7160151"><ele>92.66666666666667</ele><time>2026-04-26T16:35:44.043Z</time></trkpt><trkpt lat="44.976494" lon="9.715965"><ele>93.0</ele><time>2026-04-26T16:35:45.041Z</time></trkpt><trkpt lat="44.9766906" lon="9.7159185"><ele>92.33333333333333</ele><time>2026-04-26T16:35:46.041Z</time></trkpt><trkpt lat="44.9768854" lon="9.7158746"><ele>91.66666666666666</ele><time>2026-04-26T16:35:47.041Z</time></trkpt><trkpt lat="44.9770816" lon="9.7158324"><ele>91.0</ele><time>2026-04-26T16:35:48.042Z</time></trkpt><trkpt lat="44.977278" lon="9.7157895"><ele>91.0</ele><time>2026-04-26T16:35:49.041Z</time></trkpt><trkpt lat="44.9774759" lon="9.7157437"><ele>91.0</ele><time>2026-04-26T16:35:50.042Z</time></trkpt><trkpt lat="44.977673" lon="9.7156973"><ele>91.0</ele><time>2026-04-26T16:35:51.042Z</time></trkpt><trkpt lat="44.9778724" lon="9.7156529"><ele>90.66666666666666</ele><time>2026-04-26T16:35:52.042Z</time></trkpt><trkpt lat="44.9780727" lon="9.7156068"><ele>90.33333333333333</ele><time>2026-04-26T16:35:53.041Z</time></trkpt><trkpt lat="44.978273" lon="9.7155591"><ele>90.0</ele><time>2026-04-26T16:35:54.042Z</time></trkpt><trkpt lat="44.978473" lon="9.7155144"><ele>89.66666666666667</ele><time>2026-04-26T16:35:55.043Z</time></trkpt><trkpt lat="44.9786714" lon="9.7154685"><ele>89.33333333333334</ele><time>2026-04-26T16:35:56.041Z</time></trkpt><trkpt lat="44.9788683" lon="9.715421"><ele>89.0</ele><time>2026-04-26T16:35:57.041Z</time></trkpt><trkpt lat="44.9790647" lon="9.715373"><ele>88.66666666666667</ele><time>2026-04-26T16:35:58.041Z</time></trkpt><trkpt lat="44.97926" lon="9.7153259"><ele>88.33333333333333</ele><time>2026-04-26T16:35:59.043Z</time></trkpt><trkpt lat="44.9794563" lon="9.7152803"><ele>88.0</ele><time>2026-04-26T16:36:00.041Z</time></trkpt><trkpt lat="44.9796558" lon="9.7152338"><ele>88.0</ele><time>2026-04-26T16:36:01.041Z</time></trkpt><trkpt lat="44.9798601" lon="9.7151868"><ele>88.0</ele><time>2026-04-26T16:36:02.041Z</time></trkpt><trkpt lat="44.9800685" lon="9.7151399"><ele>88.0</ele><time>2026-04-26T16:36:03.042Z</time></trkpt><trkpt lat="44.9802787" lon="9.7150956"><ele>88.0</ele><time>2026-04-26T16:36:04.042Z</time></trkpt><trkpt lat="44.9804926" lon="9.7150505"><ele>88.0</ele><time>2026-04-26T16:36:05.048Z</time></trkpt><trkpt lat="44.9807061" lon="9.7150066"><ele>88.0</ele><time>2026-04-26T16:36:06.041Z</time></trkpt><trkpt lat="44.9809251" lon="9.7149592"><ele>87.66666666666666</ele><time>2026-04-26T16:36:07.041Z</time></trkpt><trkpt lat="44.9811403" lon="9.7149109"><ele>87.33333333333333</ele><time>2026-04-26T16:36:08.041Z</time></trkpt><trkpt lat="44.9813447" lon="9.7148643"><ele>87.0</ele><time>2026-04-26T16:36:09.043Z</time></trkpt><trkpt lat="44.9815426" lon="9.7148195"><ele>86.66666666666667</ele><time>2026-04-26T16:36:10.041Z</time></trkpt><trkpt lat="44.9817407" lon="9.7147734"><ele>86.33333333333334</ele><time>2026-04-26T16:36:11.042Z</time></trkpt><trkpt lat="44.9819384" lon="9.7147271"><ele>86.0</ele><time>2026-04-26T16:36:12.041Z</time></trkpt><trkpt lat="44.9821336" lon="9.7146807"><ele>86.0</ele><time>2026-04-26T16:36:13.041Z</time></trkpt><trkpt lat="44.9823241" lon="9.714638"><ele>86.0</ele><time>2026-04-26T16:36:14.041Z</time></trkpt><trkpt lat="44.9825078" lon="9.7145953"><ele>86.0</ele><time>2026-04-26T16:36:15.042Z</time></trkpt><trkpt lat="44.9826833" lon="9.7145554"><ele>85.33333333333334</ele><time>2026-04-26T16:36:16.041Z</time></trkpt><trkpt lat="44.982849" lon="9.7145159"><ele>84.66666666666667</ele><time>2026-04-26T16:36:17.041Z</time></trkpt><trkpt lat="44.983006" lon="9.714476"><ele>84.0</ele><time>2026-04-26T16:36:18.044Z</time></trkpt><trkpt lat="44.9831532" lon="9.7144419"><ele>84.0</ele><time>2026-04-26T16:36:19.041Z</time></trkpt><trkpt lat="44.983293" lon="9.7144131"><ele>84.0</ele><time>2026-04-26T16:36:20.042Z</time></trkpt><trkpt lat="44.9834276" lon="9.7143853"><ele>84.0</ele><time>2026-04-26T16:36:21.042Z</time></trkpt><trkpt lat="44.9835559" lon="9.7143585"><ele>84.0</ele><time>2026-04-26T16:36:22.043Z</time></trkpt><trkpt lat="44.9836695" lon="9.7143348"><ele>84.0</ele><time>2026-04-26T16:36:23.041Z</time></trkpt><trkpt lat="44.9837661" lon="9.7143172"><ele>84.0</ele><time>2026-04-26T16:36:24.042Z</time></trkpt><trkpt lat="44.9838405" lon="9.7143058"><ele>84.0</ele><time>2026-04-26T16:36:25.041Z</time></trkpt><trkpt lat="44.9839367" lon="9.7143311"><ele>84.0</ele><time>2026-04-26T16:36:27.041Z</time></trkpt><trkpt lat="44.9839765" lon="9.7144798"><ele>84.0</ele><time>2026-04-26T16:36:29.042Z</time></trkpt><trkpt lat="44.9839766" lon="9.7146178"><ele>83.75</ele><time>2026-04-26T16:36:30.041Z</time></trkpt><trkpt lat="44.983964" lon="9.7148003"><ele>83.5</ele><time>2026-04-26T16:36:31.041Z</time></trkpt><trkpt lat="44.9839489" lon="9.7149961"><ele>83.25</ele><time>2026-04-26T16:36:32.041Z</time></trkpt><trkpt lat="44.9839318" lon="9.7152133"><ele>83.0</ele><time>2026-04-26T16:36:33.043Z</time></trkpt><trkpt lat="44.9839076" lon="9.7154547"><ele>83.0</ele><time>2026-04-26T16:36:34.041Z</time></trkpt><trkpt lat="44.9838746" lon="9.7157227"><ele>83.0</ele><time>2026-04-26T16:36:35.041Z</time></trkpt><trkpt lat="44.9838329" lon="9.7160182"><ele>83.0</ele><time>2026-04-26T16:36:36.042Z</time></trkpt><trkpt lat="44.9837871" lon="9.7163426"><ele>83.0</ele><time>2026-04-26T16:36:37.042Z</time></trkpt><trkpt lat="44.9837429" lon="9.7166935"><ele>83.0</ele><time>2026-04-26T16:36:38.041Z</time></trkpt><trkpt lat="44.983698" lon="9.7170617"><ele>82.0</ele><time>2026-04-26T16:36:39.041Z</time></trkpt><trkpt lat="44.9836534" lon="9.7174288"><ele>81.0</ele><time>2026-04-26T16:36:40.042Z</time></trkpt><trkpt lat="44.983612" lon="9.7177849"><ele>81.0</ele><time>2026-04-26T16:36:41.043Z</time></trkpt><trkpt lat="44.9835708" lon="9.7181268"><ele>81.0</ele><time>2026-04-26T16:36:42.042Z</time></trkpt><trkpt lat="44.9835309" lon="9.7184602"><ele>80.5</ele><time>2026-04-26T16:36:43.041Z</time></trkpt><trkpt lat="44.9834909" lon="9.7187919"><ele>80.0</ele><time>2026-04-26T16:36:44.041Z</time></trkpt><trkpt lat="44.9834484" lon="9.7191232"><ele>81.5</ele><time>2026-04-26T16:36:45.041Z</time></trkpt><trkpt lat="44.9834057" lon="9.7194543"><ele>83.0</ele><time>2026-04-26T16:36:46.041Z</time></trkpt><trkpt lat="44.9833625" lon="9.7197841"><ele>83.5</ele><time>2026-04-26T16:36:47.041Z</time></trkpt><trkpt lat="44.9833204" lon="9.7201097"><ele>84.0</ele><time>2026-04-26T16:36:48.041Z</time></trkpt><trkpt lat="44.9832788" lon="9.7204313"><ele>84.5</ele><time>2026-04-26T16:36:49.041Z</time></trkpt><trkpt lat="44.9832373" lon="9.7207481"><ele>85.0</ele><time>2026-04-26T16:36:50.042Z</time></trkpt><trkpt lat="44.9831958" lon="9.7210613"><ele>85.33333333333333</ele><time>2026-04-26T16:36:51.041Z</time></trkpt><trkpt lat="44.9831542" lon="9.7213716"><ele>85.66666666666667</ele><time>2026-04-26T16:36:52.042Z</time></trkpt><trkpt lat="44.9831127" lon="9.7216825"><ele>86.0</ele><time>2026-04-26T16:36:53.042Z</time></trkpt><trkpt lat="44.9830723" lon="9.7219925"><ele>86.0</ele><time>2026-04-26T16:36:54.043Z</time></trkpt><trkpt lat="44.9830336" lon="9.7223006"><ele>86.0</ele><time>2026-04-26T16:36:55.042Z</time></trkpt><trkpt lat="44.9829971" lon="9.7226088"><ele>86.0</ele><time>2026-04-26T16:36:56.041Z</time></trkpt><trkpt lat="44.982958" lon="9.7229184"><ele>85.66666666666667</ele><time>2026-04-26T16:36:57.042Z</time></trkpt><trkpt lat="44.9829176" lon="9.7232282"><ele>85.33333333333333</ele><time>2026-04-26T16:36:58.041Z</time></trkpt><trkpt lat="44.9828775" lon="9.7235383"><ele>85.0</ele><time>2026-04-26T16:36:59.041Z</time></trkpt><trkpt lat="44.9828394" lon="9.7238498"><ele>85.0</ele><time>2026-04-26T16:37:00.041Z</time></trkpt><trkpt lat="44.9828" lon="9.7241605"><ele>85.0</ele><time>2026-04-26T16:37:01.041Z</time></trkpt><trkpt lat="44.9827626" lon="9.7244723"><ele>85.0</ele><time>2026-04-26T16:37:02.042Z</time></trkpt><trkpt lat="44.9827257" lon="9.7247867"><ele>85.0</ele><time>2026-04-26T16:37:03.041Z</time></trkpt><trkpt lat="44.9826889" lon="9.7251017"><ele>85.0</ele><time>2026-04-26T16:37:04.041Z</time></trkpt><trkpt lat="44.9826522" lon="9.7254155"><ele>85.0</ele><time>2026-04-26T16:37:05.042Z</time></trkpt><trkpt lat="44.9826155" lon="9.7257304"><ele>85.0</ele><time>2026-04-26T16:37:06.042Z</time></trkpt><trkpt lat="44.9825751" lon="9.7260481"><ele>85.0</ele><time>2026-04-26T16:37:07.042Z</time></trkpt><trkpt lat="44.9825374" lon="9.726368"><ele>85.0</ele><time>2026-04-26T16:37:08.041Z</time></trkpt><trkpt lat="44.9824992" lon="9.7266898"><ele>85.0</ele><time>2026-04-26T16:37:09.043Z</time></trkpt><trkpt lat="44.9824608" lon="9.7270121"><ele>85.0</ele><time>2026-04-26T16:37:10.041Z</time></trkpt><trkpt lat="44.9824222" lon="9.7273368"><ele>85.0</ele><time>2026-04-26T16:37:11.041Z</time></trkpt><trkpt lat="44.9823822" lon="9.7276517"><ele>85.0</ele><time>2026-04-26T16:37:12.041Z</time></trkpt><trkpt lat="44.9823469" lon="9.7279458"><ele>85.0</ele><time>2026-04-26T16:37:13.041Z</time></trkpt><trkpt lat="44.9823137" lon="9.7282212"><ele>85.0</ele><time>2026-04-26T16:37:14.041Z</time></trkpt><trkpt lat="44.9822834" lon="9.7284795"><ele>85.0</ele><time>2026-04-26T16:37:15.042Z</time></trkpt><trkpt lat="44.9822537" lon="9.7287228"><ele>85.0</ele><time>2026-04-26T16:37:16.041Z</time></trkpt><trkpt lat="44.9822236" lon="9.7289524"><ele>84.75</ele><time>2026-04-26T16:37:17.041Z</time></trkpt><trkpt lat="44.9821953" lon="9.7291676"><ele>84.5</ele><time>2026-04-26T16:37:18.041Z</time></trkpt><trkpt lat="44.9821704" lon="9.7293678"><ele>84.25</ele><time>2026-04-26T16:37:19.042Z</time></trkpt><trkpt lat="44.9821484" lon="9.7295514"><ele>84.0</ele><time>2026-04-26T16:37:20.045Z</time></trkpt><trkpt lat="44.9821284" lon="9.7297111"><ele>83.5</ele><time>2026-04-26T16:37:21.043Z</time></trkpt><trkpt lat="44.9821114" lon="9.7298385"><ele>83.0</ele><time>2026-04-26T16:37:22.041Z</time></trkpt><trkpt lat="44.9820979" lon="9.7299359"><ele>82.5</ele><time>2026-04-26T16:37:23.041Z</time></trkpt><trkpt lat="44.982069" lon="9.730041"><ele>82.0</ele><time>2026-04-26T16:37:25.041Z</time></trkpt><trkpt lat="44.9819726" lon="9.7300621"><ele>81.5</ele><time>2026-04-26T16:37:28.041Z</time></trkpt><trkpt lat="44.9819112" lon="9.7300284"><ele>81.0</ele><time>2026-04-26T16:37:30.041Z</time></trkpt><trkpt lat="44.9818496" lon="9.7299991"><ele>81.0</ele><time>2026-04-26T16:37:34.041Z</time></trkpt></trkseg></trk></gpx>